<?xml version="1.0" encoding="UTF-8" standalone="no" ?>
<gpx xmlns="http://www.topografix.com/GPX/1/1" xmlns:xsi="http://www.w3.org/2001/XMLSchema-instance" xsi:schemaLocation="http://www.topografix.com/GPX/1/1 http://www.topografix.com/GPX/1/1/gpx.xsd" version="1.1" creator="VisuGPX - https://www.visugpx.com">
  <metadata>
    <name>Rando - Punta dell\'Oriente</name>
    <desc><![CDATA[Relevé terrain - Col de Vizzavona / Punta dell\'Oriente / Bergerie d\'Alzeta / Bocca Palmente / ]]></desc>
  </metadata>
  <trk>
    <name><![CDATA[2010-08-29T07:19:48Z]]></name>
    <trkseg>
      <trkpt lat="42.11242" lon="9.11279">
        <ele>1146.9899902</ele>
        <time>2010-08-29T07:20:05Z</time>
      </trkpt>
      <trkpt lat="42.11241" lon="9.11272">
        <ele>1151.3161621</ele>
        <time>2010-08-29T07:20:12Z</time>
      </trkpt>
      <trkpt lat="42.11242" lon="9.11273">
        <ele>1155.6420898</ele>
        <time>2010-08-29T07:20:32Z</time>
      </trkpt>
      <trkpt lat="42.11234" lon="9.11274">
        <ele>1158.5258789</ele>
        <time>2010-08-29T07:20:37Z</time>
      </trkpt>
      <trkpt lat="42.11228" lon="9.11272">
        <ele>1165.2553711</ele>
        <time>2010-08-29T07:20:43Z</time>
      </trkpt>
      <trkpt lat="42.11214" lon="9.11269">
        <ele>1179.6748047</ele>
        <time>2010-08-29T07:20:50Z</time>
      </trkpt>
      <trkpt lat="42.11206" lon="9.1126">
        <ele>1181.1171875</ele>
        <time>2010-08-29T07:20:56Z</time>
      </trkpt>
      <trkpt lat="42.11202" lon="9.11254">
        <ele>1179.6748047</ele>
        <time>2010-08-29T07:21:00Z</time>
      </trkpt>
      <trkpt lat="42.112" lon="9.11235">
        <ele>1173.4265137</ele>
        <time>2010-08-29T07:21:09Z</time>
      </trkpt>
      <trkpt lat="42.112" lon="9.11223">
        <ele>1172.4650879</ele>
        <time>2010-08-29T07:21:16Z</time>
      </trkpt>
      <trkpt lat="42.11202" lon="9.11219">
        <ele>1173.9069824</ele>
        <time>2010-08-29T07:21:22Z</time>
      </trkpt>
      <trkpt lat="42.11203" lon="9.11212">
        <ele>1155.161377</ele>
        <time>2010-08-29T07:22:00Z</time>
      </trkpt>
      <trkpt lat="42.11201" lon="9.11211">
        <ele>1157.5646973</ele>
        <time>2010-08-29T07:22:02Z</time>
      </trkpt>
      <trkpt lat="42.11199" lon="9.11209">
        <ele>1163.3325195</ele>
        <time>2010-08-29T07:22:09Z</time>
      </trkpt>
      <trkpt lat="42.11196" lon="9.11212">
        <ele>1173.4265137</ele>
        <time>2010-08-29T07:22:17Z</time>
      </trkpt>
      <trkpt lat="42.11197" lon="9.11217">
        <ele>1179.1940918</ele>
        <time>2010-08-29T07:22:20Z</time>
      </trkpt>
      <trkpt lat="42.11191" lon="9.11219">
        <ele>1172.9458008</ele>
        <time>2010-08-29T07:22:26Z</time>
      </trkpt>
      <trkpt lat="42.11183" lon="9.11222">
        <ele>1161.4099121</ele>
        <time>2010-08-29T07:22:33Z</time>
      </trkpt>
      <trkpt lat="42.11172" lon="9.11219">
        <ele>1164.2939453</ele>
        <time>2010-08-29T07:22:41Z</time>
      </trkpt>
      <trkpt lat="42.11166" lon="9.11216">
        <ele>1165.736084</ele>
        <time>2010-08-29T07:22:47Z</time>
      </trkpt>
      <trkpt lat="42.11162" lon="9.1122">
        <ele>1165.2553711</ele>
        <time>2010-08-29T07:22:51Z</time>
      </trkpt>
      <trkpt lat="42.11168" lon="9.11214">
        <ele>1159.0065918</ele>
        <time>2010-08-29T07:22:55Z</time>
      </trkpt>
      <trkpt lat="42.11163" lon="9.1123">
        <ele>1168.1391602</ele>
        <time>2010-08-29T07:23:00Z</time>
      </trkpt>
      <trkpt lat="42.11168" lon="9.11219">
        <ele>1163.8129883</ele>
        <time>2010-08-29T07:23:04Z</time>
      </trkpt>
      <trkpt lat="42.11173" lon="9.11211">
        <ele>1160.4484863</ele>
        <time>2010-08-29T07:23:09Z</time>
      </trkpt>
      <trkpt lat="42.11178" lon="9.11207">
        <ele>1150.3549805</ele>
        <time>2010-08-29T07:23:13Z</time>
      </trkpt>
      <trkpt lat="42.11179" lon="9.11204">
        <ele>1148.9128418</ele>
        <time>2010-08-29T07:23:14Z</time>
      </trkpt>
      <trkpt lat="42.11192" lon="9.11191">
        <ele>1141.7028809</ele>
        <time>2010-08-29T07:23:21Z</time>
      </trkpt>
      <trkpt lat="42.1119" lon="9.11191">
        <ele>1140.2609863</ele>
        <time>2010-08-29T07:23:24Z</time>
      </trkpt>
      <trkpt lat="42.11204" lon="9.1118">
        <ele>1140.7414551</ele>
        <time>2010-08-29T07:23:31Z</time>
      </trkpt>
      <trkpt lat="42.11209" lon="9.11179">
        <ele>1139.7802734</ele>
        <time>2010-08-29T07:23:35Z</time>
      </trkpt>
      <trkpt lat="42.11175" lon="9.11206">
        <ele>1140.7414551</ele>
        <time>2010-08-29T07:24:01Z</time>
      </trkpt>
      <trkpt lat="42.11179" lon="9.11198">
        <ele>1140.2609863</ele>
        <time>2010-08-29T07:24:06Z</time>
      </trkpt>
      <trkpt lat="42.11181" lon="9.11197">
        <ele>1140.7414551</ele>
        <time>2010-08-29T07:24:10Z</time>
      </trkpt>
      <trkpt lat="42.11181" lon="9.11202">
        <ele>1140.2609863</ele>
        <time>2010-08-29T07:24:15Z</time>
      </trkpt>
      <trkpt lat="42.11183" lon="9.11203">
        <ele>1143.1447754</ele>
        <time>2010-08-29T07:24:20Z</time>
      </trkpt>
      <trkpt lat="42.11184" lon="9.11202">
        <ele>1147.951416</ele>
        <time>2010-08-29T07:24:26Z</time>
      </trkpt>
      <trkpt lat="42.11179" lon="9.11207">
        <ele>1148.9128418</ele>
        <time>2010-08-29T07:24:27Z</time>
      </trkpt>
      <trkpt lat="42.11162" lon="9.11228">
        <ele>1157.0839844</ele>
        <time>2010-08-29T07:24:33Z</time>
      </trkpt>
      <trkpt lat="42.11159" lon="9.11231">
        <ele>1158.0454102</ele>
        <time>2010-08-29T07:24:34Z</time>
      </trkpt>
      <trkpt lat="42.11154" lon="9.11236">
        <ele>1161.4099121</ele>
        <time>2010-08-29T07:24:38Z</time>
      </trkpt>
      <trkpt lat="42.11139" lon="9.11245">
        <ele>1164.2939453</ele>
        <time>2010-08-29T07:24:44Z</time>
      </trkpt>
      <trkpt lat="42.11139" lon="9.11247">
        <ele>1166.2165527</ele>
        <time>2010-08-29T07:24:47Z</time>
      </trkpt>
      <trkpt lat="42.11135" lon="9.11251">
        <ele>1168.1391602</ele>
        <time>2010-08-29T07:24:51Z</time>
      </trkpt>
      <trkpt lat="42.11131" lon="9.11249">
        <ele>1165.2553711</ele>
        <time>2010-08-29T07:24:57Z</time>
      </trkpt>
      <trkpt lat="42.11136" lon="9.11238">
        <ele>1163.3325195</ele>
        <time>2010-08-29T07:25:00Z</time>
      </trkpt>
      <trkpt lat="42.11143" lon="9.11219">
        <ele>1162.3710938</ele>
        <time>2010-08-29T07:25:05Z</time>
      </trkpt>
      <trkpt lat="42.11144" lon="9.11213">
        <ele>1163.3325195</ele>
        <time>2010-08-29T07:25:10Z</time>
      </trkpt>
      <trkpt lat="42.11135" lon="9.11221">
        <ele>1157.5646973</ele>
        <time>2010-08-29T07:25:16Z</time>
      </trkpt>
      <trkpt lat="42.1112" lon="9.11247">
        <ele>1157.5646973</ele>
        <time>2010-08-29T07:25:21Z</time>
      </trkpt>
      <trkpt lat="42.11112" lon="9.11256">
        <ele>1159.9677734</ele>
        <time>2010-08-29T07:25:24Z</time>
      </trkpt>
      <trkpt lat="42.11117" lon="9.11248">
        <ele>1155.6420898</ele>
        <time>2010-08-29T07:25:29Z</time>
      </trkpt>
      <trkpt lat="42.11105" lon="9.11254">
        <ele>1155.6420898</ele>
        <time>2010-08-29T07:25:31Z</time>
      </trkpt>
      <trkpt lat="42.11074" lon="9.11269">
        <ele>1160.4484863</ele>
        <time>2010-08-29T07:25:36Z</time>
      </trkpt>
      <trkpt lat="42.11073" lon="9.11276">
        <ele>1169.5812988</ele>
        <time>2010-08-29T07:25:39Z</time>
      </trkpt>
      <trkpt lat="42.11071" lon="9.11282">
        <ele>1174.3876953</ele>
        <time>2010-08-29T07:25:42Z</time>
      </trkpt>
      <trkpt lat="42.11065" lon="9.113">
        <ele>1188.8076172</ele>
        <time>2010-08-29T07:25:49Z</time>
      </trkpt>
      <trkpt lat="42.11063" lon="9.11313">
        <ele>1191.6914062</ele>
        <time>2010-08-29T07:25:56Z</time>
      </trkpt>
      <trkpt lat="42.11062" lon="9.11321">
        <ele>1192.652832</ele>
        <time>2010-08-29T07:26:05Z</time>
      </trkpt>
      <trkpt lat="42.11047" lon="9.11333">
        <ele>1196.498291</ele>
        <time>2010-08-29T07:26:28Z</time>
      </trkpt>
      <trkpt lat="42.11039" lon="9.11345">
        <ele>1198.4206543</ele>
        <time>2010-08-29T07:26:34Z</time>
      </trkpt>
      <trkpt lat="42.11036" lon="9.11349">
        <ele>1199.862793</ele>
        <time>2010-08-29T07:26:40Z</time>
      </trkpt>
      <trkpt lat="42.11028" lon="9.11358">
        <ele>1213.8017578</ele>
        <time>2010-08-29T07:26:45Z</time>
      </trkpt>
      <trkpt lat="42.11025" lon="9.11361">
        <ele>1208.0339355</ele>
        <time>2010-08-29T07:26:51Z</time>
      </trkpt>
      <trkpt lat="42.11023" lon="9.11366">
        <ele>1213.3212891</ele>
        <time>2010-08-29T07:26:55Z</time>
      </trkpt>
      <trkpt lat="42.11016" lon="9.11361">
        <ele>1214.7631836</ele>
        <time>2010-08-29T07:27:02Z</time>
      </trkpt>
      <trkpt lat="42.11007" lon="9.11365">
        <ele>1221.4921875</ele>
        <time>2010-08-29T07:27:08Z</time>
      </trkpt>
      <trkpt lat="42.10996" lon="9.11371">
        <ele>1229.6635742</ele>
        <time>2010-08-29T07:27:14Z</time>
      </trkpt>
      <trkpt lat="42.10992" lon="9.11385">
        <ele>1227.2602539</ele>
        <time>2010-08-29T07:27:21Z</time>
      </trkpt>
      <trkpt lat="42.10992" lon="9.11389">
        <ele>1221.0117188</ele>
        <time>2010-08-29T07:27:27Z</time>
      </trkpt>
      <trkpt lat="42.10989" lon="9.11391">
        <ele>1209.4758301</ele>
        <time>2010-08-29T07:27:34Z</time>
      </trkpt>
      <trkpt lat="42.10985" lon="9.11398">
        <ele>1201.3046875</ele>
        <time>2010-08-29T07:27:40Z</time>
      </trkpt>
      <trkpt lat="42.10974" lon="9.11413">
        <ele>1200.3435059</ele>
        <time>2010-08-29T07:27:52Z</time>
      </trkpt>
      <trkpt lat="42.10968" lon="9.11419">
        <ele>1203.7080078</ele>
        <time>2010-08-29T07:27:56Z</time>
      </trkpt>
      <trkpt lat="42.10965" lon="9.11425">
        <ele>1207.0725098</ele>
        <time>2010-08-29T07:28:00Z</time>
      </trkpt>
      <trkpt lat="42.10961" lon="9.11435">
        <ele>1210.9177246</ele>
        <time>2010-08-29T07:28:05Z</time>
      </trkpt>
      <trkpt lat="42.10954" lon="9.11442">
        <ele>1208.0339355</ele>
        <time>2010-08-29T07:28:13Z</time>
      </trkpt>
      <trkpt lat="42.10944" lon="9.11444">
        <ele>1215.7246094</ele>
        <time>2010-08-29T07:28:22Z</time>
      </trkpt>
      <trkpt lat="42.10941" lon="9.11444">
        <ele>1210.9177246</ele>
        <time>2010-08-29T07:28:28Z</time>
      </trkpt>
      <trkpt lat="42.10933" lon="9.11448">
        <ele>1208.5144043</ele>
        <time>2010-08-29T07:28:34Z</time>
      </trkpt>
      <trkpt lat="42.10924" lon="9.1145">
        <ele>1209.4758301</ele>
        <time>2010-08-29T07:28:44Z</time>
      </trkpt>
      <trkpt lat="42.10917" lon="9.11456">
        <ele>1210.9177246</ele>
        <time>2010-08-29T07:28:51Z</time>
      </trkpt>
      <trkpt lat="42.10909" lon="9.11461">
        <ele>1213.3212891</ele>
        <time>2010-08-29T07:28:59Z</time>
      </trkpt>
      <trkpt lat="42.10906" lon="9.11464">
        <ele>1216.685791</ele>
        <time>2010-08-29T07:29:05Z</time>
      </trkpt>
      <trkpt lat="42.10897" lon="9.11471">
        <ele>1219.0891113</ele>
        <time>2010-08-29T07:29:13Z</time>
      </trkpt>
      <trkpt lat="42.10896" lon="9.11473">
        <ele>1219.5698242</ele>
        <time>2010-08-29T07:29:19Z</time>
      </trkpt>
      <trkpt lat="42.10902" lon="9.1147">
        <ele>1215.2438965</ele>
        <time>2010-08-29T07:29:28Z</time>
      </trkpt>
      <trkpt lat="42.10897" lon="9.11474">
        <ele>1219.0891113</ele>
        <time>2010-08-29T07:29:34Z</time>
      </trkpt>
      <trkpt lat="42.10896" lon="9.11479">
        <ele>1208.9951172</ele>
        <time>2010-08-29T07:29:50Z</time>
      </trkpt>
      <trkpt lat="42.10899" lon="9.11475">
        <ele>1212.8405762</ele>
        <time>2010-08-29T07:30:15Z</time>
      </trkpt>
      <trkpt lat="42.10896" lon="9.11475">
        <ele>1212.8405762</ele>
        <time>2010-08-29T07:30:21Z</time>
      </trkpt>
      <trkpt lat="42.10896" lon="9.11475">
        <ele>1213.8017578</ele>
        <time>2010-08-29T07:30:27Z</time>
      </trkpt>
      <trkpt lat="42.10894" lon="9.11478">
        <ele>1213.8017578</ele>
        <time>2010-08-29T07:30:33Z</time>
      </trkpt>
      <trkpt lat="42.10895" lon="9.11481">
        <ele>1213.3212891</ele>
        <time>2010-08-29T07:30:36Z</time>
      </trkpt>
      <trkpt lat="42.10899" lon="9.11485">
        <ele>1215.2438965</ele>
        <time>2010-08-29T07:30:43Z</time>
      </trkpt>
      <trkpt lat="42.10903" lon="9.11487">
        <ele>1222.4536133</ele>
        <time>2010-08-29T07:30:49Z</time>
      </trkpt>
      <trkpt lat="42.10909" lon="9.11488">
        <ele>1229.1828613</ele>
        <time>2010-08-29T07:30:59Z</time>
      </trkpt>
      <trkpt lat="42.1091" lon="9.11494">
        <ele>1228.7023926</ele>
        <time>2010-08-29T07:31:05Z</time>
      </trkpt>
      <trkpt lat="42.10909" lon="9.115">
        <ele>1222.9343262</ele>
        <time>2010-08-29T07:31:15Z</time>
      </trkpt>
      <trkpt lat="42.10912" lon="9.11499">
        <ele>1223.4150391</ele>
        <time>2010-08-29T07:31:22Z</time>
      </trkpt>
      <trkpt lat="42.10912" lon="9.11506">
        <ele>1214.7631836</ele>
        <time>2010-08-29T07:31:27Z</time>
      </trkpt>
      <trkpt lat="42.10914" lon="9.11506">
        <ele>1216.2050781</ele>
        <time>2010-08-29T07:31:31Z</time>
      </trkpt>
      <trkpt lat="42.10907" lon="9.11509">
        <ele>1221.0117188</ele>
        <time>2010-08-29T07:31:38Z</time>
      </trkpt>
      <trkpt lat="42.10904" lon="9.11511">
        <ele>1228.7023926</ele>
        <time>2010-08-29T07:31:44Z</time>
      </trkpt>
      <trkpt lat="42.10902" lon="9.11514">
        <ele>1231.1057129</ele>
        <time>2010-08-29T07:31:50Z</time>
      </trkpt>
      <trkpt lat="42.10899" lon="9.11514">
        <ele>1236.873291</ele>
        <time>2010-08-29T07:31:57Z</time>
      </trkpt>
      <trkpt lat="42.10893" lon="9.11517">
        <ele>1236.873291</ele>
        <time>2010-08-29T07:32:03Z</time>
      </trkpt>
      <trkpt lat="42.10889" lon="9.11521">
        <ele>1234.9509277</ele>
        <time>2010-08-29T07:32:09Z</time>
      </trkpt>
      <trkpt lat="42.10883" lon="9.11529">
        <ele>1231.5861816</ele>
        <time>2010-08-29T07:32:16Z</time>
      </trkpt>
      <trkpt lat="42.10885" lon="9.11533">
        <ele>1232.0668945</ele>
        <time>2010-08-29T07:32:24Z</time>
      </trkpt>
      <trkpt lat="42.10887" lon="9.11537">
        <ele>1233.989502</ele>
        <time>2010-08-29T07:32:29Z</time>
      </trkpt>
      <trkpt lat="42.10891" lon="9.11541">
        <ele>1236.873291</ele>
        <time>2010-08-29T07:32:36Z</time>
      </trkpt>
      <trkpt lat="42.10893" lon="9.1155">
        <ele>1239.2766113</ele>
        <time>2010-08-29T07:32:49Z</time>
      </trkpt>
      <trkpt lat="42.10892" lon="9.11552">
        <ele>1243.1218262</ele>
        <time>2010-08-29T07:32:56Z</time>
      </trkpt>
      <trkpt lat="42.1089" lon="9.11553">
        <ele>1246.4868164</ele>
        <time>2010-08-29T07:33:01Z</time>
      </trkpt>
      <trkpt lat="42.10888" lon="9.1156">
        <ele>1254.1772461</ele>
        <time>2010-08-29T07:33:14Z</time>
      </trkpt>
      <trkpt lat="42.10879" lon="9.11562">
        <ele>1249.8513184</ele>
        <time>2010-08-29T07:33:24Z</time>
      </trkpt>
      <trkpt lat="42.10873" lon="9.11567">
        <ele>1242.6413574</ele>
        <time>2010-08-29T07:33:30Z</time>
      </trkpt>
      <trkpt lat="42.10872" lon="9.11569">
        <ele>1240.2380371</ele>
        <time>2010-08-29T07:33:34Z</time>
      </trkpt>
      <trkpt lat="42.10874" lon="9.11566">
        <ele>1242.1606445</ele>
        <time>2010-08-29T07:33:42Z</time>
      </trkpt>
      <trkpt lat="42.10877" lon="9.11565">
        <ele>1250.3320312</ele>
        <time>2010-08-29T07:33:47Z</time>
      </trkpt>
      <trkpt lat="42.10879" lon="9.11568">
        <ele>1252.2543945</ele>
        <time>2010-08-29T07:33:53Z</time>
      </trkpt>
      <trkpt lat="42.10882" lon="9.11584">
        <ele>1253.6965332</ele>
        <time>2010-08-29T07:34:08Z</time>
      </trkpt>
      <trkpt lat="42.10883" lon="9.11589">
        <ele>1254.1772461</ele>
        <time>2010-08-29T07:34:17Z</time>
      </trkpt>
      <trkpt lat="42.10888" lon="9.11602">
        <ele>1255.6191406</ele>
        <time>2010-08-29T07:34:28Z</time>
      </trkpt>
      <trkpt lat="42.1089" lon="9.11615">
        <ele>1267.1550293</ele>
        <time>2010-08-29T07:34:44Z</time>
      </trkpt>
      <trkpt lat="42.10893" lon="9.11622">
        <ele>1269.0776367</ele>
        <time>2010-08-29T07:34:53Z</time>
      </trkpt>
      <trkpt lat="42.10891" lon="9.1162">
        <ele>1274.3647461</ele>
        <time>2010-08-29T07:35:00Z</time>
      </trkpt>
      <trkpt lat="42.10886" lon="9.1162">
        <ele>1277.7294922</ele>
        <time>2010-08-29T07:35:10Z</time>
      </trkpt>
      <trkpt lat="42.10879" lon="9.1162">
        <ele>1280.6135254</ele>
        <time>2010-08-29T07:35:29Z</time>
      </trkpt>
      <trkpt lat="42.10877" lon="9.1162">
        <ele>1279.1713867</ele>
        <time>2010-08-29T07:35:34Z</time>
      </trkpt>
      <trkpt lat="42.10872" lon="9.11617">
        <ele>1283.0166016</ele>
        <time>2010-08-29T07:35:43Z</time>
      </trkpt>
      <trkpt lat="42.10862" lon="9.11616">
        <ele>1280.1328125</ele>
        <time>2010-08-29T07:35:56Z</time>
      </trkpt>
      <trkpt lat="42.10854" lon="9.11615">
        <ele>1282.0554199</ele>
        <time>2010-08-29T07:36:09Z</time>
      </trkpt>
      <trkpt lat="42.10849" lon="9.11615">
        <ele>1279.6520996</ele>
        <time>2010-08-29T07:36:13Z</time>
      </trkpt>
      <trkpt lat="42.10835" lon="9.11613">
        <ele>1281.574707</ele>
        <time>2010-08-29T07:36:25Z</time>
      </trkpt>
      <trkpt lat="42.10833" lon="9.11617">
        <ele>1283.4973145</ele>
        <time>2010-08-29T07:36:34Z</time>
      </trkpt>
      <trkpt lat="42.10834" lon="9.11626">
        <ele>1278.690918</ele>
        <time>2010-08-29T07:36:40Z</time>
      </trkpt>
      <trkpt lat="42.10836" lon="9.11631">
        <ele>1275.8066406</ele>
        <time>2010-08-29T07:36:47Z</time>
      </trkpt>
      <trkpt lat="42.10837" lon="9.11636">
        <ele>1276.2875977</ele>
        <time>2010-08-29T07:36:53Z</time>
      </trkpt>
      <trkpt lat="42.10839" lon="9.1164">
        <ele>1275.8066406</ele>
        <time>2010-08-29T07:36:58Z</time>
      </trkpt>
      <trkpt lat="42.10842" lon="9.11642">
        <ele>1275.8066406</ele>
        <time>2010-08-29T07:37:03Z</time>
      </trkpt>
      <trkpt lat="42.10843" lon="9.11648">
        <ele>1274.3647461</ele>
        <time>2010-08-29T07:37:08Z</time>
      </trkpt>
      <trkpt lat="42.10846" lon="9.11655">
        <ele>1274.845459</ele>
        <time>2010-08-29T07:37:15Z</time>
      </trkpt>
      <trkpt lat="42.10846" lon="9.1166">
        <ele>1274.3647461</ele>
        <time>2010-08-29T07:37:20Z</time>
      </trkpt>
      <trkpt lat="42.10846" lon="9.11665">
        <ele>1277.2490234</ele>
        <time>2010-08-29T07:37:29Z</time>
      </trkpt>
      <trkpt lat="42.10845" lon="9.11661">
        <ele>1278.690918</ele>
        <time>2010-08-29T07:37:35Z</time>
      </trkpt>
      <trkpt lat="42.10841" lon="9.11658">
        <ele>1282.5361328</ele>
        <time>2010-08-29T07:37:41Z</time>
      </trkpt>
      <trkpt lat="42.10839" lon="9.11659">
        <ele>1281.574707</ele>
        <time>2010-08-29T07:37:54Z</time>
      </trkpt>
      <trkpt lat="42.10834" lon="9.11657">
        <ele>1274.845459</ele>
        <time>2010-08-29T07:38:37Z</time>
      </trkpt>
      <trkpt lat="42.10832" lon="9.11658">
        <ele>1287.3425293</ele>
        <time>2010-08-29T07:39:10Z</time>
      </trkpt>
      <trkpt lat="42.10831" lon="9.11647">
        <ele>1286.3813477</ele>
        <time>2010-08-29T07:39:43Z</time>
      </trkpt>
      <trkpt lat="42.10836" lon="9.11657">
        <ele>1283.9780273</ele>
        <time>2010-08-29T07:40:01Z</time>
      </trkpt>
      <trkpt lat="42.10833" lon="9.11655">
        <ele>1292.1494141</ele>
        <time>2010-08-29T07:40:11Z</time>
      </trkpt>
      <trkpt lat="42.10827" lon="9.11658">
        <ele>1288.784668</ele>
        <time>2010-08-29T07:40:17Z</time>
      </trkpt>
      <trkpt lat="42.10823" lon="9.11663">
        <ele>1295.513916</ele>
        <time>2010-08-29T07:40:34Z</time>
      </trkpt>
      <trkpt lat="42.10825" lon="9.11674">
        <ele>1294.5524902</ele>
        <time>2010-08-29T07:40:43Z</time>
      </trkpt>
      <trkpt lat="42.10831" lon="9.11681">
        <ele>1290.2265625</ele>
        <time>2010-08-29T07:40:50Z</time>
      </trkpt>
      <trkpt lat="42.10834" lon="9.11687">
        <ele>1289.2651367</ele>
        <time>2010-08-29T07:40:56Z</time>
      </trkpt>
      <trkpt lat="42.10836" lon="9.11689">
        <ele>1292.1494141</ele>
        <time>2010-08-29T07:41:03Z</time>
      </trkpt>
      <trkpt lat="42.10841" lon="9.11695">
        <ele>1289.2651367</ele>
        <time>2010-08-29T07:41:11Z</time>
      </trkpt>
      <trkpt lat="42.10842" lon="9.11701">
        <ele>1290.7070312</ele>
        <time>2010-08-29T07:41:16Z</time>
      </trkpt>
      <trkpt lat="42.10846" lon="9.11702">
        <ele>1290.2265625</ele>
        <time>2010-08-29T07:41:18Z</time>
      </trkpt>
      <trkpt lat="42.1085" lon="9.11703">
        <ele>1284.9394531</ele>
        <time>2010-08-29T07:41:24Z</time>
      </trkpt>
      <trkpt lat="42.10853" lon="9.11709">
        <ele>1274.845459</ele>
        <time>2010-08-29T07:41:29Z</time>
      </trkpt>
      <trkpt lat="42.10858" lon="9.11711">
        <ele>1268.1162109</ele>
        <time>2010-08-29T07:41:34Z</time>
      </trkpt>
      <trkpt lat="42.1086" lon="9.1171">
        <ele>1269.0776367</ele>
        <time>2010-08-29T07:41:39Z</time>
      </trkpt>
      <trkpt lat="42.10865" lon="9.1171">
        <ele>1278.690918</ele>
        <time>2010-08-29T07:41:46Z</time>
      </trkpt>
      <trkpt lat="42.10867" lon="9.11712">
        <ele>1273.8840332</ele>
        <time>2010-08-29T07:41:51Z</time>
      </trkpt>
      <trkpt lat="42.10873" lon="9.11714">
        <ele>1280.1328125</ele>
        <time>2010-08-29T07:41:56Z</time>
      </trkpt>
      <trkpt lat="42.10878" lon="9.11715">
        <ele>1280.6135254</ele>
        <time>2010-08-29T07:42:00Z</time>
      </trkpt>
      <trkpt lat="42.10882" lon="9.1172">
        <ele>1285.9006348</ele>
        <time>2010-08-29T07:42:06Z</time>
      </trkpt>
      <trkpt lat="42.10886" lon="9.11729">
        <ele>1285.4199219</ele>
        <time>2010-08-29T07:42:13Z</time>
      </trkpt>
      <trkpt lat="42.10887" lon="9.11731">
        <ele>1289.2651367</ele>
        <time>2010-08-29T07:42:18Z</time>
      </trkpt>
      <trkpt lat="42.10891" lon="9.11733">
        <ele>1293.1105957</ele>
        <time>2010-08-29T07:42:23Z</time>
      </trkpt>
      <trkpt lat="42.10896" lon="9.11739">
        <ele>1291.1877441</ele>
        <time>2010-08-29T07:42:30Z</time>
      </trkpt>
      <trkpt lat="42.109" lon="9.1174">
        <ele>1286.8618164</ele>
        <time>2010-08-29T07:42:34Z</time>
      </trkpt>
      <trkpt lat="42.10918" lon="9.11748">
        <ele>1284.4587402</ele>
        <time>2010-08-29T07:42:41Z</time>
      </trkpt>
      <trkpt lat="42.10928" lon="9.11751">
        <ele>1279.6520996</ele>
        <time>2010-08-29T07:42:49Z</time>
      </trkpt>
      <trkpt lat="42.10933" lon="9.11755">
        <ele>1277.7294922</ele>
        <time>2010-08-29T07:42:56Z</time>
      </trkpt>
      <trkpt lat="42.10937" lon="9.11758">
        <ele>1272.4421387</ele>
        <time>2010-08-29T07:43:03Z</time>
      </trkpt>
      <trkpt lat="42.10943" lon="9.11762">
        <ele>1266.6743164</ele>
        <time>2010-08-29T07:43:13Z</time>
      </trkpt>
      <trkpt lat="42.10937" lon="9.11763">
        <ele>1260.4257812</ele>
        <time>2010-08-29T07:43:22Z</time>
      </trkpt>
      <trkpt lat="42.1094" lon="9.11761">
        <ele>1266.6743164</ele>
        <time>2010-08-29T07:43:29Z</time>
      </trkpt>
      <trkpt lat="42.10944" lon="9.11764">
        <ele>1272.9228516</ele>
        <time>2010-08-29T07:43:35Z</time>
      </trkpt>
      <trkpt lat="42.10948" lon="9.11767">
        <ele>1274.845459</ele>
        <time>2010-08-29T07:43:42Z</time>
      </trkpt>
      <trkpt lat="42.10953" lon="9.11772">
        <ele>1272.9228516</ele>
        <time>2010-08-29T07:43:48Z</time>
      </trkpt>
      <trkpt lat="42.1096" lon="9.11779">
        <ele>1273.8840332</ele>
        <time>2010-08-29T07:43:55Z</time>
      </trkpt>
      <trkpt lat="42.1096" lon="9.11777">
        <ele>1278.2102051</ele>
        <time>2010-08-29T07:44:01Z</time>
      </trkpt>
      <trkpt lat="42.10964" lon="9.11781">
        <ele>1281.0942383</ele>
        <time>2010-08-29T07:44:08Z</time>
      </trkpt>
      <trkpt lat="42.1097" lon="9.11788">
        <ele>1281.0942383</ele>
        <time>2010-08-29T07:44:14Z</time>
      </trkpt>
      <trkpt lat="42.10977" lon="9.11798">
        <ele>1276.7683105</ele>
        <time>2010-08-29T07:44:22Z</time>
      </trkpt>
      <trkpt lat="42.10983" lon="9.11806">
        <ele>1278.2102051</ele>
        <time>2010-08-29T07:44:28Z</time>
      </trkpt>
      <trkpt lat="42.10985" lon="9.11814">
        <ele>1273.8840332</ele>
        <time>2010-08-29T07:44:35Z</time>
      </trkpt>
      <trkpt lat="42.10996" lon="9.11819">
        <ele>1278.690918</ele>
        <time>2010-08-29T07:44:47Z</time>
      </trkpt>
      <trkpt lat="42.10999" lon="9.11821">
        <ele>1279.6520996</ele>
        <time>2010-08-29T07:44:57Z</time>
      </trkpt>
      <trkpt lat="42.10987" lon="9.11818">
        <ele>1268.1162109</ele>
        <time>2010-08-29T07:45:39Z</time>
      </trkpt>
      <trkpt lat="42.10977" lon="9.11823">
        <ele>1256.5803223</ele>
        <time>2010-08-29T07:45:57Z</time>
      </trkpt>
      <trkpt lat="42.1098" lon="9.11825">
        <ele>1258.0224609</ele>
        <time>2010-08-29T07:45:59Z</time>
      </trkpt>
      <trkpt lat="42.10974" lon="9.11826">
        <ele>1262.3483887</ele>
        <time>2010-08-29T07:46:04Z</time>
      </trkpt>
      <trkpt lat="42.10976" lon="9.11826">
        <ele>1263.7902832</ele>
        <time>2010-08-29T07:46:06Z</time>
      </trkpt>
      <trkpt lat="42.10993" lon="9.11824">
        <ele>1282.5361328</ele>
        <time>2010-08-29T07:46:13Z</time>
      </trkpt>
      <trkpt lat="42.10992" lon="9.11821">
        <ele>1294.0720215</ele>
        <time>2010-08-29T07:46:24Z</time>
      </trkpt>
      <trkpt lat="42.10999" lon="9.11821">
        <ele>1291.1877441</ele>
        <time>2010-08-29T07:46:36Z</time>
      </trkpt>
      <trkpt lat="42.10996" lon="9.11822">
        <ele>1283.0166016</ele>
        <time>2010-08-29T07:47:02Z</time>
      </trkpt>
      <trkpt lat="42.10995" lon="9.11827">
        <ele>1278.2102051</ele>
        <time>2010-08-29T07:47:09Z</time>
      </trkpt>
      <trkpt lat="42.10996" lon="9.11833">
        <ele>1279.1713867</ele>
        <time>2010-08-29T07:47:13Z</time>
      </trkpt>
      <trkpt lat="42.11003" lon="9.11846">
        <ele>1284.9394531</ele>
        <time>2010-08-29T07:47:20Z</time>
      </trkpt>
      <trkpt lat="42.11008" lon="9.11856">
        <ele>1288.784668</ele>
        <time>2010-08-29T07:47:25Z</time>
      </trkpt>
      <trkpt lat="42.11017" lon="9.11868">
        <ele>1292.1494141</ele>
        <time>2010-08-29T07:47:33Z</time>
      </trkpt>
      <trkpt lat="42.11017" lon="9.11879">
        <ele>1294.0720215</ele>
        <time>2010-08-29T07:47:40Z</time>
      </trkpt>
      <trkpt lat="42.1102" lon="9.11887">
        <ele>1295.0332031</ele>
        <time>2010-08-29T07:47:46Z</time>
      </trkpt>
      <trkpt lat="42.11017" lon="9.11897">
        <ele>1296.9558105</ele>
        <time>2010-08-29T07:47:54Z</time>
      </trkpt>
      <trkpt lat="42.11014" lon="9.11909">
        <ele>1298.878418</ele>
        <time>2010-08-29T07:48:00Z</time>
      </trkpt>
      <trkpt lat="42.11008" lon="9.11916">
        <ele>1297.4365234</ele>
        <time>2010-08-29T07:48:06Z</time>
      </trkpt>
      <trkpt lat="42.11008" lon="9.11929">
        <ele>1295.9946289</ele>
        <time>2010-08-29T07:48:13Z</time>
      </trkpt>
      <trkpt lat="42.10999" lon="9.11931">
        <ele>1285.4199219</ele>
        <time>2010-08-29T07:48:27Z</time>
      </trkpt>
      <trkpt lat="42.11" lon="9.11915">
        <ele>1291.1877441</ele>
        <time>2010-08-29T07:48:40Z</time>
      </trkpt>
      <trkpt lat="42.11004" lon="9.11906">
        <ele>1296.4753418</ele>
        <time>2010-08-29T07:48:48Z</time>
      </trkpt>
      <trkpt lat="42.11004" lon="9.11899">
        <ele>1297.9172363</ele>
        <time>2010-08-29T07:48:52Z</time>
      </trkpt>
      <trkpt lat="42.11004" lon="9.11891">
        <ele>1295.9946289</ele>
        <time>2010-08-29T07:48:57Z</time>
      </trkpt>
      <trkpt lat="42.11006" lon="9.11879">
        <ele>1297.9172363</ele>
        <time>2010-08-29T07:49:06Z</time>
      </trkpt>
      <trkpt lat="42.11005" lon="9.11872">
        <ele>1297.9172363</ele>
        <time>2010-08-29T07:49:09Z</time>
      </trkpt>
      <trkpt lat="42.11001" lon="9.11856">
        <ele>1295.513916</ele>
        <time>2010-08-29T07:49:18Z</time>
      </trkpt>
      <trkpt lat="42.10996" lon="9.11837">
        <ele>1284.4587402</ele>
        <time>2010-08-29T07:49:27Z</time>
      </trkpt>
      <trkpt lat="42.10991" lon="9.11824">
        <ele>1282.5361328</ele>
        <time>2010-08-29T07:49:34Z</time>
      </trkpt>
      <trkpt lat="42.10984" lon="9.11813">
        <ele>1280.1328125</ele>
        <time>2010-08-29T07:49:41Z</time>
      </trkpt>
      <trkpt lat="42.10975" lon="9.11801">
        <ele>1273.8840332</ele>
        <time>2010-08-29T07:49:49Z</time>
      </trkpt>
      <trkpt lat="42.10971" lon="9.11791">
        <ele>1281.0942383</ele>
        <time>2010-08-29T07:49:58Z</time>
      </trkpt>
      <trkpt lat="42.10966" lon="9.11786">
        <ele>1282.5361328</ele>
        <time>2010-08-29T07:50:05Z</time>
      </trkpt>
      <trkpt lat="42.10961" lon="9.11779">
        <ele>1282.0554199</ele>
        <time>2010-08-29T07:50:11Z</time>
      </trkpt>
      <trkpt lat="42.10957" lon="9.11771">
        <ele>1286.8618164</ele>
        <time>2010-08-29T07:50:18Z</time>
      </trkpt>
      <trkpt lat="42.10953" lon="9.11766">
        <ele>1292.1494141</ele>
        <time>2010-08-29T07:50:24Z</time>
      </trkpt>
      <trkpt lat="42.10953" lon="9.11762">
        <ele>1291.668457</ele>
        <time>2010-08-29T07:50:30Z</time>
      </trkpt>
      <trkpt lat="42.10946" lon="9.11756">
        <ele>1296.4753418</ele>
        <time>2010-08-29T07:50:37Z</time>
      </trkpt>
      <trkpt lat="42.1094" lon="9.11752">
        <ele>1299.3591309</ele>
        <time>2010-08-29T07:50:44Z</time>
      </trkpt>
      <trkpt lat="42.10936" lon="9.1175">
        <ele>1306.0881348</ele>
        <time>2010-08-29T07:50:50Z</time>
      </trkpt>
      <trkpt lat="42.10931" lon="9.11748">
        <ele>1308.0112305</ele>
        <time>2010-08-29T07:50:57Z</time>
      </trkpt>
      <trkpt lat="42.10923" lon="9.11741">
        <ele>1311.3757324</ele>
        <time>2010-08-29T07:51:03Z</time>
      </trkpt>
      <trkpt lat="42.10919" lon="9.11739">
        <ele>1309.9335938</ele>
        <time>2010-08-29T07:51:05Z</time>
      </trkpt>
      <trkpt lat="42.10911" lon="9.11733">
        <ele>1308.0112305</ele>
        <time>2010-08-29T07:51:13Z</time>
      </trkpt>
      <trkpt lat="42.10908" lon="9.11728">
        <ele>1307.5302734</ele>
        <time>2010-08-29T07:51:17Z</time>
      </trkpt>
      <trkpt lat="42.10904" lon="9.11721">
        <ele>1306.5688477</ele>
        <time>2010-08-29T07:51:24Z</time>
      </trkpt>
      <trkpt lat="42.10898" lon="9.11711">
        <ele>1311.3757324</ele>
        <time>2010-08-29T07:51:30Z</time>
      </trkpt>
      <trkpt lat="42.10893" lon="9.1171">
        <ele>1313.2983398</ele>
        <time>2010-08-29T07:51:36Z</time>
      </trkpt>
      <trkpt lat="42.10888" lon="9.11706">
        <ele>1314.2595215</ele>
        <time>2010-08-29T07:51:43Z</time>
      </trkpt>
      <trkpt lat="42.10885" lon="9.11702">
        <ele>1315.2209473</ele>
        <time>2010-08-29T07:51:48Z</time>
      </trkpt>
      <trkpt lat="42.1088" lon="9.11704">
        <ele>1313.2983398</ele>
        <time>2010-08-29T07:51:53Z</time>
      </trkpt>
      <trkpt lat="42.10874" lon="9.11708">
        <ele>1307.5302734</ele>
        <time>2010-08-29T07:51:59Z</time>
      </trkpt>
      <trkpt lat="42.10869" lon="9.1171">
        <ele>1308.4916992</ele>
        <time>2010-08-29T07:52:05Z</time>
      </trkpt>
      <trkpt lat="42.10865" lon="9.11711">
        <ele>1308.0112305</ele>
        <time>2010-08-29T07:52:10Z</time>
      </trkpt>
      <trkpt lat="42.10864" lon="9.11704">
        <ele>1306.5688477</ele>
        <time>2010-08-29T07:52:17Z</time>
      </trkpt>
      <trkpt lat="42.10864" lon="9.11706">
        <ele>1300.8010254</ele>
        <time>2010-08-29T07:52:25Z</time>
      </trkpt>
      <trkpt lat="42.10861" lon="9.11707">
        <ele>1298.3977051</ele>
        <time>2010-08-29T07:52:31Z</time>
      </trkpt>
      <trkpt lat="42.10864" lon="9.1171">
        <ele>1295.9946289</ele>
        <time>2010-08-29T07:52:36Z</time>
      </trkpt>
      <trkpt lat="42.10864" lon="9.11716">
        <ele>1289.2651367</ele>
        <time>2010-08-29T07:52:44Z</time>
      </trkpt>
      <trkpt lat="42.1086" lon="9.11713">
        <ele>1292.1494141</ele>
        <time>2010-08-29T07:52:47Z</time>
      </trkpt>
      <trkpt lat="42.10845" lon="9.11705">
        <ele>1287.8232422</ele>
        <time>2010-08-29T07:52:55Z</time>
      </trkpt>
      <trkpt lat="42.10841" lon="9.11699">
        <ele>1288.784668</ele>
        <time>2010-08-29T07:53:01Z</time>
      </trkpt>
      <trkpt lat="42.10839" lon="9.11693">
        <ele>1293.5913086</ele>
        <time>2010-08-29T07:53:07Z</time>
      </trkpt>
      <trkpt lat="42.10838" lon="9.11689">
        <ele>1301.2817383</ele>
        <time>2010-08-29T07:53:12Z</time>
      </trkpt>
      <trkpt lat="42.10839" lon="9.11676">
        <ele>1308.0112305</ele>
        <time>2010-08-29T07:53:19Z</time>
      </trkpt>
      <trkpt lat="42.10834" lon="9.11667">
        <ele>1299.3591309</ele>
        <time>2010-08-29T07:53:25Z</time>
      </trkpt>
      <trkpt lat="42.10824" lon="9.11663">
        <ele>1295.9946289</ele>
        <time>2010-08-29T07:53:31Z</time>
      </trkpt>
      <trkpt lat="42.10819" lon="9.11658">
        <ele>1290.2265625</ele>
        <time>2010-08-29T07:53:40Z</time>
      </trkpt>
      <trkpt lat="42.10815" lon="9.11654">
        <ele>1294.0720215</ele>
        <time>2010-08-29T07:53:56Z</time>
      </trkpt>
      <trkpt lat="42.10813" lon="9.11659">
        <ele>1291.668457</ele>
        <time>2010-08-29T07:54:07Z</time>
      </trkpt>
      <trkpt lat="42.1081" lon="9.11658">
        <ele>1298.3977051</ele>
        <time>2010-08-29T07:54:13Z</time>
      </trkpt>
      <trkpt lat="42.10807" lon="9.11653">
        <ele>1305.607666</ele>
        <time>2010-08-29T07:54:20Z</time>
      </trkpt>
      <trkpt lat="42.10804" lon="9.11652">
        <ele>1308.0112305</ele>
        <time>2010-08-29T07:54:26Z</time>
      </trkpt>
      <trkpt lat="42.10798" lon="9.11654">
        <ele>1310.4143066</ele>
        <time>2010-08-29T07:54:35Z</time>
      </trkpt>
      <trkpt lat="42.10789" lon="9.11652">
        <ele>1312.817627</ele>
        <time>2010-08-29T07:54:43Z</time>
      </trkpt>
      <trkpt lat="42.10786" lon="9.11649">
        <ele>1319.0661621</ele>
        <time>2010-08-29T07:54:51Z</time>
      </trkpt>
      <trkpt lat="42.10781" lon="9.11645">
        <ele>1324.8342285</ele>
        <time>2010-08-29T07:55:01Z</time>
      </trkpt>
      <trkpt lat="42.10777" lon="9.11645">
        <ele>1323.3920898</ele>
        <time>2010-08-29T07:55:08Z</time>
      </trkpt>
      <trkpt lat="42.10773" lon="9.11646">
        <ele>1321.4692383</ele>
        <time>2010-08-29T07:55:16Z</time>
      </trkpt>
      <trkpt lat="42.10767" lon="9.11648">
        <ele>1322.4306641</ele>
        <time>2010-08-29T07:55:26Z</time>
      </trkpt>
      <trkpt lat="42.10765" lon="9.11648">
        <ele>1324.8342285</ele>
        <time>2010-08-29T07:55:34Z</time>
      </trkpt>
      <trkpt lat="42.10758" lon="9.11644">
        <ele>1320.9887695</ele>
        <time>2010-08-29T07:55:44Z</time>
      </trkpt>
      <trkpt lat="42.10751" lon="9.11646">
        <ele>1317.6240234</ele>
        <time>2010-08-29T07:55:50Z</time>
      </trkpt>
      <trkpt lat="42.10744" lon="9.11647">
        <ele>1308.9724121</ele>
        <time>2010-08-29T07:55:56Z</time>
      </trkpt>
      <trkpt lat="42.10742" lon="9.11646">
        <ele>1310.4143066</ele>
        <time>2010-08-29T07:55:59Z</time>
      </trkpt>
      <trkpt lat="42.10732" lon="9.11644">
        <ele>1317.6240234</ele>
        <time>2010-08-29T07:56:10Z</time>
      </trkpt>
      <trkpt lat="42.10727" lon="9.11643">
        <ele>1322.911377</ele>
        <time>2010-08-29T07:56:17Z</time>
      </trkpt>
      <trkpt lat="42.10721" lon="9.11643">
        <ele>1327.7180176</ele>
        <time>2010-08-29T07:56:25Z</time>
      </trkpt>
      <trkpt lat="42.10718" lon="9.11647">
        <ele>1330.1213379</ele>
        <time>2010-08-29T07:56:30Z</time>
      </trkpt>
      <trkpt lat="42.10713" lon="9.11649">
        <ele>1335.8891602</ele>
        <time>2010-08-29T07:56:40Z</time>
      </trkpt>
      <trkpt lat="42.10712" lon="9.11655">
        <ele>1336.369873</ele>
        <time>2010-08-29T07:56:47Z</time>
      </trkpt>
      <trkpt lat="42.10708" lon="9.11655">
        <ele>1338.7731934</ele>
        <time>2010-08-29T07:56:53Z</time>
      </trkpt>
      <trkpt lat="42.10703" lon="9.11659">
        <ele>1339.734375</ele>
        <time>2010-08-29T07:56:59Z</time>
      </trkpt>
      <trkpt lat="42.10701" lon="9.11665">
        <ele>1338.2924805</ele>
        <time>2010-08-29T07:57:09Z</time>
      </trkpt>
      <trkpt lat="42.10695" lon="9.11661">
        <ele>1338.2924805</ele>
        <time>2010-08-29T07:57:19Z</time>
      </trkpt>
      <trkpt lat="42.1069" lon="9.11658">
        <ele>1335.4084473</ele>
        <time>2010-08-29T07:57:24Z</time>
      </trkpt>
      <trkpt lat="42.10684" lon="9.1166">
        <ele>1342.6186523</ele>
        <time>2010-08-29T07:57:34Z</time>
      </trkpt>
      <trkpt lat="42.10677" lon="9.11659">
        <ele>1343.579834</ele>
        <time>2010-08-29T07:57:41Z</time>
      </trkpt>
      <trkpt lat="42.10673" lon="9.11658">
        <ele>1346.9443359</ele>
        <time>2010-08-29T07:57:47Z</time>
      </trkpt>
      <trkpt lat="42.10671" lon="9.1166">
        <ele>1349.8283691</ele>
        <time>2010-08-29T07:57:52Z</time>
      </trkpt>
      <trkpt lat="42.10669" lon="9.11662">
        <ele>1350.309082</ele>
        <time>2010-08-29T07:57:57Z</time>
      </trkpt>
      <trkpt lat="42.10661" lon="9.1166">
        <ele>1351.2702637</ele>
        <time>2010-08-29T07:58:05Z</time>
      </trkpt>
      <trkpt lat="42.10658" lon="9.11659">
        <ele>1353.1928711</ele>
        <time>2010-08-29T07:58:11Z</time>
      </trkpt>
      <trkpt lat="42.10656" lon="9.1166">
        <ele>1355.5961914</ele>
        <time>2010-08-29T07:58:17Z</time>
      </trkpt>
      <trkpt lat="42.10643" lon="9.11664">
        <ele>1354.1542969</ele>
        <time>2010-08-29T07:58:28Z</time>
      </trkpt>
      <trkpt lat="42.10636" lon="9.11667">
        <ele>1360.402832</ele>
        <time>2010-08-29T07:58:39Z</time>
      </trkpt>
      <trkpt lat="42.10631" lon="9.11668">
        <ele>1357.9997559</ele>
        <time>2010-08-29T07:58:44Z</time>
      </trkpt>
      <trkpt lat="42.10598" lon="9.11663">
        <ele>1326.276123</ele>
        <time>2010-08-29T07:59:13Z</time>
      </trkpt>
      <trkpt lat="42.10616" lon="9.11672">
        <ele>1335.8891602</ele>
        <time>2010-08-29T07:59:26Z</time>
      </trkpt>
      <trkpt lat="42.10614" lon="9.11677">
        <ele>1338.7731934</ele>
        <time>2010-08-29T07:59:33Z</time>
      </trkpt>
      <trkpt lat="42.10612" lon="9.11679">
        <ele>1344.5410156</ele>
        <time>2010-08-29T07:59:38Z</time>
      </trkpt>
      <trkpt lat="42.10611" lon="9.1168">
        <ele>1351.7509766</ele>
        <time>2010-08-29T07:59:47Z</time>
      </trkpt>
      <trkpt lat="42.10604" lon="9.11683">
        <ele>1362.3254395</ele>
        <time>2010-08-29T07:59:56Z</time>
      </trkpt>
      <trkpt lat="42.10597" lon="9.11686">
        <ele>1359.9221191</ele>
        <time>2010-08-29T08:00:03Z</time>
      </trkpt>
      <trkpt lat="42.10593" lon="9.1169">
        <ele>1355.5961914</ele>
        <time>2010-08-29T08:00:11Z</time>
      </trkpt>
      <trkpt lat="42.10591" lon="9.11696">
        <ele>1353.673584</ele>
        <time>2010-08-29T08:00:19Z</time>
      </trkpt>
      <trkpt lat="42.10586" lon="9.117">
        <ele>1350.7895508</ele>
        <time>2010-08-29T08:00:25Z</time>
      </trkpt>
      <trkpt lat="42.10581" lon="9.11704">
        <ele>1347.9057617</ele>
        <time>2010-08-29T08:00:31Z</time>
      </trkpt>
      <trkpt lat="42.10576" lon="9.11708">
        <ele>1349.3476562</ele>
        <time>2010-08-29T08:00:37Z</time>
      </trkpt>
      <trkpt lat="42.10575" lon="9.11715">
        <ele>1354.6347656</ele>
        <time>2010-08-29T08:00:43Z</time>
      </trkpt>
      <trkpt lat="42.10571" lon="9.11716">
        <ele>1360.8835449</ele>
        <time>2010-08-29T08:00:49Z</time>
      </trkpt>
      <trkpt lat="42.10566" lon="9.1172">
        <ele>1362.3254395</ele>
        <time>2010-08-29T08:00:55Z</time>
      </trkpt>
      <trkpt lat="42.10567" lon="9.11729">
        <ele>1361.3642578</ele>
        <time>2010-08-29T08:01:02Z</time>
      </trkpt>
      <trkpt lat="42.10568" lon="9.11733">
        <ele>1363.2868652</ele>
        <time>2010-08-29T08:01:08Z</time>
      </trkpt>
      <trkpt lat="42.1056" lon="9.11737">
        <ele>1368.0932617</ele>
        <time>2010-08-29T08:01:20Z</time>
      </trkpt>
      <trkpt lat="42.1056" lon="9.11743">
        <ele>1369.0546875</ele>
        <time>2010-08-29T08:01:27Z</time>
      </trkpt>
      <trkpt lat="42.10561" lon="9.11745">
        <ele>1372.9001465</ele>
        <time>2010-08-29T08:01:34Z</time>
      </trkpt>
      <trkpt lat="42.1056" lon="9.11755">
        <ele>1372.4194336</ele>
        <time>2010-08-29T08:01:42Z</time>
      </trkpt>
      <trkpt lat="42.1056" lon="9.11766">
        <ele>1375.7839355</ele>
        <time>2010-08-29T08:01:57Z</time>
      </trkpt>
      <trkpt lat="42.10558" lon="9.11771">
        <ele>1379.1484375</ele>
        <time>2010-08-29T08:02:01Z</time>
      </trkpt>
      <trkpt lat="42.10547" lon="9.11777">
        <ele>1385.3969727</ele>
        <time>2010-08-29T08:02:14Z</time>
      </trkpt>
      <trkpt lat="42.10536" lon="9.11778">
        <ele>1384.435791</ele>
        <time>2010-08-29T08:02:24Z</time>
      </trkpt>
      <trkpt lat="42.10521" lon="9.11785">
        <ele>1374.8227539</ele>
        <time>2010-08-29T08:02:36Z</time>
      </trkpt>
      <trkpt lat="42.10538" lon="9.118">
        <ele>1381.0712891</ele>
        <time>2010-08-29T08:02:43Z</time>
      </trkpt>
      <trkpt lat="42.10547" lon="9.11811">
        <ele>1387.800293</ele>
        <time>2010-08-29T08:02:49Z</time>
      </trkpt>
      <trkpt lat="42.10562" lon="9.11823">
        <ele>1395.9716797</ele>
        <time>2010-08-29T08:02:55Z</time>
      </trkpt>
      <trkpt lat="42.1055" lon="9.11815">
        <ele>1389.2424316</ele>
        <time>2010-08-29T08:03:00Z</time>
      </trkpt>
      <trkpt lat="42.10545" lon="9.11814">
        <ele>1385.8776855</ele>
        <time>2010-08-29T08:03:04Z</time>
      </trkpt>
      <trkpt lat="42.10542" lon="9.11817">
        <ele>1386.8388672</ele>
        <time>2010-08-29T08:03:12Z</time>
      </trkpt>
      <trkpt lat="42.10534" lon="9.11814">
        <ele>1372.4194336</ele>
        <time>2010-08-29T08:03:22Z</time>
      </trkpt>
      <trkpt lat="42.1053" lon="9.11811">
        <ele>1367.1320801</ele>
        <time>2010-08-29T08:03:28Z</time>
      </trkpt>
      <trkpt lat="42.10519" lon="9.11809">
        <ele>1384.435791</ele>
        <time>2010-08-29T08:03:46Z</time>
      </trkpt>
      <trkpt lat="42.10532" lon="9.11814">
        <ele>1388.7619629</ele>
        <time>2010-08-29T08:03:52Z</time>
      </trkpt>
      <trkpt lat="42.10532" lon="9.11821">
        <ele>1390.2038574</ele>
        <time>2010-08-29T08:03:58Z</time>
      </trkpt>
      <trkpt lat="42.10517" lon="9.11831">
        <ele>1375.7839355</ele>
        <time>2010-08-29T08:04:09Z</time>
      </trkpt>
      <trkpt lat="42.10511" lon="9.11833">
        <ele>1374.342041</ele>
        <time>2010-08-29T08:04:15Z</time>
      </trkpt>
      <trkpt lat="42.10506" lon="9.11843">
        <ele>1380.1098633</ele>
        <time>2010-08-29T08:04:27Z</time>
      </trkpt>
      <trkpt lat="42.10504" lon="9.1185">
        <ele>1382.0324707</ele>
        <time>2010-08-29T08:04:33Z</time>
      </trkpt>
      <trkpt lat="42.10504" lon="9.11853">
        <ele>1380.1098633</ele>
        <time>2010-08-29T08:04:39Z</time>
      </trkpt>
      <trkpt lat="42.10506" lon="9.11863">
        <ele>1395.0102539</ele>
        <time>2010-08-29T08:04:55Z</time>
      </trkpt>
      <trkpt lat="42.10506" lon="9.11868">
        <ele>1398.3747559</ele>
        <time>2010-08-29T08:05:00Z</time>
      </trkpt>
      <trkpt lat="42.10508" lon="9.11875">
        <ele>1401.739502</ele>
        <time>2010-08-29T08:05:06Z</time>
      </trkpt>
      <trkpt lat="42.10497" lon="9.11885">
        <ele>1394.0490723</ele>
        <time>2010-08-29T08:05:14Z</time>
      </trkpt>
      <trkpt lat="42.10488" lon="9.11894">
        <ele>1387.3195801</ele>
        <time>2010-08-29T08:05:22Z</time>
      </trkpt>
      <trkpt lat="42.10489" lon="9.119">
        <ele>1394.529541</ele>
        <time>2010-08-29T08:05:30Z</time>
      </trkpt>
      <trkpt lat="42.10486" lon="9.1191">
        <ele>1396.4523926</ele>
        <time>2010-08-29T08:05:40Z</time>
      </trkpt>
      <trkpt lat="42.10486" lon="9.11915">
        <ele>1395.4909668</ele>
        <time>2010-08-29T08:05:46Z</time>
      </trkpt>
      <trkpt lat="42.10483" lon="9.1192">
        <ele>1394.529541</ele>
        <time>2010-08-29T08:05:51Z</time>
      </trkpt>
      <trkpt lat="42.10483" lon="9.11921">
        <ele>1391.1650391</ele>
        <time>2010-08-29T08:05:57Z</time>
      </trkpt>
      <trkpt lat="42.10482" lon="9.11924">
        <ele>1390.6843262</ele>
        <time>2010-08-29T08:06:03Z</time>
      </trkpt>
      <trkpt lat="42.10484" lon="9.11927">
        <ele>1390.6843262</ele>
        <time>2010-08-29T08:06:11Z</time>
      </trkpt>
      <trkpt lat="42.10488" lon="9.1193">
        <ele>1391.645752</ele>
        <time>2010-08-29T08:06:17Z</time>
      </trkpt>
      <trkpt lat="42.10492" lon="9.11932">
        <ele>1391.645752</ele>
        <time>2010-08-29T08:06:23Z</time>
      </trkpt>
      <trkpt lat="42.10492" lon="9.11931">
        <ele>1390.6843262</ele>
        <time>2010-08-29T08:06:30Z</time>
      </trkpt>
      <trkpt lat="42.10497" lon="9.11936">
        <ele>1392.1264648</ele>
        <time>2010-08-29T08:06:36Z</time>
      </trkpt>
      <trkpt lat="42.10497" lon="9.1194">
        <ele>1393.5683594</ele>
        <time>2010-08-29T08:06:44Z</time>
      </trkpt>
      <trkpt lat="42.105" lon="9.11941">
        <ele>1395.9716797</ele>
        <time>2010-08-29T08:06:53Z</time>
      </trkpt>
      <trkpt lat="42.10503" lon="9.11942">
        <ele>1397.4135742</ele>
        <time>2010-08-29T08:07:01Z</time>
      </trkpt>
      <trkpt lat="42.10503" lon="9.11944">
        <ele>1398.8554688</ele>
        <time>2010-08-29T08:07:07Z</time>
      </trkpt>
      <trkpt lat="42.10505" lon="9.11945">
        <ele>1400.2976074</ele>
        <time>2010-08-29T08:07:14Z</time>
      </trkpt>
      <trkpt lat="42.10509" lon="9.11946">
        <ele>1402.2199707</ele>
        <time>2010-08-29T08:07:22Z</time>
      </trkpt>
      <trkpt lat="42.10511" lon="9.11948">
        <ele>1403.6621094</ele>
        <time>2010-08-29T08:07:29Z</time>
      </trkpt>
      <trkpt lat="42.10511" lon="9.11952">
        <ele>1405.104248</ele>
        <time>2010-08-29T08:07:36Z</time>
      </trkpt>
      <trkpt lat="42.10513" lon="9.11955">
        <ele>1406.5461426</ele>
        <time>2010-08-29T08:07:43Z</time>
      </trkpt>
      <trkpt lat="42.10513" lon="9.11958">
        <ele>1408.9494629</ele>
        <time>2010-08-29T08:07:51Z</time>
      </trkpt>
      <trkpt lat="42.10517" lon="9.11958">
        <ele>1410.8720703</ele>
        <time>2010-08-29T08:07:59Z</time>
      </trkpt>
      <trkpt lat="42.10521" lon="9.1196">
        <ele>1411.8334961</ele>
        <time>2010-08-29T08:08:08Z</time>
      </trkpt>
      <trkpt lat="42.10524" lon="9.11962">
        <ele>1413.2753906</ele>
        <time>2010-08-29T08:08:15Z</time>
      </trkpt>
      <trkpt lat="42.10524" lon="9.11964">
        <ele>1415.197998</ele>
        <time>2010-08-29T08:08:22Z</time>
      </trkpt>
      <trkpt lat="42.10529" lon="9.11965">
        <ele>1416.1591797</ele>
        <time>2010-08-29T08:08:33Z</time>
      </trkpt>
      <trkpt lat="42.10533" lon="9.11965">
        <ele>1416.6398926</ele>
        <time>2010-08-29T08:08:41Z</time>
      </trkpt>
      <trkpt lat="42.10532" lon="9.11969">
        <ele>1418.0817871</ele>
        <time>2010-08-29T08:08:48Z</time>
      </trkpt>
      <trkpt lat="42.10535" lon="9.11973">
        <ele>1416.1591797</ele>
        <time>2010-08-29T08:08:55Z</time>
      </trkpt>
      <trkpt lat="42.10537" lon="9.11977">
        <ele>1415.197998</ele>
        <time>2010-08-29T08:09:01Z</time>
      </trkpt>
      <trkpt lat="42.10539" lon="9.11978">
        <ele>1418.0817871</ele>
        <time>2010-08-29T08:09:09Z</time>
      </trkpt>
      <trkpt lat="42.10536" lon="9.11982">
        <ele>1420.4853516</ele>
        <time>2010-08-29T08:09:17Z</time>
      </trkpt>
      <trkpt lat="42.10537" lon="9.11986">
        <ele>1422.8886719</ele>
        <time>2010-08-29T08:09:25Z</time>
      </trkpt>
      <trkpt lat="42.10538" lon="9.11989">
        <ele>1424.3305664</ele>
        <time>2010-08-29T08:09:32Z</time>
      </trkpt>
      <trkpt lat="42.10537" lon="9.11993">
        <ele>1426.2531738</ele>
        <time>2010-08-29T08:09:41Z</time>
      </trkpt>
      <trkpt lat="42.10538" lon="9.11994">
        <ele>1428.6564941</ele>
        <time>2010-08-29T08:09:48Z</time>
      </trkpt>
      <trkpt lat="42.10539" lon="9.11999">
        <ele>1430.5791016</ele>
        <time>2010-08-29T08:09:55Z</time>
      </trkpt>
      <trkpt lat="42.1054" lon="9.12002">
        <ele>1432.501709</ele>
        <time>2010-08-29T08:10:01Z</time>
      </trkpt>
      <trkpt lat="42.10541" lon="9.12003">
        <ele>1433.4628906</ele>
        <time>2010-08-29T08:10:06Z</time>
      </trkpt>
      <trkpt lat="42.10543" lon="9.12004">
        <ele>1433.9436035</ele>
        <time>2010-08-29T08:10:12Z</time>
      </trkpt>
      <trkpt lat="42.10546" lon="9.12005">
        <ele>1434.4243164</ele>
        <time>2010-08-29T08:10:20Z</time>
      </trkpt>
      <trkpt lat="42.1055" lon="9.12006">
        <ele>1436.347168</ele>
        <time>2010-08-29T08:10:37Z</time>
      </trkpt>
      <trkpt lat="42.10555" lon="9.12006">
        <ele>1436.347168</ele>
        <time>2010-08-29T08:10:45Z</time>
      </trkpt>
      <trkpt lat="42.10558" lon="9.12007">
        <ele>1436.8276367</ele>
        <time>2010-08-29T08:10:51Z</time>
      </trkpt>
      <trkpt lat="42.10562" lon="9.1201">
        <ele>1436.8276367</ele>
        <time>2010-08-29T08:10:58Z</time>
      </trkpt>
      <trkpt lat="42.10565" lon="9.12012">
        <ele>1437.7890625</ele>
        <time>2010-08-29T08:11:04Z</time>
      </trkpt>
      <trkpt lat="42.10565" lon="9.12016">
        <ele>1438.7504883</ele>
        <time>2010-08-29T08:11:10Z</time>
      </trkpt>
      <trkpt lat="42.10569" lon="9.12015">
        <ele>1438.7504883</ele>
        <time>2010-08-29T08:11:19Z</time>
      </trkpt>
      <trkpt lat="42.10569" lon="9.12018">
        <ele>1440.1923828</ele>
        <time>2010-08-29T08:11:24Z</time>
      </trkpt>
      <trkpt lat="42.10571" lon="9.1202">
        <ele>1444.5180664</ele>
        <time>2010-08-29T08:11:32Z</time>
      </trkpt>
      <trkpt lat="42.10575" lon="9.12023">
        <ele>1445.9602051</ele>
        <time>2010-08-29T08:11:40Z</time>
      </trkpt>
      <trkpt lat="42.10577" lon="9.12024">
        <ele>1447.4020996</ele>
        <time>2010-08-29T08:11:47Z</time>
      </trkpt>
      <trkpt lat="42.10577" lon="9.12025">
        <ele>1449.324707</ele>
        <time>2010-08-29T08:11:53Z</time>
      </trkpt>
      <trkpt lat="42.1058" lon="9.12026">
        <ele>1451.2473145</ele>
        <time>2010-08-29T08:11:59Z</time>
      </trkpt>
      <trkpt lat="42.10582" lon="9.12029">
        <ele>1452.2087402</ele>
        <time>2010-08-29T08:12:07Z</time>
      </trkpt>
      <trkpt lat="42.10585" lon="9.12033">
        <ele>1452.2087402</ele>
        <time>2010-08-29T08:12:14Z</time>
      </trkpt>
      <trkpt lat="42.10587" lon="9.12033">
        <ele>1454.1315918</ele>
        <time>2010-08-29T08:12:21Z</time>
      </trkpt>
      <trkpt lat="42.1059" lon="9.12037">
        <ele>1452.6894531</ele>
        <time>2010-08-29T08:12:28Z</time>
      </trkpt>
      <trkpt lat="42.10589" lon="9.12041">
        <ele>1451.7280273</ele>
        <time>2010-08-29T08:12:35Z</time>
      </trkpt>
      <trkpt lat="42.10591" lon="9.12045">
        <ele>1453.170166</ele>
        <time>2010-08-29T08:12:42Z</time>
      </trkpt>
      <trkpt lat="42.10594" lon="9.12047">
        <ele>1456.0539551</ele>
        <time>2010-08-29T08:12:50Z</time>
      </trkpt>
      <trkpt lat="42.10599" lon="9.12048">
        <ele>1458.4572754</ele>
        <time>2010-08-29T08:13:00Z</time>
      </trkpt>
      <trkpt lat="42.10601" lon="9.12052">
        <ele>1458.9379883</ele>
        <time>2010-08-29T08:13:06Z</time>
      </trkpt>
      <trkpt lat="42.10602" lon="9.12055">
        <ele>1459.8991699</ele>
        <time>2010-08-29T08:13:12Z</time>
      </trkpt>
      <trkpt lat="42.10605" lon="9.12059">
        <ele>1460.3798828</ele>
        <time>2010-08-29T08:13:18Z</time>
      </trkpt>
      <trkpt lat="42.10609" lon="9.12061">
        <ele>1461.3413086</ele>
        <time>2010-08-29T08:13:25Z</time>
      </trkpt>
      <trkpt lat="42.10608" lon="9.12065">
        <ele>1457.0153809</ele>
        <time>2010-08-29T08:13:33Z</time>
      </trkpt>
      <trkpt lat="42.10612" lon="9.12066">
        <ele>1457.9768066</ele>
        <time>2010-08-29T08:13:40Z</time>
      </trkpt>
      <trkpt lat="42.10616" lon="9.12068">
        <ele>1460.8605957</ele>
        <time>2010-08-29T08:13:48Z</time>
      </trkpt>
      <trkpt lat="42.10621" lon="9.12067">
        <ele>1464.2250977</ele>
        <time>2010-08-29T08:13:55Z</time>
      </trkpt>
      <trkpt lat="42.1062" lon="9.12071">
        <ele>1466.1477051</ele>
        <time>2010-08-29T08:14:02Z</time>
      </trkpt>
      <trkpt lat="42.10621" lon="9.12075">
        <ele>1468.5512695</ele>
        <time>2010-08-29T08:14:08Z</time>
      </trkpt>
      <trkpt lat="42.10625" lon="9.12077">
        <ele>1470.473877</ele>
        <time>2010-08-29T08:14:14Z</time>
      </trkpt>
      <trkpt lat="42.10626" lon="9.12076">
        <ele>1471.9157715</ele>
        <time>2010-08-29T08:14:20Z</time>
      </trkpt>
      <trkpt lat="42.10626" lon="9.12081">
        <ele>1472.8771973</ele>
        <time>2010-08-29T08:14:26Z</time>
      </trkpt>
      <trkpt lat="42.1063" lon="9.1208">
        <ele>1474.7998047</ele>
        <time>2010-08-29T08:14:33Z</time>
      </trkpt>
      <trkpt lat="42.10635" lon="9.1208">
        <ele>1476.7224121</ele>
        <time>2010-08-29T08:14:42Z</time>
      </trkpt>
      <trkpt lat="42.10638" lon="9.12084">
        <ele>1477.203125</ele>
        <time>2010-08-29T08:14:50Z</time>
      </trkpt>
      <trkpt lat="42.1064" lon="9.1209">
        <ele>1477.6835938</ele>
        <time>2010-08-29T08:14:57Z</time>
      </trkpt>
      <trkpt lat="42.10641" lon="9.12098">
        <ele>1478.6450195</ele>
        <time>2010-08-29T08:15:05Z</time>
      </trkpt>
      <trkpt lat="42.1064" lon="9.12103">
        <ele>1481.5288086</ele>
        <time>2010-08-29T08:15:13Z</time>
      </trkpt>
      <trkpt lat="42.1064" lon="9.1211">
        <ele>1482.9707031</ele>
        <time>2010-08-29T08:15:20Z</time>
      </trkpt>
      <trkpt lat="42.10642" lon="9.12113">
        <ele>1483.9321289</ele>
        <time>2010-08-29T08:15:27Z</time>
      </trkpt>
      <trkpt lat="42.10641" lon="9.12118">
        <ele>1483.451416</ele>
        <time>2010-08-29T08:15:42Z</time>
      </trkpt>
      <trkpt lat="42.10641" lon="9.12123">
        <ele>1484.4130859</ele>
        <time>2010-08-29T08:15:49Z</time>
      </trkpt>
      <trkpt lat="42.10642" lon="9.12123">
        <ele>1484.4130859</ele>
        <time>2010-08-29T08:15:50Z</time>
      </trkpt>
      <trkpt lat="42.10653" lon="9.12121">
        <ele>1485.3742676</ele>
        <time>2010-08-29T08:15:59Z</time>
      </trkpt>
      <trkpt lat="42.10659" lon="9.1212">
        <ele>1485.3742676</ele>
        <time>2010-08-29T08:16:06Z</time>
      </trkpt>
      <trkpt lat="42.10661" lon="9.12121">
        <ele>1483.9321289</ele>
        <time>2010-08-29T08:16:13Z</time>
      </trkpt>
      <trkpt lat="42.1066" lon="9.12121">
        <ele>1484.4130859</ele>
        <time>2010-08-29T08:16:18Z</time>
      </trkpt>
      <trkpt lat="42.10658" lon="9.12123">
        <ele>1484.8937988</ele>
        <time>2010-08-29T08:16:25Z</time>
      </trkpt>
      <trkpt lat="42.10658" lon="9.1213">
        <ele>1482.4902344</ele>
        <time>2010-08-29T08:17:01Z</time>
      </trkpt>
      <trkpt lat="42.10661" lon="9.12127">
        <ele>1484.4130859</ele>
        <time>2010-08-29T08:17:17Z</time>
      </trkpt>
      <trkpt lat="42.10663" lon="9.12125">
        <ele>1484.8937988</ele>
        <time>2010-08-29T08:17:24Z</time>
      </trkpt>
      <trkpt lat="42.10665" lon="9.12131">
        <ele>1474.7998047</ele>
        <time>2010-08-29T08:17:41Z</time>
      </trkpt>
      <trkpt lat="42.10666" lon="9.12131">
        <ele>1473.3579102</ele>
        <time>2010-08-29T08:17:42Z</time>
      </trkpt>
      <trkpt lat="42.1067" lon="9.12129">
        <ele>1471.4350586</ele>
        <time>2010-08-29T08:17:46Z</time>
      </trkpt>
      <trkpt lat="42.10672" lon="9.12128">
        <ele>1472.3964844</ele>
        <time>2010-08-29T08:17:52Z</time>
      </trkpt>
      <trkpt lat="42.10672" lon="9.12126">
        <ele>1474.3190918</ele>
        <time>2010-08-29T08:17:57Z</time>
      </trkpt>
      <trkpt lat="42.10669" lon="9.12126">
        <ele>1478.6450195</ele>
        <time>2010-08-29T08:18:10Z</time>
      </trkpt>
      <trkpt lat="42.10667" lon="9.12129">
        <ele>1476.2416992</ele>
        <time>2010-08-29T08:18:19Z</time>
      </trkpt>
      <trkpt lat="42.10665" lon="9.12136">
        <ele>1470.9545898</ele>
        <time>2010-08-29T08:18:29Z</time>
      </trkpt>
      <trkpt lat="42.10661" lon="9.1214">
        <ele>1460.8605957</ele>
        <time>2010-08-29T08:18:54Z</time>
      </trkpt>
      <trkpt lat="42.10657" lon="9.12142">
        <ele>1459.4187012</ele>
        <time>2010-08-29T08:19:10Z</time>
      </trkpt>
      <trkpt lat="42.10658" lon="9.1214">
        <ele>1458.9379883</ele>
        <time>2010-08-29T08:19:29Z</time>
      </trkpt>
      <trkpt lat="42.1066" lon="9.12137">
        <ele>1457.0153809</ele>
        <time>2010-08-29T08:19:40Z</time>
      </trkpt>
      <trkpt lat="42.10659" lon="9.12139">
        <ele>1458.9379883</ele>
        <time>2010-08-29T08:19:47Z</time>
      </trkpt>
      <trkpt lat="42.10661" lon="9.1214">
        <ele>1462.3024902</ele>
        <time>2010-08-29T08:19:53Z</time>
      </trkpt>
      <trkpt lat="42.10667" lon="9.12137">
        <ele>1470.473877</ele>
        <time>2010-08-29T08:19:59Z</time>
      </trkpt>
      <trkpt lat="42.10669" lon="9.12134">
        <ele>1475.7609863</ele>
        <time>2010-08-29T08:20:06Z</time>
      </trkpt>
      <trkpt lat="42.10665" lon="9.12125">
        <ele>1488.2583008</ele>
        <time>2010-08-29T08:20:20Z</time>
      </trkpt>
      <trkpt lat="42.10666" lon="9.12118">
        <ele>1487.296875</ele>
        <time>2010-08-29T08:20:36Z</time>
      </trkpt>
      <trkpt lat="42.10668" lon="9.12115">
        <ele>1482.4902344</ele>
        <time>2010-08-29T08:20:59Z</time>
      </trkpt>
      <trkpt lat="42.10662" lon="9.12117">
        <ele>1482.4902344</ele>
        <time>2010-08-29T08:21:31Z</time>
      </trkpt>
      <trkpt lat="42.1066" lon="9.12116">
        <ele>1481.5288086</ele>
        <time>2010-08-29T08:21:46Z</time>
      </trkpt>
      <trkpt lat="42.10659" lon="9.12116">
        <ele>1480.567627</ele>
        <time>2010-08-29T08:21:59Z</time>
      </trkpt>
      <trkpt lat="42.10658" lon="9.12117">
        <ele>1478.6450195</ele>
        <time>2010-08-29T08:22:10Z</time>
      </trkpt>
      <trkpt lat="42.10659" lon="9.12117">
        <ele>1476.7224121</ele>
        <time>2010-08-29T08:22:26Z</time>
      </trkpt>
      <trkpt lat="42.1066" lon="9.12116">
        <ele>1476.7224121</ele>
        <time>2010-08-29T08:22:46Z</time>
      </trkpt>
      <trkpt lat="42.10662" lon="9.12122">
        <ele>1473.3579102</ele>
        <time>2010-08-29T08:23:10Z</time>
      </trkpt>
      <trkpt lat="42.10664" lon="9.12126">
        <ele>1471.9157715</ele>
        <time>2010-08-29T08:23:21Z</time>
      </trkpt>
      <trkpt lat="42.10664" lon="9.12132">
        <ele>1477.6835938</ele>
        <time>2010-08-29T08:23:36Z</time>
      </trkpt>
      <trkpt lat="42.10663" lon="9.12132">
        <ele>1482.0095215</ele>
        <time>2010-08-29T08:23:46Z</time>
      </trkpt>
      <trkpt lat="42.10665" lon="9.1214">
        <ele>1476.7224121</ele>
        <time>2010-08-29T08:23:58Z</time>
      </trkpt>
      <trkpt lat="42.10666" lon="9.12141">
        <ele>1476.7224121</ele>
        <time>2010-08-29T08:24:10Z</time>
      </trkpt>
      <trkpt lat="42.10667" lon="9.12144">
        <ele>1474.3190918</ele>
        <time>2010-08-29T08:24:19Z</time>
      </trkpt>
      <trkpt lat="42.10664" lon="9.12138">
        <ele>1480.567627</ele>
        <time>2010-08-29T08:24:35Z</time>
      </trkpt>
      <trkpt lat="42.10666" lon="9.12138">
        <ele>1477.6835938</ele>
        <time>2010-08-29T08:24:43Z</time>
      </trkpt>
      <trkpt lat="42.10667" lon="9.12136">
        <ele>1478.6450195</ele>
        <time>2010-08-29T08:24:54Z</time>
      </trkpt>
      <trkpt lat="42.10668" lon="9.12133">
        <ele>1478.6450195</ele>
        <time>2010-08-29T08:25:08Z</time>
      </trkpt>
      <trkpt lat="42.10666" lon="9.12129">
        <ele>1480.0869141</ele>
        <time>2010-08-29T08:25:27Z</time>
      </trkpt>
      <trkpt lat="42.10665" lon="9.12128">
        <ele>1480.0869141</ele>
        <time>2010-08-29T08:25:42Z</time>
      </trkpt>
      <trkpt lat="42.10667" lon="9.12127">
        <ele>1481.0483398</ele>
        <time>2010-08-29T08:25:53Z</time>
      </trkpt>
      <trkpt lat="42.10665" lon="9.12124">
        <ele>1486.8161621</ele>
        <time>2010-08-29T08:25:59Z</time>
      </trkpt>
      <trkpt lat="42.10669" lon="9.12123">
        <ele>1491.1420898</ele>
        <time>2010-08-29T08:26:07Z</time>
      </trkpt>
      <trkpt lat="42.10671" lon="9.12123">
        <ele>1493.0646973</ele>
        <time>2010-08-29T08:26:19Z</time>
      </trkpt>
      <trkpt lat="42.10666" lon="9.12127">
        <ele>1489.7001953</ele>
        <time>2010-08-29T08:26:26Z</time>
      </trkpt>
      <trkpt lat="42.10664" lon="9.12126">
        <ele>1492.5842285</ele>
        <time>2010-08-29T08:26:36Z</time>
      </trkpt>
      <trkpt lat="42.10664" lon="9.12124">
        <ele>1494.5065918</ele>
        <time>2010-08-29T08:26:44Z</time>
      </trkpt>
      <trkpt lat="42.10668" lon="9.12125">
        <ele>1494.5065918</ele>
        <time>2010-08-29T08:26:50Z</time>
      </trkpt>
      <trkpt lat="42.10666" lon="9.12123">
        <ele>1495.9487305</ele>
        <time>2010-08-29T08:27:18Z</time>
      </trkpt>
      <trkpt lat="42.10664" lon="9.12122">
        <ele>1493.5454102</ele>
        <time>2010-08-29T08:27:24Z</time>
      </trkpt>
      <trkpt lat="42.10664" lon="9.12121">
        <ele>1485.8549805</ele>
        <time>2010-08-29T08:27:54Z</time>
      </trkpt>
      <trkpt lat="42.10666" lon="9.12121">
        <ele>1483.9321289</ele>
        <time>2010-08-29T08:28:17Z</time>
      </trkpt>
      <trkpt lat="42.10657" lon="9.12121">
        <ele>1458.4572754</ele>
        <time>2010-08-29T08:28:41Z</time>
      </trkpt>
      <trkpt lat="42.10656" lon="9.12125">
        <ele>1461.3413086</ele>
        <time>2010-08-29T08:29:01Z</time>
      </trkpt>
      <trkpt lat="42.10662" lon="9.12121">
        <ele>1472.3964844</ele>
        <time>2010-08-29T08:29:13Z</time>
      </trkpt>
      <trkpt lat="42.10666" lon="9.12123">
        <ele>1486.8161621</ele>
        <time>2010-08-29T08:29:25Z</time>
      </trkpt>
      <trkpt lat="42.10663" lon="9.12127">
        <ele>1490.1809082</ele>
        <time>2010-08-29T08:29:38Z</time>
      </trkpt>
      <trkpt lat="42.10656" lon="9.12131">
        <ele>1491.1420898</ele>
        <time>2010-08-29T08:29:45Z</time>
      </trkpt>
      <trkpt lat="42.10646" lon="9.12136">
        <ele>1491.6228027</ele>
        <time>2010-08-29T08:29:54Z</time>
      </trkpt>
      <trkpt lat="42.10637" lon="9.12141">
        <ele>1492.5842285</ele>
        <time>2010-08-29T08:30:03Z</time>
      </trkpt>
      <trkpt lat="42.10631" lon="9.12146">
        <ele>1492.1035156</ele>
        <time>2010-08-29T08:30:11Z</time>
      </trkpt>
      <trkpt lat="42.1062" lon="9.12146">
        <ele>1493.5454102</ele>
        <time>2010-08-29T08:30:19Z</time>
      </trkpt>
      <trkpt lat="42.10613" lon="9.12144">
        <ele>1494.026123</ele>
        <time>2010-08-29T08:30:28Z</time>
      </trkpt>
      <trkpt lat="42.10612" lon="9.12142">
        <ele>1493.5454102</ele>
        <time>2010-08-29T08:30:34Z</time>
      </trkpt>
      <trkpt lat="42.10615" lon="9.12142">
        <ele>1490.1809082</ele>
        <time>2010-08-29T08:30:40Z</time>
      </trkpt>
      <trkpt lat="42.10618" lon="9.12144">
        <ele>1487.7775879</ele>
        <time>2010-08-29T08:30:47Z</time>
      </trkpt>
      <trkpt lat="42.10618" lon="9.12145">
        <ele>1487.7775879</ele>
        <time>2010-08-29T08:31:00Z</time>
      </trkpt>
      <trkpt lat="42.10619" lon="9.1215">
        <ele>1490.661377</ele>
        <time>2010-08-29T08:31:06Z</time>
      </trkpt>
      <trkpt lat="42.10617" lon="9.12156">
        <ele>1492.1035156</ele>
        <time>2010-08-29T08:31:13Z</time>
      </trkpt>
      <trkpt lat="42.10615" lon="9.12161">
        <ele>1493.0646973</ele>
        <time>2010-08-29T08:31:21Z</time>
      </trkpt>
      <trkpt lat="42.10612" lon="9.12163">
        <ele>1494.5065918</ele>
        <time>2010-08-29T08:31:27Z</time>
      </trkpt>
      <trkpt lat="42.10607" lon="9.12167">
        <ele>1495.9487305</ele>
        <time>2010-08-29T08:31:34Z</time>
      </trkpt>
      <trkpt lat="42.10601" lon="9.1217">
        <ele>1497.390625</ele>
        <time>2010-08-29T08:31:43Z</time>
      </trkpt>
      <trkpt lat="42.10597" lon="9.1217">
        <ele>1497.8713379</ele>
        <time>2010-08-29T08:31:49Z</time>
      </trkpt>
      <trkpt lat="42.10594" lon="9.12172">
        <ele>1497.390625</ele>
        <time>2010-08-29T08:31:55Z</time>
      </trkpt>
      <trkpt lat="42.10593" lon="9.12176">
        <ele>1498.3518066</ele>
        <time>2010-08-29T08:32:02Z</time>
      </trkpt>
      <trkpt lat="42.10592" lon="9.12178">
        <ele>1498.8325195</ele>
        <time>2010-08-29T08:32:08Z</time>
      </trkpt>
      <trkpt lat="42.10593" lon="9.12178">
        <ele>1498.8325195</ele>
        <time>2010-08-29T08:32:10Z</time>
      </trkpt>
      <trkpt lat="42.10595" lon="9.12184">
        <ele>1499.7939453</ele>
        <time>2010-08-29T08:32:17Z</time>
      </trkpt>
      <trkpt lat="42.10594" lon="9.12187">
        <ele>1501.236084</ele>
        <time>2010-08-29T08:32:24Z</time>
      </trkpt>
      <trkpt lat="42.10594" lon="9.12187">
        <ele>1501.236084</ele>
        <time>2010-08-29T08:32:26Z</time>
      </trkpt>
      <trkpt lat="42.10589" lon="9.12189">
        <ele>1502.6779785</ele>
        <time>2010-08-29T08:32:33Z</time>
      </trkpt>
      <trkpt lat="42.10589" lon="9.12191">
        <ele>1504.1201172</ele>
        <time>2010-08-29T08:32:39Z</time>
      </trkpt>
      <trkpt lat="42.10587" lon="9.12196">
        <ele>1504.6005859</ele>
        <time>2010-08-29T08:32:45Z</time>
      </trkpt>
      <trkpt lat="42.10584" lon="9.122">
        <ele>1506.0424805</ele>
        <time>2010-08-29T08:32:53Z</time>
      </trkpt>
      <trkpt lat="42.10582" lon="9.12203">
        <ele>1507.965332</ele>
        <time>2010-08-29T08:33:01Z</time>
      </trkpt>
      <trkpt lat="42.1058" lon="9.12208">
        <ele>1509.8876953</ele>
        <time>2010-08-29T08:33:09Z</time>
      </trkpt>
      <trkpt lat="42.10578" lon="9.12211">
        <ele>1511.329834</ele>
        <time>2010-08-29T08:33:15Z</time>
      </trkpt>
      <trkpt lat="42.10575" lon="9.12216">
        <ele>1513.2524414</ele>
        <time>2010-08-29T08:33:24Z</time>
      </trkpt>
      <trkpt lat="42.10571" lon="9.1222">
        <ele>1514.6943359</ele>
        <time>2010-08-29T08:33:32Z</time>
      </trkpt>
      <trkpt lat="42.10569" lon="9.12223">
        <ele>1515.6557617</ele>
        <time>2010-08-29T08:33:40Z</time>
      </trkpt>
      <trkpt lat="42.10568" lon="9.12226">
        <ele>1518.5397949</ele>
        <time>2010-08-29T08:33:52Z</time>
      </trkpt>
      <trkpt lat="42.10565" lon="9.12224">
        <ele>1518.5397949</ele>
        <time>2010-08-29T08:33:59Z</time>
      </trkpt>
      <trkpt lat="42.10564" lon="9.12223">
        <ele>1513.2524414</ele>
        <time>2010-08-29T08:34:05Z</time>
      </trkpt>
      <trkpt lat="42.10562" lon="9.12222">
        <ele>1513.2524414</ele>
        <time>2010-08-29T08:34:37Z</time>
      </trkpt>
      <trkpt lat="42.10561" lon="9.12223">
        <ele>1512.7717285</ele>
        <time>2010-08-29T08:34:56Z</time>
      </trkpt>
      <trkpt lat="42.10562" lon="9.12223">
        <ele>1516.1364746</ele>
        <time>2010-08-29T08:35:20Z</time>
      </trkpt>
      <trkpt lat="42.10565" lon="9.12226">
        <ele>1518.5397949</ele>
        <time>2010-08-29T08:35:27Z</time>
      </trkpt>
      <trkpt lat="42.10564" lon="9.12232">
        <ele>1519.5012207</ele>
        <time>2010-08-29T08:35:33Z</time>
      </trkpt>
      <trkpt lat="42.10563" lon="9.12233">
        <ele>1519.5012207</ele>
        <time>2010-08-29T08:35:35Z</time>
      </trkpt>
      <trkpt lat="42.10561" lon="9.1224">
        <ele>1521.423584</ele>
        <time>2010-08-29T08:35:44Z</time>
      </trkpt>
      <trkpt lat="42.1056" lon="9.12244">
        <ele>1522.8657227</ele>
        <time>2010-08-29T08:35:51Z</time>
      </trkpt>
      <trkpt lat="42.10558" lon="9.12246">
        <ele>1523.3464355</ele>
        <time>2010-08-29T08:35:58Z</time>
      </trkpt>
      <trkpt lat="42.10556" lon="9.12252">
        <ele>1524.7883301</ele>
        <time>2010-08-29T08:36:05Z</time>
      </trkpt>
      <trkpt lat="42.10553" lon="9.12255">
        <ele>1525.7495117</ele>
        <time>2010-08-29T08:36:12Z</time>
      </trkpt>
      <trkpt lat="42.10551" lon="9.12259">
        <ele>1526.7109375</ele>
        <time>2010-08-29T08:36:19Z</time>
      </trkpt>
      <trkpt lat="42.1055" lon="9.12261">
        <ele>1527.6721191</ele>
        <time>2010-08-29T08:36:27Z</time>
      </trkpt>
      <trkpt lat="42.10551" lon="9.12264">
        <ele>1528.152832</ele>
        <time>2010-08-29T08:36:36Z</time>
      </trkpt>
      <trkpt lat="42.1055" lon="9.12268">
        <ele>1531.0368652</ele>
        <time>2010-08-29T08:36:44Z</time>
      </trkpt>
      <trkpt lat="42.10548" lon="9.12275">
        <ele>1531.517334</ele>
        <time>2010-08-29T08:36:51Z</time>
      </trkpt>
      <trkpt lat="42.10544" lon="9.12281">
        <ele>1534.4016113</ele>
        <time>2010-08-29T08:36:57Z</time>
      </trkpt>
      <trkpt lat="42.1054" lon="9.12286">
        <ele>1536.8046875</ele>
        <time>2010-08-29T08:37:04Z</time>
      </trkpt>
      <trkpt lat="42.10537" lon="9.12291">
        <ele>1537.7661133</ele>
        <time>2010-08-29T08:37:12Z</time>
      </trkpt>
      <trkpt lat="42.10535" lon="9.12292">
        <ele>1538.7275391</ele>
        <time>2010-08-29T08:37:18Z</time>
      </trkpt>
      <trkpt lat="42.10531" lon="9.12295">
        <ele>1539.2080078</ele>
        <time>2010-08-29T08:37:24Z</time>
      </trkpt>
      <trkpt lat="42.10526" lon="9.123">
        <ele>1541.6113281</ele>
        <time>2010-08-29T08:37:32Z</time>
      </trkpt>
      <trkpt lat="42.10523" lon="9.12303">
        <ele>1542.5727539</ele>
        <time>2010-08-29T08:37:39Z</time>
      </trkpt>
      <trkpt lat="42.10521" lon="9.1231">
        <ele>1542.092041</ele>
        <time>2010-08-29T08:37:47Z</time>
      </trkpt>
      <trkpt lat="42.10518" lon="9.12315">
        <ele>1543.0532227</ele>
        <time>2010-08-29T08:37:55Z</time>
      </trkpt>
      <trkpt lat="42.10516" lon="9.1232">
        <ele>1544.4951172</ele>
        <time>2010-08-29T08:38:02Z</time>
      </trkpt>
      <trkpt lat="42.10513" lon="9.12325">
        <ele>1545.456543</ele>
        <time>2010-08-29T08:38:09Z</time>
      </trkpt>
      <trkpt lat="42.10511" lon="9.12328">
        <ele>1546.4179688</ele>
        <time>2010-08-29T08:38:16Z</time>
      </trkpt>
      <trkpt lat="42.10511" lon="9.1233">
        <ele>1546.4179688</ele>
        <time>2010-08-29T08:38:24Z</time>
      </trkpt>
      <trkpt lat="42.10507" lon="9.12335">
        <ele>1547.8598633</ele>
        <time>2010-08-29T08:38:32Z</time>
      </trkpt>
      <trkpt lat="42.10504" lon="9.12339">
        <ele>1549.302002</ele>
        <time>2010-08-29T08:38:39Z</time>
      </trkpt>
      <trkpt lat="42.10503" lon="9.12342">
        <ele>1551.2246094</ele>
        <time>2010-08-29T08:38:44Z</time>
      </trkpt>
      <trkpt lat="42.10501" lon="9.12349">
        <ele>1552.6665039</ele>
        <time>2010-08-29T08:38:51Z</time>
      </trkpt>
      <trkpt lat="42.10497" lon="9.12354">
        <ele>1553.1472168</ele>
        <time>2010-08-29T08:38:58Z</time>
      </trkpt>
      <trkpt lat="42.10493" lon="9.12359">
        <ele>1554.1086426</ele>
        <time>2010-08-29T08:39:05Z</time>
      </trkpt>
      <trkpt lat="42.1049" lon="9.12364">
        <ele>1555.5505371</ele>
        <time>2010-08-29T08:39:12Z</time>
      </trkpt>
      <trkpt lat="42.10485" lon="9.1237">
        <ele>1556.0310059</ele>
        <time>2010-08-29T08:39:19Z</time>
      </trkpt>
      <trkpt lat="42.10482" lon="9.12375">
        <ele>1558.4343262</ele>
        <time>2010-08-29T08:39:26Z</time>
      </trkpt>
      <trkpt lat="42.10479" lon="9.12382">
        <ele>1559.8762207</ele>
        <time>2010-08-29T08:39:35Z</time>
      </trkpt>
      <trkpt lat="42.10475" lon="9.12388">
        <ele>1561.3183594</ele>
        <time>2010-08-29T08:39:44Z</time>
      </trkpt>
      <trkpt lat="42.10474" lon="9.12392">
        <ele>1563.7214355</ele>
        <time>2010-08-29T08:39:51Z</time>
      </trkpt>
      <trkpt lat="42.10471" lon="9.12399">
        <ele>1564.2023926</ele>
        <time>2010-08-29T08:40:00Z</time>
      </trkpt>
      <trkpt lat="42.10468" lon="9.12404">
        <ele>1566.125</ele>
        <time>2010-08-29T08:40:07Z</time>
      </trkpt>
      <trkpt lat="42.10467" lon="9.12407">
        <ele>1567.5668945</ele>
        <time>2010-08-29T08:40:15Z</time>
      </trkpt>
      <trkpt lat="42.1047" lon="9.12411">
        <ele>1569.0090332</ele>
        <time>2010-08-29T08:40:22Z</time>
      </trkpt>
      <trkpt lat="42.10469" lon="9.12416">
        <ele>1569.9702148</ele>
        <time>2010-08-29T08:40:29Z</time>
      </trkpt>
      <trkpt lat="42.10469" lon="9.12417">
        <ele>1570.4509277</ele>
        <time>2010-08-29T08:40:35Z</time>
      </trkpt>
      <trkpt lat="42.10467" lon="9.12418">
        <ele>1571.4121094</ele>
        <time>2010-08-29T08:40:42Z</time>
      </trkpt>
      <trkpt lat="42.10466" lon="9.12419">
        <ele>1571.8928223</ele>
        <time>2010-08-29T08:40:43Z</time>
      </trkpt>
      <trkpt lat="42.10464" lon="9.12424">
        <ele>1571.4121094</ele>
        <time>2010-08-29T08:40:49Z</time>
      </trkpt>
      <trkpt lat="42.10463" lon="9.12427">
        <ele>1571.4121094</ele>
        <time>2010-08-29T08:40:55Z</time>
      </trkpt>
      <trkpt lat="42.10457" lon="9.1243">
        <ele>1572.854248</ele>
        <time>2010-08-29T08:41:03Z</time>
      </trkpt>
      <trkpt lat="42.10452" lon="9.12434">
        <ele>1574.2961426</ele>
        <time>2010-08-29T08:41:11Z</time>
      </trkpt>
      <trkpt lat="42.10453" lon="9.12435">
        <ele>1575.7380371</ele>
        <time>2010-08-29T08:41:18Z</time>
      </trkpt>
      <trkpt lat="42.10454" lon="9.12438">
        <ele>1577.1801758</ele>
        <time>2010-08-29T08:41:24Z</time>
      </trkpt>
      <trkpt lat="42.10452" lon="9.12441">
        <ele>1578.1413574</ele>
        <time>2010-08-29T08:41:31Z</time>
      </trkpt>
      <trkpt lat="42.1045" lon="9.12445">
        <ele>1580.064209</ele>
        <time>2010-08-29T08:41:40Z</time>
      </trkpt>
      <trkpt lat="42.10447" lon="9.12448">
        <ele>1581.0256348</ele>
        <time>2010-08-29T08:41:46Z</time>
      </trkpt>
      <trkpt lat="42.10444" lon="9.12452">
        <ele>1582.4675293</ele>
        <time>2010-08-29T08:41:54Z</time>
      </trkpt>
      <trkpt lat="42.10443" lon="9.12456">
        <ele>1584.3901367</ele>
        <time>2010-08-29T08:42:01Z</time>
      </trkpt>
      <trkpt lat="42.1044" lon="9.12461">
        <ele>1584.3901367</ele>
        <time>2010-08-29T08:42:09Z</time>
      </trkpt>
      <trkpt lat="42.10435" lon="9.12464">
        <ele>1584.8708496</ele>
        <time>2010-08-29T08:42:18Z</time>
      </trkpt>
      <trkpt lat="42.10432" lon="9.12468">
        <ele>1586.7932129</ele>
        <time>2010-08-29T08:42:26Z</time>
      </trkpt>
      <trkpt lat="42.10428" lon="9.12472">
        <ele>1589.1965332</ele>
        <time>2010-08-29T08:42:35Z</time>
      </trkpt>
      <trkpt lat="42.10426" lon="9.12473">
        <ele>1587.7546387</ele>
        <time>2010-08-29T08:42:41Z</time>
      </trkpt>
      <trkpt lat="42.10423" lon="9.12474">
        <ele>1581.0256348</ele>
        <time>2010-08-29T08:42:52Z</time>
      </trkpt>
      <trkpt lat="42.10422" lon="9.12474">
        <ele>1581.5061035</ele>
        <time>2010-08-29T08:43:05Z</time>
      </trkpt>
      <trkpt lat="42.10421" lon="9.12475">
        <ele>1583.9094238</ele>
        <time>2010-08-29T08:43:14Z</time>
      </trkpt>
      <trkpt lat="42.10421" lon="9.12476">
        <ele>1586.3127441</ele>
        <time>2010-08-29T08:43:22Z</time>
      </trkpt>
      <trkpt lat="42.10422" lon="9.12475">
        <ele>1593.5224609</ele>
        <time>2010-08-29T08:43:55Z</time>
      </trkpt>
      <trkpt lat="42.10421" lon="9.12477">
        <ele>1592.0805664</ele>
        <time>2010-08-29T08:44:02Z</time>
      </trkpt>
      <trkpt lat="42.10419" lon="9.12479">
        <ele>1592.5612793</ele>
        <time>2010-08-29T08:44:13Z</time>
      </trkpt>
      <trkpt lat="42.10414" lon="9.12484">
        <ele>1594.0031738</ele>
        <time>2010-08-29T08:44:21Z</time>
      </trkpt>
      <trkpt lat="42.10413" lon="9.12485">
        <ele>1594.9643555</ele>
        <time>2010-08-29T08:44:28Z</time>
      </trkpt>
      <trkpt lat="42.10414" lon="9.12484">
        <ele>1599.7712402</ele>
        <time>2010-08-29T08:44:37Z</time>
      </trkpt>
      <trkpt lat="42.10413" lon="9.12483">
        <ele>1599.7712402</ele>
        <time>2010-08-29T08:44:55Z</time>
      </trkpt>
      <trkpt lat="42.10413" lon="9.12484">
        <ele>1596.887207</ele>
        <time>2010-08-29T08:45:04Z</time>
      </trkpt>
      <trkpt lat="42.10413" lon="9.12483">
        <ele>1595.4450684</ele>
        <time>2010-08-29T08:45:12Z</time>
      </trkpt>
      <trkpt lat="42.10412" lon="9.12483">
        <ele>1596.4067383</ele>
        <time>2010-08-29T08:45:16Z</time>
      </trkpt>
      <trkpt lat="42.10405" lon="9.12484">
        <ele>1598.3291016</ele>
        <time>2010-08-29T08:45:24Z</time>
      </trkpt>
      <trkpt lat="42.10399" lon="9.12487">
        <ele>1600.7324219</ele>
        <time>2010-08-29T08:45:32Z</time>
      </trkpt>
      <trkpt lat="42.10394" lon="9.12489">
        <ele>1602.6550293</ele>
        <time>2010-08-29T08:45:40Z</time>
      </trkpt>
      <trkpt lat="42.10388" lon="9.12489">
        <ele>1604.097168</ele>
        <time>2010-08-29T08:45:47Z</time>
      </trkpt>
      <trkpt lat="42.10381" lon="9.1249">
        <ele>1606.0195312</ele>
        <time>2010-08-29T08:45:57Z</time>
      </trkpt>
      <trkpt lat="42.10375" lon="9.1249">
        <ele>1607.4616699</ele>
        <time>2010-08-29T08:46:05Z</time>
      </trkpt>
      <trkpt lat="42.10373" lon="9.12489">
        <ele>1607.4616699</ele>
        <time>2010-08-29T08:46:08Z</time>
      </trkpt>
      <trkpt lat="42.10368" lon="9.12489">
        <ele>1608.4228516</ele>
        <time>2010-08-29T08:46:16Z</time>
      </trkpt>
      <trkpt lat="42.10363" lon="9.12489">
        <ele>1609.3842773</ele>
        <time>2010-08-29T08:46:23Z</time>
      </trkpt>
      <trkpt lat="42.10357" lon="9.12487">
        <ele>1610.8261719</ele>
        <time>2010-08-29T08:46:30Z</time>
      </trkpt>
      <trkpt lat="42.10352" lon="9.12484">
        <ele>1611.7875977</ele>
        <time>2010-08-29T08:46:37Z</time>
      </trkpt>
      <trkpt lat="42.10345" lon="9.12483">
        <ele>1612.7490234</ele>
        <time>2010-08-29T08:46:46Z</time>
      </trkpt>
      <trkpt lat="42.1034" lon="9.12484">
        <ele>1614.190918</ele>
        <time>2010-08-29T08:46:53Z</time>
      </trkpt>
      <trkpt lat="42.10336" lon="9.12484">
        <ele>1615.6330566</ele>
        <time>2010-08-29T08:46:59Z</time>
      </trkpt>
      <trkpt lat="42.10335" lon="9.12486">
        <ele>1616.5942383</ele>
        <time>2010-08-29T08:47:05Z</time>
      </trkpt>
      <trkpt lat="42.10333" lon="9.12492">
        <ele>1618.0361328</ele>
        <time>2010-08-29T08:47:12Z</time>
      </trkpt>
      <trkpt lat="42.10332" lon="9.12499">
        <ele>1618.9975586</ele>
        <time>2010-08-29T08:47:20Z</time>
      </trkpt>
      <trkpt lat="42.10327" lon="9.12498">
        <ele>1619.4782715</ele>
        <time>2010-08-29T08:47:27Z</time>
      </trkpt>
      <trkpt lat="42.10322" lon="9.12499">
        <ele>1620.4394531</ele>
        <time>2010-08-29T08:47:34Z</time>
      </trkpt>
      <trkpt lat="42.10319" lon="9.12503">
        <ele>1622.3620605</ele>
        <time>2010-08-29T08:47:42Z</time>
      </trkpt>
      <trkpt lat="42.10318" lon="9.12506">
        <ele>1623.8039551</ele>
        <time>2010-08-29T08:47:48Z</time>
      </trkpt>
      <trkpt lat="42.10317" lon="9.12513">
        <ele>1625.2458496</ele>
        <time>2010-08-29T08:47:55Z</time>
      </trkpt>
      <trkpt lat="42.10317" lon="9.12525">
        <ele>1626.2072754</ele>
        <time>2010-08-29T08:48:05Z</time>
      </trkpt>
      <trkpt lat="42.10318" lon="9.12535">
        <ele>1625.2458496</ele>
        <time>2010-08-29T08:48:13Z</time>
      </trkpt>
      <trkpt lat="42.10318" lon="9.12537">
        <ele>1625.2458496</ele>
        <time>2010-08-29T08:48:20Z</time>
      </trkpt>
      <trkpt lat="42.10316" lon="9.12534">
        <ele>1623.8039551</ele>
        <time>2010-08-29T08:48:25Z</time>
      </trkpt>
      <trkpt lat="42.10315" lon="9.12532">
        <ele>1623.8039551</ele>
        <time>2010-08-29T08:48:27Z</time>
      </trkpt>
      <trkpt lat="42.10313" lon="9.12523">
        <ele>1624.7653809</ele>
        <time>2010-08-29T08:48:35Z</time>
      </trkpt>
      <trkpt lat="42.10308" lon="9.12522">
        <ele>1627.6491699</ele>
        <time>2010-08-29T08:48:42Z</time>
      </trkpt>
      <trkpt lat="42.10305" lon="9.1252">
        <ele>1629.0913086</ele>
        <time>2010-08-29T08:48:48Z</time>
      </trkpt>
      <trkpt lat="42.10301" lon="9.1252">
        <ele>1631.0141602</ele>
        <time>2010-08-29T08:48:57Z</time>
      </trkpt>
      <trkpt lat="42.10297" lon="9.12521">
        <ele>1633.4172363</ele>
        <time>2010-08-29T08:49:04Z</time>
      </trkpt>
      <trkpt lat="42.10293" lon="9.12526">
        <ele>1634.859375</ele>
        <time>2010-08-29T08:49:12Z</time>
      </trkpt>
      <trkpt lat="42.10288" lon="9.12531">
        <ele>1636.3012695</ele>
        <time>2010-08-29T08:49:21Z</time>
      </trkpt>
      <trkpt lat="42.10284" lon="9.12524">
        <ele>1637.7431641</ele>
        <time>2010-08-29T08:49:30Z</time>
      </trkpt>
      <trkpt lat="42.1028" lon="9.12521">
        <ele>1639.1850586</ele>
        <time>2010-08-29T08:49:37Z</time>
      </trkpt>
      <trkpt lat="42.10276" lon="9.12518">
        <ele>1640.6269531</ele>
        <time>2010-08-29T08:49:44Z</time>
      </trkpt>
      <trkpt lat="42.10271" lon="9.12515">
        <ele>1643.0302734</ele>
        <time>2010-08-29T08:49:53Z</time>
      </trkpt>
      <trkpt lat="42.10267" lon="9.12514">
        <ele>1644.4724121</ele>
        <time>2010-08-29T08:50:00Z</time>
      </trkpt>
      <trkpt lat="42.10264" lon="9.12516">
        <ele>1645.4338379</ele>
        <time>2010-08-29T08:50:07Z</time>
      </trkpt>
      <trkpt lat="42.10261" lon="9.12517">
        <ele>1646.3952637</ele>
        <time>2010-08-29T08:50:13Z</time>
      </trkpt>
      <trkpt lat="42.10259" lon="9.12523">
        <ele>1647.8371582</ele>
        <time>2010-08-29T08:50:21Z</time>
      </trkpt>
      <trkpt lat="42.10257" lon="9.12519">
        <ele>1649.7597656</ele>
        <time>2010-08-29T08:50:28Z</time>
      </trkpt>
      <trkpt lat="42.10252" lon="9.12515">
        <ele>1652.1628418</ele>
        <time>2010-08-29T08:50:37Z</time>
      </trkpt>
      <trkpt lat="42.10249" lon="9.12513">
        <ele>1653.6049805</ele>
        <time>2010-08-29T08:50:44Z</time>
      </trkpt>
      <trkpt lat="42.10243" lon="9.12508">
        <ele>1655.046875</ele>
        <time>2010-08-29T08:50:52Z</time>
      </trkpt>
      <trkpt lat="42.10241" lon="9.12511">
        <ele>1655.5275879</ele>
        <time>2010-08-29T08:50:58Z</time>
      </trkpt>
      <trkpt lat="42.1024" lon="9.12516">
        <ele>1656.0080566</ele>
        <time>2010-08-29T08:51:06Z</time>
      </trkpt>
      <trkpt lat="42.10237" lon="9.12516">
        <ele>1656.4887695</ele>
        <time>2010-08-29T08:51:12Z</time>
      </trkpt>
      <trkpt lat="42.10235" lon="9.12515">
        <ele>1654.5661621</ele>
        <time>2010-08-29T08:51:19Z</time>
      </trkpt>
      <trkpt lat="42.10236" lon="9.12514">
        <ele>1655.046875</ele>
        <time>2010-08-29T08:51:31Z</time>
      </trkpt>
      <trkpt lat="42.10234" lon="9.12513">
        <ele>1656.4887695</ele>
        <time>2010-08-29T08:51:55Z</time>
      </trkpt>
      <trkpt lat="42.1023" lon="9.12513">
        <ele>1657.9309082</ele>
        <time>2010-08-29T08:52:02Z</time>
      </trkpt>
      <trkpt lat="42.10227" lon="9.12512">
        <ele>1658.8920898</ele>
        <time>2010-08-29T08:52:08Z</time>
      </trkpt>
      <trkpt lat="42.10223" lon="9.12512">
        <ele>1661.2956543</ele>
        <time>2010-08-29T08:52:15Z</time>
      </trkpt>
      <trkpt lat="42.10221" lon="9.12514">
        <ele>1663.2182617</ele>
        <time>2010-08-29T08:52:21Z</time>
      </trkpt>
      <trkpt lat="42.1022" lon="9.12516">
        <ele>1663.6987305</ele>
        <time>2010-08-29T08:52:27Z</time>
      </trkpt>
      <trkpt lat="42.10218" lon="9.12518">
        <ele>1664.6601562</ele>
        <time>2010-08-29T08:52:33Z</time>
      </trkpt>
      <trkpt lat="42.10215" lon="9.12521">
        <ele>1665.621582</ele>
        <time>2010-08-29T08:52:40Z</time>
      </trkpt>
      <trkpt lat="42.10213" lon="9.12523">
        <ele>1666.5827637</ele>
        <time>2010-08-29T08:52:46Z</time>
      </trkpt>
      <trkpt lat="42.10209" lon="9.12525">
        <ele>1668.0246582</ele>
        <time>2010-08-29T08:52:53Z</time>
      </trkpt>
      <trkpt lat="42.10206" lon="9.12523">
        <ele>1669.9472656</ele>
        <time>2010-08-29T08:53:01Z</time>
      </trkpt>
      <trkpt lat="42.10203" lon="9.12521">
        <ele>1671.3891602</ele>
        <time>2010-08-29T08:53:07Z</time>
      </trkpt>
      <trkpt lat="42.102" lon="9.12523">
        <ele>1673.3120117</ele>
        <time>2010-08-29T08:53:14Z</time>
      </trkpt>
      <trkpt lat="42.10197" lon="9.1252">
        <ele>1675.234375</ele>
        <time>2010-08-29T08:53:23Z</time>
      </trkpt>
      <trkpt lat="42.10195" lon="9.1252">
        <ele>1676.6767578</ele>
        <time>2010-08-29T08:53:29Z</time>
      </trkpt>
      <trkpt lat="42.10191" lon="9.12519">
        <ele>1678.5993652</ele>
        <time>2010-08-29T08:53:37Z</time>
      </trkpt>
      <trkpt lat="42.10189" lon="9.12522">
        <ele>1679.5605469</ele>
        <time>2010-08-29T08:53:44Z</time>
      </trkpt>
      <trkpt lat="42.10184" lon="9.12521">
        <ele>1681.0026855</ele>
        <time>2010-08-29T08:53:52Z</time>
      </trkpt>
      <trkpt lat="42.10182" lon="9.12522">
        <ele>1681.9638672</ele>
        <time>2010-08-29T08:53:57Z</time>
      </trkpt>
      <trkpt lat="42.10178" lon="9.1252">
        <ele>1683.4057617</ele>
        <time>2010-08-29T08:54:04Z</time>
      </trkpt>
      <trkpt lat="42.10176" lon="9.12516">
        <ele>1683.8864746</ele>
        <time>2010-08-29T08:54:11Z</time>
      </trkpt>
      <trkpt lat="42.10172" lon="9.12513">
        <ele>1683.8864746</ele>
        <time>2010-08-29T08:54:17Z</time>
      </trkpt>
      <trkpt lat="42.10169" lon="9.12511">
        <ele>1684.3671875</ele>
        <time>2010-08-29T08:54:23Z</time>
      </trkpt>
      <trkpt lat="42.10166" lon="9.12506">
        <ele>1687.2509766</ele>
        <time>2010-08-29T08:54:30Z</time>
      </trkpt>
      <trkpt lat="42.10164" lon="9.12505">
        <ele>1687.2509766</ele>
        <time>2010-08-29T08:54:37Z</time>
      </trkpt>
      <trkpt lat="42.10163" lon="9.12501">
        <ele>1687.2509766</ele>
        <time>2010-08-29T08:54:46Z</time>
      </trkpt>
      <trkpt lat="42.10161" lon="9.125">
        <ele>1688.6931152</ele>
        <time>2010-08-29T08:54:52Z</time>
      </trkpt>
      <trkpt lat="42.10158" lon="9.125">
        <ele>1689.6542969</ele>
        <time>2010-08-29T08:54:59Z</time>
      </trkpt>
      <trkpt lat="42.10158" lon="9.12503">
        <ele>1691.5769043</ele>
        <time>2010-08-29T08:55:06Z</time>
      </trkpt>
      <trkpt lat="42.10159" lon="9.12506">
        <ele>1693.019043</ele>
        <time>2010-08-29T08:55:13Z</time>
      </trkpt>
      <trkpt lat="42.10158" lon="9.12512">
        <ele>1693.9804688</ele>
        <time>2010-08-29T08:55:21Z</time>
      </trkpt>
      <trkpt lat="42.10156" lon="9.12516">
        <ele>1693.9804688</ele>
        <time>2010-08-29T08:55:27Z</time>
      </trkpt>
      <trkpt lat="42.10153" lon="9.12515">
        <ele>1695.4223633</ele>
        <time>2010-08-29T08:55:34Z</time>
      </trkpt>
      <trkpt lat="42.10149" lon="9.12514">
        <ele>1697.3449707</ele>
        <time>2010-08-29T08:55:41Z</time>
      </trkpt>
      <trkpt lat="42.10146" lon="9.12514">
        <ele>1698.7868652</ele>
        <time>2010-08-29T08:55:48Z</time>
      </trkpt>
      <trkpt lat="42.10144" lon="9.12511">
        <ele>1700.7094727</ele>
        <time>2010-08-29T08:55:54Z</time>
      </trkpt>
      <trkpt lat="42.10142" lon="9.12511">
        <ele>1702.6320801</ele>
        <time>2010-08-29T08:56:02Z</time>
      </trkpt>
      <trkpt lat="42.10139" lon="9.12513">
        <ele>1705.0354004</ele>
        <time>2010-08-29T08:56:09Z</time>
      </trkpt>
      <trkpt lat="42.10137" lon="9.12511">
        <ele>1704.0742188</ele>
        <time>2010-08-29T08:56:14Z</time>
      </trkpt>
      <trkpt lat="42.10135" lon="9.12508">
        <ele>1706.9580078</ele>
        <time>2010-08-29T08:56:21Z</time>
      </trkpt>
      <trkpt lat="42.10132" lon="9.12504">
        <ele>1708.4001465</ele>
        <time>2010-08-29T08:56:27Z</time>
      </trkpt>
      <trkpt lat="42.10129" lon="9.12502">
        <ele>1709.3615723</ele>
        <time>2010-08-29T08:56:35Z</time>
      </trkpt>
      <trkpt lat="42.1013" lon="9.12501">
        <ele>1705.5161133</ele>
        <time>2010-08-29T08:56:45Z</time>
      </trkpt>
      <trkpt lat="42.10131" lon="9.12502">
        <ele>1702.6320801</ele>
        <time>2010-08-29T08:56:57Z</time>
      </trkpt>
      <trkpt lat="42.10132" lon="9.12501">
        <ele>1703.112793</ele>
        <time>2010-08-29T08:57:16Z</time>
      </trkpt>
      <trkpt lat="42.10132" lon="9.12502">
        <ele>1702.1513672</ele>
        <time>2010-08-29T08:57:30Z</time>
      </trkpt>
      <trkpt lat="42.10131" lon="9.12501">
        <ele>1705.0354004</ele>
        <time>2010-08-29T08:57:54Z</time>
      </trkpt>
      <trkpt lat="42.10128" lon="9.12502">
        <ele>1708.4001465</ele>
        <time>2010-08-29T08:58:01Z</time>
      </trkpt>
      <trkpt lat="42.10125" lon="9.12502">
        <ele>1706.9580078</ele>
        <time>2010-08-29T08:58:10Z</time>
      </trkpt>
      <trkpt lat="42.10124" lon="9.12501">
        <ele>1707.4387207</ele>
        <time>2010-08-29T08:58:21Z</time>
      </trkpt>
      <trkpt lat="42.10124" lon="9.12501">
        <ele>1708.4001465</ele>
        <time>2010-08-29T08:58:31Z</time>
      </trkpt>
      <trkpt lat="42.10124" lon="9.125">
        <ele>1708.8808594</ele>
        <time>2010-08-29T08:58:45Z</time>
      </trkpt>
      <trkpt lat="42.10123" lon="9.12498">
        <ele>1709.3615723</ele>
        <time>2010-08-29T08:58:55Z</time>
      </trkpt>
      <trkpt lat="42.10123" lon="9.12501">
        <ele>1707.4387207</ele>
        <time>2010-08-29T08:59:02Z</time>
      </trkpt>
      <trkpt lat="42.10121" lon="9.12499">
        <ele>1706.9580078</ele>
        <time>2010-08-29T08:59:08Z</time>
      </trkpt>
      <trkpt lat="42.10122" lon="9.12498">
        <ele>1707.4387207</ele>
        <time>2010-08-29T08:59:17Z</time>
      </trkpt>
      <trkpt lat="42.10122" lon="9.12497">
        <ele>1707.9194336</ele>
        <time>2010-08-29T08:59:26Z</time>
      </trkpt>
      <trkpt lat="42.10122" lon="9.12498">
        <ele>1707.9194336</ele>
        <time>2010-08-29T08:59:34Z</time>
      </trkpt>
      <trkpt lat="42.10119" lon="9.125">
        <ele>1704.5546875</ele>
        <time>2010-08-29T08:59:54Z</time>
      </trkpt>
      <trkpt lat="42.10119" lon="9.125">
        <ele>1705.5161133</ele>
        <time>2010-08-29T09:00:05Z</time>
      </trkpt>
      <trkpt lat="42.10118" lon="9.12501">
        <ele>1706.4772949</ele>
        <time>2010-08-29T09:00:13Z</time>
      </trkpt>
      <trkpt lat="42.10114" lon="9.12502">
        <ele>1708.4001465</ele>
        <time>2010-08-29T09:00:20Z</time>
      </trkpt>
      <trkpt lat="42.10114" lon="9.12504">
        <ele>1710.8034668</ele>
        <time>2010-08-29T09:00:26Z</time>
      </trkpt>
      <trkpt lat="42.10114" lon="9.12511">
        <ele>1712.2453613</ele>
        <time>2010-08-29T09:00:34Z</time>
      </trkpt>
      <trkpt lat="42.1011" lon="9.12513">
        <ele>1713.6872559</ele>
        <time>2010-08-29T09:00:40Z</time>
      </trkpt>
      <trkpt lat="42.10106" lon="9.12516">
        <ele>1715.1293945</ele>
        <time>2010-08-29T09:00:47Z</time>
      </trkpt>
      <trkpt lat="42.10102" lon="9.12516">
        <ele>1717.052002</ele>
        <time>2010-08-29T09:00:54Z</time>
      </trkpt>
      <trkpt lat="42.10097" lon="9.12516">
        <ele>1718.4938965</ele>
        <time>2010-08-29T09:01:01Z</time>
      </trkpt>
      <trkpt lat="42.10094" lon="9.12518">
        <ele>1720.8972168</ele>
        <time>2010-08-29T09:01:08Z</time>
      </trkpt>
      <trkpt lat="42.10091" lon="9.12519">
        <ele>1722.3391113</ele>
        <time>2010-08-29T09:01:14Z</time>
      </trkpt>
      <trkpt lat="42.10087" lon="9.12517">
        <ele>1723.3005371</ele>
        <time>2010-08-29T09:01:20Z</time>
      </trkpt>
      <trkpt lat="42.10082" lon="9.12516">
        <ele>1724.2619629</ele>
        <time>2010-08-29T09:01:26Z</time>
      </trkpt>
      <trkpt lat="42.10075" lon="9.12517">
        <ele>1725.2231445</ele>
        <time>2010-08-29T09:01:36Z</time>
      </trkpt>
      <trkpt lat="42.1007" lon="9.12517">
        <ele>1726.6652832</ele>
        <time>2010-08-29T09:01:43Z</time>
      </trkpt>
      <trkpt lat="42.10065" lon="9.12518">
        <ele>1728.1071777</ele>
        <time>2010-08-29T09:01:50Z</time>
      </trkpt>
      <trkpt lat="42.1006" lon="9.12516">
        <ele>1729.5490723</ele>
        <time>2010-08-29T09:01:58Z</time>
      </trkpt>
      <trkpt lat="42.10054" lon="9.12516">
        <ele>1730.9912109</ele>
        <time>2010-08-29T09:02:07Z</time>
      </trkpt>
      <trkpt lat="42.10052" lon="9.12518">
        <ele>1731.4716797</ele>
        <time>2010-08-29T09:02:12Z</time>
      </trkpt>
      <trkpt lat="42.10048" lon="9.12522">
        <ele>1732.9135742</ele>
        <time>2010-08-29T09:02:20Z</time>
      </trkpt>
      <trkpt lat="42.10042" lon="9.12522">
        <ele>1733.875</ele>
        <time>2010-08-29T09:02:28Z</time>
      </trkpt>
      <trkpt lat="42.10036" lon="9.12523">
        <ele>1735.3168945</ele>
        <time>2010-08-29T09:02:36Z</time>
      </trkpt>
      <trkpt lat="42.10032" lon="9.12521">
        <ele>1736.7587891</ele>
        <time>2010-08-29T09:02:44Z</time>
      </trkpt>
      <trkpt lat="42.10028" lon="9.12522">
        <ele>1738.2009277</ele>
        <time>2010-08-29T09:02:51Z</time>
      </trkpt>
      <trkpt lat="42.10023" lon="9.12521">
        <ele>1740.1237793</ele>
        <time>2010-08-29T09:02:58Z</time>
      </trkpt>
      <trkpt lat="42.10019" lon="9.12523">
        <ele>1741.5656738</ele>
        <time>2010-08-29T09:03:05Z</time>
      </trkpt>
      <trkpt lat="42.10015" lon="9.12522">
        <ele>1743.0075684</ele>
        <time>2010-08-29T09:03:12Z</time>
      </trkpt>
      <trkpt lat="42.10011" lon="9.12522">
        <ele>1743.9689941</ele>
        <time>2010-08-29T09:03:19Z</time>
      </trkpt>
      <trkpt lat="42.10009" lon="9.12522">
        <ele>1744.9301758</ele>
        <time>2010-08-29T09:03:25Z</time>
      </trkpt>
      <trkpt lat="42.10005" lon="9.12522">
        <ele>1746.3723145</ele>
        <time>2010-08-29T09:03:33Z</time>
      </trkpt>
      <trkpt lat="42.10003" lon="9.12521">
        <ele>1746.8527832</ele>
        <time>2010-08-29T09:03:39Z</time>
      </trkpt>
      <trkpt lat="42.10002" lon="9.12524">
        <ele>1748.7753906</ele>
        <time>2010-08-29T09:03:46Z</time>
      </trkpt>
      <trkpt lat="42.1" lon="9.12527">
        <ele>1748.7753906</ele>
        <time>2010-08-29T09:03:52Z</time>
      </trkpt>
      <trkpt lat="42.09996" lon="9.12525">
        <ele>1749.2561035</ele>
        <time>2010-08-29T09:03:59Z</time>
      </trkpt>
      <trkpt lat="42.09994" lon="9.12528">
        <ele>1750.697998</ele>
        <time>2010-08-29T09:04:07Z</time>
      </trkpt>
      <trkpt lat="42.09989" lon="9.12526">
        <ele>1752.1398926</ele>
        <time>2010-08-29T09:04:14Z</time>
      </trkpt>
      <trkpt lat="42.09984" lon="9.12523">
        <ele>1752.6206055</ele>
        <time>2010-08-29T09:04:21Z</time>
      </trkpt>
      <trkpt lat="42.09977" lon="9.12519">
        <ele>1754.0627441</ele>
        <time>2010-08-29T09:04:32Z</time>
      </trkpt>
      <trkpt lat="42.09975" lon="9.1252">
        <ele>1755.5046387</ele>
        <time>2010-08-29T09:04:38Z</time>
      </trkpt>
      <trkpt lat="42.09976" lon="9.12523">
        <ele>1756.4660645</ele>
        <time>2010-08-29T09:04:44Z</time>
      </trkpt>
      <trkpt lat="42.09974" lon="9.12525">
        <ele>1756.9467773</ele>
        <time>2010-08-29T09:04:50Z</time>
      </trkpt>
      <trkpt lat="42.09969" lon="9.12525">
        <ele>1758.3886719</ele>
        <time>2010-08-29T09:05:00Z</time>
      </trkpt>
      <trkpt lat="42.0997" lon="9.12531">
        <ele>1760.3112793</ele>
        <time>2010-08-29T09:05:07Z</time>
      </trkpt>
      <trkpt lat="42.09968" lon="9.12536">
        <ele>1761.2727051</ele>
        <time>2010-08-29T09:05:15Z</time>
      </trkpt>
      <trkpt lat="42.09965" lon="9.12535">
        <ele>1762.2338867</ele>
        <time>2010-08-29T09:05:21Z</time>
      </trkpt>
      <trkpt lat="42.0996" lon="9.12535">
        <ele>1763.6757812</ele>
        <time>2010-08-29T09:05:29Z</time>
      </trkpt>
      <trkpt lat="42.09956" lon="9.12534">
        <ele>1765.1179199</ele>
        <time>2010-08-29T09:05:37Z</time>
      </trkpt>
      <trkpt lat="42.09956" lon="9.12534">
        <ele>1765.5986328</ele>
        <time>2010-08-29T09:05:43Z</time>
      </trkpt>
      <trkpt lat="42.09951" lon="9.12532">
        <ele>1767.5209961</ele>
        <time>2010-08-29T09:05:52Z</time>
      </trkpt>
      <trkpt lat="42.09947" lon="9.12531">
        <ele>1768.4824219</ele>
        <time>2010-08-29T09:05:59Z</time>
      </trkpt>
      <trkpt lat="42.09943" lon="9.12531">
        <ele>1769.4438477</ele>
        <time>2010-08-29T09:06:06Z</time>
      </trkpt>
      <trkpt lat="42.0994" lon="9.12532">
        <ele>1770.8857422</ele>
        <time>2010-08-29T09:06:14Z</time>
      </trkpt>
      <trkpt lat="42.09935" lon="9.12532">
        <ele>1771.8469238</ele>
        <time>2010-08-29T09:06:21Z</time>
      </trkpt>
      <trkpt lat="42.09932" lon="9.12534">
        <ele>1772.8085938</ele>
        <time>2010-08-29T09:06:31Z</time>
      </trkpt>
      <trkpt lat="42.0993" lon="9.12539">
        <ele>1774.7312012</ele>
        <time>2010-08-29T09:06:39Z</time>
      </trkpt>
      <trkpt lat="42.09929" lon="9.12546">
        <ele>1776.1730957</ele>
        <time>2010-08-29T09:06:47Z</time>
      </trkpt>
      <trkpt lat="42.09926" lon="9.12548">
        <ele>1777.1345215</ele>
        <time>2010-08-29T09:06:55Z</time>
      </trkpt>
      <trkpt lat="42.09921" lon="9.12545">
        <ele>1779.0568848</ele>
        <time>2010-08-29T09:07:03Z</time>
      </trkpt>
      <trkpt lat="42.09918" lon="9.12543">
        <ele>1780.9797363</ele>
        <time>2010-08-29T09:07:10Z</time>
      </trkpt>
      <trkpt lat="42.09915" lon="9.12544">
        <ele>1782.4216309</ele>
        <time>2010-08-29T09:07:17Z</time>
      </trkpt>
      <trkpt lat="42.09912" lon="9.12543">
        <ele>1783.3828125</ele>
        <time>2010-08-29T09:07:23Z</time>
      </trkpt>
      <trkpt lat="42.09912" lon="9.12547">
        <ele>1784.3442383</ele>
        <time>2010-08-29T09:07:29Z</time>
      </trkpt>
      <trkpt lat="42.09908" lon="9.12552">
        <ele>1786.7473145</ele>
        <time>2010-08-29T09:07:38Z</time>
      </trkpt>
      <trkpt lat="42.09903" lon="9.12549">
        <ele>1788.6704102</ele>
        <time>2010-08-29T09:07:47Z</time>
      </trkpt>
      <trkpt lat="42.09897" lon="9.12545">
        <ele>1790.5927734</ele>
        <time>2010-08-29T09:07:56Z</time>
      </trkpt>
      <trkpt lat="42.09892" lon="9.12545">
        <ele>1792.0349121</ele>
        <time>2010-08-29T09:08:06Z</time>
      </trkpt>
      <trkpt lat="42.09889" lon="9.12546">
        <ele>1793.4768066</ele>
        <time>2010-08-29T09:08:14Z</time>
      </trkpt>
      <trkpt lat="42.09888" lon="9.12551">
        <ele>1794.9187012</ele>
        <time>2010-08-29T09:08:22Z</time>
      </trkpt>
      <trkpt lat="42.09887" lon="9.12559">
        <ele>1796.3608398</ele>
        <time>2010-08-29T09:08:31Z</time>
      </trkpt>
      <trkpt lat="42.09885" lon="9.12566">
        <ele>1797.3220215</ele>
        <time>2010-08-29T09:08:39Z</time>
      </trkpt>
      <trkpt lat="42.09882" lon="9.12567">
        <ele>1797.3220215</ele>
        <time>2010-08-29T09:08:47Z</time>
      </trkpt>
      <trkpt lat="42.09881" lon="9.12567">
        <ele>1797.3220215</ele>
        <time>2010-08-29T09:08:54Z</time>
      </trkpt>
      <trkpt lat="42.09881" lon="9.12567">
        <ele>1798.2832031</ele>
        <time>2010-08-29T09:09:10Z</time>
      </trkpt>
      <trkpt lat="42.09881" lon="9.12566">
        <ele>1797.3220215</ele>
        <time>2010-08-29T09:09:27Z</time>
      </trkpt>
      <trkpt lat="42.09881" lon="9.12568">
        <ele>1795.3994141</ele>
        <time>2010-08-29T09:09:37Z</time>
      </trkpt>
      <trkpt lat="42.09881" lon="9.12569">
        <ele>1794.4379883</ele>
        <time>2010-08-29T09:09:46Z</time>
      </trkpt>
      <trkpt lat="42.0988" lon="9.12567">
        <ele>1797.8027344</ele>
        <time>2010-08-29T09:09:55Z</time>
      </trkpt>
      <trkpt lat="42.09878" lon="9.12567">
        <ele>1797.3220215</ele>
        <time>2010-08-29T09:10:01Z</time>
      </trkpt>
      <trkpt lat="42.09875" lon="9.1257">
        <ele>1799.2446289</ele>
        <time>2010-08-29T09:10:08Z</time>
      </trkpt>
      <trkpt lat="42.09873" lon="9.12568">
        <ele>1800.2060547</ele>
        <time>2010-08-29T09:10:14Z</time>
      </trkpt>
      <trkpt lat="42.09874" lon="9.12568">
        <ele>1801.1672363</ele>
        <time>2010-08-29T09:10:21Z</time>
      </trkpt>
      <trkpt lat="42.09872" lon="9.12567">
        <ele>1801.6479492</ele>
        <time>2010-08-29T09:10:29Z</time>
      </trkpt>
      <trkpt lat="42.09867" lon="9.12569">
        <ele>1802.6091309</ele>
        <time>2010-08-29T09:10:37Z</time>
      </trkpt>
      <trkpt lat="42.09861" lon="9.12565">
        <ele>1804.5319824</ele>
        <time>2010-08-29T09:10:46Z</time>
      </trkpt>
      <trkpt lat="42.09857" lon="9.12565">
        <ele>1805.4934082</ele>
        <time>2010-08-29T09:10:52Z</time>
      </trkpt>
      <trkpt lat="42.09856" lon="9.12567">
        <ele>1806.9353027</ele>
        <time>2010-08-29T09:10:59Z</time>
      </trkpt>
      <trkpt lat="42.09852" lon="9.12568">
        <ele>1808.3771973</ele>
        <time>2010-08-29T09:11:05Z</time>
      </trkpt>
      <trkpt lat="42.09851" lon="9.12572">
        <ele>1809.338623</ele>
        <time>2010-08-29T09:11:11Z</time>
      </trkpt>
      <trkpt lat="42.09848" lon="9.12575">
        <ele>1810.2998047</ele>
        <time>2010-08-29T09:11:18Z</time>
      </trkpt>
      <trkpt lat="42.09845" lon="9.12578">
        <ele>1810.7805176</ele>
        <time>2010-08-29T09:11:25Z</time>
      </trkpt>
      <trkpt lat="42.09842" lon="9.12578">
        <ele>1811.7419434</ele>
        <time>2010-08-29T09:11:31Z</time>
      </trkpt>
      <trkpt lat="42.09843" lon="9.12578">
        <ele>1812.2224121</ele>
        <time>2010-08-29T09:11:34Z</time>
      </trkpt>
      <trkpt lat="42.09843" lon="9.12588">
        <ele>1813.6643066</ele>
        <time>2010-08-29T09:11:42Z</time>
      </trkpt>
      <trkpt lat="42.09842" lon="9.12597">
        <ele>1814.6257324</ele>
        <time>2010-08-29T09:11:50Z</time>
      </trkpt>
      <trkpt lat="42.0984" lon="9.12602">
        <ele>1815.5871582</ele>
        <time>2010-08-29T09:11:57Z</time>
      </trkpt>
      <trkpt lat="42.09837" lon="9.12606">
        <ele>1817.0290527</ele>
        <time>2010-08-29T09:12:04Z</time>
      </trkpt>
      <trkpt lat="42.09833" lon="9.12608">
        <ele>1817.9902344</ele>
        <time>2010-08-29T09:12:12Z</time>
      </trkpt>
      <trkpt lat="42.09832" lon="9.12616">
        <ele>1819.432373</ele>
        <time>2010-08-29T09:12:21Z</time>
      </trkpt>
      <trkpt lat="42.09829" lon="9.1262">
        <ele>1820.8745117</ele>
        <time>2010-08-29T09:12:27Z</time>
      </trkpt>
      <trkpt lat="42.09828" lon="9.12628">
        <ele>1820.3937988</ele>
        <time>2010-08-29T09:12:35Z</time>
      </trkpt>
      <trkpt lat="42.09826" lon="9.12635">
        <ele>1821.3549805</ele>
        <time>2010-08-29T09:12:43Z</time>
      </trkpt>
      <trkpt lat="42.09823" lon="9.12641">
        <ele>1822.7971191</ele>
        <time>2010-08-29T09:12:51Z</time>
      </trkpt>
      <trkpt lat="42.09824" lon="9.12643">
        <ele>1824.2390137</ele>
        <time>2010-08-29T09:12:58Z</time>
      </trkpt>
      <trkpt lat="42.09823" lon="9.12644">
        <ele>1824.7197266</ele>
        <time>2010-08-29T09:13:03Z</time>
      </trkpt>
      <trkpt lat="42.09824" lon="9.12643">
        <ele>1825.2001953</ele>
        <time>2010-08-29T09:13:10Z</time>
      </trkpt>
      <trkpt lat="42.09824" lon="9.12644">
        <ele>1824.7197266</ele>
        <time>2010-08-29T09:13:23Z</time>
      </trkpt>
      <trkpt lat="42.09824" lon="9.12647">
        <ele>1823.7583008</ele>
        <time>2010-08-29T09:13:28Z</time>
      </trkpt>
      <trkpt lat="42.09822" lon="9.12652">
        <ele>1823.7583008</ele>
        <time>2010-08-29T09:13:34Z</time>
      </trkpt>
      <trkpt lat="42.09821" lon="9.12657">
        <ele>1823.277832</ele>
        <time>2010-08-29T09:13:40Z</time>
      </trkpt>
      <trkpt lat="42.09822" lon="9.12658">
        <ele>1823.277832</ele>
        <time>2010-08-29T09:13:48Z</time>
      </trkpt>
      <trkpt lat="42.0982" lon="9.12664">
        <ele>1823.277832</ele>
        <time>2010-08-29T09:13:55Z</time>
      </trkpt>
      <trkpt lat="42.09817" lon="9.12669">
        <ele>1824.2390137</ele>
        <time>2010-08-29T09:14:01Z</time>
      </trkpt>
      <trkpt lat="42.09814" lon="9.12674">
        <ele>1826.642334</ele>
        <time>2010-08-29T09:14:09Z</time>
      </trkpt>
      <trkpt lat="42.09811" lon="9.12676">
        <ele>1828.5649414</ele>
        <time>2010-08-29T09:14:17Z</time>
      </trkpt>
      <trkpt lat="42.09809" lon="9.12678">
        <ele>1830.0068359</ele>
        <time>2010-08-29T09:14:24Z</time>
      </trkpt>
      <trkpt lat="42.09805" lon="9.12686">
        <ele>1829.0454102</ele>
        <time>2010-08-29T09:14:32Z</time>
      </trkpt>
      <trkpt lat="42.09801" lon="9.12689">
        <ele>1829.526123</ele>
        <time>2010-08-29T09:14:39Z</time>
      </trkpt>
      <trkpt lat="42.09797" lon="9.12692">
        <ele>1830.9682617</ele>
        <time>2010-08-29T09:14:46Z</time>
      </trkpt>
      <trkpt lat="42.09793" lon="9.12695">
        <ele>1831.9294434</ele>
        <time>2010-08-29T09:14:52Z</time>
      </trkpt>
      <trkpt lat="42.0979" lon="9.12699">
        <ele>1833.3713379</ele>
        <time>2010-08-29T09:15:00Z</time>
      </trkpt>
      <trkpt lat="42.09786" lon="9.12702">
        <ele>1834.3327637</ele>
        <time>2010-08-29T09:15:07Z</time>
      </trkpt>
      <trkpt lat="42.09782" lon="9.12703">
        <ele>1834.8134766</ele>
        <time>2010-08-29T09:15:15Z</time>
      </trkpt>
      <trkpt lat="42.09779" lon="9.12705">
        <ele>1835.7746582</ele>
        <time>2010-08-29T09:15:22Z</time>
      </trkpt>
      <trkpt lat="42.09775" lon="9.12706">
        <ele>1837.2167969</ele>
        <time>2010-08-29T09:15:30Z</time>
      </trkpt>
      <trkpt lat="42.0977" lon="9.12706">
        <ele>1839.1394043</ele>
        <time>2010-08-29T09:15:37Z</time>
      </trkpt>
      <trkpt lat="42.09764" lon="9.12707">
        <ele>1840.1008301</ele>
        <time>2010-08-29T09:15:45Z</time>
      </trkpt>
      <trkpt lat="42.0976" lon="9.12713">
        <ele>1840.1008301</ele>
        <time>2010-08-29T09:15:52Z</time>
      </trkpt>
      <trkpt lat="42.09756" lon="9.12716">
        <ele>1840.1008301</ele>
        <time>2010-08-29T09:15:58Z</time>
      </trkpt>
      <trkpt lat="42.0975" lon="9.12718">
        <ele>1840.1008301</ele>
        <time>2010-08-29T09:16:06Z</time>
      </trkpt>
      <trkpt lat="42.09746" lon="9.12722">
        <ele>1841.5427246</ele>
        <time>2010-08-29T09:16:12Z</time>
      </trkpt>
      <trkpt lat="42.09742" lon="9.12726">
        <ele>1842.5041504</ele>
        <time>2010-08-29T09:16:18Z</time>
      </trkpt>
      <trkpt lat="42.09737" lon="9.1273">
        <ele>1842.5041504</ele>
        <time>2010-08-29T09:16:25Z</time>
      </trkpt>
      <trkpt lat="42.09736" lon="9.12731">
        <ele>1842.0234375</ele>
        <time>2010-08-29T09:16:27Z</time>
      </trkpt>
      <trkpt lat="42.09728" lon="9.12733">
        <ele>1842.0234375</ele>
        <time>2010-08-29T09:16:35Z</time>
      </trkpt>
      <trkpt lat="42.09723" lon="9.12736">
        <ele>1841.5427246</ele>
        <time>2010-08-29T09:16:41Z</time>
      </trkpt>
      <trkpt lat="42.09716" lon="9.12738">
        <ele>1841.5427246</ele>
        <time>2010-08-29T09:16:47Z</time>
      </trkpt>
      <trkpt lat="42.09709" lon="9.12739">
        <ele>1842.0234375</ele>
        <time>2010-08-29T09:16:55Z</time>
      </trkpt>
      <trkpt lat="42.09705" lon="9.12739">
        <ele>1842.9846191</ele>
        <time>2010-08-29T09:17:01Z</time>
      </trkpt>
      <trkpt lat="42.09702" lon="9.1274">
        <ele>1843.465332</ele>
        <time>2010-08-29T09:17:06Z</time>
      </trkpt>
      <trkpt lat="42.09699" lon="9.12742">
        <ele>1841.0620117</ele>
        <time>2010-08-29T09:17:11Z</time>
      </trkpt>
      <trkpt lat="42.09693" lon="9.12741">
        <ele>1842.0234375</ele>
        <time>2010-08-29T09:17:18Z</time>
      </trkpt>
      <trkpt lat="42.09686" lon="9.12743">
        <ele>1839.1394043</ele>
        <time>2010-08-29T09:17:26Z</time>
      </trkpt>
      <trkpt lat="42.09681" lon="9.12745">
        <ele>1839.6201172</ele>
        <time>2010-08-29T09:17:33Z</time>
      </trkpt>
      <trkpt lat="42.0968" lon="9.12744">
        <ele>1840.5812988</ele>
        <time>2010-08-29T09:17:43Z</time>
      </trkpt>
      <trkpt lat="42.09681" lon="9.12743">
        <ele>1842.9846191</ele>
        <time>2010-08-29T09:17:59Z</time>
      </trkpt>
      <trkpt lat="42.09682" lon="9.12744">
        <ele>1842.0234375</ele>
        <time>2010-08-29T09:18:05Z</time>
      </trkpt>
      <trkpt lat="42.09682" lon="9.12744">
        <ele>1840.5812988</ele>
        <time>2010-08-29T09:18:17Z</time>
      </trkpt>
      <trkpt lat="42.09682" lon="9.12745">
        <ele>1839.6201172</ele>
        <time>2010-08-29T09:18:22Z</time>
      </trkpt>
      <trkpt lat="42.09679" lon="9.12746">
        <ele>1841.0620117</ele>
        <time>2010-08-29T09:18:31Z</time>
      </trkpt>
      <trkpt lat="42.0968" lon="9.12746">
        <ele>1843.465332</ele>
        <time>2010-08-29T09:18:42Z</time>
      </trkpt>
      <trkpt lat="42.09679" lon="9.12747">
        <ele>1844.9072266</ele>
        <time>2010-08-29T09:18:53Z</time>
      </trkpt>
      <trkpt lat="42.09677" lon="9.12747">
        <ele>1845.3879395</ele>
        <time>2010-08-29T09:19:01Z</time>
      </trkpt>
      <trkpt lat="42.0968" lon="9.12744">
        <ele>1846.829834</ele>
        <time>2010-08-29T09:19:11Z</time>
      </trkpt>
      <trkpt lat="42.0968" lon="9.12742">
        <ele>1847.3105469</ele>
        <time>2010-08-29T09:19:17Z</time>
      </trkpt>
      <trkpt lat="42.09681" lon="9.12742">
        <ele>1847.3105469</ele>
        <time>2010-08-29T09:19:26Z</time>
      </trkpt>
      <trkpt lat="42.09679" lon="9.12744">
        <ele>1845.3879395</ele>
        <time>2010-08-29T09:19:36Z</time>
      </trkpt>
      <trkpt lat="42.09678" lon="9.12745">
        <ele>1846.829834</ele>
        <time>2010-08-29T09:19:43Z</time>
      </trkpt>
      <trkpt lat="42.09677" lon="9.12743">
        <ele>1846.829834</ele>
        <time>2010-08-29T09:19:54Z</time>
      </trkpt>
      <trkpt lat="42.09678" lon="9.12742">
        <ele>1849.7138672</ele>
        <time>2010-08-29T09:20:10Z</time>
      </trkpt>
      <trkpt lat="42.09678" lon="9.12744">
        <ele>1846.829834</ele>
        <time>2010-08-29T09:20:25Z</time>
      </trkpt>
      <trkpt lat="42.09671" lon="9.12747">
        <ele>1842.5041504</ele>
        <time>2010-08-29T09:20:32Z</time>
      </trkpt>
      <trkpt lat="42.09667" lon="9.12751">
        <ele>1838.6589355</ele>
        <time>2010-08-29T09:20:39Z</time>
      </trkpt>
      <trkpt lat="42.09663" lon="9.12756">
        <ele>1836.736084</ele>
        <time>2010-08-29T09:20:48Z</time>
      </trkpt>
      <trkpt lat="42.09658" lon="9.12758">
        <ele>1835.7746582</ele>
        <time>2010-08-29T09:20:54Z</time>
      </trkpt>
      <trkpt lat="42.09652" lon="9.12761">
        <ele>1836.736084</ele>
        <time>2010-08-29T09:21:01Z</time>
      </trkpt>
      <trkpt lat="42.09647" lon="9.12762">
        <ele>1835.7746582</ele>
        <time>2010-08-29T09:21:08Z</time>
      </trkpt>
      <trkpt lat="42.0964" lon="9.12765">
        <ele>1833.3713379</ele>
        <time>2010-08-29T09:21:16Z</time>
      </trkpt>
      <trkpt lat="42.09638" lon="9.12765">
        <ele>1833.3713379</ele>
        <time>2010-08-29T09:21:19Z</time>
      </trkpt>
      <trkpt lat="42.0963" lon="9.12767">
        <ele>1833.8520508</ele>
        <time>2010-08-29T09:21:27Z</time>
      </trkpt>
      <trkpt lat="42.09623" lon="9.12769">
        <ele>1834.3327637</ele>
        <time>2010-08-29T09:21:34Z</time>
      </trkpt>
      <trkpt lat="42.0962" lon="9.12768">
        <ele>1834.3327637</ele>
        <time>2010-08-29T09:21:38Z</time>
      </trkpt>
      <trkpt lat="42.09614" lon="9.12771">
        <ele>1834.3327637</ele>
        <time>2010-08-29T09:21:45Z</time>
      </trkpt>
      <trkpt lat="42.09607" lon="9.12774">
        <ele>1833.3713379</ele>
        <time>2010-08-29T09:21:53Z</time>
      </trkpt>
      <trkpt lat="42.09601" lon="9.12777">
        <ele>1833.3713379</ele>
        <time>2010-08-29T09:21:59Z</time>
      </trkpt>
      <trkpt lat="42.09594" lon="9.12781">
        <ele>1831.9294434</ele>
        <time>2010-08-29T09:22:07Z</time>
      </trkpt>
      <trkpt lat="42.0959" lon="9.12782">
        <ele>1831.4487305</ele>
        <time>2010-08-29T09:22:14Z</time>
      </trkpt>
      <trkpt lat="42.0959" lon="9.12782">
        <ele>1832.4101562</ele>
        <time>2010-08-29T09:22:21Z</time>
      </trkpt>
      <trkpt lat="42.09588" lon="9.12782">
        <ele>1834.8134766</ele>
        <time>2010-08-29T09:22:36Z</time>
      </trkpt>
      <trkpt lat="42.09583" lon="9.12787">
        <ele>1834.3327637</ele>
        <time>2010-08-29T09:22:44Z</time>
      </trkpt>
      <trkpt lat="42.09577" lon="9.12793">
        <ele>1833.3713379</ele>
        <time>2010-08-29T09:22:51Z</time>
      </trkpt>
      <trkpt lat="42.09572" lon="9.12792">
        <ele>1835.2939453</ele>
        <time>2010-08-29T09:22:57Z</time>
      </trkpt>
      <trkpt lat="42.09568" lon="9.12796">
        <ele>1836.2556152</ele>
        <time>2010-08-29T09:23:04Z</time>
      </trkpt>
      <trkpt lat="42.09565" lon="9.12798">
        <ele>1836.736084</ele>
        <time>2010-08-29T09:23:09Z</time>
      </trkpt>
      <trkpt lat="42.09562" lon="9.12803">
        <ele>1837.6975098</ele>
        <time>2010-08-29T09:23:16Z</time>
      </trkpt>
      <trkpt lat="42.09556" lon="9.12807">
        <ele>1838.6589355</ele>
        <time>2010-08-29T09:23:24Z</time>
      </trkpt>
      <trkpt lat="42.09552" lon="9.12809">
        <ele>1838.6589355</ele>
        <time>2010-08-29T09:23:31Z</time>
      </trkpt>
      <trkpt lat="42.09545" lon="9.12812">
        <ele>1839.6201172</ele>
        <time>2010-08-29T09:23:39Z</time>
      </trkpt>
      <trkpt lat="42.0954" lon="9.12811">
        <ele>1840.5812988</ele>
        <time>2010-08-29T09:23:46Z</time>
      </trkpt>
      <trkpt lat="42.09534" lon="9.1281">
        <ele>1842.5041504</ele>
        <time>2010-08-29T09:23:54Z</time>
      </trkpt>
      <trkpt lat="42.09531" lon="9.12814">
        <ele>1842.9846191</ele>
        <time>2010-08-29T09:24:02Z</time>
      </trkpt>
      <trkpt lat="42.0953" lon="9.12813">
        <ele>1844.9072266</ele>
        <time>2010-08-29T09:24:13Z</time>
      </trkpt>
      <trkpt lat="42.09531" lon="9.12814">
        <ele>1845.8686523</ele>
        <time>2010-08-29T09:24:21Z</time>
      </trkpt>
      <trkpt lat="42.09529" lon="9.12819">
        <ele>1846.829834</ele>
        <time>2010-08-29T09:24:28Z</time>
      </trkpt>
      <trkpt lat="42.09525" lon="9.12828">
        <ele>1847.7912598</ele>
        <time>2010-08-29T09:24:37Z</time>
      </trkpt>
      <trkpt lat="42.09522" lon="9.12828">
        <ele>1848.2717285</ele>
        <time>2010-08-29T09:24:43Z</time>
      </trkpt>
      <trkpt lat="42.09519" lon="9.12829">
        <ele>1848.7524414</ele>
        <time>2010-08-29T09:24:49Z</time>
      </trkpt>
      <trkpt lat="42.09517" lon="9.1283">
        <ele>1850.1945801</ele>
        <time>2010-08-29T09:24:56Z</time>
      </trkpt>
      <trkpt lat="42.09512" lon="9.12827">
        <ele>1853.0786133</ele>
        <time>2010-08-29T09:25:04Z</time>
      </trkpt>
      <trkpt lat="42.09508" lon="9.12826">
        <ele>1854.0400391</ele>
        <time>2010-08-29T09:25:10Z</time>
      </trkpt>
      <trkpt lat="42.09505" lon="9.12829">
        <ele>1855.4819336</ele>
        <time>2010-08-29T09:25:16Z</time>
      </trkpt>
      <trkpt lat="42.09502" lon="9.12832">
        <ele>1856.9238281</ele>
        <time>2010-08-29T09:25:22Z</time>
      </trkpt>
      <trkpt lat="42.095" lon="9.12836">
        <ele>1858.3657227</ele>
        <time>2010-08-29T09:25:29Z</time>
      </trkpt>
      <trkpt lat="42.09499" lon="9.12838">
        <ele>1858.8464355</ele>
        <time>2010-08-29T09:25:34Z</time>
      </trkpt>
      <trkpt lat="42.09495" lon="9.12838">
        <ele>1858.8464355</ele>
        <time>2010-08-29T09:25:42Z</time>
      </trkpt>
      <trkpt lat="42.09493" lon="9.12839">
        <ele>1858.3657227</ele>
        <time>2010-08-29T09:25:47Z</time>
      </trkpt>
      <trkpt lat="42.09491" lon="9.12842">
        <ele>1859.8076172</ele>
        <time>2010-08-29T09:25:54Z</time>
      </trkpt>
      <trkpt lat="42.09489" lon="9.12848">
        <ele>1861.2497559</ele>
        <time>2010-08-29T09:26:01Z</time>
      </trkpt>
      <trkpt lat="42.09487" lon="9.1285">
        <ele>1862.6916504</ele>
        <time>2010-08-29T09:26:07Z</time>
      </trkpt>
      <trkpt lat="42.09484" lon="9.12854">
        <ele>1864.1335449</ele>
        <time>2010-08-29T09:26:15Z</time>
      </trkpt>
      <trkpt lat="42.09484" lon="9.12857">
        <ele>1865.0949707</ele>
        <time>2010-08-29T09:26:20Z</time>
      </trkpt>
      <trkpt lat="42.09482" lon="9.1286">
        <ele>1866.0561523</ele>
        <time>2010-08-29T09:26:27Z</time>
      </trkpt>
      <trkpt lat="42.0948" lon="9.12859">
        <ele>1866.0561523</ele>
        <time>2010-08-29T09:26:36Z</time>
      </trkpt>
      <trkpt lat="42.0948" lon="9.12858">
        <ele>1867.4980469</ele>
        <time>2010-08-29T09:26:46Z</time>
      </trkpt>
      <trkpt lat="42.0948" lon="9.12858">
        <ele>1867.9787598</ele>
        <time>2010-08-29T09:26:54Z</time>
      </trkpt>
      <trkpt lat="42.0948" lon="9.12859">
        <ele>1865.5756836</ele>
        <time>2010-08-29T09:27:04Z</time>
      </trkpt>
      <trkpt lat="42.09477" lon="9.12859">
        <ele>1867.0175781</ele>
        <time>2010-08-29T09:27:19Z</time>
      </trkpt>
      <trkpt lat="42.09474" lon="9.12861">
        <ele>1867.0175781</ele>
        <time>2010-08-29T09:27:26Z</time>
      </trkpt>
      <trkpt lat="42.0947" lon="9.12859">
        <ele>1868.9404297</ele>
        <time>2010-08-29T09:27:33Z</time>
      </trkpt>
      <trkpt lat="42.09466" lon="9.12861">
        <ele>1869.9016113</ele>
        <time>2010-08-29T09:27:41Z</time>
      </trkpt>
      <trkpt lat="42.0946" lon="9.12862">
        <ele>1871.8242188</ele>
        <time>2010-08-29T09:27:49Z</time>
      </trkpt>
      <trkpt lat="42.09454" lon="9.12862">
        <ele>1872.3049316</ele>
        <time>2010-08-29T09:27:58Z</time>
      </trkpt>
      <trkpt lat="42.09448" lon="9.12862">
        <ele>1873.7468262</ele>
        <time>2010-08-29T09:28:06Z</time>
      </trkpt>
      <trkpt lat="42.09444" lon="9.12864">
        <ele>1875.1887207</ele>
        <time>2010-08-29T09:28:13Z</time>
      </trkpt>
      <trkpt lat="42.09439" lon="9.12871">
        <ele>1876.6308594</ele>
        <time>2010-08-29T09:28:20Z</time>
      </trkpt>
      <trkpt lat="42.09436" lon="9.12877">
        <ele>1879.0339355</ele>
        <time>2010-08-29T09:28:27Z</time>
      </trkpt>
      <trkpt lat="42.09433" lon="9.12878">
        <ele>1878.5534668</ele>
        <time>2010-08-29T09:28:32Z</time>
      </trkpt>
      <trkpt lat="42.09431" lon="9.12887">
        <ele>1878.0727539</ele>
        <time>2010-08-29T09:28:39Z</time>
      </trkpt>
      <trkpt lat="42.09428" lon="9.12899">
        <ele>1877.592041</ele>
        <time>2010-08-29T09:28:47Z</time>
      </trkpt>
      <trkpt lat="42.09426" lon="9.12903">
        <ele>1877.592041</ele>
        <time>2010-08-29T09:28:50Z</time>
      </trkpt>
      <trkpt lat="42.09426" lon="9.1291">
        <ele>1879.9953613</ele>
        <time>2010-08-29T09:28:57Z</time>
      </trkpt>
      <trkpt lat="42.09425" lon="9.12914">
        <ele>1879.9953613</ele>
        <time>2010-08-29T09:29:02Z</time>
      </trkpt>
      <trkpt lat="42.09421" lon="9.12918">
        <ele>1879.9953613</ele>
        <time>2010-08-29T09:29:10Z</time>
      </trkpt>
      <trkpt lat="42.09419" lon="9.12916">
        <ele>1878.5534668</ele>
        <time>2010-08-29T09:29:17Z</time>
      </trkpt>
      <trkpt lat="42.09419" lon="9.12917">
        <ele>1879.5146484</ele>
        <time>2010-08-29T09:29:25Z</time>
      </trkpt>
      <trkpt lat="42.09418" lon="9.12919">
        <ele>1878.5534668</ele>
        <time>2010-08-29T09:29:32Z</time>
      </trkpt>
      <trkpt lat="42.09418" lon="9.12921">
        <ele>1875.1887207</ele>
        <time>2010-08-29T09:29:38Z</time>
      </trkpt>
      <trkpt lat="42.09416" lon="9.1292">
        <ele>1874.2275391</ele>
        <time>2010-08-29T09:29:44Z</time>
      </trkpt>
      <trkpt lat="42.09416" lon="9.1292">
        <ele>1875.1887207</ele>
        <time>2010-08-29T09:29:50Z</time>
      </trkpt>
      <trkpt lat="42.09416" lon="9.12918">
        <ele>1879.0339355</ele>
        <time>2010-08-29T09:29:59Z</time>
      </trkpt>
      <trkpt lat="42.09416" lon="9.12915">
        <ele>1882.3986816</ele>
        <time>2010-08-29T09:30:09Z</time>
      </trkpt>
      <trkpt lat="42.09417" lon="9.12917">
        <ele>1881.9179688</ele>
        <time>2010-08-29T09:30:15Z</time>
      </trkpt>
      <trkpt lat="42.09418" lon="9.1292">
        <ele>1879.5146484</ele>
        <time>2010-08-29T09:30:22Z</time>
      </trkpt>
      <trkpt lat="42.0942" lon="9.12921">
        <ele>1877.592041</ele>
        <time>2010-08-29T09:30:32Z</time>
      </trkpt>
      <trkpt lat="42.09417" lon="9.12921">
        <ele>1877.592041</ele>
        <time>2010-08-29T09:30:57Z</time>
      </trkpt>
      <trkpt lat="42.09417" lon="9.12921">
        <ele>1878.5534668</ele>
        <time>2010-08-29T09:31:10Z</time>
      </trkpt>
      <trkpt lat="42.09416" lon="9.1292">
        <ele>1883.8405762</ele>
        <time>2010-08-29T09:31:18Z</time>
      </trkpt>
      <trkpt lat="42.09419" lon="9.12919">
        <ele>1880.4760742</ele>
        <time>2010-08-29T09:31:26Z</time>
      </trkpt>
      <trkpt lat="42.0942" lon="9.12919">
        <ele>1877.1115723</ele>
        <time>2010-08-29T09:33:12Z</time>
      </trkpt>
      <trkpt lat="42.0942" lon="9.12919">
        <ele>1879.9953613</ele>
        <time>2010-08-29T09:33:54Z</time>
      </trkpt>
      <trkpt lat="42.09421" lon="9.12918">
        <ele>1878.5534668</ele>
        <time>2010-08-29T09:34:06Z</time>
      </trkpt>
      <trkpt lat="42.0942" lon="9.12916">
        <ele>1882.3986816</ele>
        <time>2010-08-29T09:35:11Z</time>
      </trkpt>
      <trkpt lat="42.0942" lon="9.12914">
        <ele>1883.8405762</ele>
        <time>2010-08-29T09:35:21Z</time>
      </trkpt>
      <trkpt lat="42.09421" lon="9.12916">
        <ele>1881.4372559</ele>
        <time>2010-08-29T09:35:33Z</time>
      </trkpt>
      <trkpt lat="42.09419" lon="9.12915">
        <ele>1886.2441406</ele>
        <time>2010-08-29T09:36:53Z</time>
      </trkpt>
      <trkpt lat="42.09417" lon="9.12916">
        <ele>1883.8405762</ele>
        <time>2010-08-29T09:37:01Z</time>
      </trkpt>
      <trkpt lat="42.0942" lon="9.12917">
        <ele>1879.5146484</ele>
        <time>2010-08-29T09:37:15Z</time>
      </trkpt>
      <trkpt lat="42.09424" lon="9.12915">
        <ele>1879.9953613</ele>
        <time>2010-08-29T09:38:34Z</time>
      </trkpt>
      <trkpt lat="42.09425" lon="9.12917">
        <ele>1877.1115723</ele>
        <time>2010-08-29T09:38:43Z</time>
      </trkpt>
      <trkpt lat="42.09425" lon="9.12915">
        <ele>1880.9567871</ele>
        <time>2010-08-29T09:38:52Z</time>
      </trkpt>
      <trkpt lat="42.0942" lon="9.12916">
        <ele>1884.3215332</ele>
        <time>2010-08-29T09:39:04Z</time>
      </trkpt>
      <trkpt lat="42.09419" lon="9.12917">
        <ele>1883.8405762</ele>
        <time>2010-08-29T09:39:10Z</time>
      </trkpt>
      <trkpt lat="42.09416" lon="9.12918">
        <ele>1882.3986816</ele>
        <time>2010-08-29T09:39:24Z</time>
      </trkpt>
      <trkpt lat="42.09418" lon="9.12919">
        <ele>1879.9953613</ele>
        <time>2010-08-29T09:39:37Z</time>
      </trkpt>
      <trkpt lat="42.09419" lon="9.12918">
        <ele>1882.8791504</ele>
        <time>2010-08-29T09:39:46Z</time>
      </trkpt>
      <trkpt lat="42.09418" lon="9.12918">
        <ele>1883.3598633</ele>
        <time>2010-08-29T09:39:56Z</time>
      </trkpt>
      <trkpt lat="42.09419" lon="9.12918">
        <ele>1883.3598633</ele>
        <time>2010-08-29T09:40:02Z</time>
      </trkpt>
      <trkpt lat="42.09418" lon="9.12918">
        <ele>1881.4372559</ele>
        <time>2010-08-29T09:40:09Z</time>
      </trkpt>
      <trkpt lat="42.09417" lon="9.12919">
        <ele>1878.0727539</ele>
        <time>2010-08-29T09:40:24Z</time>
      </trkpt>
      <trkpt lat="42.09417" lon="9.12919">
        <ele>1880.4760742</ele>
        <time>2010-08-29T09:40:39Z</time>
      </trkpt>
      <trkpt lat="42.09417" lon="9.12919">
        <ele>1881.4372559</ele>
        <time>2010-08-29T09:40:48Z</time>
      </trkpt>
      <trkpt lat="42.09418" lon="9.12919">
        <ele>1881.9179688</ele>
        <time>2010-08-29T09:40:57Z</time>
      </trkpt>
      <trkpt lat="42.09417" lon="9.12921">
        <ele>1881.9179688</ele>
        <time>2010-08-29T09:41:08Z</time>
      </trkpt>
      <trkpt lat="42.09415" lon="9.12921">
        <ele>1879.5146484</ele>
        <time>2010-08-29T09:41:16Z</time>
      </trkpt>
      <trkpt lat="42.09415" lon="9.12921">
        <ele>1879.0339355</ele>
        <time>2010-08-29T09:41:27Z</time>
      </trkpt>
      <trkpt lat="42.09415" lon="9.12924">
        <ele>1875.6694336</ele>
        <time>2010-08-29T09:41:36Z</time>
      </trkpt>
      <trkpt lat="42.09415" lon="9.12925">
        <ele>1875.6694336</ele>
        <time>2010-08-29T09:41:43Z</time>
      </trkpt>
      <trkpt lat="42.09413" lon="9.12925">
        <ele>1879.0339355</ele>
        <time>2010-08-29T09:41:57Z</time>
      </trkpt>
      <trkpt lat="42.09414" lon="9.12921">
        <ele>1878.0727539</ele>
        <time>2010-08-29T09:42:08Z</time>
      </trkpt>
      <trkpt lat="42.09415" lon="9.12921">
        <ele>1878.5534668</ele>
        <time>2010-08-29T09:42:13Z</time>
      </trkpt>
      <trkpt lat="42.09415" lon="9.1292">
        <ele>1879.0339355</ele>
        <time>2010-08-29T09:42:29Z</time>
      </trkpt>
      <trkpt lat="42.09413" lon="9.12923">
        <ele>1878.0727539</ele>
        <time>2010-08-29T09:42:40Z</time>
      </trkpt>
      <trkpt lat="42.09407" lon="9.12935">
        <ele>1877.1115723</ele>
        <time>2010-08-29T09:42:50Z</time>
      </trkpt>
      <trkpt lat="42.094" lon="9.12939">
        <ele>1877.592041</ele>
        <time>2010-08-29T09:42:58Z</time>
      </trkpt>
      <trkpt lat="42.09398" lon="9.12941">
        <ele>1878.0727539</ele>
        <time>2010-08-29T09:43:01Z</time>
      </trkpt>
      <trkpt lat="42.09393" lon="9.12948">
        <ele>1880.4760742</ele>
        <time>2010-08-29T09:43:10Z</time>
      </trkpt>
      <trkpt lat="42.09389" lon="9.12951">
        <ele>1882.8791504</ele>
        <time>2010-08-29T09:43:17Z</time>
      </trkpt>
      <trkpt lat="42.09386" lon="9.12953">
        <ele>1883.3598633</ele>
        <time>2010-08-29T09:43:20Z</time>
      </trkpt>
      <trkpt lat="42.0938" lon="9.12955">
        <ele>1884.3215332</ele>
        <time>2010-08-29T09:43:29Z</time>
      </trkpt>
      <trkpt lat="42.09372" lon="9.12957">
        <ele>1885.7634277</ele>
        <time>2010-08-29T09:43:38Z</time>
      </trkpt>
      <trkpt lat="42.09369" lon="9.12961">
        <ele>1886.7246094</ele>
        <time>2010-08-29T09:43:45Z</time>
      </trkpt>
      <trkpt lat="42.09364" lon="9.12965">
        <ele>1888.166748</ele>
        <time>2010-08-29T09:43:53Z</time>
      </trkpt>
      <trkpt lat="42.09359" lon="9.12968">
        <ele>1889.6086426</ele>
        <time>2010-08-29T09:44:00Z</time>
      </trkpt>
      <trkpt lat="42.09354" lon="9.12974">
        <ele>1891.0505371</ele>
        <time>2010-08-29T09:44:07Z</time>
      </trkpt>
      <trkpt lat="42.09352" lon="9.12978">
        <ele>1892.9731445</ele>
        <time>2010-08-29T09:44:13Z</time>
      </trkpt>
      <trkpt lat="42.09349" lon="9.12984">
        <ele>1895.3764648</ele>
        <time>2010-08-29T09:44:21Z</time>
      </trkpt>
      <trkpt lat="42.09347" lon="9.12991">
        <ele>1897.2990723</ele>
        <time>2010-08-29T09:44:30Z</time>
      </trkpt>
      <trkpt lat="42.09343" lon="9.12995">
        <ele>1899.2216797</ele>
        <time>2010-08-29T09:44:39Z</time>
      </trkpt>
      <trkpt lat="42.09341" lon="9.13">
        <ele>1900.6638184</ele>
        <time>2010-08-29T09:44:47Z</time>
      </trkpt>
      <trkpt lat="42.09344" lon="9.13002">
        <ele>1903.5478516</ele>
        <time>2010-08-29T09:44:54Z</time>
      </trkpt>
      <trkpt lat="42.09348" lon="9.13005">
        <ele>1905.9509277</ele>
        <time>2010-08-29T09:45:01Z</time>
      </trkpt>
      <trkpt lat="42.09344" lon="9.13009">
        <ele>1903.0671387</ele>
        <time>2010-08-29T09:45:07Z</time>
      </trkpt>
      <trkpt lat="42.09342" lon="9.13014">
        <ele>1902.5864258</ele>
        <time>2010-08-29T09:45:14Z</time>
      </trkpt>
      <trkpt lat="42.09341" lon="9.13019">
        <ele>1904.9897461</ele>
        <time>2010-08-29T09:45:22Z</time>
      </trkpt>
      <trkpt lat="42.09338" lon="9.13022">
        <ele>1906.9123535</ele>
        <time>2010-08-29T09:45:28Z</time>
      </trkpt>
      <trkpt lat="42.09337" lon="9.13024">
        <ele>1908.8349609</ele>
        <time>2010-08-29T09:45:36Z</time>
      </trkpt>
      <trkpt lat="42.09337" lon="9.13026">
        <ele>1909.3156738</ele>
        <time>2010-08-29T09:45:42Z</time>
      </trkpt>
      <trkpt lat="42.09338" lon="9.13027">
        <ele>1908.354248</ele>
        <time>2010-08-29T09:45:48Z</time>
      </trkpt>
      <trkpt lat="42.09339" lon="9.13028">
        <ele>1907.8737793</ele>
        <time>2010-08-29T09:45:58Z</time>
      </trkpt>
      <trkpt lat="42.09337" lon="9.13033">
        <ele>1908.354248</ele>
        <time>2010-08-29T09:46:05Z</time>
      </trkpt>
      <trkpt lat="42.09339" lon="9.13042">
        <ele>1909.7961426</ele>
        <time>2010-08-29T09:46:13Z</time>
      </trkpt>
      <trkpt lat="42.09338" lon="9.13051">
        <ele>1911.7189941</ele>
        <time>2010-08-29T09:46:21Z</time>
      </trkpt>
      <trkpt lat="42.09336" lon="9.1306">
        <ele>1915.564209</ele>
        <time>2010-08-29T09:46:31Z</time>
      </trkpt>
      <trkpt lat="42.09332" lon="9.13064">
        <ele>1916.5256348</ele>
        <time>2010-08-29T09:46:39Z</time>
      </trkpt>
      <trkpt lat="42.09328" lon="9.13069">
        <ele>1917.4868164</ele>
        <time>2010-08-29T09:46:46Z</time>
      </trkpt>
      <trkpt lat="42.09323" lon="9.13074">
        <ele>1917.9675293</ele>
        <time>2010-08-29T09:46:54Z</time>
      </trkpt>
      <trkpt lat="42.0932" lon="9.13078">
        <ele>1918.4482422</ele>
        <time>2010-08-29T09:47:02Z</time>
      </trkpt>
      <trkpt lat="42.09315" lon="9.13084">
        <ele>1919.8901367</ele>
        <time>2010-08-29T09:47:10Z</time>
      </trkpt>
      <trkpt lat="42.09311" lon="9.13089">
        <ele>1921.3320312</ele>
        <time>2010-08-29T09:47:18Z</time>
      </trkpt>
      <trkpt lat="42.09307" lon="9.13093">
        <ele>1922.7741699</ele>
        <time>2010-08-29T09:47:25Z</time>
      </trkpt>
      <trkpt lat="42.09305" lon="9.13098">
        <ele>1923.7353516</ele>
        <time>2010-08-29T09:47:31Z</time>
      </trkpt>
      <trkpt lat="42.09302" lon="9.13096">
        <ele>1924.6967773</ele>
        <time>2010-08-29T09:47:37Z</time>
      </trkpt>
      <trkpt lat="42.09296" lon="9.13098">
        <ele>1919.8901367</ele>
        <time>2010-08-29T09:47:46Z</time>
      </trkpt>
      <trkpt lat="42.09297" lon="9.13097">
        <ele>1921.3320312</ele>
        <time>2010-08-29T09:47:58Z</time>
      </trkpt>
      <trkpt lat="42.09293" lon="9.13102">
        <ele>1923.7353516</ele>
        <time>2010-08-29T09:48:06Z</time>
      </trkpt>
      <trkpt lat="42.0929" lon="9.13106">
        <ele>1927.1000977</ele>
        <time>2010-08-29T09:48:13Z</time>
      </trkpt>
      <trkpt lat="42.09287" lon="9.13113">
        <ele>1929.9838867</ele>
        <time>2010-08-29T09:48:21Z</time>
      </trkpt>
      <trkpt lat="42.09284" lon="9.13118">
        <ele>1932.3874512</ele>
        <time>2010-08-29T09:48:28Z</time>
      </trkpt>
      <trkpt lat="42.09281" lon="9.13124">
        <ele>1933.8293457</ele>
        <time>2010-08-29T09:48:36Z</time>
      </trkpt>
      <trkpt lat="42.09278" lon="9.13124">
        <ele>1933.8293457</ele>
        <time>2010-08-29T09:48:42Z</time>
      </trkpt>
      <trkpt lat="42.09276" lon="9.13127">
        <ele>1935.2712402</ele>
        <time>2010-08-29T09:48:49Z</time>
      </trkpt>
      <trkpt lat="42.09274" lon="9.13126">
        <ele>1936.7131348</ele>
        <time>2010-08-29T09:48:55Z</time>
      </trkpt>
      <trkpt lat="42.09272" lon="9.13124">
        <ele>1939.1164551</ele>
        <time>2010-08-29T09:49:03Z</time>
      </trkpt>
      <trkpt lat="42.09272" lon="9.13125">
        <ele>1940.5583496</ele>
        <time>2010-08-29T09:49:11Z</time>
      </trkpt>
      <trkpt lat="42.09267" lon="9.13125">
        <ele>1941.5197754</ele>
        <time>2010-08-29T09:49:18Z</time>
      </trkpt>
      <trkpt lat="42.09265" lon="9.13124">
        <ele>1942.4812012</ele>
        <time>2010-08-29T09:49:25Z</time>
      </trkpt>
      <trkpt lat="42.09264" lon="9.13131">
        <ele>1944.4035645</ele>
        <time>2010-08-29T09:49:34Z</time>
      </trkpt>
      <trkpt lat="42.09262" lon="9.13141">
        <ele>1948.2490234</ele>
        <time>2010-08-29T09:49:45Z</time>
      </trkpt>
      <trkpt lat="42.09257" lon="9.13142">
        <ele>1947.2875977</ele>
        <time>2010-08-29T09:49:51Z</time>
      </trkpt>
      <trkpt lat="42.09252" lon="9.13136">
        <ele>1948.7297363</ele>
        <time>2010-08-29T09:50:00Z</time>
      </trkpt>
      <trkpt lat="42.09253" lon="9.13134">
        <ele>1947.7683105</ele>
        <time>2010-08-29T09:50:07Z</time>
      </trkpt>
      <trkpt lat="42.09252" lon="9.13134">
        <ele>1948.7297363</ele>
        <time>2010-08-29T09:50:18Z</time>
      </trkpt>
      <trkpt lat="42.09254" lon="9.13133">
        <ele>1950.171875</ele>
        <time>2010-08-29T09:50:31Z</time>
      </trkpt>
      <trkpt lat="42.09254" lon="9.13132">
        <ele>1952.0942383</ele>
        <time>2010-08-29T09:50:45Z</time>
      </trkpt>
      <trkpt lat="42.09252" lon="9.13128">
        <ele>1956.9008789</ele>
        <time>2010-08-29T09:50:56Z</time>
      </trkpt>
      <trkpt lat="42.09252" lon="9.1313">
        <ele>1952.5749512</ele>
        <time>2010-08-29T09:51:11Z</time>
      </trkpt>
      <trkpt lat="42.09252" lon="9.13129">
        <ele>1950.6523438</ele>
        <time>2010-08-29T09:51:17Z</time>
      </trkpt>
      <trkpt lat="42.0925" lon="9.13125">
        <ele>1953.536377</ele>
        <time>2010-08-29T09:51:24Z</time>
      </trkpt>
      <trkpt lat="42.09247" lon="9.13119">
        <ele>1954.9782715</ele>
        <time>2010-08-29T09:51:31Z</time>
      </trkpt>
      <trkpt lat="42.09243" lon="9.13118">
        <ele>1955.9394531</ele>
        <time>2010-08-29T09:51:38Z</time>
      </trkpt>
      <trkpt lat="42.09244" lon="9.1312">
        <ele>1957.8623047</ele>
        <time>2010-08-29T09:51:46Z</time>
      </trkpt>
      <trkpt lat="42.09238" lon="9.13116">
        <ele>1956.420166</ele>
        <time>2010-08-29T09:51:54Z</time>
      </trkpt>
      <trkpt lat="42.09233" lon="9.13113">
        <ele>1956.9008789</ele>
        <time>2010-08-29T09:52:01Z</time>
      </trkpt>
      <trkpt lat="42.09231" lon="9.13117">
        <ele>1958.8234863</ele>
        <time>2010-08-29T09:52:08Z</time>
      </trkpt>
      <trkpt lat="42.09231" lon="9.13123">
        <ele>1960.2653809</ele>
        <time>2010-08-29T09:52:15Z</time>
      </trkpt>
      <trkpt lat="42.0923" lon="9.13128">
        <ele>1962.1879883</ele>
        <time>2010-08-29T09:52:20Z</time>
      </trkpt>
      <trkpt lat="42.09231" lon="9.1314">
        <ele>1965.5529785</ele>
        <time>2010-08-29T09:52:30Z</time>
      </trkpt>
      <trkpt lat="42.09231" lon="9.13145">
        <ele>1966.5141602</ele>
        <time>2010-08-29T09:52:36Z</time>
      </trkpt>
      <trkpt lat="42.09231" lon="9.13154">
        <ele>1966.994873</ele>
        <time>2010-08-29T09:52:44Z</time>
      </trkpt>
      <trkpt lat="42.09229" lon="9.13159">
        <ele>1969.3981934</ele>
        <time>2010-08-29T09:52:52Z</time>
      </trkpt>
      <trkpt lat="42.09225" lon="9.13158">
        <ele>1969.3981934</ele>
        <time>2010-08-29T09:52:59Z</time>
      </trkpt>
      <trkpt lat="42.09222" lon="9.13154">
        <ele>1970.359375</ele>
        <time>2010-08-29T09:53:06Z</time>
      </trkpt>
      <trkpt lat="42.09219" lon="9.13154">
        <ele>1974.2045898</ele>
        <time>2010-08-29T09:53:14Z</time>
      </trkpt>
      <trkpt lat="42.09218" lon="9.13158">
        <ele>1977.088623</ele>
        <time>2010-08-29T09:53:21Z</time>
      </trkpt>
      <trkpt lat="42.09217" lon="9.13165">
        <ele>1979.4916992</ele>
        <time>2010-08-29T09:53:29Z</time>
      </trkpt>
      <trkpt lat="42.09216" lon="9.13167">
        <ele>1980.4533691</ele>
        <time>2010-08-29T09:53:34Z</time>
      </trkpt>
      <trkpt lat="42.09216" lon="9.13177">
        <ele>1981.8952637</ele>
        <time>2010-08-29T09:53:43Z</time>
      </trkpt>
      <trkpt lat="42.09214" lon="9.13182">
        <ele>1983.3371582</ele>
        <time>2010-08-29T09:53:51Z</time>
      </trkpt>
      <trkpt lat="42.09214" lon="9.13182">
        <ele>1982.8564453</ele>
        <time>2010-08-29T09:54:02Z</time>
      </trkpt>
      <trkpt lat="42.09213" lon="9.13186">
        <ele>1977.088623</ele>
        <time>2010-08-29T09:54:27Z</time>
      </trkpt>
      <trkpt lat="42.09211" lon="9.13185">
        <ele>1975.6464844</ele>
        <time>2010-08-29T09:54:39Z</time>
      </trkpt>
      <trkpt lat="42.09211" lon="9.13186">
        <ele>1972.2819824</ele>
        <time>2010-08-29T09:54:49Z</time>
      </trkpt>
      <trkpt lat="42.09212" lon="9.13187">
        <ele>1973.723877</ele>
        <time>2010-08-29T09:54:59Z</time>
      </trkpt>
      <trkpt lat="42.09213" lon="9.13193">
        <ele>1974.6853027</ele>
        <time>2010-08-29T09:55:05Z</time>
      </trkpt>
      <trkpt lat="42.09212" lon="9.13199">
        <ele>1976.1271973</ele>
        <time>2010-08-29T09:55:11Z</time>
      </trkpt>
      <trkpt lat="42.0921" lon="9.13197">
        <ele>1980.4533691</ele>
        <time>2010-08-29T09:55:18Z</time>
      </trkpt>
      <trkpt lat="42.09208" lon="9.132">
        <ele>1982.8564453</ele>
        <time>2010-08-29T09:55:25Z</time>
      </trkpt>
      <trkpt lat="42.09205" lon="9.132">
        <ele>1984.298584</ele>
        <time>2010-08-29T09:55:31Z</time>
      </trkpt>
      <trkpt lat="42.09203" lon="9.13203">
        <ele>1985.2597656</ele>
        <time>2010-08-29T09:55:37Z</time>
      </trkpt>
      <trkpt lat="42.09201" lon="9.13206">
        <ele>1986.7016602</ele>
        <time>2010-08-29T09:55:43Z</time>
      </trkpt>
      <trkpt lat="42.092" lon="9.1321">
        <ele>1987.6630859</ele>
        <time>2010-08-29T09:55:49Z</time>
      </trkpt>
      <trkpt lat="42.09198" lon="9.13208">
        <ele>1990.0664062</ele>
        <time>2010-08-29T09:55:56Z</time>
      </trkpt>
      <trkpt lat="42.09198" lon="9.13208">
        <ele>1991.5083008</ele>
        <time>2010-08-29T09:56:02Z</time>
      </trkpt>
      <trkpt lat="42.09197" lon="9.13211">
        <ele>1992.4697266</ele>
        <time>2010-08-29T09:56:09Z</time>
      </trkpt>
      <trkpt lat="42.09196" lon="9.13214">
        <ele>1992.9501953</ele>
        <time>2010-08-29T09:56:14Z</time>
      </trkpt>
      <trkpt lat="42.09194" lon="9.13221">
        <ele>1994.3920898</ele>
        <time>2010-08-29T09:56:22Z</time>
      </trkpt>
      <trkpt lat="42.09192" lon="9.13226">
        <ele>1996.7956543</ele>
        <time>2010-08-29T09:56:31Z</time>
      </trkpt>
      <trkpt lat="42.09192" lon="9.13233">
        <ele>1998.7182617</ele>
        <time>2010-08-29T09:56:39Z</time>
      </trkpt>
      <trkpt lat="42.09189" lon="9.13232">
        <ele>1999.1989746</ele>
        <time>2010-08-29T09:56:45Z</time>
      </trkpt>
      <trkpt lat="42.09186" lon="9.13227">
        <ele>2000.6408691</ele>
        <time>2010-08-29T09:56:52Z</time>
      </trkpt>
      <trkpt lat="42.09184" lon="9.13232">
        <ele>2001.121582</ele>
        <time>2010-08-29T09:56:58Z</time>
      </trkpt>
      <trkpt lat="42.09182" lon="9.13232">
        <ele>2002.0827637</ele>
        <time>2010-08-29T09:57:03Z</time>
      </trkpt>
      <trkpt lat="42.0918" lon="9.13232">
        <ele>2003.0441895</ele>
        <time>2010-08-29T09:57:09Z</time>
      </trkpt>
      <trkpt lat="42.0918" lon="9.13232">
        <ele>2004.9667969</ele>
        <time>2010-08-29T09:57:15Z</time>
      </trkpt>
      <trkpt lat="42.09181" lon="9.13233">
        <ele>2005.4475098</ele>
        <time>2010-08-29T09:57:22Z</time>
      </trkpt>
      <trkpt lat="42.09181" lon="9.13232">
        <ele>2008.3312988</ele>
        <time>2010-08-29T09:57:32Z</time>
      </trkpt>
      <trkpt lat="42.09182" lon="9.13231">
        <ele>2010.7346191</ele>
        <time>2010-08-29T09:57:39Z</time>
      </trkpt>
      <trkpt lat="42.09182" lon="9.13242">
        <ele>2012.6574707</ele>
        <time>2010-08-29T09:57:47Z</time>
      </trkpt>
      <trkpt lat="42.09183" lon="9.1325">
        <ele>2013.1381836</ele>
        <time>2010-08-29T09:57:54Z</time>
      </trkpt>
      <trkpt lat="42.09179" lon="9.13251">
        <ele>2010.7346191</ele>
        <time>2010-08-29T09:58:02Z</time>
      </trkpt>
      <trkpt lat="42.09175" lon="9.13249">
        <ele>2010.7346191</ele>
        <time>2010-08-29T09:58:10Z</time>
      </trkpt>
      <trkpt lat="42.09171" lon="9.13251">
        <ele>2012.1767578</ele>
        <time>2010-08-29T09:58:18Z</time>
      </trkpt>
      <trkpt lat="42.09171" lon="9.13257">
        <ele>2013.6186523</ele>
        <time>2010-08-29T09:58:24Z</time>
      </trkpt>
      <trkpt lat="42.09168" lon="9.13256">
        <ele>2013.6186523</ele>
        <time>2010-08-29T09:58:30Z</time>
      </trkpt>
      <trkpt lat="42.09166" lon="9.13257">
        <ele>2014.5800781</ele>
        <time>2010-08-29T09:58:36Z</time>
      </trkpt>
      <trkpt lat="42.09164" lon="9.13257">
        <ele>2016.9833984</ele>
        <time>2010-08-29T09:58:41Z</time>
      </trkpt>
      <trkpt lat="42.09161" lon="9.13254">
        <ele>2018.425293</ele>
        <time>2010-08-29T09:58:48Z</time>
      </trkpt>
      <trkpt lat="42.09158" lon="9.13256">
        <ele>2020.8286133</ele>
        <time>2010-08-29T09:58:54Z</time>
      </trkpt>
      <trkpt lat="42.09156" lon="9.13251">
        <ele>2022.7512207</ele>
        <time>2010-08-29T09:59:02Z</time>
      </trkpt>
      <trkpt lat="42.09153" lon="9.13252">
        <ele>2023.2319336</ele>
        <time>2010-08-29T09:59:08Z</time>
      </trkpt>
      <trkpt lat="42.09151" lon="9.13251">
        <ele>2024.1931152</ele>
        <time>2010-08-29T09:59:13Z</time>
      </trkpt>
      <trkpt lat="42.09148" lon="9.13246">
        <ele>2025.6350098</ele>
        <time>2010-08-29T09:59:20Z</time>
      </trkpt>
      <trkpt lat="42.09145" lon="9.13244">
        <ele>2026.5964355</ele>
        <time>2010-08-29T09:59:26Z</time>
      </trkpt>
      <trkpt lat="42.09146" lon="9.13242">
        <ele>2029.9611816</ele>
        <time>2010-08-29T09:59:33Z</time>
      </trkpt>
      <trkpt lat="42.09142" lon="9.13241">
        <ele>2031.8837891</ele>
        <time>2010-08-29T09:59:49Z</time>
      </trkpt>
      <trkpt lat="42.09141" lon="9.1324">
        <ele>2031.4030762</ele>
        <time>2010-08-29T09:59:52Z</time>
      </trkpt>
      <trkpt lat="42.09138" lon="9.13235">
        <ele>2031.8837891</ele>
        <time>2010-08-29T09:59:58Z</time>
      </trkpt>
      <trkpt lat="42.09133" lon="9.13229">
        <ele>2032.8449707</ele>
        <time>2010-08-29T10:00:05Z</time>
      </trkpt>
      <trkpt lat="42.09131" lon="9.13228">
        <ele>2031.8837891</ele>
        <time>2010-08-29T10:00:12Z</time>
      </trkpt>
      <trkpt lat="42.09135" lon="9.13226">
        <ele>2033.3256836</ele>
        <time>2010-08-29T10:00:20Z</time>
      </trkpt>
      <trkpt lat="42.09139" lon="9.13226">
        <ele>2034.7678223</ele>
        <time>2010-08-29T10:00:26Z</time>
      </trkpt>
      <trkpt lat="42.09137" lon="9.13226">
        <ele>2034.2871094</ele>
        <time>2010-08-29T10:00:31Z</time>
      </trkpt>
      <trkpt lat="42.09138" lon="9.13227">
        <ele>2038.1323242</ele>
        <time>2010-08-29T10:00:39Z</time>
      </trkpt>
      <trkpt lat="42.09134" lon="9.13231">
        <ele>2029.4804688</ele>
        <time>2010-08-29T10:00:53Z</time>
      </trkpt>
      <trkpt lat="42.09135" lon="9.13227">
        <ele>2033.8063965</ele>
        <time>2010-08-29T10:01:02Z</time>
      </trkpt>
      <trkpt lat="42.09136" lon="9.13225">
        <ele>2036.2097168</ele>
        <time>2010-08-29T10:01:08Z</time>
      </trkpt>
      <trkpt lat="42.09136" lon="9.13227">
        <ele>2035.248291</ele>
        <time>2010-08-29T10:01:18Z</time>
      </trkpt>
      <trkpt lat="42.09138" lon="9.13229">
        <ele>2036.2097168</ele>
        <time>2010-08-29T10:01:30Z</time>
      </trkpt>
      <trkpt lat="42.09139" lon="9.13227">
        <ele>2037.6516113</ele>
        <time>2010-08-29T10:01:35Z</time>
      </trkpt>
      <trkpt lat="42.09139" lon="9.13228">
        <ele>2038.1323242</ele>
        <time>2010-08-29T10:01:39Z</time>
      </trkpt>
      <trkpt lat="42.09137" lon="9.13234">
        <ele>2037.6516113</ele>
        <time>2010-08-29T10:01:45Z</time>
      </trkpt>
      <trkpt lat="42.09137" lon="9.13236">
        <ele>2037.6516113</ele>
        <time>2010-08-29T10:01:50Z</time>
      </trkpt>
      <trkpt lat="42.09138" lon="9.13246">
        <ele>2039.5742188</ele>
        <time>2010-08-29T10:01:58Z</time>
      </trkpt>
      <trkpt lat="42.09139" lon="9.13247">
        <ele>2039.0935059</ele>
        <time>2010-08-29T10:02:04Z</time>
      </trkpt>
      <trkpt lat="42.09139" lon="9.13247">
        <ele>2038.1323242</ele>
        <time>2010-08-29T10:02:09Z</time>
      </trkpt>
      <trkpt lat="42.09136" lon="9.13245">
        <ele>2039.0935059</ele>
        <time>2010-08-29T10:02:14Z</time>
      </trkpt>
      <trkpt lat="42.09135" lon="9.13243">
        <ele>2041.0161133</ele>
        <time>2010-08-29T10:02:20Z</time>
      </trkpt>
      <trkpt lat="42.09133" lon="9.13242">
        <ele>2041.0161133</ele>
        <time>2010-08-29T10:02:47Z</time>
      </trkpt>
      <trkpt lat="42.09133" lon="9.13245">
        <ele>2041.4968262</ele>
        <time>2010-08-29T10:02:53Z</time>
      </trkpt>
      <trkpt lat="42.09134" lon="9.13245">
        <ele>2041.0161133</ele>
        <time>2010-08-29T10:03:07Z</time>
      </trkpt>
      <trkpt lat="42.09134" lon="9.13246">
        <ele>2039.5742188</ele>
        <time>2010-08-29T10:03:25Z</time>
      </trkpt>
      <trkpt lat="42.09131" lon="9.13248">
        <ele>2041.4968262</ele>
        <time>2010-08-29T10:03:32Z</time>
      </trkpt>
      <trkpt lat="42.09129" lon="9.13249">
        <ele>2043.9001465</ele>
        <time>2010-08-29T10:03:39Z</time>
      </trkpt>
      <trkpt lat="42.0913" lon="9.13253">
        <ele>2046.3037109</ele>
        <time>2010-08-29T10:03:46Z</time>
      </trkpt>
      <trkpt lat="42.09128" lon="9.13255">
        <ele>2045.822998</ele>
        <time>2010-08-29T10:03:53Z</time>
      </trkpt>
      <trkpt lat="42.09127" lon="9.13256">
        <ele>2044.3808594</ele>
        <time>2010-08-29T10:04:16Z</time>
      </trkpt>
      <trkpt lat="42.09127" lon="9.13256">
        <ele>2044.8615723</ele>
        <time>2010-08-29T10:04:24Z</time>
      </trkpt>
      <trkpt lat="42.09127" lon="9.13259">
        <ele>2045.822998</ele>
        <time>2010-08-29T10:04:35Z</time>
      </trkpt>
      <trkpt lat="42.09127" lon="9.13264">
        <ele>2048.2260742</ele>
        <time>2010-08-29T10:04:40Z</time>
      </trkpt>
      <trkpt lat="42.0913" lon="9.13269">
        <ele>2049.6682129</ele>
        <time>2010-08-29T10:04:46Z</time>
      </trkpt>
      <trkpt lat="42.09129" lon="9.13275">
        <ele>2049.6682129</ele>
        <time>2010-08-29T10:04:52Z</time>
      </trkpt>
      <trkpt lat="42.09128" lon="9.13281">
        <ele>2050.1489258</ele>
        <time>2010-08-29T10:04:59Z</time>
      </trkpt>
      <trkpt lat="42.09127" lon="9.13288">
        <ele>2051.1101074</ele>
        <time>2010-08-29T10:05:06Z</time>
      </trkpt>
      <trkpt lat="42.09128" lon="9.13295">
        <ele>2052.552002</ele>
        <time>2010-08-29T10:05:12Z</time>
      </trkpt>
      <trkpt lat="42.09128" lon="9.13303">
        <ele>2053.5134277</ele>
        <time>2010-08-29T10:05:19Z</time>
      </trkpt>
      <trkpt lat="42.09128" lon="9.13312">
        <ele>2053.9941406</ele>
        <time>2010-08-29T10:05:27Z</time>
      </trkpt>
      <trkpt lat="42.0913" lon="9.13324">
        <ele>2053.5134277</ele>
        <time>2010-08-29T10:05:36Z</time>
      </trkpt>
      <trkpt lat="42.09131" lon="9.13333">
        <ele>2053.5134277</ele>
        <time>2010-08-29T10:05:42Z</time>
      </trkpt>
      <trkpt lat="42.09131" lon="9.13343">
        <ele>2055.4360352</ele>
        <time>2010-08-29T10:05:51Z</time>
      </trkpt>
      <trkpt lat="42.09133" lon="9.13351">
        <ele>2055.9165039</ele>
        <time>2010-08-29T10:05:58Z</time>
      </trkpt>
      <trkpt lat="42.09134" lon="9.13355">
        <ele>2056.8779297</ele>
        <time>2010-08-29T10:06:03Z</time>
      </trkpt>
      <trkpt lat="42.09136" lon="9.13362">
        <ele>2058.3198242</ele>
        <time>2010-08-29T10:06:10Z</time>
      </trkpt>
      <trkpt lat="42.09139" lon="9.13368">
        <ele>2058.8005371</ele>
        <time>2010-08-29T10:06:17Z</time>
      </trkpt>
      <trkpt lat="42.09138" lon="9.13368">
        <ele>2057.3586426</ele>
        <time>2010-08-29T10:06:25Z</time>
      </trkpt>
      <trkpt lat="42.09138" lon="9.13368">
        <ele>2056.8779297</ele>
        <time>2010-08-29T10:06:31Z</time>
      </trkpt>
      <trkpt lat="42.09138" lon="9.13378">
        <ele>2057.3586426</ele>
        <time>2010-08-29T10:06:38Z</time>
      </trkpt>
      <trkpt lat="42.09138" lon="9.13387">
        <ele>2058.3198242</ele>
        <time>2010-08-29T10:06:45Z</time>
      </trkpt>
      <trkpt lat="42.09138" lon="9.13389">
        <ele>2057.8393555</ele>
        <time>2010-08-29T10:06:47Z</time>
      </trkpt>
      <trkpt lat="42.09138" lon="9.13392">
        <ele>2056.8779297</ele>
        <time>2010-08-29T10:06:53Z</time>
      </trkpt>
      <trkpt lat="42.09137" lon="9.13395">
        <ele>2058.3198242</ele>
        <time>2010-08-29T10:06:57Z</time>
      </trkpt>
      <trkpt lat="42.09136" lon="9.13402">
        <ele>2060.7233887</ele>
        <time>2010-08-29T10:07:03Z</time>
      </trkpt>
      <trkpt lat="42.09136" lon="9.13403">
        <ele>2062.1652832</ele>
        <time>2010-08-29T10:07:09Z</time>
      </trkpt>
      <trkpt lat="42.09137" lon="9.13405">
        <ele>2062.1652832</ele>
        <time>2010-08-29T10:07:16Z</time>
      </trkpt>
      <trkpt lat="42.09135" lon="9.13406">
        <ele>2059.28125</ele>
        <time>2010-08-29T10:07:38Z</time>
      </trkpt>
      <trkpt lat="42.09135" lon="9.13403">
        <ele>2058.3198242</ele>
        <time>2010-08-29T10:07:50Z</time>
      </trkpt>
      <trkpt lat="42.09137" lon="9.134">
        <ele>2059.7617188</ele>
        <time>2010-08-29T10:07:59Z</time>
      </trkpt>
      <trkpt lat="42.09137" lon="9.134">
        <ele>2059.28125</ele>
        <time>2010-08-29T10:08:12Z</time>
      </trkpt>
      <trkpt lat="42.09137" lon="9.134">
        <ele>2059.7617188</ele>
        <time>2010-08-29T10:08:25Z</time>
      </trkpt>
      <trkpt lat="42.09137" lon="9.13397">
        <ele>2058.3198242</ele>
        <time>2010-08-29T10:08:30Z</time>
      </trkpt>
      <trkpt lat="42.09138" lon="9.13396">
        <ele>2057.3586426</ele>
        <time>2010-08-29T10:08:37Z</time>
      </trkpt>
      <trkpt lat="42.09139" lon="9.13395">
        <ele>2056.8779297</ele>
        <time>2010-08-29T10:08:44Z</time>
      </trkpt>
      <trkpt lat="42.09141" lon="9.13399">
        <ele>2055.9165039</ele>
        <time>2010-08-29T10:08:50Z</time>
      </trkpt>
      <trkpt lat="42.09142" lon="9.134">
        <ele>2055.4360352</ele>
        <time>2010-08-29T10:08:52Z</time>
      </trkpt>
      <trkpt lat="42.09144" lon="9.13402">
        <ele>2054.9553223</ele>
        <time>2010-08-29T10:08:58Z</time>
      </trkpt>
      <trkpt lat="42.09145" lon="9.13399">
        <ele>2057.8393555</ele>
        <time>2010-08-29T10:09:10Z</time>
      </trkpt>
      <trkpt lat="42.09146" lon="9.13403">
        <ele>2057.8393555</ele>
        <time>2010-08-29T10:09:17Z</time>
      </trkpt>
      <trkpt lat="42.09148" lon="9.13405">
        <ele>2057.8393555</ele>
        <time>2010-08-29T10:09:22Z</time>
      </trkpt>
      <trkpt lat="42.09153" lon="9.1341">
        <ele>2058.3198242</ele>
        <time>2010-08-29T10:09:29Z</time>
      </trkpt>
      <trkpt lat="42.09156" lon="9.13416">
        <ele>2058.8005371</ele>
        <time>2010-08-29T10:09:34Z</time>
      </trkpt>
      <trkpt lat="42.09157" lon="9.13419">
        <ele>2058.8005371</ele>
        <time>2010-08-29T10:09:37Z</time>
      </trkpt>
      <trkpt lat="42.0916" lon="9.13422">
        <ele>2058.3198242</ele>
        <time>2010-08-29T10:09:41Z</time>
      </trkpt>
      <trkpt lat="42.0916" lon="9.13429">
        <ele>2057.3586426</ele>
        <time>2010-08-29T10:09:46Z</time>
      </trkpt>
      <trkpt lat="42.09165" lon="9.13434">
        <ele>2057.8393555</ele>
        <time>2010-08-29T10:09:53Z</time>
      </trkpt>
      <trkpt lat="42.09167" lon="9.13437">
        <ele>2056.3972168</ele>
        <time>2010-08-29T10:09:56Z</time>
      </trkpt>
      <trkpt lat="42.0917" lon="9.13443">
        <ele>2055.4360352</ele>
        <time>2010-08-29T10:10:03Z</time>
      </trkpt>
      <trkpt lat="42.09171" lon="9.13444">
        <ele>2054.9553223</ele>
        <time>2010-08-29T10:10:06Z</time>
      </trkpt>
      <trkpt lat="42.09177" lon="9.13448">
        <ele>2053.5134277</ele>
        <time>2010-08-29T10:10:13Z</time>
      </trkpt>
      <trkpt lat="42.0918" lon="9.1345">
        <ele>2053.0327148</ele>
        <time>2010-08-29T10:10:18Z</time>
      </trkpt>
      <trkpt lat="42.09182" lon="9.13452">
        <ele>2051.1101074</ele>
        <time>2010-08-29T10:10:23Z</time>
      </trkpt>
      <trkpt lat="42.09184" lon="9.13451">
        <ele>2048.7067871</ele>
        <time>2010-08-29T10:10:28Z</time>
      </trkpt>
      <trkpt lat="42.09186" lon="9.13453">
        <ele>2047.7456055</ele>
        <time>2010-08-29T10:10:32Z</time>
      </trkpt>
      <trkpt lat="42.09189" lon="9.13455">
        <ele>2047.2648926</ele>
        <time>2010-08-29T10:10:37Z</time>
      </trkpt>
      <trkpt lat="42.0919" lon="9.13457">
        <ele>2044.3808594</ele>
        <time>2010-08-29T10:10:42Z</time>
      </trkpt>
      <trkpt lat="42.09192" lon="9.13456">
        <ele>2042.9387207</ele>
        <time>2010-08-29T10:10:45Z</time>
      </trkpt>
      <trkpt lat="42.09202" lon="9.1346">
        <ele>2044.3808594</ele>
        <time>2010-08-29T10:10:55Z</time>
      </trkpt>
      <trkpt lat="42.09209" lon="9.13464">
        <ele>2043.4194336</ele>
        <time>2010-08-29T10:11:03Z</time>
      </trkpt>
      <trkpt lat="42.09215" lon="9.13467">
        <ele>2042.9387207</ele>
        <time>2010-08-29T10:11:11Z</time>
      </trkpt>
      <trkpt lat="42.09217" lon="9.1347">
        <ele>2038.6130371</ele>
        <time>2010-08-29T10:11:21Z</time>
      </trkpt>
      <trkpt lat="42.09217" lon="9.13472">
        <ele>2035.248291</ele>
        <time>2010-08-29T10:11:32Z</time>
      </trkpt>
      <trkpt lat="42.09222" lon="9.13479">
        <ele>2036.2097168</ele>
        <time>2010-08-29T10:11:41Z</time>
      </trkpt>
      <trkpt lat="42.09227" lon="9.13487">
        <ele>2036.6901855</ele>
        <time>2010-08-29T10:11:49Z</time>
      </trkpt>
      <trkpt lat="42.09232" lon="9.13492">
        <ele>2036.6901855</ele>
        <time>2010-08-29T10:11:55Z</time>
      </trkpt>
      <trkpt lat="42.09235" lon="9.13503">
        <ele>2036.6901855</ele>
        <time>2010-08-29T10:12:04Z</time>
      </trkpt>
      <trkpt lat="42.09237" lon="9.13512">
        <ele>2038.1323242</ele>
        <time>2010-08-29T10:12:12Z</time>
      </trkpt>
      <trkpt lat="42.09239" lon="9.13518">
        <ele>2038.1323242</ele>
        <time>2010-08-29T10:12:18Z</time>
      </trkpt>
      <trkpt lat="42.09245" lon="9.13524">
        <ele>2038.1323242</ele>
        <time>2010-08-29T10:12:26Z</time>
      </trkpt>
      <trkpt lat="42.09247" lon="9.13528">
        <ele>2038.6130371</ele>
        <time>2010-08-29T10:12:31Z</time>
      </trkpt>
      <trkpt lat="42.09253" lon="9.13535">
        <ele>2038.6130371</ele>
        <time>2010-08-29T10:12:39Z</time>
      </trkpt>
      <trkpt lat="42.09258" lon="9.1354">
        <ele>2039.0935059</ele>
        <time>2010-08-29T10:12:46Z</time>
      </trkpt>
      <trkpt lat="42.09259" lon="9.13542">
        <ele>2039.0935059</ele>
        <time>2010-08-29T10:12:48Z</time>
      </trkpt>
      <trkpt lat="42.09264" lon="9.13548">
        <ele>2039.0935059</ele>
        <time>2010-08-29T10:12:55Z</time>
      </trkpt>
      <trkpt lat="42.09267" lon="9.13551">
        <ele>2039.5742188</ele>
        <time>2010-08-29T10:13:02Z</time>
      </trkpt>
      <trkpt lat="42.09268" lon="9.13553">
        <ele>2038.1323242</ele>
        <time>2010-08-29T10:13:15Z</time>
      </trkpt>
      <trkpt lat="42.0927" lon="9.13556">
        <ele>2037.1708984</ele>
        <time>2010-08-29T10:13:21Z</time>
      </trkpt>
      <trkpt lat="42.09274" lon="9.13557">
        <ele>2035.7290039</ele>
        <time>2010-08-29T10:13:27Z</time>
      </trkpt>
      <trkpt lat="42.09274" lon="9.13557">
        <ele>2036.2097168</ele>
        <time>2010-08-29T10:13:28Z</time>
      </trkpt>
      <trkpt lat="42.09279" lon="9.13562">
        <ele>2035.7290039</ele>
        <time>2010-08-29T10:13:34Z</time>
      </trkpt>
      <trkpt lat="42.09284" lon="9.13563">
        <ele>2034.7678223</ele>
        <time>2010-08-29T10:13:40Z</time>
      </trkpt>
      <trkpt lat="42.09288" lon="9.13563">
        <ele>2034.2871094</ele>
        <time>2010-08-29T10:13:46Z</time>
      </trkpt>
      <trkpt lat="42.09295" lon="9.13568">
        <ele>2034.2871094</ele>
        <time>2010-08-29T10:13:54Z</time>
      </trkpt>
      <trkpt lat="42.093" lon="9.13572">
        <ele>2032.8449707</ele>
        <time>2010-08-29T10:14:02Z</time>
      </trkpt>
      <trkpt lat="42.09301" lon="9.13573">
        <ele>2033.8063965</ele>
        <time>2010-08-29T10:14:07Z</time>
      </trkpt>
      <trkpt lat="42.09301" lon="9.13573">
        <ele>2034.7678223</ele>
        <time>2010-08-29T10:14:16Z</time>
      </trkpt>
      <trkpt lat="42.09301" lon="9.13568">
        <ele>2032.8449707</ele>
        <time>2010-08-29T10:14:22Z</time>
      </trkpt>
      <trkpt lat="42.09308" lon="9.13571">
        <ele>2030.9226074</ele>
        <time>2010-08-29T10:14:30Z</time>
      </trkpt>
      <trkpt lat="42.09311" lon="9.13572">
        <ele>2031.4030762</ele>
        <time>2010-08-29T10:14:37Z</time>
      </trkpt>
      <trkpt lat="42.09315" lon="9.13576">
        <ele>2030.4418945</ele>
        <time>2010-08-29T10:14:44Z</time>
      </trkpt>
      <trkpt lat="42.09319" lon="9.13576">
        <ele>2027.5576172</ele>
        <time>2010-08-29T10:14:51Z</time>
      </trkpt>
      <trkpt lat="42.0932" lon="9.13575">
        <ele>2026.1157227</ele>
        <time>2010-08-29T10:14:55Z</time>
      </trkpt>
      <trkpt lat="42.09325" lon="9.13576">
        <ele>2024.6738281</ele>
        <time>2010-08-29T10:15:02Z</time>
      </trkpt>
      <trkpt lat="42.0933" lon="9.13578">
        <ele>2023.2319336</ele>
        <time>2010-08-29T10:15:09Z</time>
      </trkpt>
      <trkpt lat="42.09333" lon="9.1358">
        <ele>2022.2705078</ele>
        <time>2010-08-29T10:15:15Z</time>
      </trkpt>
      <trkpt lat="42.09337" lon="9.13583">
        <ele>2022.7512207</ele>
        <time>2010-08-29T10:15:21Z</time>
      </trkpt>
      <trkpt lat="42.0934" lon="9.13586">
        <ele>2022.2705078</ele>
        <time>2010-08-29T10:15:26Z</time>
      </trkpt>
      <trkpt lat="42.09345" lon="9.13591">
        <ele>2022.7512207</ele>
        <time>2010-08-29T10:15:34Z</time>
      </trkpt>
      <trkpt lat="42.09349" lon="9.13593">
        <ele>2023.7124023</ele>
        <time>2010-08-29T10:15:40Z</time>
      </trkpt>
      <trkpt lat="42.09352" lon="9.13596">
        <ele>2024.1931152</ele>
        <time>2010-08-29T10:15:49Z</time>
      </trkpt>
      <trkpt lat="42.09351" lon="9.13593">
        <ele>2021.7897949</ele>
        <time>2010-08-29T10:16:13Z</time>
      </trkpt>
      <trkpt lat="42.09351" lon="9.13593">
        <ele>2020.8286133</ele>
        <time>2010-08-29T10:16:25Z</time>
      </trkpt>
      <trkpt lat="42.09353" lon="9.13593">
        <ele>2021.309082</ele>
        <time>2010-08-29T10:16:35Z</time>
      </trkpt>
      <trkpt lat="42.09354" lon="9.13592">
        <ele>2023.7124023</ele>
        <time>2010-08-29T10:16:42Z</time>
      </trkpt>
      <trkpt lat="42.09354" lon="9.13594">
        <ele>2024.1931152</ele>
        <time>2010-08-29T10:16:49Z</time>
      </trkpt>
      <trkpt lat="42.09352" lon="9.13597">
        <ele>2019.8671875</ele>
        <time>2010-08-29T10:17:12Z</time>
      </trkpt>
      <trkpt lat="42.09351" lon="9.13598">
        <ele>2017.4638672</ele>
        <time>2010-08-29T10:17:21Z</time>
      </trkpt>
      <trkpt lat="42.09351" lon="9.13598">
        <ele>2017.4638672</ele>
        <time>2010-08-29T10:17:35Z</time>
      </trkpt>
      <trkpt lat="42.09349" lon="9.13597">
        <ele>2017.4638672</ele>
        <time>2010-08-29T10:17:45Z</time>
      </trkpt>
      <trkpt lat="42.09349" lon="9.13597">
        <ele>2018.425293</ele>
        <time>2010-08-29T10:17:52Z</time>
      </trkpt>
      <trkpt lat="42.0935" lon="9.13594">
        <ele>2020.3479004</ele>
        <time>2010-08-29T10:18:02Z</time>
      </trkpt>
      <trkpt lat="42.0935" lon="9.13593">
        <ele>2021.309082</ele>
        <time>2010-08-29T10:18:11Z</time>
      </trkpt>
      <trkpt lat="42.0935" lon="9.13593">
        <ele>2021.7897949</ele>
        <time>2010-08-29T10:18:21Z</time>
      </trkpt>
      <trkpt lat="42.0935" lon="9.13594">
        <ele>2021.7897949</ele>
        <time>2010-08-29T10:18:30Z</time>
      </trkpt>
      <trkpt lat="42.09352" lon="9.13594">
        <ele>2020.8286133</ele>
        <time>2010-08-29T10:18:36Z</time>
      </trkpt>
      <trkpt lat="42.0935" lon="9.13595">
        <ele>2020.3479004</ele>
        <time>2010-08-29T10:18:47Z</time>
      </trkpt>
      <trkpt lat="42.09352" lon="9.13597">
        <ele>2016.5026855</ele>
        <time>2010-08-29T10:18:58Z</time>
      </trkpt>
      <trkpt lat="42.09352" lon="9.13597">
        <ele>2014.0993652</ele>
        <time>2010-08-29T10:19:03Z</time>
      </trkpt>
      <trkpt lat="42.09349" lon="9.13597">
        <ele>2013.6186523</ele>
        <time>2010-08-29T10:19:23Z</time>
      </trkpt>
      <trkpt lat="42.09354" lon="9.13594">
        <ele>2016.0219727</ele>
        <time>2010-08-29T10:19:30Z</time>
      </trkpt>
      <trkpt lat="42.09359" lon="9.13589">
        <ele>2019.3867188</ele>
        <time>2010-08-29T10:20:00Z</time>
      </trkpt>
      <trkpt lat="42.09359" lon="9.13589">
        <ele>2019.3867188</ele>
        <time>2010-08-29T10:20:08Z</time>
      </trkpt>
      <trkpt lat="42.09358" lon="9.1359">
        <ele>2018.9060059</ele>
        <time>2010-08-29T10:20:17Z</time>
      </trkpt>
      <trkpt lat="42.09357" lon="9.1359">
        <ele>2018.425293</ele>
        <time>2010-08-29T10:20:28Z</time>
      </trkpt>
      <trkpt lat="42.09352" lon="9.13595">
        <ele>2012.1767578</ele>
        <time>2010-08-29T10:20:45Z</time>
      </trkpt>
      <trkpt lat="42.0935" lon="9.13597">
        <ele>2010.7346191</ele>
        <time>2010-08-29T10:21:00Z</time>
      </trkpt>
      <trkpt lat="42.09351" lon="9.13595">
        <ele>2011.6960449</ele>
        <time>2010-08-29T10:21:08Z</time>
      </trkpt>
      <trkpt lat="42.09347" lon="9.13596">
        <ele>2016.0219727</ele>
        <time>2010-08-29T10:21:42Z</time>
      </trkpt>
      <trkpt lat="42.09353" lon="9.13595">
        <ele>2017.9445801</ele>
        <time>2010-08-29T10:22:03Z</time>
      </trkpt>
      <trkpt lat="42.09356" lon="9.13592">
        <ele>2023.7124023</ele>
        <time>2010-08-29T10:22:15Z</time>
      </trkpt>
      <trkpt lat="42.09356" lon="9.13589">
        <ele>2027.5576172</ele>
        <time>2010-08-29T10:22:33Z</time>
      </trkpt>
      <trkpt lat="42.09356" lon="9.13589">
        <ele>2028.5192871</ele>
        <time>2010-08-29T10:22:52Z</time>
      </trkpt>
      <trkpt lat="42.09357" lon="9.13591">
        <ele>2027.5576172</ele>
        <time>2010-08-29T10:22:57Z</time>
      </trkpt>
      <trkpt lat="42.09354" lon="9.13596">
        <ele>2017.4638672</ele>
        <time>2010-08-29T10:23:10Z</time>
      </trkpt>
      <trkpt lat="42.09354" lon="9.13598">
        <ele>2015.060791</ele>
        <time>2010-08-29T10:23:17Z</time>
      </trkpt>
      <trkpt lat="42.09359" lon="9.136">
        <ele>2015.5415039</ele>
        <time>2010-08-29T10:23:25Z</time>
      </trkpt>
      <trkpt lat="42.09363" lon="9.13602">
        <ele>2016.9833984</ele>
        <time>2010-08-29T10:23:30Z</time>
      </trkpt>
      <trkpt lat="42.0937" lon="9.13603">
        <ele>2018.9060059</ele>
        <time>2010-08-29T10:23:36Z</time>
      </trkpt>
      <trkpt lat="42.09378" lon="9.13607">
        <ele>2019.3867188</ele>
        <time>2010-08-29T10:23:44Z</time>
      </trkpt>
      <trkpt lat="42.09383" lon="9.13608">
        <ele>2022.7512207</ele>
        <time>2010-08-29T10:24:01Z</time>
      </trkpt>
      <trkpt lat="42.09383" lon="9.13608">
        <ele>2020.3479004</ele>
        <time>2010-08-29T10:24:14Z</time>
      </trkpt>
      <trkpt lat="42.09384" lon="9.1361">
        <ele>2021.7897949</ele>
        <time>2010-08-29T10:24:40Z</time>
      </trkpt>
      <trkpt lat="42.09382" lon="9.1361">
        <ele>2019.8671875</ele>
        <time>2010-08-29T10:24:56Z</time>
      </trkpt>
      <trkpt lat="42.09382" lon="9.1361">
        <ele>2018.425293</ele>
        <time>2010-08-29T10:25:06Z</time>
      </trkpt>
      <trkpt lat="42.09382" lon="9.13609">
        <ele>2017.4638672</ele>
        <time>2010-08-29T10:25:14Z</time>
      </trkpt>
      <trkpt lat="42.09388" lon="9.13613">
        <ele>2017.9445801</ele>
        <time>2010-08-29T10:25:20Z</time>
      </trkpt>
      <trkpt lat="42.09396" lon="9.13616">
        <ele>2018.9060059</ele>
        <time>2010-08-29T10:25:27Z</time>
      </trkpt>
      <trkpt lat="42.094" lon="9.13621">
        <ele>2019.3867188</ele>
        <time>2010-08-29T10:25:34Z</time>
      </trkpt>
      <trkpt lat="42.09405" lon="9.13626">
        <ele>2018.425293</ele>
        <time>2010-08-29T10:25:41Z</time>
      </trkpt>
      <trkpt lat="42.09403" lon="9.13625">
        <ele>2015.5415039</ele>
        <time>2010-08-29T10:25:55Z</time>
      </trkpt>
      <trkpt lat="42.09404" lon="9.13629">
        <ele>2015.060791</ele>
        <time>2010-08-29T10:26:03Z</time>
      </trkpt>
      <trkpt lat="42.09409" lon="9.13634">
        <ele>2015.5415039</ele>
        <time>2010-08-29T10:26:09Z</time>
      </trkpt>
      <trkpt lat="42.09415" lon="9.13642">
        <ele>2016.5026855</ele>
        <time>2010-08-29T10:26:16Z</time>
      </trkpt>
      <trkpt lat="42.09417" lon="9.13644">
        <ele>2016.0219727</ele>
        <time>2010-08-29T10:26:22Z</time>
      </trkpt>
      <trkpt lat="42.09424" lon="9.13648">
        <ele>2015.5415039</ele>
        <time>2010-08-29T10:26:29Z</time>
      </trkpt>
      <trkpt lat="42.09431" lon="9.13649">
        <ele>2015.060791</ele>
        <time>2010-08-29T10:26:36Z</time>
      </trkpt>
      <trkpt lat="42.0944" lon="9.13652">
        <ele>2015.060791</ele>
        <time>2010-08-29T10:26:44Z</time>
      </trkpt>
      <trkpt lat="42.09444" lon="9.13651">
        <ele>2014.0993652</ele>
        <time>2010-08-29T10:26:47Z</time>
      </trkpt>
      <trkpt lat="42.0945" lon="9.13652">
        <ele>2013.1381836</ele>
        <time>2010-08-29T10:26:52Z</time>
      </trkpt>
      <trkpt lat="42.09458" lon="9.13654">
        <ele>2013.6186523</ele>
        <time>2010-08-29T10:26:59Z</time>
      </trkpt>
      <trkpt lat="42.09462" lon="9.13654">
        <ele>2013.1381836</ele>
        <time>2010-08-29T10:27:05Z</time>
      </trkpt>
      <trkpt lat="42.09467" lon="9.13653">
        <ele>2012.6574707</ele>
        <time>2010-08-29T10:27:12Z</time>
      </trkpt>
      <trkpt lat="42.0947" lon="9.13653">
        <ele>2012.1767578</ele>
        <time>2010-08-29T10:27:15Z</time>
      </trkpt>
      <trkpt lat="42.09476" lon="9.13655">
        <ele>2013.6186523</ele>
        <time>2010-08-29T10:27:22Z</time>
      </trkpt>
      <trkpt lat="42.09484" lon="9.13658">
        <ele>2013.6186523</ele>
        <time>2010-08-29T10:27:28Z</time>
      </trkpt>
      <trkpt lat="42.09491" lon="9.13659">
        <ele>2013.6186523</ele>
        <time>2010-08-29T10:27:36Z</time>
      </trkpt>
      <trkpt lat="42.09499" lon="9.13662">
        <ele>2014.0993652</ele>
        <time>2010-08-29T10:27:43Z</time>
      </trkpt>
      <trkpt lat="42.09501" lon="9.13664">
        <ele>2012.6574707</ele>
        <time>2010-08-29T10:27:49Z</time>
      </trkpt>
      <trkpt lat="42.09502" lon="9.13664">
        <ele>2011.6960449</ele>
        <time>2010-08-29T10:27:58Z</time>
      </trkpt>
      <trkpt lat="42.09502" lon="9.13665">
        <ele>2009.2927246</ele>
        <time>2010-08-29T10:28:07Z</time>
      </trkpt>
      <trkpt lat="42.09503" lon="9.13664">
        <ele>2010.2539062</ele>
        <time>2010-08-29T10:28:29Z</time>
      </trkpt>
      <trkpt lat="42.09503" lon="9.13664">
        <ele>2008.8120117</ele>
        <time>2010-08-29T10:28:47Z</time>
      </trkpt>
      <trkpt lat="42.09506" lon="9.13665">
        <ele>2009.7731934</ele>
        <time>2010-08-29T10:28:58Z</time>
      </trkpt>
      <trkpt lat="42.09512" lon="9.13668">
        <ele>2011.215332</ele>
        <time>2010-08-29T10:29:04Z</time>
      </trkpt>
      <trkpt lat="42.09519" lon="9.13671">
        <ele>2009.7731934</ele>
        <time>2010-08-29T10:29:11Z</time>
      </trkpt>
      <trkpt lat="42.09523" lon="9.13674">
        <ele>2009.7731934</ele>
        <time>2010-08-29T10:29:16Z</time>
      </trkpt>
      <trkpt lat="42.0953" lon="9.13679">
        <ele>2009.2927246</ele>
        <time>2010-08-29T10:29:24Z</time>
      </trkpt>
      <trkpt lat="42.09534" lon="9.13682">
        <ele>2009.2927246</ele>
        <time>2010-08-29T10:29:29Z</time>
      </trkpt>
      <trkpt lat="42.09536" lon="9.13682">
        <ele>2008.3312988</ele>
        <time>2010-08-29T10:29:31Z</time>
      </trkpt>
      <trkpt lat="42.09543" lon="9.13678">
        <ele>2006.8894043</ele>
        <time>2010-08-29T10:29:38Z</time>
      </trkpt>
      <trkpt lat="42.09544" lon="9.13678">
        <ele>2006.8894043</ele>
        <time>2010-08-29T10:29:44Z</time>
      </trkpt>
      <trkpt lat="42.09544" lon="9.13679">
        <ele>2006.8894043</ele>
        <time>2010-08-29T10:29:53Z</time>
      </trkpt>
      <trkpt lat="42.09544" lon="9.13679">
        <ele>2007.3701172</ele>
        <time>2010-08-29T10:29:59Z</time>
      </trkpt>
      <trkpt lat="42.09549" lon="9.13682">
        <ele>2006.8894043</ele>
        <time>2010-08-29T10:30:06Z</time>
      </trkpt>
      <trkpt lat="42.09551" lon="9.13683">
        <ele>2006.4086914</ele>
        <time>2010-08-29T10:30:08Z</time>
      </trkpt>
      <trkpt lat="42.09559" lon="9.13685">
        <ele>2006.4086914</ele>
        <time>2010-08-29T10:30:16Z</time>
      </trkpt>
      <trkpt lat="42.09566" lon="9.1369">
        <ele>2006.8894043</ele>
        <time>2010-08-29T10:30:23Z</time>
      </trkpt>
      <trkpt lat="42.09572" lon="9.13692">
        <ele>2007.8508301</ele>
        <time>2010-08-29T10:30:30Z</time>
      </trkpt>
      <trkpt lat="42.09576" lon="9.13692">
        <ele>2008.3312988</ele>
        <time>2010-08-29T10:30:35Z</time>
      </trkpt>
      <trkpt lat="42.09576" lon="9.13692">
        <ele>2008.8120117</ele>
        <time>2010-08-29T10:30:45Z</time>
      </trkpt>
      <trkpt lat="42.09576" lon="9.13692">
        <ele>2008.3312988</ele>
        <time>2010-08-29T10:30:52Z</time>
      </trkpt>
      <trkpt lat="42.0958" lon="9.13694">
        <ele>2008.3312988</ele>
        <time>2010-08-29T10:30:58Z</time>
      </trkpt>
      <trkpt lat="42.09585" lon="9.13695">
        <ele>2008.8120117</ele>
        <time>2010-08-29T10:31:04Z</time>
      </trkpt>
      <trkpt lat="42.09592" lon="9.13698">
        <ele>2009.2927246</ele>
        <time>2010-08-29T10:31:11Z</time>
      </trkpt>
      <trkpt lat="42.09596" lon="9.13699">
        <ele>2010.2539062</ele>
        <time>2010-08-29T10:31:18Z</time>
      </trkpt>
      <trkpt lat="42.09597" lon="9.13699">
        <ele>2010.2539062</ele>
        <time>2010-08-29T10:31:20Z</time>
      </trkpt>
      <trkpt lat="42.09605" lon="9.13701">
        <ele>2011.215332</ele>
        <time>2010-08-29T10:31:29Z</time>
      </trkpt>
      <trkpt lat="42.09611" lon="9.13702">
        <ele>2011.215332</ele>
        <time>2010-08-29T10:31:36Z</time>
      </trkpt>
      <trkpt lat="42.09616" lon="9.137">
        <ele>2013.6186523</ele>
        <time>2010-08-29T10:31:43Z</time>
      </trkpt>
      <trkpt lat="42.09619" lon="9.13701">
        <ele>2008.8120117</ele>
        <time>2010-08-29T10:31:50Z</time>
      </trkpt>
      <trkpt lat="42.09621" lon="9.13702">
        <ele>2009.2927246</ele>
        <time>2010-08-29T10:31:58Z</time>
      </trkpt>
      <trkpt lat="42.0962" lon="9.13701">
        <ele>2009.7731934</ele>
        <time>2010-08-29T10:32:18Z</time>
      </trkpt>
      <trkpt lat="42.09622" lon="9.13702">
        <ele>2005.4475098</ele>
        <time>2010-08-29T10:32:27Z</time>
      </trkpt>
      <trkpt lat="42.09628" lon="9.13704">
        <ele>2005.9279785</ele>
        <time>2010-08-29T10:32:32Z</time>
      </trkpt>
      <trkpt lat="42.09634" lon="9.13703">
        <ele>2005.9279785</ele>
        <time>2010-08-29T10:32:40Z</time>
      </trkpt>
      <trkpt lat="42.09638" lon="9.13702">
        <ele>2007.3701172</ele>
        <time>2010-08-29T10:32:45Z</time>
      </trkpt>
      <trkpt lat="42.09641" lon="9.13703">
        <ele>2007.8508301</ele>
        <time>2010-08-29T10:32:48Z</time>
      </trkpt>
      <trkpt lat="42.09648" lon="9.13701">
        <ele>2007.8508301</ele>
        <time>2010-08-29T10:32:56Z</time>
      </trkpt>
      <trkpt lat="42.09649" lon="9.137">
        <ele>2008.3312988</ele>
        <time>2010-08-29T10:33:01Z</time>
      </trkpt>
      <trkpt lat="42.09648" lon="9.13698">
        <ele>2012.6574707</ele>
        <time>2010-08-29T10:33:09Z</time>
      </trkpt>
      <trkpt lat="42.09649" lon="9.137">
        <ele>2009.2927246</ele>
        <time>2010-08-29T10:33:16Z</time>
      </trkpt>
      <trkpt lat="42.09649" lon="9.13701">
        <ele>2006.8894043</ele>
        <time>2010-08-29T10:33:24Z</time>
      </trkpt>
      <trkpt lat="42.09649" lon="9.13701">
        <ele>2007.8508301</ele>
        <time>2010-08-29T10:33:35Z</time>
      </trkpt>
      <trkpt lat="42.09649" lon="9.137">
        <ele>2006.8894043</ele>
        <time>2010-08-29T10:33:44Z</time>
      </trkpt>
      <trkpt lat="42.09646" lon="9.13695">
        <ele>2005.4475098</ele>
        <time>2010-08-29T10:33:52Z</time>
      </trkpt>
      <trkpt lat="42.09647" lon="9.13689">
        <ele>2003.0441895</ele>
        <time>2010-08-29T10:33:58Z</time>
      </trkpt>
      <trkpt lat="42.09647" lon="9.13681">
        <ele>2000.6408691</ele>
        <time>2010-08-29T10:34:05Z</time>
      </trkpt>
      <trkpt lat="42.09648" lon="9.13679">
        <ele>2000.6408691</ele>
        <time>2010-08-29T10:34:06Z</time>
      </trkpt>
      <trkpt lat="42.09652" lon="9.13668">
        <ele>1997.7570801</ele>
        <time>2010-08-29T10:34:14Z</time>
      </trkpt>
      <trkpt lat="42.09652" lon="9.13665">
        <ele>1996.7956543</ele>
        <time>2010-08-29T10:34:19Z</time>
      </trkpt>
      <trkpt lat="42.09652" lon="9.13666">
        <ele>1996.7956543</ele>
        <time>2010-08-29T10:34:29Z</time>
      </trkpt>
      <trkpt lat="42.09652" lon="9.13664">
        <ele>1996.7956543</ele>
        <time>2010-08-29T10:34:41Z</time>
      </trkpt>
      <trkpt lat="42.09655" lon="9.13662">
        <ele>1994.8728027</ele>
        <time>2010-08-29T10:34:47Z</time>
      </trkpt>
      <trkpt lat="42.09657" lon="9.13657">
        <ele>1992.4697266</ele>
        <time>2010-08-29T10:34:53Z</time>
      </trkpt>
      <trkpt lat="42.09657" lon="9.13657">
        <ele>1992.4697266</ele>
        <time>2010-08-29T10:34:54Z</time>
      </trkpt>
      <trkpt lat="42.09661" lon="9.13655">
        <ele>1991.0275879</ele>
        <time>2010-08-29T10:34:58Z</time>
      </trkpt>
      <trkpt lat="42.09664" lon="9.13655">
        <ele>1990.546875</ele>
        <time>2010-08-29T10:35:04Z</time>
      </trkpt>
      <trkpt lat="42.09664" lon="9.13656">
        <ele>1989.5856934</ele>
        <time>2010-08-29T10:35:13Z</time>
      </trkpt>
      <trkpt lat="42.09664" lon="9.13656">
        <ele>1988.6245117</ele>
        <time>2010-08-29T10:35:22Z</time>
      </trkpt>
      <trkpt lat="42.09665" lon="9.13655">
        <ele>1988.1437988</ele>
        <time>2010-08-29T10:35:23Z</time>
      </trkpt>
      <trkpt lat="42.09667" lon="9.13654">
        <ele>1987.182373</ele>
        <time>2010-08-29T10:35:27Z</time>
      </trkpt>
      <trkpt lat="42.0967" lon="9.13661">
        <ele>1988.1437988</ele>
        <time>2010-08-29T10:35:35Z</time>
      </trkpt>
      <trkpt lat="42.09669" lon="9.13661">
        <ele>1989.1049805</ele>
        <time>2010-08-29T10:35:45Z</time>
      </trkpt>
      <trkpt lat="42.09668" lon="9.13658">
        <ele>1989.1049805</ele>
        <time>2010-08-29T10:35:50Z</time>
      </trkpt>
      <trkpt lat="42.09666" lon="9.13654">
        <ele>1989.1049805</ele>
        <time>2010-08-29T10:35:57Z</time>
      </trkpt>
      <trkpt lat="42.09666" lon="9.13655">
        <ele>1988.1437988</ele>
        <time>2010-08-29T10:36:05Z</time>
      </trkpt>
      <trkpt lat="42.09666" lon="9.13656">
        <ele>1988.1437988</ele>
        <time>2010-08-29T10:36:09Z</time>
      </trkpt>
      <trkpt lat="42.0967" lon="9.13662">
        <ele>1989.1049805</ele>
        <time>2010-08-29T10:36:17Z</time>
      </trkpt>
      <trkpt lat="42.09669" lon="9.13663">
        <ele>1989.1049805</ele>
        <time>2010-08-29T10:36:28Z</time>
      </trkpt>
      <trkpt lat="42.09669" lon="9.13663">
        <ele>1989.1049805</ele>
        <time>2010-08-29T10:36:36Z</time>
      </trkpt>
      <trkpt lat="42.0967" lon="9.13662">
        <ele>1989.1049805</ele>
        <time>2010-08-29T10:36:44Z</time>
      </trkpt>
      <trkpt lat="42.0967" lon="9.13663">
        <ele>1989.1049805</ele>
        <time>2010-08-29T10:36:53Z</time>
      </trkpt>
      <trkpt lat="42.09669" lon="9.13662">
        <ele>1988.6245117</ele>
        <time>2010-08-29T10:37:05Z</time>
      </trkpt>
      <trkpt lat="42.09669" lon="9.13659">
        <ele>1988.6245117</ele>
        <time>2010-08-29T10:37:07Z</time>
      </trkpt>
      <trkpt lat="42.09666" lon="9.13655">
        <ele>1988.6245117</ele>
        <time>2010-08-29T10:37:11Z</time>
      </trkpt>
      <trkpt lat="42.09659" lon="9.1365">
        <ele>1989.5856934</ele>
        <time>2010-08-29T10:37:18Z</time>
      </trkpt>
      <trkpt lat="42.09655" lon="9.13648">
        <ele>1990.0664062</ele>
        <time>2010-08-29T10:37:22Z</time>
      </trkpt>
      <trkpt lat="42.09648" lon="9.13649">
        <ele>1991.0275879</ele>
        <time>2010-08-29T10:37:29Z</time>
      </trkpt>
      <trkpt lat="42.09643" lon="9.13657">
        <ele>1992.4697266</ele>
        <time>2010-08-29T10:37:37Z</time>
      </trkpt>
      <trkpt lat="42.09639" lon="9.13665">
        <ele>1993.9116211</ele>
        <time>2010-08-29T10:37:45Z</time>
      </trkpt>
      <trkpt lat="42.09638" lon="9.13668">
        <ele>1994.3920898</ele>
        <time>2010-08-29T10:37:52Z</time>
      </trkpt>
      <trkpt lat="42.09633" lon="9.13675">
        <ele>1995.8342285</ele>
        <time>2010-08-29T10:38:00Z</time>
      </trkpt>
      <trkpt lat="42.09629" lon="9.1368">
        <ele>1998.2375488</ele>
        <time>2010-08-29T10:38:06Z</time>
      </trkpt>
      <trkpt lat="42.09625" lon="9.13685">
        <ele>1999.1989746</ele>
        <time>2010-08-29T10:38:12Z</time>
      </trkpt>
      <trkpt lat="42.09624" lon="9.13687">
        <ele>1999.1989746</ele>
        <time>2010-08-29T10:38:14Z</time>
      </trkpt>
      <trkpt lat="42.09616" lon="9.13691">
        <ele>2001.121582</ele>
        <time>2010-08-29T10:38:23Z</time>
      </trkpt>
      <trkpt lat="42.0961" lon="9.13694">
        <ele>2003.0441895</ele>
        <time>2010-08-29T10:38:30Z</time>
      </trkpt>
      <trkpt lat="42.09607" lon="9.13697">
        <ele>2004.486084</ele>
        <time>2010-08-29T10:38:34Z</time>
      </trkpt>
      <trkpt lat="42.09601" lon="9.13698">
        <ele>2006.8894043</ele>
        <time>2010-08-29T10:38:42Z</time>
      </trkpt>
      <trkpt lat="42.09599" lon="9.13699">
        <ele>2008.3312988</ele>
        <time>2010-08-29T10:38:49Z</time>
      </trkpt>
      <trkpt lat="42.09599" lon="9.13701">
        <ele>2007.8508301</ele>
        <time>2010-08-29T10:38:56Z</time>
      </trkpt>
      <trkpt lat="42.09596" lon="9.13702">
        <ele>2007.8508301</ele>
        <time>2010-08-29T10:39:02Z</time>
      </trkpt>
      <trkpt lat="42.09596" lon="9.13703">
        <ele>2005.4475098</ele>
        <time>2010-08-29T10:39:12Z</time>
      </trkpt>
      <trkpt lat="42.09594" lon="9.13702">
        <ele>2005.4475098</ele>
        <time>2010-08-29T10:39:25Z</time>
      </trkpt>
      <trkpt lat="42.09593" lon="9.13701">
        <ele>2007.3701172</ele>
        <time>2010-08-29T10:39:39Z</time>
      </trkpt>
      <trkpt lat="42.09594" lon="9.137">
        <ele>2006.8894043</ele>
        <time>2010-08-29T10:39:55Z</time>
      </trkpt>
      <trkpt lat="42.09595" lon="9.13701">
        <ele>2004.9667969</ele>
        <time>2010-08-29T10:40:05Z</time>
      </trkpt>
      <trkpt lat="42.09596" lon="9.13703">
        <ele>2004.486084</ele>
        <time>2010-08-29T10:40:10Z</time>
      </trkpt>
      <trkpt lat="42.09605" lon="9.13704">
        <ele>2003.5249023</ele>
        <time>2010-08-29T10:40:19Z</time>
      </trkpt>
      <trkpt lat="42.09614" lon="9.13707">
        <ele>2003.5249023</ele>
        <time>2010-08-29T10:40:28Z</time>
      </trkpt>
      <trkpt lat="42.09619" lon="9.13705">
        <ele>2004.9667969</ele>
        <time>2010-08-29T10:40:34Z</time>
      </trkpt>
      <trkpt lat="42.09621" lon="9.13705">
        <ele>2004.9667969</ele>
        <time>2010-08-29T10:40:36Z</time>
      </trkpt>
      <trkpt lat="42.09623" lon="9.13703">
        <ele>2004.9667969</ele>
        <time>2010-08-29T10:40:39Z</time>
      </trkpt>
      <trkpt lat="42.09625" lon="9.13704">
        <ele>2005.4475098</ele>
        <time>2010-08-29T10:40:45Z</time>
      </trkpt>
      <trkpt lat="42.09625" lon="9.13704">
        <ele>2004.0056152</ele>
        <time>2010-08-29T10:40:55Z</time>
      </trkpt>
      <trkpt lat="42.09625" lon="9.13704">
        <ele>2003.5249023</ele>
        <time>2010-08-29T10:41:04Z</time>
      </trkpt>
      <trkpt lat="42.09627" lon="9.13705">
        <ele>2003.5249023</ele>
        <time>2010-08-29T10:41:14Z</time>
      </trkpt>
      <trkpt lat="42.09635" lon="9.13705">
        <ele>2005.9279785</ele>
        <time>2010-08-29T10:41:22Z</time>
      </trkpt>
      <trkpt lat="42.09637" lon="9.13706">
        <ele>2006.4086914</ele>
        <time>2010-08-29T10:41:24Z</time>
      </trkpt>
      <trkpt lat="42.09643" lon="9.13709">
        <ele>2007.8508301</ele>
        <time>2010-08-29T10:41:30Z</time>
      </trkpt>
      <trkpt lat="42.0965" lon="9.1372">
        <ele>2008.8120117</ele>
        <time>2010-08-29T10:41:39Z</time>
      </trkpt>
      <trkpt lat="42.09654" lon="9.13723">
        <ele>2008.8120117</ele>
        <time>2010-08-29T10:41:44Z</time>
      </trkpt>
      <trkpt lat="42.09659" lon="9.13727">
        <ele>2006.8894043</ele>
        <time>2010-08-29T10:41:51Z</time>
      </trkpt>
      <trkpt lat="42.0966" lon="9.13727">
        <ele>2006.8894043</ele>
        <time>2010-08-29T10:41:53Z</time>
      </trkpt>
      <trkpt lat="42.09665" lon="9.13735">
        <ele>2005.4475098</ele>
        <time>2010-08-29T10:42:00Z</time>
      </trkpt>
      <trkpt lat="42.09667" lon="9.13741">
        <ele>2005.9279785</ele>
        <time>2010-08-29T10:42:06Z</time>
      </trkpt>
      <trkpt lat="42.09671" lon="9.13747">
        <ele>2006.8894043</ele>
        <time>2010-08-29T10:42:11Z</time>
      </trkpt>
      <trkpt lat="42.09673" lon="9.1375">
        <ele>2006.4086914</ele>
        <time>2010-08-29T10:42:15Z</time>
      </trkpt>
      <trkpt lat="42.09676" lon="9.13752">
        <ele>2006.4086914</ele>
        <time>2010-08-29T10:42:18Z</time>
      </trkpt>
      <trkpt lat="42.0968" lon="9.13762">
        <ele>2006.8894043</ele>
        <time>2010-08-29T10:42:26Z</time>
      </trkpt>
      <trkpt lat="42.09682" lon="9.13771">
        <ele>2007.8508301</ele>
        <time>2010-08-29T10:42:34Z</time>
      </trkpt>
      <trkpt lat="42.09683" lon="9.13779">
        <ele>2008.8120117</ele>
        <time>2010-08-29T10:42:41Z</time>
      </trkpt>
      <trkpt lat="42.09685" lon="9.13789">
        <ele>2009.2927246</ele>
        <time>2010-08-29T10:42:49Z</time>
      </trkpt>
      <trkpt lat="42.09685" lon="9.13793">
        <ele>2009.2927246</ele>
        <time>2010-08-29T10:42:55Z</time>
      </trkpt>
      <trkpt lat="42.09685" lon="9.13793">
        <ele>2008.3312988</ele>
        <time>2010-08-29T10:43:00Z</time>
      </trkpt>
      <trkpt lat="42.09685" lon="9.13792">
        <ele>2007.8508301</ele>
        <time>2010-08-29T10:43:09Z</time>
      </trkpt>
      <trkpt lat="42.09687" lon="9.13789">
        <ele>2006.8894043</ele>
        <time>2010-08-29T10:43:14Z</time>
      </trkpt>
      <trkpt lat="42.09687" lon="9.1379">
        <ele>2005.4475098</ele>
        <time>2010-08-29T10:43:31Z</time>
      </trkpt>
      <trkpt lat="42.09689" lon="9.13789">
        <ele>2005.9279785</ele>
        <time>2010-08-29T10:43:40Z</time>
      </trkpt>
      <trkpt lat="42.09688" lon="9.1379">
        <ele>2004.9667969</ele>
        <time>2010-08-29T10:43:52Z</time>
      </trkpt>
      <trkpt lat="42.09687" lon="9.13789">
        <ele>2002.5634766</ele>
        <time>2010-08-29T10:44:02Z</time>
      </trkpt>
      <trkpt lat="42.09686" lon="9.13788">
        <ele>2001.121582</ele>
        <time>2010-08-29T10:44:14Z</time>
      </trkpt>
      <trkpt lat="42.09684" lon="9.13796">
        <ele>2004.0056152</ele>
        <time>2010-08-29T10:44:22Z</time>
      </trkpt>
      <trkpt lat="42.09682" lon="9.13799">
        <ele>2005.4475098</ele>
        <time>2010-08-29T10:44:30Z</time>
      </trkpt>
      <trkpt lat="42.09684" lon="9.13803">
        <ele>2005.4475098</ele>
        <time>2010-08-29T10:44:36Z</time>
      </trkpt>
      <trkpt lat="42.09686" lon="9.13807">
        <ele>2005.4475098</ele>
        <time>2010-08-29T10:44:43Z</time>
      </trkpt>
      <trkpt lat="42.09686" lon="9.13812">
        <ele>2005.9279785</ele>
        <time>2010-08-29T10:44:48Z</time>
      </trkpt>
      <trkpt lat="42.09688" lon="9.13822">
        <ele>2006.4086914</ele>
        <time>2010-08-29T10:44:55Z</time>
      </trkpt>
      <trkpt lat="42.09688" lon="9.13828">
        <ele>2006.8894043</ele>
        <time>2010-08-29T10:44:59Z</time>
      </trkpt>
      <trkpt lat="42.09689" lon="9.13839">
        <ele>2008.3312988</ele>
        <time>2010-08-29T10:45:06Z</time>
      </trkpt>
      <trkpt lat="42.0969" lon="9.13843">
        <ele>2007.8508301</ele>
        <time>2010-08-29T10:45:13Z</time>
      </trkpt>
      <trkpt lat="42.09689" lon="9.13844">
        <ele>2007.3701172</ele>
        <time>2010-08-29T10:45:22Z</time>
      </trkpt>
      <trkpt lat="42.09688" lon="9.13849">
        <ele>2006.8894043</ele>
        <time>2010-08-29T10:45:27Z</time>
      </trkpt>
      <trkpt lat="42.09689" lon="9.13853">
        <ele>2006.8894043</ele>
        <time>2010-08-29T10:45:30Z</time>
      </trkpt>
      <trkpt lat="42.09688" lon="9.13858">
        <ele>2006.4086914</ele>
        <time>2010-08-29T10:45:37Z</time>
      </trkpt>
      <trkpt lat="42.09687" lon="9.13861">
        <ele>2006.4086914</ele>
        <time>2010-08-29T10:45:42Z</time>
      </trkpt>
      <trkpt lat="42.09687" lon="9.13865">
        <ele>2006.8894043</ele>
        <time>2010-08-29T10:45:45Z</time>
      </trkpt>
      <trkpt lat="42.09687" lon="9.13868">
        <ele>2006.4086914</ele>
        <time>2010-08-29T10:45:47Z</time>
      </trkpt>
      <trkpt lat="42.09686" lon="9.13876">
        <ele>2006.8894043</ele>
        <time>2010-08-29T10:45:54Z</time>
      </trkpt>
      <trkpt lat="42.09686" lon="9.1388">
        <ele>2006.4086914</ele>
        <time>2010-08-29T10:46:00Z</time>
      </trkpt>
      <trkpt lat="42.09687" lon="9.13884">
        <ele>2004.9667969</ele>
        <time>2010-08-29T10:46:16Z</time>
      </trkpt>
      <trkpt lat="42.09688" lon="9.13886">
        <ele>2003.5249023</ele>
        <time>2010-08-29T10:46:22Z</time>
      </trkpt>
      <trkpt lat="42.09691" lon="9.13889">
        <ele>2004.0056152</ele>
        <time>2010-08-29T10:46:28Z</time>
      </trkpt>
      <trkpt lat="42.09695" lon="9.13891">
        <ele>2004.0056152</ele>
        <time>2010-08-29T10:46:35Z</time>
      </trkpt>
      <trkpt lat="42.09696" lon="9.13889">
        <ele>2002.0827637</ele>
        <time>2010-08-29T10:46:39Z</time>
      </trkpt>
      <trkpt lat="42.097" lon="9.13893">
        <ele>2001.121582</ele>
        <time>2010-08-29T10:46:45Z</time>
      </trkpt>
      <trkpt lat="42.09699" lon="9.13896">
        <ele>1999.6796875</ele>
        <time>2010-08-29T10:46:54Z</time>
      </trkpt>
      <trkpt lat="42.09699" lon="9.13896">
        <ele>1998.7182617</ele>
        <time>2010-08-29T10:47:02Z</time>
      </trkpt>
      <trkpt lat="42.09699" lon="9.13897">
        <ele>1999.6796875</ele>
        <time>2010-08-29T10:47:14Z</time>
      </trkpt>
      <trkpt lat="42.09703" lon="9.13904">
        <ele>2000.1604004</ele>
        <time>2010-08-29T10:47:22Z</time>
      </trkpt>
      <trkpt lat="42.09707" lon="9.13911">
        <ele>2000.6408691</ele>
        <time>2010-08-29T10:47:28Z</time>
      </trkpt>
      <trkpt lat="42.09708" lon="9.13912">
        <ele>1999.6796875</ele>
        <time>2010-08-29T10:47:32Z</time>
      </trkpt>
      <trkpt lat="42.09711" lon="9.13915">
        <ele>1997.7570801</ele>
        <time>2010-08-29T10:47:39Z</time>
      </trkpt>
      <trkpt lat="42.09713" lon="9.13922">
        <ele>1997.2763672</ele>
        <time>2010-08-29T10:47:45Z</time>
      </trkpt>
      <trkpt lat="42.09716" lon="9.13924">
        <ele>1994.8728027</ele>
        <time>2010-08-29T10:47:51Z</time>
      </trkpt>
      <trkpt lat="42.09718" lon="9.13925">
        <ele>1993.4309082</ele>
        <time>2010-08-29T10:47:54Z</time>
      </trkpt>
      <trkpt lat="42.09723" lon="9.13929">
        <ele>1990.546875</ele>
        <time>2010-08-29T10:48:02Z</time>
      </trkpt>
      <trkpt lat="42.09724" lon="9.13931">
        <ele>1988.6245117</ele>
        <time>2010-08-29T10:48:07Z</time>
      </trkpt>
      <trkpt lat="42.09727" lon="9.1394">
        <ele>1987.182373</ele>
        <time>2010-08-29T10:48:14Z</time>
      </trkpt>
      <trkpt lat="42.09728" lon="9.13939">
        <ele>1986.7016602</ele>
        <time>2010-08-29T10:48:31Z</time>
      </trkpt>
      <trkpt lat="42.09732" lon="9.13937">
        <ele>1983.8178711</ele>
        <time>2010-08-29T10:48:37Z</time>
      </trkpt>
      <trkpt lat="42.09733" lon="9.13938">
        <ele>1982.8564453</ele>
        <time>2010-08-29T10:48:42Z</time>
      </trkpt>
      <trkpt lat="42.09741" lon="9.13944">
        <ele>1983.8178711</ele>
        <time>2010-08-29T10:48:50Z</time>
      </trkpt>
      <trkpt lat="42.09744" lon="9.13949">
        <ele>1984.298584</ele>
        <time>2010-08-29T10:48:57Z</time>
      </trkpt>
      <trkpt lat="42.09747" lon="9.13949">
        <ele>1982.3759766</ele>
        <time>2010-08-29T10:49:03Z</time>
      </trkpt>
      <trkpt lat="42.09751" lon="9.13953">
        <ele>1981.4145508</ele>
        <time>2010-08-29T10:49:09Z</time>
      </trkpt>
      <trkpt lat="42.09755" lon="9.13958">
        <ele>1979.0109863</ele>
        <time>2010-08-29T10:49:16Z</time>
      </trkpt>
      <trkpt lat="42.09758" lon="9.13958">
        <ele>1978.0498047</ele>
        <time>2010-08-29T10:49:21Z</time>
      </trkpt>
      <trkpt lat="42.0976" lon="9.13959">
        <ele>1977.5690918</ele>
        <time>2010-08-29T10:49:23Z</time>
      </trkpt>
      <trkpt lat="42.09766" lon="9.13961">
        <ele>1977.088623</ele>
        <time>2010-08-29T10:49:32Z</time>
      </trkpt>
      <trkpt lat="42.09766" lon="9.13961">
        <ele>1976.6079102</ele>
        <time>2010-08-29T10:49:37Z</time>
      </trkpt>
      <trkpt lat="42.09763" lon="9.13961">
        <ele>1976.1271973</ele>
        <time>2010-08-29T10:49:44Z</time>
      </trkpt>
      <trkpt lat="42.09763" lon="9.13961">
        <ele>1975.1657715</ele>
        <time>2010-08-29T10:49:53Z</time>
      </trkpt>
      <trkpt lat="42.09763" lon="9.13961">
        <ele>1975.6464844</ele>
        <time>2010-08-29T10:50:00Z</time>
      </trkpt>
      <trkpt lat="42.09765" lon="9.13962">
        <ele>1975.1657715</ele>
        <time>2010-08-29T10:50:18Z</time>
      </trkpt>
      <trkpt lat="42.09762" lon="9.1396">
        <ele>1974.6853027</ele>
        <time>2010-08-29T10:50:30Z</time>
      </trkpt>
      <trkpt lat="42.09762" lon="9.1396">
        <ele>1975.1657715</ele>
        <time>2010-08-29T10:50:39Z</time>
      </trkpt>
      <trkpt lat="42.09763" lon="9.1396">
        <ele>1975.6464844</ele>
        <time>2010-08-29T10:50:44Z</time>
      </trkpt>
      <trkpt lat="42.09765" lon="9.1396">
        <ele>1974.2045898</ele>
        <time>2010-08-29T10:50:53Z</time>
      </trkpt>
      <trkpt lat="42.09768" lon="9.13962">
        <ele>1972.7626953</ele>
        <time>2010-08-29T10:50:59Z</time>
      </trkpt>
      <trkpt lat="42.09772" lon="9.13963">
        <ele>1972.7626953</ele>
        <time>2010-08-29T10:51:04Z</time>
      </trkpt>
      <trkpt lat="42.09775" lon="9.13963">
        <ele>1971.8012695</ele>
        <time>2010-08-29T10:51:07Z</time>
      </trkpt>
      <trkpt lat="42.09776" lon="9.13966">
        <ele>1973.723877</ele>
        <time>2010-08-29T10:51:13Z</time>
      </trkpt>
      <trkpt lat="42.09778" lon="9.1397">
        <ele>1973.2434082</ele>
        <time>2010-08-29T10:51:19Z</time>
      </trkpt>
      <trkpt lat="42.09784" lon="9.13977">
        <ele>1974.6853027</ele>
        <time>2010-08-29T10:51:28Z</time>
      </trkpt>
      <trkpt lat="42.09786" lon="9.13983">
        <ele>1976.6079102</ele>
        <time>2010-08-29T10:51:33Z</time>
      </trkpt>
      <trkpt lat="42.09794" lon="9.13988">
        <ele>1979.9724121</ele>
        <time>2010-08-29T10:51:41Z</time>
      </trkpt>
      <trkpt lat="42.098" lon="9.13992">
        <ele>1979.0109863</ele>
        <time>2010-08-29T10:51:46Z</time>
      </trkpt>
      <trkpt lat="42.09802" lon="9.13993">
        <ele>1979.0109863</ele>
        <time>2010-08-29T10:51:48Z</time>
      </trkpt>
      <trkpt lat="42.09808" lon="9.14001">
        <ele>1978.0498047</ele>
        <time>2010-08-29T10:51:56Z</time>
      </trkpt>
      <trkpt lat="42.0981" lon="9.14007">
        <ele>1978.0498047</ele>
        <time>2010-08-29T10:52:02Z</time>
      </trkpt>
      <trkpt lat="42.09811" lon="9.1401">
        <ele>1976.6079102</ele>
        <time>2010-08-29T10:52:12Z</time>
      </trkpt>
      <trkpt lat="42.09813" lon="9.14015">
        <ele>1977.5690918</ele>
        <time>2010-08-29T10:52:17Z</time>
      </trkpt>
      <trkpt lat="42.09822" lon="9.14023">
        <ele>1978.0498047</ele>
        <time>2010-08-29T10:52:24Z</time>
      </trkpt>
      <trkpt lat="42.0983" lon="9.1403">
        <ele>1978.0498047</ele>
        <time>2010-08-29T10:52:31Z</time>
      </trkpt>
      <trkpt lat="42.09836" lon="9.14034">
        <ele>1979.4916992</ele>
        <time>2010-08-29T10:52:36Z</time>
      </trkpt>
      <trkpt lat="42.09843" lon="9.1404">
        <ele>1979.4916992</ele>
        <time>2010-08-29T10:52:43Z</time>
      </trkpt>
      <trkpt lat="42.09847" lon="9.14045">
        <ele>1978.0498047</ele>
        <time>2010-08-29T10:52:49Z</time>
      </trkpt>
      <trkpt lat="42.09856" lon="9.14053">
        <ele>1977.088623</ele>
        <time>2010-08-29T10:52:58Z</time>
      </trkpt>
      <trkpt lat="42.0986" lon="9.14059">
        <ele>1977.088623</ele>
        <time>2010-08-29T10:53:03Z</time>
      </trkpt>
      <trkpt lat="42.09866" lon="9.14069">
        <ele>1976.6079102</ele>
        <time>2010-08-29T10:53:11Z</time>
      </trkpt>
      <trkpt lat="42.09866" lon="9.14076">
        <ele>1977.5690918</ele>
        <time>2010-08-29T10:53:17Z</time>
      </trkpt>
      <trkpt lat="42.09866" lon="9.14086">
        <ele>1977.5690918</ele>
        <time>2010-08-29T10:53:24Z</time>
      </trkpt>
      <trkpt lat="42.09866" lon="9.14086">
        <ele>1977.088623</ele>
        <time>2010-08-29T10:53:31Z</time>
      </trkpt>
      <trkpt lat="42.09864" lon="9.1409">
        <ele>1976.6079102</ele>
        <time>2010-08-29T10:53:42Z</time>
      </trkpt>
      <trkpt lat="42.09865" lon="9.14095">
        <ele>1976.6079102</ele>
        <time>2010-08-29T10:53:47Z</time>
      </trkpt>
      <trkpt lat="42.09864" lon="9.14106">
        <ele>1977.5690918</ele>
        <time>2010-08-29T10:53:55Z</time>
      </trkpt>
      <trkpt lat="42.09862" lon="9.14114">
        <ele>1977.5690918</ele>
        <time>2010-08-29T10:54:01Z</time>
      </trkpt>
      <trkpt lat="42.09864" lon="9.14117">
        <ele>1975.6464844</ele>
        <time>2010-08-29T10:54:06Z</time>
      </trkpt>
      <trkpt lat="42.09866" lon="9.14117">
        <ele>1973.2434082</ele>
        <time>2010-08-29T10:54:12Z</time>
      </trkpt>
      <trkpt lat="42.09865" lon="9.14119">
        <ele>1973.2434082</ele>
        <time>2010-08-29T10:54:17Z</time>
      </trkpt>
      <trkpt lat="42.09865" lon="9.14121">
        <ele>1970.359375</ele>
        <time>2010-08-29T10:54:29Z</time>
      </trkpt>
      <trkpt lat="42.09864" lon="9.1412">
        <ele>1968.9174805</ele>
        <time>2010-08-29T10:54:37Z</time>
      </trkpt>
      <trkpt lat="42.09864" lon="9.1412">
        <ele>1969.3981934</ele>
        <time>2010-08-29T10:54:42Z</time>
      </trkpt>
      <trkpt lat="42.09865" lon="9.14117">
        <ele>1967.4753418</ele>
        <time>2010-08-29T10:54:49Z</time>
      </trkpt>
      <trkpt lat="42.09863" lon="9.14116">
        <ele>1966.5141602</ele>
        <time>2010-08-29T10:54:58Z</time>
      </trkpt>
      <trkpt lat="42.09864" lon="9.14116">
        <ele>1967.4753418</ele>
        <time>2010-08-29T10:55:30Z</time>
      </trkpt>
      <trkpt lat="42.09863" lon="9.14116">
        <ele>1969.8786621</ele>
        <time>2010-08-29T10:55:38Z</time>
      </trkpt>
      <trkpt lat="42.09863" lon="9.14118">
        <ele>1968.9174805</ele>
        <time>2010-08-29T10:55:46Z</time>
      </trkpt>
      <trkpt lat="42.09864" lon="9.14118">
        <ele>1968.4367676</ele>
        <time>2010-08-29T10:56:02Z</time>
      </trkpt>
      <trkpt lat="42.09864" lon="9.14119">
        <ele>1969.8786621</ele>
        <time>2010-08-29T10:56:18Z</time>
      </trkpt>
      <trkpt lat="42.09864" lon="9.14119">
        <ele>1966.994873</ele>
        <time>2010-08-29T10:56:27Z</time>
      </trkpt>
      <trkpt lat="42.09861" lon="9.14119">
        <ele>1964.1108398</ele>
        <time>2010-08-29T10:56:38Z</time>
      </trkpt>
      <trkpt lat="42.09863" lon="9.14119">
        <ele>1963.1494141</ele>
        <time>2010-08-29T10:56:44Z</time>
      </trkpt>
      <trkpt lat="42.09862" lon="9.14118">
        <ele>1964.1108398</ele>
        <time>2010-08-29T10:56:52Z</time>
      </trkpt>
      <trkpt lat="42.09862" lon="9.14118">
        <ele>1969.3981934</ele>
        <time>2010-08-29T10:57:12Z</time>
      </trkpt>
      <trkpt lat="42.09862" lon="9.14118">
        <ele>1970.8400879</ele>
        <time>2010-08-29T10:57:25Z</time>
      </trkpt>
      <trkpt lat="42.09863" lon="9.14119">
        <ele>1971.8012695</ele>
        <time>2010-08-29T10:57:38Z</time>
      </trkpt>
      <trkpt lat="42.09863" lon="9.14118">
        <ele>1968.4367676</ele>
        <time>2010-08-29T10:57:48Z</time>
      </trkpt>
      <trkpt lat="42.09863" lon="9.14118">
        <ele>1969.3981934</ele>
        <time>2010-08-29T10:57:58Z</time>
      </trkpt>
      <trkpt lat="42.09862" lon="9.14118">
        <ele>1970.359375</ele>
        <time>2010-08-29T10:58:14Z</time>
      </trkpt>
      <trkpt lat="42.09863" lon="9.14118">
        <ele>1968.9174805</ele>
        <time>2010-08-29T10:58:37Z</time>
      </trkpt>
      <trkpt lat="42.09861" lon="9.14116">
        <ele>1970.359375</ele>
        <time>2010-08-29T10:58:45Z</time>
      </trkpt>
      <trkpt lat="42.09862" lon="9.14118">
        <ele>1968.4367676</ele>
        <time>2010-08-29T10:59:17Z</time>
      </trkpt>
      <trkpt lat="42.09863" lon="9.14117">
        <ele>1968.9174805</ele>
        <time>2010-08-29T10:59:25Z</time>
      </trkpt>
      <trkpt lat="42.09863" lon="9.14117">
        <ele>1969.8786621</ele>
        <time>2010-08-29T10:59:43Z</time>
      </trkpt>
      <trkpt lat="42.09864" lon="9.14118">
        <ele>1968.9174805</ele>
        <time>2010-08-29T11:00:01Z</time>
      </trkpt>
      <trkpt lat="42.0986" lon="9.14116">
        <ele>1969.3981934</ele>
        <time>2010-08-29T11:00:45Z</time>
      </trkpt>
      <trkpt lat="42.09863" lon="9.14119">
        <ele>1966.5141602</ele>
        <time>2010-08-29T11:02:04Z</time>
      </trkpt>
      <trkpt lat="42.09863" lon="9.14119">
        <ele>1966.0334473</ele>
        <time>2010-08-29T11:02:27Z</time>
      </trkpt>
      <trkpt lat="42.09866" lon="9.1412">
        <ele>1966.0334473</ele>
        <time>2010-08-29T11:03:35Z</time>
      </trkpt>
      <trkpt lat="42.0986" lon="9.14119">
        <ele>1965.0722656</ele>
        <time>2010-08-29T11:04:36Z</time>
      </trkpt>
      <trkpt lat="42.09855" lon="9.14117">
        <ele>1961.7075195</ele>
        <time>2010-08-29T11:04:58Z</time>
      </trkpt>
      <trkpt lat="42.09861" lon="9.14117">
        <ele>1966.0334473</ele>
        <time>2010-08-29T11:05:08Z</time>
      </trkpt>
      <trkpt lat="42.09861" lon="9.14117">
        <ele>1966.5141602</ele>
        <time>2010-08-29T11:05:17Z</time>
      </trkpt>
      <trkpt lat="42.09862" lon="9.14117">
        <ele>1964.1108398</ele>
        <time>2010-08-29T11:05:24Z</time>
      </trkpt>
      <trkpt lat="42.09863" lon="9.14117">
        <ele>1965.0722656</ele>
        <time>2010-08-29T11:05:33Z</time>
      </trkpt>
      <trkpt lat="42.09863" lon="9.14118">
        <ele>1966.994873</ele>
        <time>2010-08-29T11:05:40Z</time>
      </trkpt>
      <trkpt lat="42.09864" lon="9.14119">
        <ele>1967.9560547</ele>
        <time>2010-08-29T11:05:54Z</time>
      </trkpt>
      <trkpt lat="42.09868" lon="9.14119">
        <ele>1968.9174805</ele>
        <time>2010-08-29T11:06:04Z</time>
      </trkpt>
      <trkpt lat="42.09873" lon="9.1412">
        <ele>1975.1657715</ele>
        <time>2010-08-29T11:06:14Z</time>
      </trkpt>
      <trkpt lat="42.09862" lon="9.14118">
        <ele>1963.6298828</ele>
        <time>2010-08-29T11:06:23Z</time>
      </trkpt>
      <trkpt lat="42.09859" lon="9.14117">
        <ele>1961.2268066</ele>
        <time>2010-08-29T11:06:31Z</time>
      </trkpt>
      <trkpt lat="42.09858" lon="9.14117">
        <ele>1957.8623047</ele>
        <time>2010-08-29T11:06:43Z</time>
      </trkpt>
      <trkpt lat="42.09864" lon="9.14119">
        <ele>1958.3427734</ele>
        <time>2010-08-29T11:06:51Z</time>
      </trkpt>
      <trkpt lat="42.09867" lon="9.1412">
        <ele>1973.2434082</ele>
        <time>2010-08-29T11:07:13Z</time>
      </trkpt>
      <trkpt lat="42.09863" lon="9.14113">
        <ele>1965.5529785</ele>
        <time>2010-08-29T11:08:50Z</time>
      </trkpt>
      <trkpt lat="42.09858" lon="9.14116">
        <ele>1961.7075195</ele>
        <time>2010-08-29T11:09:14Z</time>
      </trkpt>
      <trkpt lat="42.0986" lon="9.14118">
        <ele>1963.6298828</ele>
        <time>2010-08-29T11:10:30Z</time>
      </trkpt>
      <trkpt lat="42.09862" lon="9.14119">
        <ele>1964.5915527</ele>
        <time>2010-08-29T11:10:38Z</time>
      </trkpt>
      <trkpt lat="42.09863" lon="9.1412">
        <ele>1967.9560547</ele>
        <time>2010-08-29T11:10:54Z</time>
      </trkpt>
      <trkpt lat="42.09863" lon="9.14121">
        <ele>1969.3981934</ele>
        <time>2010-08-29T11:11:17Z</time>
      </trkpt>
      <trkpt lat="42.09863" lon="9.14121">
        <ele>1968.9174805</ele>
        <time>2010-08-29T11:11:23Z</time>
      </trkpt>
      <trkpt lat="42.09861" lon="9.14124">
        <ele>1970.8400879</ele>
        <time>2010-08-29T11:11:30Z</time>
      </trkpt>
      <trkpt lat="42.09862" lon="9.14126">
        <ele>1970.359375</ele>
        <time>2010-08-29T11:11:37Z</time>
      </trkpt>
      <trkpt lat="42.09863" lon="9.14126">
        <ele>1968.9174805</ele>
        <time>2010-08-29T11:11:54Z</time>
      </trkpt>
      <trkpt lat="42.09862" lon="9.14131">
        <ele>1971.3205566</ele>
        <time>2010-08-29T11:12:00Z</time>
      </trkpt>
      <trkpt lat="42.09862" lon="9.14137">
        <ele>1971.8012695</ele>
        <time>2010-08-29T11:12:05Z</time>
      </trkpt>
      <trkpt lat="42.09862" lon="9.14139">
        <ele>1971.3205566</ele>
        <time>2010-08-29T11:12:10Z</time>
      </trkpt>
      <trkpt lat="42.0986" lon="9.14148">
        <ele>1971.3205566</ele>
        <time>2010-08-29T11:12:17Z</time>
      </trkpt>
      <trkpt lat="42.09859" lon="9.14153">
        <ele>1970.8400879</ele>
        <time>2010-08-29T11:12:22Z</time>
      </trkpt>
      <trkpt lat="42.0986" lon="9.14155">
        <ele>1968.9174805</ele>
        <time>2010-08-29T11:12:27Z</time>
      </trkpt>
      <trkpt lat="42.0986" lon="9.14158">
        <ele>1966.994873</ele>
        <time>2010-08-29T11:12:32Z</time>
      </trkpt>
      <trkpt lat="42.09865" lon="9.1416">
        <ele>1965.0722656</ele>
        <time>2010-08-29T11:12:39Z</time>
      </trkpt>
      <trkpt lat="42.09864" lon="9.14167">
        <ele>1963.6298828</ele>
        <time>2010-08-29T11:12:46Z</time>
      </trkpt>
      <trkpt lat="42.09864" lon="9.1417">
        <ele>1964.1108398</ele>
        <time>2010-08-29T11:12:49Z</time>
      </trkpt>
      <trkpt lat="42.0986" lon="9.14179">
        <ele>1960.7460938</ele>
        <time>2010-08-29T11:12:57Z</time>
      </trkpt>
      <trkpt lat="42.09859" lon="9.14182">
        <ele>1959.784668</ele>
        <time>2010-08-29T11:13:02Z</time>
      </trkpt>
      <trkpt lat="42.09855" lon="9.14186">
        <ele>1957.8623047</ele>
        <time>2010-08-29T11:13:08Z</time>
      </trkpt>
      <trkpt lat="42.09856" lon="9.14192">
        <ele>1954.9782715</ele>
        <time>2010-08-29T11:13:14Z</time>
      </trkpt>
      <trkpt lat="42.09857" lon="9.14193">
        <ele>1953.0556641</ele>
        <time>2010-08-29T11:13:22Z</time>
      </trkpt>
      <trkpt lat="42.09859" lon="9.14197">
        <ele>1951.6137695</ele>
        <time>2010-08-29T11:13:28Z</time>
      </trkpt>
      <trkpt lat="42.09859" lon="9.14201">
        <ele>1950.6523438</ele>
        <time>2010-08-29T11:13:32Z</time>
      </trkpt>
      <trkpt lat="42.09855" lon="9.14206">
        <ele>1949.6911621</ele>
        <time>2010-08-29T11:13:37Z</time>
      </trkpt>
      <trkpt lat="42.09857" lon="9.14211">
        <ele>1948.7297363</ele>
        <time>2010-08-29T11:13:41Z</time>
      </trkpt>
      <trkpt lat="42.09858" lon="9.14219">
        <ele>1947.2875977</ele>
        <time>2010-08-29T11:13:47Z</time>
      </trkpt>
      <trkpt lat="42.09852" lon="9.14227">
        <ele>1945.3649902</ele>
        <time>2010-08-29T11:13:54Z</time>
      </trkpt>
      <trkpt lat="42.0985" lon="9.14227">
        <ele>1944.8842773</ele>
        <time>2010-08-29T11:13:56Z</time>
      </trkpt>
      <trkpt lat="42.09847" lon="9.14225">
        <ele>1943.9230957</ele>
        <time>2010-08-29T11:14:02Z</time>
      </trkpt>
      <trkpt lat="42.09848" lon="9.14224">
        <ele>1943.4423828</ele>
        <time>2010-08-29T11:14:18Z</time>
      </trkpt>
      <trkpt lat="42.09855" lon="9.14229">
        <ele>1942.4812012</ele>
        <time>2010-08-29T11:14:27Z</time>
      </trkpt>
      <trkpt lat="42.0986" lon="9.14239">
        <ele>1941.0390625</ele>
        <time>2010-08-29T11:14:35Z</time>
      </trkpt>
      <trkpt lat="42.0986" lon="9.14241">
        <ele>1941.0390625</ele>
        <time>2010-08-29T11:14:36Z</time>
      </trkpt>
      <trkpt lat="42.09863" lon="9.14243">
        <ele>1939.1164551</ele>
        <time>2010-08-29T11:14:39Z</time>
      </trkpt>
      <trkpt lat="42.09867" lon="9.14253">
        <ele>1939.1164551</ele>
        <time>2010-08-29T11:14:46Z</time>
      </trkpt>
      <trkpt lat="42.0987" lon="9.14261">
        <ele>1938.6359863</ele>
        <time>2010-08-29T11:14:53Z</time>
      </trkpt>
      <trkpt lat="42.09871" lon="9.14263">
        <ele>1938.1552734</ele>
        <time>2010-08-29T11:14:59Z</time>
      </trkpt>
      <trkpt lat="42.09874" lon="9.14265">
        <ele>1935.2712402</ele>
        <time>2010-08-29T11:15:06Z</time>
      </trkpt>
      <trkpt lat="42.09874" lon="9.14265">
        <ele>1933.8293457</ele>
        <time>2010-08-29T11:15:14Z</time>
      </trkpt>
      <trkpt lat="42.09873" lon="9.14265">
        <ele>1937.1938477</ele>
        <time>2010-08-29T11:15:23Z</time>
      </trkpt>
      <trkpt lat="42.09873" lon="9.14266">
        <ele>1937.6745605</ele>
        <time>2010-08-29T11:15:34Z</time>
      </trkpt>
      <trkpt lat="42.09872" lon="9.14268">
        <ele>1937.6745605</ele>
        <time>2010-08-29T11:15:40Z</time>
      </trkpt>
      <trkpt lat="42.09872" lon="9.14278">
        <ele>1938.6359863</ele>
        <time>2010-08-29T11:15:47Z</time>
      </trkpt>
      <trkpt lat="42.09874" lon="9.14289">
        <ele>1940.5583496</ele>
        <time>2010-08-29T11:15:55Z</time>
      </trkpt>
      <trkpt lat="42.09873" lon="9.14296">
        <ele>1941.5197754</ele>
        <time>2010-08-29T11:16:01Z</time>
      </trkpt>
      <trkpt lat="42.09872" lon="9.14298">
        <ele>1941.5197754</ele>
        <time>2010-08-29T11:16:03Z</time>
      </trkpt>
      <trkpt lat="42.09872" lon="9.14309">
        <ele>1943.9230957</ele>
        <time>2010-08-29T11:16:10Z</time>
      </trkpt>
      <trkpt lat="42.09874" lon="9.14315">
        <ele>1944.4035645</ele>
        <time>2010-08-29T11:16:15Z</time>
      </trkpt>
      <trkpt lat="42.09874" lon="9.14316">
        <ele>1944.8842773</ele>
        <time>2010-08-29T11:16:16Z</time>
      </trkpt>
      <trkpt lat="42.09874" lon="9.14325">
        <ele>1945.8457031</ele>
        <time>2010-08-29T11:16:23Z</time>
      </trkpt>
      <trkpt lat="42.09875" lon="9.14335">
        <ele>1946.326416</ele>
        <time>2010-08-29T11:16:30Z</time>
      </trkpt>
      <trkpt lat="42.09876" lon="9.14343">
        <ele>1946.8068848</ele>
        <time>2010-08-29T11:16:37Z</time>
      </trkpt>
      <trkpt lat="42.09879" lon="9.14346">
        <ele>1945.3649902</ele>
        <time>2010-08-29T11:16:43Z</time>
      </trkpt>
      <trkpt lat="42.0988" lon="9.14348">
        <ele>1942.4812012</ele>
        <time>2010-08-29T11:16:50Z</time>
      </trkpt>
      <trkpt lat="42.09882" lon="9.1435">
        <ele>1942.0004883</ele>
        <time>2010-08-29T11:16:53Z</time>
      </trkpt>
      <trkpt lat="42.09886" lon="9.14358">
        <ele>1941.0390625</ele>
        <time>2010-08-29T11:17:01Z</time>
      </trkpt>
      <trkpt lat="42.09886" lon="9.14363">
        <ele>1940.0778809</ele>
        <time>2010-08-29T11:17:07Z</time>
      </trkpt>
      <trkpt lat="42.09884" lon="9.14365">
        <ele>1938.6359863</ele>
        <time>2010-08-29T11:17:13Z</time>
      </trkpt>
      <trkpt lat="42.09885" lon="9.14365">
        <ele>1936.7131348</ele>
        <time>2010-08-29T11:17:25Z</time>
      </trkpt>
      <trkpt lat="42.09884" lon="9.14366">
        <ele>1937.6745605</ele>
        <time>2010-08-29T11:17:41Z</time>
      </trkpt>
      <trkpt lat="42.09886" lon="9.14368">
        <ele>1937.6745605</ele>
        <time>2010-08-29T11:17:48Z</time>
      </trkpt>
      <trkpt lat="42.09889" lon="9.14375">
        <ele>1937.1938477</ele>
        <time>2010-08-29T11:17:55Z</time>
      </trkpt>
      <trkpt lat="42.09893" lon="9.14379">
        <ele>1935.2712402</ele>
        <time>2010-08-29T11:18:00Z</time>
      </trkpt>
      <trkpt lat="42.099" lon="9.14394">
        <ele>1936.232666</ele>
        <time>2010-08-29T11:18:09Z</time>
      </trkpt>
      <trkpt lat="42.09906" lon="9.14402">
        <ele>1936.232666</ele>
        <time>2010-08-29T11:18:16Z</time>
      </trkpt>
      <trkpt lat="42.09908" lon="9.14404">
        <ele>1935.7519531</ele>
        <time>2010-08-29T11:18:18Z</time>
      </trkpt>
      <trkpt lat="42.09912" lon="9.14411">
        <ele>1936.232666</ele>
        <time>2010-08-29T11:18:25Z</time>
      </trkpt>
      <trkpt lat="42.09913" lon="9.14412">
        <ele>1935.2712402</ele>
        <time>2010-08-29T11:18:30Z</time>
      </trkpt>
      <trkpt lat="42.09913" lon="9.14411">
        <ele>1934.7907715</ele>
        <time>2010-08-29T11:18:36Z</time>
      </trkpt>
      <trkpt lat="42.09914" lon="9.14411">
        <ele>1933.3486328</ele>
        <time>2010-08-29T11:19:11Z</time>
      </trkpt>
      <trkpt lat="42.09915" lon="9.14411">
        <ele>1932.8679199</ele>
        <time>2010-08-29T11:19:22Z</time>
      </trkpt>
      <trkpt lat="42.09914" lon="9.1441">
        <ele>1932.3874512</ele>
        <time>2010-08-29T11:19:38Z</time>
      </trkpt>
      <trkpt lat="42.09914" lon="9.14411">
        <ele>1931.9064941</ele>
        <time>2010-08-29T11:19:48Z</time>
      </trkpt>
      <trkpt lat="42.09914" lon="9.1442">
        <ele>1932.8679199</ele>
        <time>2010-08-29T11:19:55Z</time>
      </trkpt>
      <trkpt lat="42.09917" lon="9.14428">
        <ele>1933.8293457</ele>
        <time>2010-08-29T11:20:03Z</time>
      </trkpt>
      <trkpt lat="42.09918" lon="9.1443">
        <ele>1933.8293457</ele>
        <time>2010-08-29T11:20:06Z</time>
      </trkpt>
      <trkpt lat="42.09922" lon="9.14437">
        <ele>1935.2712402</ele>
        <time>2010-08-29T11:20:13Z</time>
      </trkpt>
      <trkpt lat="42.09926" lon="9.14447">
        <ele>1937.1938477</ele>
        <time>2010-08-29T11:20:22Z</time>
      </trkpt>
      <trkpt lat="42.09929" lon="9.14454">
        <ele>1937.6745605</ele>
        <time>2010-08-29T11:20:30Z</time>
      </trkpt>
      <trkpt lat="42.09933" lon="9.14458">
        <ele>1936.7131348</ele>
        <time>2010-08-29T11:20:37Z</time>
      </trkpt>
      <trkpt lat="42.09934" lon="9.14458">
        <ele>1935.7519531</ele>
        <time>2010-08-29T11:20:39Z</time>
      </trkpt>
      <trkpt lat="42.09936" lon="9.14463">
        <ele>1936.232666</ele>
        <time>2010-08-29T11:20:43Z</time>
      </trkpt>
      <trkpt lat="42.09939" lon="9.14475">
        <ele>1937.6745605</ele>
        <time>2010-08-29T11:20:52Z</time>
      </trkpt>
      <trkpt lat="42.0994" lon="9.14476">
        <ele>1937.6745605</ele>
        <time>2010-08-29T11:20:53Z</time>
      </trkpt>
      <trkpt lat="42.09945" lon="9.14489">
        <ele>1936.232666</ele>
        <time>2010-08-29T11:21:01Z</time>
      </trkpt>
      <trkpt lat="42.09947" lon="9.14498">
        <ele>1937.1938477</ele>
        <time>2010-08-29T11:21:08Z</time>
      </trkpt>
      <trkpt lat="42.09949" lon="9.14508">
        <ele>1937.6745605</ele>
        <time>2010-08-29T11:21:16Z</time>
      </trkpt>
      <trkpt lat="42.0995" lon="9.14512">
        <ele>1938.1552734</ele>
        <time>2010-08-29T11:21:19Z</time>
      </trkpt>
      <trkpt lat="42.09955" lon="9.1452">
        <ele>1938.6359863</ele>
        <time>2010-08-29T11:21:27Z</time>
      </trkpt>
      <trkpt lat="42.0996" lon="9.14528">
        <ele>1938.1552734</ele>
        <time>2010-08-29T11:21:35Z</time>
      </trkpt>
      <trkpt lat="42.09961" lon="9.14535">
        <ele>1937.6745605</ele>
        <time>2010-08-29T11:21:42Z</time>
      </trkpt>
      <trkpt lat="42.09962" lon="9.14542">
        <ele>1936.7131348</ele>
        <time>2010-08-29T11:21:49Z</time>
      </trkpt>
      <trkpt lat="42.09963" lon="9.14549">
        <ele>1934.3100586</ele>
        <time>2010-08-29T11:21:56Z</time>
      </trkpt>
      <trkpt lat="42.09965" lon="9.14559">
        <ele>1933.3486328</ele>
        <time>2010-08-29T11:22:03Z</time>
      </trkpt>
      <trkpt lat="42.09968" lon="9.14565">
        <ele>1931.4257812</ele>
        <time>2010-08-29T11:22:10Z</time>
      </trkpt>
      <trkpt lat="42.0997" lon="9.14565">
        <ele>1929.9838867</ele>
        <time>2010-08-29T11:22:17Z</time>
      </trkpt>
      <trkpt lat="42.09975" lon="9.14568">
        <ele>1929.0224609</ele>
        <time>2010-08-29T11:22:22Z</time>
      </trkpt>
      <trkpt lat="42.09978" lon="9.14572">
        <ele>1929.9838867</ele>
        <time>2010-08-29T11:22:29Z</time>
      </trkpt>
      <trkpt lat="42.09977" lon="9.14574">
        <ele>1929.9838867</ele>
        <time>2010-08-29T11:22:34Z</time>
      </trkpt>
      <trkpt lat="42.09979" lon="9.14581">
        <ele>1930.4645996</ele>
        <time>2010-08-29T11:22:41Z</time>
      </trkpt>
      <trkpt lat="42.09981" lon="9.14583">
        <ele>1930.4645996</ele>
        <time>2010-08-29T11:22:47Z</time>
      </trkpt>
      <trkpt lat="42.0998" lon="9.14584">
        <ele>1929.5031738</ele>
        <time>2010-08-29T11:22:50Z</time>
      </trkpt>
      <trkpt lat="42.0998" lon="9.14587">
        <ele>1929.5031738</ele>
        <time>2010-08-29T11:22:52Z</time>
      </trkpt>
      <trkpt lat="42.09984" lon="9.1459">
        <ele>1928.0612793</ele>
        <time>2010-08-29T11:22:58Z</time>
      </trkpt>
      <trkpt lat="42.09988" lon="9.14592">
        <ele>1927.5805664</ele>
        <time>2010-08-29T11:23:04Z</time>
      </trkpt>
      <trkpt lat="42.09989" lon="9.14594">
        <ele>1926.1386719</ele>
        <time>2010-08-29T11:23:06Z</time>
      </trkpt>
      <trkpt lat="42.09991" lon="9.14597">
        <ele>1926.6193848</ele>
        <time>2010-08-29T11:23:09Z</time>
      </trkpt>
      <trkpt lat="42.09993" lon="9.14604">
        <ele>1926.6193848</ele>
        <time>2010-08-29T11:23:16Z</time>
      </trkpt>
      <trkpt lat="42.09997" lon="9.14608">
        <ele>1925.657959</ele>
        <time>2010-08-29T11:23:23Z</time>
      </trkpt>
      <trkpt lat="42.09997" lon="9.14611">
        <ele>1923.2548828</ele>
        <time>2010-08-29T11:23:28Z</time>
      </trkpt>
      <trkpt lat="42.1" lon="9.14613">
        <ele>1919.8901367</ele>
        <time>2010-08-29T11:23:35Z</time>
      </trkpt>
      <trkpt lat="42.09999" lon="9.14613">
        <ele>1918.4482422</ele>
        <time>2010-08-29T11:23:41Z</time>
      </trkpt>
      <trkpt lat="42.1" lon="9.14616">
        <ele>1918.9289551</ele>
        <time>2010-08-29T11:23:43Z</time>
      </trkpt>
      <trkpt lat="42.10008" lon="9.14621">
        <ele>1917.4868164</ele>
        <time>2010-08-29T11:23:50Z</time>
      </trkpt>
      <trkpt lat="42.10016" lon="9.14627">
        <ele>1917.9675293</ele>
        <time>2010-08-29T11:23:58Z</time>
      </trkpt>
      <trkpt lat="42.10019" lon="9.14633">
        <ele>1918.9289551</ele>
        <time>2010-08-29T11:24:05Z</time>
      </trkpt>
      <trkpt lat="42.1002" lon="9.14633">
        <ele>1919.409668</ele>
        <time>2010-08-29T11:24:06Z</time>
      </trkpt>
      <trkpt lat="42.10025" lon="9.14635">
        <ele>1918.4482422</ele>
        <time>2010-08-29T11:24:14Z</time>
      </trkpt>
      <trkpt lat="42.10022" lon="9.14641">
        <ele>1920.3708496</ele>
        <time>2010-08-29T11:24:20Z</time>
      </trkpt>
      <trkpt lat="42.10023" lon="9.14647">
        <ele>1921.8127441</ele>
        <time>2010-08-29T11:24:27Z</time>
      </trkpt>
      <trkpt lat="42.10022" lon="9.14651">
        <ele>1922.293457</ele>
        <time>2010-08-29T11:24:32Z</time>
      </trkpt>
      <trkpt lat="42.10021" lon="9.14655">
        <ele>1920.8515625</ele>
        <time>2010-08-29T11:24:38Z</time>
      </trkpt>
      <trkpt lat="42.10019" lon="9.14659">
        <ele>1918.9289551</ele>
        <time>2010-08-29T11:24:44Z</time>
      </trkpt>
      <trkpt lat="42.10022" lon="9.14662">
        <ele>1918.9289551</ele>
        <time>2010-08-29T11:24:50Z</time>
      </trkpt>
      <trkpt lat="42.10023" lon="9.14668">
        <ele>1918.4482422</ele>
        <time>2010-08-29T11:25:02Z</time>
      </trkpt>
      <trkpt lat="42.10026" lon="9.1468">
        <ele>1919.8901367</ele>
        <time>2010-08-29T11:25:11Z</time>
      </trkpt>
      <trkpt lat="42.10029" lon="9.14688">
        <ele>1920.3708496</ele>
        <time>2010-08-29T11:25:18Z</time>
      </trkpt>
      <trkpt lat="42.10034" lon="9.14698">
        <ele>1920.8515625</ele>
        <time>2010-08-29T11:25:27Z</time>
      </trkpt>
      <trkpt lat="42.10038" lon="9.14704">
        <ele>1919.409668</ele>
        <time>2010-08-29T11:25:33Z</time>
      </trkpt>
      <trkpt lat="42.10043" lon="9.14707">
        <ele>1917.4868164</ele>
        <time>2010-08-29T11:25:40Z</time>
      </trkpt>
      <trkpt lat="42.10046" lon="9.1471">
        <ele>1917.0063477</ele>
        <time>2010-08-29T11:25:45Z</time>
      </trkpt>
      <trkpt lat="42.10052" lon="9.14715">
        <ele>1917.9675293</ele>
        <time>2010-08-29T11:25:52Z</time>
      </trkpt>
      <trkpt lat="42.10057" lon="9.14719">
        <ele>1917.4868164</ele>
        <time>2010-08-29T11:25:59Z</time>
      </trkpt>
      <trkpt lat="42.10057" lon="9.1472">
        <ele>1918.4482422</ele>
        <time>2010-08-29T11:26:01Z</time>
      </trkpt>
      <trkpt lat="42.10057" lon="9.14725">
        <ele>1918.9289551</ele>
        <time>2010-08-29T11:26:05Z</time>
      </trkpt>
      <trkpt lat="42.1006" lon="9.14733">
        <ele>1919.409668</ele>
        <time>2010-08-29T11:26:12Z</time>
      </trkpt>
      <trkpt lat="42.1006" lon="9.14734">
        <ele>1919.409668</ele>
        <time>2010-08-29T11:26:13Z</time>
      </trkpt>
      <trkpt lat="42.10063" lon="9.14745">
        <ele>1919.8901367</ele>
        <time>2010-08-29T11:26:21Z</time>
      </trkpt>
      <trkpt lat="42.10067" lon="9.14757">
        <ele>1917.9675293</ele>
        <time>2010-08-29T11:26:28Z</time>
      </trkpt>
      <trkpt lat="42.10069" lon="9.14758">
        <ele>1916.0449219</ele>
        <time>2010-08-29T11:26:33Z</time>
      </trkpt>
      <trkpt lat="42.10071" lon="9.14761">
        <ele>1915.564209</ele>
        <time>2010-08-29T11:26:38Z</time>
      </trkpt>
      <trkpt lat="42.1007" lon="9.14772">
        <ele>1918.4482422</ele>
        <time>2010-08-29T11:26:46Z</time>
      </trkpt>
      <trkpt lat="42.1007" lon="9.14773">
        <ele>1918.9289551</ele>
        <time>2010-08-29T11:26:47Z</time>
      </trkpt>
      <trkpt lat="42.10072" lon="9.14783">
        <ele>1919.8901367</ele>
        <time>2010-08-29T11:26:55Z</time>
      </trkpt>
      <trkpt lat="42.10074" lon="9.14788">
        <ele>1919.8901367</ele>
        <time>2010-08-29T11:27:01Z</time>
      </trkpt>
      <trkpt lat="42.10075" lon="9.1479">
        <ele>1917.4868164</ele>
        <time>2010-08-29T11:27:08Z</time>
      </trkpt>
      <trkpt lat="42.10075" lon="9.14791">
        <ele>1911.2382812</ele>
        <time>2010-08-29T11:27:16Z</time>
      </trkpt>
      <trkpt lat="42.10075" lon="9.14792">
        <ele>1911.2382812</ele>
        <time>2010-08-29T11:27:18Z</time>
      </trkpt>
      <trkpt lat="42.10072" lon="9.14798">
        <ele>1910.2768555</ele>
        <time>2010-08-29T11:27:25Z</time>
      </trkpt>
      <trkpt lat="42.10073" lon="9.14804">
        <ele>1911.7189941</ele>
        <time>2010-08-29T11:27:31Z</time>
      </trkpt>
      <trkpt lat="42.10072" lon="9.14813">
        <ele>1913.1608887</ele>
        <time>2010-08-29T11:27:38Z</time>
      </trkpt>
      <trkpt lat="42.10073" lon="9.14812">
        <ele>1911.7189941</ele>
        <time>2010-08-29T11:27:48Z</time>
      </trkpt>
      <trkpt lat="42.10071" lon="9.14821">
        <ele>1917.0063477</ele>
        <time>2010-08-29T11:27:55Z</time>
      </trkpt>
      <trkpt lat="42.10071" lon="9.14824">
        <ele>1917.4868164</ele>
        <time>2010-08-29T11:27:57Z</time>
      </trkpt>
      <trkpt lat="42.10071" lon="9.1483">
        <ele>1917.9675293</ele>
        <time>2010-08-29T11:28:04Z</time>
      </trkpt>
      <trkpt lat="42.10072" lon="9.14831">
        <ele>1916.0449219</ele>
        <time>2010-08-29T11:28:17Z</time>
      </trkpt>
      <trkpt lat="42.10074" lon="9.14844">
        <ele>1915.564209</ele>
        <time>2010-08-29T11:28:26Z</time>
      </trkpt>
      <trkpt lat="42.10073" lon="9.14851">
        <ele>1915.0834961</ele>
        <time>2010-08-29T11:28:33Z</time>
      </trkpt>
      <trkpt lat="42.10073" lon="9.14852">
        <ele>1915.0834961</ele>
        <time>2010-08-29T11:28:34Z</time>
      </trkpt>
      <trkpt lat="42.10072" lon="9.14862">
        <ele>1915.0834961</ele>
        <time>2010-08-29T11:28:41Z</time>
      </trkpt>
      <trkpt lat="42.10071" lon="9.14867">
        <ele>1915.0834961</ele>
        <time>2010-08-29T11:28:48Z</time>
      </trkpt>
      <trkpt lat="42.10071" lon="9.14868">
        <ele>1915.564209</ele>
        <time>2010-08-29T11:28:51Z</time>
      </trkpt>
      <trkpt lat="42.10071" lon="9.14871">
        <ele>1914.1220703</ele>
        <time>2010-08-29T11:28:57Z</time>
      </trkpt>
      <trkpt lat="42.10073" lon="9.14877">
        <ele>1913.6413574</ele>
        <time>2010-08-29T11:29:03Z</time>
      </trkpt>
      <trkpt lat="42.10073" lon="9.14879">
        <ele>1913.6413574</ele>
        <time>2010-08-29T11:29:05Z</time>
      </trkpt>
      <trkpt lat="42.10073" lon="9.14884">
        <ele>1913.6413574</ele>
        <time>2010-08-29T11:29:12Z</time>
      </trkpt>
      <trkpt lat="42.10073" lon="9.14887">
        <ele>1913.1608887</ele>
        <time>2010-08-29T11:29:18Z</time>
      </trkpt>
      <trkpt lat="42.10074" lon="9.1489">
        <ele>1912.6801758</ele>
        <time>2010-08-29T11:29:23Z</time>
      </trkpt>
      <trkpt lat="42.10076" lon="9.14894">
        <ele>1911.7189941</ele>
        <time>2010-08-29T11:29:28Z</time>
      </trkpt>
      <trkpt lat="42.10077" lon="9.14895">
        <ele>1910.7575684</ele>
        <time>2010-08-29T11:29:33Z</time>
      </trkpt>
      <trkpt lat="42.10078" lon="9.14898">
        <ele>1908.8349609</ele>
        <time>2010-08-29T11:29:58Z</time>
      </trkpt>
      <trkpt lat="42.10078" lon="9.14899">
        <ele>1908.8349609</ele>
        <time>2010-08-29T11:30:04Z</time>
      </trkpt>
      <trkpt lat="42.10077" lon="9.14898">
        <ele>1907.8737793</ele>
        <time>2010-08-29T11:30:08Z</time>
      </trkpt>
      <trkpt lat="42.10074" lon="9.14898">
        <ele>1906.4316406</ele>
        <time>2010-08-29T11:30:12Z</time>
      </trkpt>
      <trkpt lat="42.10069" lon="9.14898">
        <ele>1905.9509277</ele>
        <time>2010-08-29T11:30:17Z</time>
      </trkpt>
      <trkpt lat="42.10067" lon="9.14899">
        <ele>1905.470459</ele>
        <time>2010-08-29T11:30:22Z</time>
      </trkpt>
      <trkpt lat="42.10069" lon="9.14905">
        <ele>1904.9897461</ele>
        <time>2010-08-29T11:30:28Z</time>
      </trkpt>
      <trkpt lat="42.1007" lon="9.14907">
        <ele>1904.0285645</ele>
        <time>2010-08-29T11:30:34Z</time>
      </trkpt>
      <trkpt lat="42.10072" lon="9.14908">
        <ele>1903.0671387</ele>
        <time>2010-08-29T11:30:41Z</time>
      </trkpt>
      <trkpt lat="42.10073" lon="9.14908">
        <ele>1903.0671387</ele>
        <time>2010-08-29T11:30:42Z</time>
      </trkpt>
      <trkpt lat="42.10074" lon="9.14912">
        <ele>1902.5864258</ele>
        <time>2010-08-29T11:30:46Z</time>
      </trkpt>
      <trkpt lat="42.10077" lon="9.1492">
        <ele>1902.1057129</ele>
        <time>2010-08-29T11:30:54Z</time>
      </trkpt>
      <trkpt lat="42.10078" lon="9.14926">
        <ele>1901.6252441</ele>
        <time>2010-08-29T11:31:00Z</time>
      </trkpt>
      <trkpt lat="42.1008" lon="9.1493">
        <ele>1900.1833496</ele>
        <time>2010-08-29T11:31:06Z</time>
      </trkpt>
      <trkpt lat="42.10081" lon="9.14929">
        <ele>1898.7409668</ele>
        <time>2010-08-29T11:31:09Z</time>
      </trkpt>
      <trkpt lat="42.10087" lon="9.14934">
        <ele>1897.7797852</ele>
        <time>2010-08-29T11:31:16Z</time>
      </trkpt>
      <trkpt lat="42.10091" lon="9.14934">
        <ele>1896.3378906</ele>
        <time>2010-08-29T11:31:21Z</time>
      </trkpt>
      <trkpt lat="42.10097" lon="9.14935">
        <ele>1896.3378906</ele>
        <time>2010-08-29T11:31:28Z</time>
      </trkpt>
      <trkpt lat="42.10099" lon="9.14936">
        <ele>1895.8571777</ele>
        <time>2010-08-29T11:31:31Z</time>
      </trkpt>
      <trkpt lat="42.10105" lon="9.14943">
        <ele>1896.3378906</ele>
        <time>2010-08-29T11:31:38Z</time>
      </trkpt>
      <trkpt lat="42.10109" lon="9.14944">
        <ele>1895.3764648</ele>
        <time>2010-08-29T11:31:43Z</time>
      </trkpt>
      <trkpt lat="42.10116" lon="9.14949">
        <ele>1895.3764648</ele>
        <time>2010-08-29T11:31:50Z</time>
      </trkpt>
      <trkpt lat="42.10124" lon="9.14957">
        <ele>1894.4150391</ele>
        <time>2010-08-29T11:31:59Z</time>
      </trkpt>
      <trkpt lat="42.1013" lon="9.14964">
        <ele>1893.4538574</ele>
        <time>2010-08-29T11:32:06Z</time>
      </trkpt>
      <trkpt lat="42.10133" lon="9.14966">
        <ele>1892.9731445</ele>
        <time>2010-08-29T11:32:09Z</time>
      </trkpt>
      <trkpt lat="42.10135" lon="9.14971">
        <ele>1893.4538574</ele>
        <time>2010-08-29T11:32:15Z</time>
      </trkpt>
      <trkpt lat="42.10138" lon="9.14976">
        <ele>1893.9345703</ele>
        <time>2010-08-29T11:32:21Z</time>
      </trkpt>
      <trkpt lat="42.1014" lon="9.14981">
        <ele>1893.9345703</ele>
        <time>2010-08-29T11:32:25Z</time>
      </trkpt>
      <trkpt lat="42.10145" lon="9.14985">
        <ele>1890.0893555</ele>
        <time>2010-08-29T11:32:32Z</time>
      </trkpt>
      <trkpt lat="42.10148" lon="9.14987">
        <ele>1888.6474609</ele>
        <time>2010-08-29T11:32:37Z</time>
      </trkpt>
      <trkpt lat="42.10154" lon="9.14991">
        <ele>1886.7246094</ele>
        <time>2010-08-29T11:32:44Z</time>
      </trkpt>
      <trkpt lat="42.10155" lon="9.14992">
        <ele>1884.8022461</ele>
        <time>2010-08-29T11:32:52Z</time>
      </trkpt>
      <trkpt lat="42.10156" lon="9.14992">
        <ele>1884.3215332</ele>
        <time>2010-08-29T11:32:56Z</time>
      </trkpt>
      <trkpt lat="42.1016" lon="9.14998">
        <ele>1884.8022461</ele>
        <time>2010-08-29T11:33:02Z</time>
      </trkpt>
      <trkpt lat="42.10165" lon="9.15007">
        <ele>1884.3215332</ele>
        <time>2010-08-29T11:33:10Z</time>
      </trkpt>
      <trkpt lat="42.10166" lon="9.15007">
        <ele>1882.3986816</ele>
        <time>2010-08-29T11:33:19Z</time>
      </trkpt>
      <trkpt lat="42.10169" lon="9.15009">
        <ele>1882.8791504</ele>
        <time>2010-08-29T11:33:25Z</time>
      </trkpt>
      <trkpt lat="42.10172" lon="9.15013">
        <ele>1883.3598633</ele>
        <time>2010-08-29T11:33:30Z</time>
      </trkpt>
      <trkpt lat="42.10178" lon="9.15019">
        <ele>1881.9179688</ele>
        <time>2010-08-29T11:33:37Z</time>
      </trkpt>
      <trkpt lat="42.10182" lon="9.15028">
        <ele>1881.4372559</ele>
        <time>2010-08-29T11:33:43Z</time>
      </trkpt>
      <trkpt lat="42.10186" lon="9.15032">
        <ele>1881.4372559</ele>
        <time>2010-08-29T11:33:49Z</time>
      </trkpt>
      <trkpt lat="42.10187" lon="9.1504">
        <ele>1880.9567871</ele>
        <time>2010-08-29T11:33:55Z</time>
      </trkpt>
      <trkpt lat="42.10192" lon="9.15046">
        <ele>1878.0727539</ele>
        <time>2010-08-29T11:34:01Z</time>
      </trkpt>
      <trkpt lat="42.10197" lon="9.15054">
        <ele>1877.592041</ele>
        <time>2010-08-29T11:34:08Z</time>
      </trkpt>
      <trkpt lat="42.10201" lon="9.15056">
        <ele>1874.708252</ele>
        <time>2010-08-29T11:34:14Z</time>
      </trkpt>
      <trkpt lat="42.10206" lon="9.15066">
        <ele>1874.2275391</ele>
        <time>2010-08-29T11:34:21Z</time>
      </trkpt>
      <trkpt lat="42.10211" lon="9.15075">
        <ele>1875.1887207</ele>
        <time>2010-08-29T11:34:28Z</time>
      </trkpt>
      <trkpt lat="42.10216" lon="9.15084">
        <ele>1876.1501465</ele>
        <time>2010-08-29T11:34:36Z</time>
      </trkpt>
      <trkpt lat="42.10218" lon="9.15087">
        <ele>1874.2275391</ele>
        <time>2010-08-29T11:34:42Z</time>
      </trkpt>
      <trkpt lat="42.10218" lon="9.15087">
        <ele>1873.2663574</ele>
        <time>2010-08-29T11:34:51Z</time>
      </trkpt>
      <trkpt lat="42.10219" lon="9.15088">
        <ele>1873.7468262</ele>
        <time>2010-08-29T11:34:58Z</time>
      </trkpt>
      <trkpt lat="42.10218" lon="9.15087">
        <ele>1871.8242188</ele>
        <time>2010-08-29T11:35:08Z</time>
      </trkpt>
      <trkpt lat="42.10218" lon="9.15088">
        <ele>1872.3049316</ele>
        <time>2010-08-29T11:35:19Z</time>
      </trkpt>
      <trkpt lat="42.10218" lon="9.15088">
        <ele>1873.2663574</ele>
        <time>2010-08-29T11:35:34Z</time>
      </trkpt>
      <trkpt lat="42.10218" lon="9.15088">
        <ele>1870.8630371</ele>
        <time>2010-08-29T11:35:56Z</time>
      </trkpt>
      <trkpt lat="42.1022" lon="9.1509">
        <ele>1871.3435059</ele>
        <time>2010-08-29T11:36:19Z</time>
      </trkpt>
      <trkpt lat="42.10225" lon="9.15098">
        <ele>1873.2663574</ele>
        <time>2010-08-29T11:36:26Z</time>
      </trkpt>
      <trkpt lat="42.1023" lon="9.15105">
        <ele>1876.1501465</ele>
        <time>2010-08-29T11:36:33Z</time>
      </trkpt>
      <trkpt lat="42.10235" lon="9.15114">
        <ele>1878.0727539</ele>
        <time>2010-08-29T11:36:40Z</time>
      </trkpt>
      <trkpt lat="42.10237" lon="9.15115">
        <ele>1878.0727539</ele>
        <time>2010-08-29T11:36:42Z</time>
      </trkpt>
      <trkpt lat="42.10241" lon="9.15124">
        <ele>1878.0727539</ele>
        <time>2010-08-29T11:36:49Z</time>
      </trkpt>
      <trkpt lat="42.10245" lon="9.15135">
        <ele>1879.0339355</ele>
        <time>2010-08-29T11:36:58Z</time>
      </trkpt>
      <trkpt lat="42.10246" lon="9.15139">
        <ele>1880.4760742</ele>
        <time>2010-08-29T11:37:02Z</time>
      </trkpt>
      <trkpt lat="42.10248" lon="9.15145">
        <ele>1878.5534668</ele>
        <time>2010-08-29T11:37:09Z</time>
      </trkpt>
      <trkpt lat="42.10252" lon="9.15156">
        <ele>1879.0339355</ele>
        <time>2010-08-29T11:37:17Z</time>
      </trkpt>
      <trkpt lat="42.10257" lon="9.15164">
        <ele>1879.0339355</ele>
        <time>2010-08-29T11:37:24Z</time>
      </trkpt>
      <trkpt lat="42.10259" lon="9.15166">
        <ele>1879.0339355</ele>
        <time>2010-08-29T11:37:27Z</time>
      </trkpt>
      <trkpt lat="42.10263" lon="9.15176">
        <ele>1879.9953613</ele>
        <time>2010-08-29T11:37:35Z</time>
      </trkpt>
      <trkpt lat="42.10268" lon="9.15185">
        <ele>1880.9567871</ele>
        <time>2010-08-29T11:37:42Z</time>
      </trkpt>
      <trkpt lat="42.10274" lon="9.15195">
        <ele>1881.4372559</ele>
        <time>2010-08-29T11:37:52Z</time>
      </trkpt>
      <trkpt lat="42.1028" lon="9.15203">
        <ele>1880.9567871</ele>
        <time>2010-08-29T11:38:00Z</time>
      </trkpt>
      <trkpt lat="42.10285" lon="9.1521">
        <ele>1879.5146484</ele>
        <time>2010-08-29T11:38:08Z</time>
      </trkpt>
      <trkpt lat="42.10285" lon="9.15211">
        <ele>1877.592041</ele>
        <time>2010-08-29T11:38:13Z</time>
      </trkpt>
      <trkpt lat="42.10286" lon="9.15212">
        <ele>1876.1501465</ele>
        <time>2010-08-29T11:38:20Z</time>
      </trkpt>
      <trkpt lat="42.10287" lon="9.15218">
        <ele>1875.6694336</ele>
        <time>2010-08-29T11:38:26Z</time>
      </trkpt>
      <trkpt lat="42.10293" lon="9.15225">
        <ele>1875.1887207</ele>
        <time>2010-08-29T11:38:33Z</time>
      </trkpt>
      <trkpt lat="42.10294" lon="9.15225">
        <ele>1871.8242188</ele>
        <time>2010-08-29T11:38:41Z</time>
      </trkpt>
      <trkpt lat="42.10294" lon="9.15226">
        <ele>1869.9016113</ele>
        <time>2010-08-29T11:38:50Z</time>
      </trkpt>
      <trkpt lat="42.10297" lon="9.15231">
        <ele>1868.9404297</ele>
        <time>2010-08-29T11:38:57Z</time>
      </trkpt>
      <trkpt lat="42.10298" lon="9.15234">
        <ele>1869.4211426</ele>
        <time>2010-08-29T11:38:59Z</time>
      </trkpt>
      <trkpt lat="42.10307" lon="9.15239">
        <ele>1871.8242188</ele>
        <time>2010-08-29T11:39:08Z</time>
      </trkpt>
      <trkpt lat="42.10314" lon="9.15242">
        <ele>1873.7468262</ele>
        <time>2010-08-29T11:39:16Z</time>
      </trkpt>
      <trkpt lat="42.10318" lon="9.15245">
        <ele>1873.2663574</ele>
        <time>2010-08-29T11:39:22Z</time>
      </trkpt>
      <trkpt lat="42.10325" lon="9.15253">
        <ele>1874.2275391</ele>
        <time>2010-08-29T11:39:31Z</time>
      </trkpt>
      <trkpt lat="42.10326" lon="9.15254">
        <ele>1874.2275391</ele>
        <time>2010-08-29T11:39:32Z</time>
      </trkpt>
      <trkpt lat="42.10331" lon="9.15263">
        <ele>1875.1887207</ele>
        <time>2010-08-29T11:39:40Z</time>
      </trkpt>
      <trkpt lat="42.10334" lon="9.15266">
        <ele>1875.6694336</ele>
        <time>2010-08-29T11:39:46Z</time>
      </trkpt>
      <trkpt lat="42.10334" lon="9.15266">
        <ele>1872.3049316</ele>
        <time>2010-08-29T11:39:57Z</time>
      </trkpt>
      <trkpt lat="42.10336" lon="9.15268">
        <ele>1872.3049316</ele>
        <time>2010-08-29T11:40:03Z</time>
      </trkpt>
      <trkpt lat="42.10337" lon="9.1527">
        <ele>1872.7856445</ele>
        <time>2010-08-29T11:40:05Z</time>
      </trkpt>
      <trkpt lat="42.10343" lon="9.15279">
        <ele>1875.1887207</ele>
        <time>2010-08-29T11:40:13Z</time>
      </trkpt>
      <trkpt lat="42.10346" lon="9.15285">
        <ele>1876.1501465</ele>
        <time>2010-08-29T11:40:20Z</time>
      </trkpt>
      <trkpt lat="42.10347" lon="9.15288">
        <ele>1874.2275391</ele>
        <time>2010-08-29T11:40:27Z</time>
      </trkpt>
      <trkpt lat="42.10347" lon="9.15293">
        <ele>1874.2275391</ele>
        <time>2010-08-29T11:40:32Z</time>
      </trkpt>
      <trkpt lat="42.10347" lon="9.15296">
        <ele>1874.2275391</ele>
        <time>2010-08-29T11:40:35Z</time>
      </trkpt>
      <trkpt lat="42.10349" lon="9.15309">
        <ele>1875.1887207</ele>
        <time>2010-08-29T11:40:42Z</time>
      </trkpt>
      <trkpt lat="42.10349" lon="9.15311">
        <ele>1874.2275391</ele>
        <time>2010-08-29T11:40:43Z</time>
      </trkpt>
      <trkpt lat="42.10348" lon="9.15322">
        <ele>1873.7468262</ele>
        <time>2010-08-29T11:40:50Z</time>
      </trkpt>
      <trkpt lat="42.10348" lon="9.15325">
        <ele>1874.2275391</ele>
        <time>2010-08-29T11:40:52Z</time>
      </trkpt>
      <trkpt lat="42.1035" lon="9.15332">
        <ele>1873.7468262</ele>
        <time>2010-08-29T11:40:58Z</time>
      </trkpt>
      <trkpt lat="42.10347" lon="9.15338">
        <ele>1869.4211426</ele>
        <time>2010-08-29T11:41:05Z</time>
      </trkpt>
      <trkpt lat="42.10347" lon="9.1534">
        <ele>1868.4597168</ele>
        <time>2010-08-29T11:41:10Z</time>
      </trkpt>
      <trkpt lat="42.10346" lon="9.15346">
        <ele>1864.6142578</ele>
        <time>2010-08-29T11:41:15Z</time>
      </trkpt>
      <trkpt lat="42.10347" lon="9.15348">
        <ele>1861.7304688</ele>
        <time>2010-08-29T11:41:20Z</time>
      </trkpt>
      <trkpt lat="42.1035" lon="9.15349">
        <ele>1858.8464355</ele>
        <time>2010-08-29T11:41:30Z</time>
      </trkpt>
      <trkpt lat="42.10357" lon="9.15356">
        <ele>1857.404541</ele>
        <time>2010-08-29T11:41:38Z</time>
      </trkpt>
      <trkpt lat="42.10364" lon="9.15361">
        <ele>1857.8852539</ele>
        <time>2010-08-29T11:41:45Z</time>
      </trkpt>
      <trkpt lat="42.10371" lon="9.1537">
        <ele>1859.8076172</ele>
        <time>2010-08-29T11:41:53Z</time>
      </trkpt>
      <trkpt lat="42.10377" lon="9.15381">
        <ele>1861.7304688</ele>
        <time>2010-08-29T11:42:02Z</time>
      </trkpt>
      <trkpt lat="42.10378" lon="9.15383">
        <ele>1861.7304688</ele>
        <time>2010-08-29T11:42:03Z</time>
      </trkpt>
      <trkpt lat="42.10381" lon="9.15396">
        <ele>1860.2883301</ele>
        <time>2010-08-29T11:42:12Z</time>
      </trkpt>
      <trkpt lat="42.10383" lon="9.15401">
        <ele>1860.2883301</ele>
        <time>2010-08-29T11:42:18Z</time>
      </trkpt>
      <trkpt lat="42.10385" lon="9.15404">
        <ele>1859.3271484</ele>
        <time>2010-08-29T11:42:24Z</time>
      </trkpt>
      <trkpt lat="42.10387" lon="9.15408">
        <ele>1859.3271484</ele>
        <time>2010-08-29T11:42:28Z</time>
      </trkpt>
      <trkpt lat="42.10391" lon="9.15412">
        <ele>1860.2883301</ele>
        <time>2010-08-29T11:42:33Z</time>
      </trkpt>
      <trkpt lat="42.10393" lon="9.15419">
        <ele>1862.2109375</ele>
        <time>2010-08-29T11:42:39Z</time>
      </trkpt>
      <trkpt lat="42.10395" lon="9.15425">
        <ele>1862.2109375</ele>
        <time>2010-08-29T11:42:43Z</time>
      </trkpt>
      <trkpt lat="42.104" lon="9.15436">
        <ele>1862.6916504</ele>
        <time>2010-08-29T11:42:52Z</time>
      </trkpt>
      <trkpt lat="42.10406" lon="9.1544">
        <ele>1857.404541</ele>
        <time>2010-08-29T11:42:58Z</time>
      </trkpt>
      <trkpt lat="42.10409" lon="9.15442">
        <ele>1855.4819336</ele>
        <time>2010-08-29T11:43:02Z</time>
      </trkpt>
      <trkpt lat="42.10419" lon="9.15444">
        <ele>1851.1557617</ele>
        <time>2010-08-29T11:43:11Z</time>
      </trkpt>
      <trkpt lat="42.10419" lon="9.15444">
        <ele>1851.6364746</ele>
        <time>2010-08-29T11:43:15Z</time>
      </trkpt>
      <trkpt lat="42.10419" lon="9.15447">
        <ele>1851.6364746</ele>
        <time>2010-08-29T11:43:21Z</time>
      </trkpt>
      <trkpt lat="42.10418" lon="9.15451">
        <ele>1849.7138672</ele>
        <time>2010-08-29T11:43:26Z</time>
      </trkpt>
      <trkpt lat="42.10422" lon="9.15455">
        <ele>1849.7138672</ele>
        <time>2010-08-29T11:43:32Z</time>
      </trkpt>
      <trkpt lat="42.10425" lon="9.15459">
        <ele>1848.7524414</ele>
        <time>2010-08-29T11:43:39Z</time>
      </trkpt>
      <trkpt lat="42.10429" lon="9.15464">
        <ele>1847.3105469</ele>
        <time>2010-08-29T11:43:46Z</time>
      </trkpt>
      <trkpt lat="42.10435" lon="9.15466">
        <ele>1844.4265137</ele>
        <time>2010-08-29T11:43:53Z</time>
      </trkpt>
      <trkpt lat="42.10434" lon="9.15467">
        <ele>1841.5427246</ele>
        <time>2010-08-29T11:43:59Z</time>
      </trkpt>
      <trkpt lat="42.10436" lon="9.1547">
        <ele>1840.5812988</ele>
        <time>2010-08-29T11:44:04Z</time>
      </trkpt>
      <trkpt lat="42.10437" lon="9.15473">
        <ele>1839.6201172</ele>
        <time>2010-08-29T11:44:10Z</time>
      </trkpt>
      <trkpt lat="42.1044" lon="9.15473">
        <ele>1838.1782227</ele>
        <time>2010-08-29T11:44:16Z</time>
      </trkpt>
      <trkpt lat="42.10443" lon="9.15473">
        <ele>1838.6589355</ele>
        <time>2010-08-29T11:44:21Z</time>
      </trkpt>
      <trkpt lat="42.10447" lon="9.15479">
        <ele>1841.0620117</ele>
        <time>2010-08-29T11:44:28Z</time>
      </trkpt>
      <trkpt lat="42.10453" lon="9.15484">
        <ele>1842.9846191</ele>
        <time>2010-08-29T11:44:35Z</time>
      </trkpt>
      <trkpt lat="42.10454" lon="9.1549">
        <ele>1845.8686523</ele>
        <time>2010-08-29T11:44:41Z</time>
      </trkpt>
      <trkpt lat="42.10455" lon="9.15498">
        <ele>1847.3105469</ele>
        <time>2010-08-29T11:44:49Z</time>
      </trkpt>
      <trkpt lat="42.10457" lon="9.15505">
        <ele>1847.7912598</ele>
        <time>2010-08-29T11:44:55Z</time>
      </trkpt>
      <trkpt lat="42.10461" lon="9.15508">
        <ele>1840.1008301</ele>
        <time>2010-08-29T11:45:00Z</time>
      </trkpt>
      <trkpt lat="42.10463" lon="9.15509">
        <ele>1835.7746582</ele>
        <time>2010-08-29T11:45:07Z</time>
      </trkpt>
      <trkpt lat="42.10472" lon="9.15508">
        <ele>1833.3713379</ele>
        <time>2010-08-29T11:45:16Z</time>
      </trkpt>
      <trkpt lat="42.10475" lon="9.1551">
        <ele>1834.8134766</ele>
        <time>2010-08-29T11:45:23Z</time>
      </trkpt>
      <trkpt lat="42.10476" lon="9.15513">
        <ele>1835.2939453</ele>
        <time>2010-08-29T11:45:28Z</time>
      </trkpt>
      <trkpt lat="42.10478" lon="9.15523">
        <ele>1841.5427246</ele>
        <time>2010-08-29T11:45:36Z</time>
      </trkpt>
      <trkpt lat="42.10479" lon="9.15523">
        <ele>1840.1008301</ele>
        <time>2010-08-29T11:45:41Z</time>
      </trkpt>
      <trkpt lat="42.10482" lon="9.15527">
        <ele>1842.0234375</ele>
        <time>2010-08-29T11:45:46Z</time>
      </trkpt>
      <trkpt lat="42.10489" lon="9.1553">
        <ele>1839.6201172</ele>
        <time>2010-08-29T11:45:53Z</time>
      </trkpt>
      <trkpt lat="42.10488" lon="9.15531">
        <ele>1837.6975098</ele>
        <time>2010-08-29T11:45:59Z</time>
      </trkpt>
      <trkpt lat="42.10487" lon="9.15531">
        <ele>1837.6975098</ele>
        <time>2010-08-29T11:46:04Z</time>
      </trkpt>
      <trkpt lat="42.10489" lon="9.15532">
        <ele>1837.2167969</ele>
        <time>2010-08-29T11:46:11Z</time>
      </trkpt>
      <trkpt lat="42.10489" lon="9.15534">
        <ele>1836.736084</ele>
        <time>2010-08-29T11:46:17Z</time>
      </trkpt>
      <trkpt lat="42.1049" lon="9.15536">
        <ele>1837.2167969</ele>
        <time>2010-08-29T11:46:33Z</time>
      </trkpt>
      <trkpt lat="42.10491" lon="9.15542">
        <ele>1837.2167969</ele>
        <time>2010-08-29T11:46:40Z</time>
      </trkpt>
      <trkpt lat="42.1049" lon="9.15547">
        <ele>1837.6975098</ele>
        <time>2010-08-29T11:46:47Z</time>
      </trkpt>
      <trkpt lat="42.10489" lon="9.15554">
        <ele>1838.6589355</ele>
        <time>2010-08-29T11:46:53Z</time>
      </trkpt>
      <trkpt lat="42.10487" lon="9.15559">
        <ele>1839.1394043</ele>
        <time>2010-08-29T11:46:59Z</time>
      </trkpt>
      <trkpt lat="42.10484" lon="9.15565">
        <ele>1840.1008301</ele>
        <time>2010-08-29T11:47:06Z</time>
      </trkpt>
      <trkpt lat="42.10484" lon="9.1557">
        <ele>1841.0620117</ele>
        <time>2010-08-29T11:47:11Z</time>
      </trkpt>
      <trkpt lat="42.10486" lon="9.15572">
        <ele>1840.5812988</ele>
        <time>2010-08-29T11:47:17Z</time>
      </trkpt>
      <trkpt lat="42.10486" lon="9.15574">
        <ele>1840.1008301</ele>
        <time>2010-08-29T11:47:21Z</time>
      </trkpt>
      <trkpt lat="42.10487" lon="9.15578">
        <ele>1840.1008301</ele>
        <time>2010-08-29T11:47:27Z</time>
      </trkpt>
      <trkpt lat="42.10488" lon="9.15579">
        <ele>1839.6201172</ele>
        <time>2010-08-29T11:47:33Z</time>
      </trkpt>
      <trkpt lat="42.10486" lon="9.15577">
        <ele>1839.1394043</ele>
        <time>2010-08-29T11:47:39Z</time>
      </trkpt>
      <trkpt lat="42.10483" lon="9.1558">
        <ele>1840.1008301</ele>
        <time>2010-08-29T11:47:44Z</time>
      </trkpt>
      <trkpt lat="42.10482" lon="9.15584">
        <ele>1839.6201172</ele>
        <time>2010-08-29T11:47:50Z</time>
      </trkpt>
      <trkpt lat="42.10484" lon="9.15587">
        <ele>1840.1008301</ele>
        <time>2010-08-29T11:47:57Z</time>
      </trkpt>
      <trkpt lat="42.10485" lon="9.15585">
        <ele>1839.1394043</ele>
        <time>2010-08-29T11:48:03Z</time>
      </trkpt>
      <trkpt lat="42.10484" lon="9.1559">
        <ele>1840.5812988</ele>
        <time>2010-08-29T11:48:09Z</time>
      </trkpt>
      <trkpt lat="42.10485" lon="9.15597">
        <ele>1842.0234375</ele>
        <time>2010-08-29T11:48:15Z</time>
      </trkpt>
      <trkpt lat="42.10486" lon="9.15601">
        <ele>1842.9846191</ele>
        <time>2010-08-29T11:48:22Z</time>
      </trkpt>
      <trkpt lat="42.10487" lon="9.15602">
        <ele>1841.5427246</ele>
        <time>2010-08-29T11:48:32Z</time>
      </trkpt>
      <trkpt lat="42.1049" lon="9.15608">
        <ele>1840.5812988</ele>
        <time>2010-08-29T11:48:38Z</time>
      </trkpt>
      <trkpt lat="42.10491" lon="9.15612">
        <ele>1839.1394043</ele>
        <time>2010-08-29T11:48:42Z</time>
      </trkpt>
      <trkpt lat="42.1049" lon="9.15618">
        <ele>1839.1394043</ele>
        <time>2010-08-29T11:48:49Z</time>
      </trkpt>
      <trkpt lat="42.10492" lon="9.15622">
        <ele>1838.6589355</ele>
        <time>2010-08-29T11:48:56Z</time>
      </trkpt>
      <trkpt lat="42.10493" lon="9.15625">
        <ele>1837.2167969</ele>
        <time>2010-08-29T11:49:02Z</time>
      </trkpt>
      <trkpt lat="42.10494" lon="9.15627">
        <ele>1836.2556152</ele>
        <time>2010-08-29T11:49:08Z</time>
      </trkpt>
      <trkpt lat="42.10493" lon="9.15624">
        <ele>1836.2556152</ele>
        <time>2010-08-29T11:49:16Z</time>
      </trkpt>
      <trkpt lat="42.10492" lon="9.15627">
        <ele>1838.1782227</ele>
        <time>2010-08-29T11:49:21Z</time>
      </trkpt>
      <trkpt lat="42.10492" lon="9.15632">
        <ele>1837.2167969</ele>
        <time>2010-08-29T11:49:27Z</time>
      </trkpt>
      <trkpt lat="42.10491" lon="9.15634">
        <ele>1836.2556152</ele>
        <time>2010-08-29T11:49:33Z</time>
      </trkpt>
      <trkpt lat="42.10492" lon="9.15636">
        <ele>1835.2939453</ele>
        <time>2010-08-29T11:49:40Z</time>
      </trkpt>
      <trkpt lat="42.10494" lon="9.1564">
        <ele>1832.890625</ele>
        <time>2010-08-29T11:49:46Z</time>
      </trkpt>
      <trkpt lat="42.10496" lon="9.15641">
        <ele>1831.9294434</ele>
        <time>2010-08-29T11:49:52Z</time>
      </trkpt>
      <trkpt lat="42.10496" lon="9.15644">
        <ele>1831.4487305</ele>
        <time>2010-08-29T11:49:56Z</time>
      </trkpt>
      <trkpt lat="42.10495" lon="9.15651">
        <ele>1830.9682617</ele>
        <time>2010-08-29T11:50:02Z</time>
      </trkpt>
      <trkpt lat="42.10493" lon="9.15657">
        <ele>1830.0068359</ele>
        <time>2010-08-29T11:50:08Z</time>
      </trkpt>
      <trkpt lat="42.10492" lon="9.15665">
        <ele>1829.526123</ele>
        <time>2010-08-29T11:50:14Z</time>
      </trkpt>
      <trkpt lat="42.10491" lon="9.15667">
        <ele>1829.526123</ele>
        <time>2010-08-29T11:50:16Z</time>
      </trkpt>
      <trkpt lat="42.10489" lon="9.15675">
        <ele>1830.0068359</ele>
        <time>2010-08-29T11:50:23Z</time>
      </trkpt>
      <trkpt lat="42.10488" lon="9.15681">
        <ele>1829.526123</ele>
        <time>2010-08-29T11:50:29Z</time>
      </trkpt>
      <trkpt lat="42.10485" lon="9.15687">
        <ele>1829.526123</ele>
        <time>2010-08-29T11:50:35Z</time>
      </trkpt>
      <trkpt lat="42.10485" lon="9.15687">
        <ele>1829.0454102</ele>
        <time>2010-08-29T11:50:36Z</time>
      </trkpt>
      <trkpt lat="42.10481" lon="9.1569">
        <ele>1828.5649414</ele>
        <time>2010-08-29T11:50:42Z</time>
      </trkpt>
      <trkpt lat="42.10482" lon="9.15692">
        <ele>1827.6035156</ele>
        <time>2010-08-29T11:50:49Z</time>
      </trkpt>
      <trkpt lat="42.10482" lon="9.15691">
        <ele>1827.1230469</ele>
        <time>2010-08-29T11:51:00Z</time>
      </trkpt>
      <trkpt lat="42.10485" lon="9.15691">
        <ele>1825.6809082</ele>
        <time>2010-08-29T11:51:07Z</time>
      </trkpt>
      <trkpt lat="42.10487" lon="9.15697">
        <ele>1825.2001953</ele>
        <time>2010-08-29T11:51:14Z</time>
      </trkpt>
      <trkpt lat="42.10486" lon="9.15702">
        <ele>1825.2001953</ele>
        <time>2010-08-29T11:51:20Z</time>
      </trkpt>
      <trkpt lat="42.10484" lon="9.15708">
        <ele>1824.7197266</ele>
        <time>2010-08-29T11:51:26Z</time>
      </trkpt>
      <trkpt lat="42.10483" lon="9.15714">
        <ele>1822.3164062</ele>
        <time>2010-08-29T11:51:32Z</time>
      </trkpt>
      <trkpt lat="42.10482" lon="9.15716">
        <ele>1821.8356934</ele>
        <time>2010-08-29T11:51:34Z</time>
      </trkpt>
      <trkpt lat="42.10482" lon="9.15725">
        <ele>1820.3937988</ele>
        <time>2010-08-29T11:51:42Z</time>
      </trkpt>
      <trkpt lat="42.10485" lon="9.15728">
        <ele>1818.4709473</ele>
        <time>2010-08-29T11:51:49Z</time>
      </trkpt>
      <trkpt lat="42.10485" lon="9.15734">
        <ele>1817.0290527</ele>
        <time>2010-08-29T11:51:55Z</time>
      </trkpt>
      <trkpt lat="42.10483" lon="9.15741">
        <ele>1816.5483398</ele>
        <time>2010-08-29T11:52:02Z</time>
      </trkpt>
      <trkpt lat="42.10481" lon="9.15745">
        <ele>1816.067627</ele>
        <time>2010-08-29T11:52:07Z</time>
      </trkpt>
      <trkpt lat="42.10478" lon="9.15751">
        <ele>1816.5483398</ele>
        <time>2010-08-29T11:52:13Z</time>
      </trkpt>
      <trkpt lat="42.10478" lon="9.1575">
        <ele>1816.5483398</ele>
        <time>2010-08-29T11:52:20Z</time>
      </trkpt>
      <trkpt lat="42.1048" lon="9.15751">
        <ele>1816.5483398</ele>
        <time>2010-08-29T11:52:25Z</time>
      </trkpt>
      <trkpt lat="42.1048" lon="9.15754">
        <ele>1816.067627</ele>
        <time>2010-08-29T11:52:31Z</time>
      </trkpt>
      <trkpt lat="42.1048" lon="9.15756">
        <ele>1815.1064453</ele>
        <time>2010-08-29T11:52:38Z</time>
      </trkpt>
      <trkpt lat="42.10481" lon="9.15757">
        <ele>1814.1450195</ele>
        <time>2010-08-29T11:52:49Z</time>
      </trkpt>
      <trkpt lat="42.10479" lon="9.15757">
        <ele>1814.1450195</ele>
        <time>2010-08-29T11:53:09Z</time>
      </trkpt>
      <trkpt lat="42.1048" lon="9.15757">
        <ele>1814.1450195</ele>
        <time>2010-08-29T11:53:19Z</time>
      </trkpt>
      <trkpt lat="42.1048" lon="9.15757">
        <ele>1814.6257324</ele>
        <time>2010-08-29T11:53:25Z</time>
      </trkpt>
      <trkpt lat="42.10479" lon="9.15759">
        <ele>1813.6643066</ele>
        <time>2010-08-29T11:53:33Z</time>
      </trkpt>
      <trkpt lat="42.10481" lon="9.15763">
        <ele>1813.1838379</ele>
        <time>2010-08-29T11:53:40Z</time>
      </trkpt>
      <trkpt lat="42.10484" lon="9.15764">
        <ele>1811.7419434</ele>
        <time>2010-08-29T11:53:45Z</time>
      </trkpt>
      <trkpt lat="42.10484" lon="9.15772">
        <ele>1811.7419434</ele>
        <time>2010-08-29T11:53:52Z</time>
      </trkpt>
      <trkpt lat="42.10483" lon="9.15779">
        <ele>1810.7805176</ele>
        <time>2010-08-29T11:53:59Z</time>
      </trkpt>
      <trkpt lat="42.1048" lon="9.15791">
        <ele>1809.338623</ele>
        <time>2010-08-29T11:54:07Z</time>
      </trkpt>
      <trkpt lat="42.10478" lon="9.15803">
        <ele>1809.8190918</ele>
        <time>2010-08-29T11:54:15Z</time>
      </trkpt>
      <trkpt lat="42.10477" lon="9.15812">
        <ele>1809.8190918</ele>
        <time>2010-08-29T11:54:21Z</time>
      </trkpt>
      <trkpt lat="42.10477" lon="9.15815">
        <ele>1809.8190918</ele>
        <time>2010-08-29T11:54:23Z</time>
      </trkpt>
      <trkpt lat="42.10475" lon="9.15824">
        <ele>1807.8967285</ele>
        <time>2010-08-29T11:54:31Z</time>
      </trkpt>
      <trkpt lat="42.10472" lon="9.15828">
        <ele>1806.9353027</ele>
        <time>2010-08-29T11:54:35Z</time>
      </trkpt>
      <trkpt lat="42.10471" lon="9.15836">
        <ele>1806.4545898</ele>
        <time>2010-08-29T11:54:42Z</time>
      </trkpt>
      <trkpt lat="42.1047" lon="9.15842">
        <ele>1804.5319824</ele>
        <time>2010-08-29T11:54:49Z</time>
      </trkpt>
      <trkpt lat="42.10471" lon="9.15849">
        <ele>1802.128418</ele>
        <time>2010-08-29T11:54:56Z</time>
      </trkpt>
      <trkpt lat="42.10472" lon="9.15853">
        <ele>1801.1672363</ele>
        <time>2010-08-29T11:55:01Z</time>
      </trkpt>
      <trkpt lat="42.10475" lon="9.15859">
        <ele>1799.7253418</ele>
        <time>2010-08-29T11:55:07Z</time>
      </trkpt>
      <trkpt lat="42.10477" lon="9.15863">
        <ele>1798.2832031</ele>
        <time>2010-08-29T11:55:13Z</time>
      </trkpt>
      <trkpt lat="42.10478" lon="9.15867">
        <ele>1797.3220215</ele>
        <time>2010-08-29T11:55:16Z</time>
      </trkpt>
      <trkpt lat="42.10481" lon="9.15877">
        <ele>1794.4379883</ele>
        <time>2010-08-29T11:55:25Z</time>
      </trkpt>
      <trkpt lat="42.10481" lon="9.15884">
        <ele>1792.9960938</ele>
        <time>2010-08-29T11:55:31Z</time>
      </trkpt>
      <trkpt lat="42.10482" lon="9.15891">
        <ele>1791.0734863</ele>
        <time>2010-08-29T11:55:37Z</time>
      </trkpt>
      <trkpt lat="42.10483" lon="9.15904">
        <ele>1790.5927734</ele>
        <time>2010-08-29T11:55:46Z</time>
      </trkpt>
      <trkpt lat="42.10484" lon="9.1591">
        <ele>1789.6315918</ele>
        <time>2010-08-29T11:55:51Z</time>
      </trkpt>
      <trkpt lat="42.10487" lon="9.1592">
        <ele>1788.1896973</ele>
        <time>2010-08-29T11:55:59Z</time>
      </trkpt>
      <trkpt lat="42.10488" lon="9.15925">
        <ele>1787.7087402</ele>
        <time>2010-08-29T11:56:03Z</time>
      </trkpt>
      <trkpt lat="42.10492" lon="9.15936">
        <ele>1787.2280273</ele>
        <time>2010-08-29T11:56:11Z</time>
      </trkpt>
      <trkpt lat="42.10493" lon="9.15938">
        <ele>1786.7473145</ele>
        <time>2010-08-29T11:56:17Z</time>
      </trkpt>
      <trkpt lat="42.10495" lon="9.15944">
        <ele>1784.3442383</ele>
        <time>2010-08-29T11:56:23Z</time>
      </trkpt>
      <trkpt lat="42.10496" lon="9.15944">
        <ele>1782.9020996</ele>
        <time>2010-08-29T11:56:28Z</time>
      </trkpt>
      <trkpt lat="42.10496" lon="9.15945">
        <ele>1781.940918</ele>
        <time>2010-08-29T11:56:32Z</time>
      </trkpt>
      <trkpt lat="42.10495" lon="9.15952">
        <ele>1780.9797363</ele>
        <time>2010-08-29T11:56:37Z</time>
      </trkpt>
      <trkpt lat="42.10494" lon="9.15961">
        <ele>1780.0183105</ele>
        <time>2010-08-29T11:56:45Z</time>
      </trkpt>
      <trkpt lat="42.10494" lon="9.1597">
        <ele>1778.576416</ele>
        <time>2010-08-29T11:56:51Z</time>
      </trkpt>
      <trkpt lat="42.10498" lon="9.15984">
        <ele>1777.6149902</ele>
        <time>2010-08-29T11:57:00Z</time>
      </trkpt>
      <trkpt lat="42.105" lon="9.15986">
        <ele>1777.6149902</ele>
        <time>2010-08-29T11:57:06Z</time>
      </trkpt>
      <trkpt lat="42.10504" lon="9.15994">
        <ele>1778.576416</ele>
        <time>2010-08-29T11:57:14Z</time>
      </trkpt>
      <trkpt lat="42.10505" lon="9.15995">
        <ele>1779.0568848</ele>
        <time>2010-08-29T11:57:16Z</time>
      </trkpt>
      <trkpt lat="42.1051" lon="9.15993">
        <ele>1778.576416</ele>
        <time>2010-08-29T11:57:21Z</time>
      </trkpt>
      <trkpt lat="42.10512" lon="9.15995">
        <ele>1780.0183105</ele>
        <time>2010-08-29T11:57:27Z</time>
      </trkpt>
      <trkpt lat="42.10506" lon="9.16002">
        <ele>1779.0568848</ele>
        <time>2010-08-29T11:57:35Z</time>
      </trkpt>
      <trkpt lat="42.10505" lon="9.16002">
        <ele>1779.0568848</ele>
        <time>2010-08-29T11:57:36Z</time>
      </trkpt>
      <trkpt lat="42.10503" lon="9.16009">
        <ele>1778.576416</ele>
        <time>2010-08-29T11:57:43Z</time>
      </trkpt>
      <trkpt lat="42.10502" lon="9.1601">
        <ele>1778.0957031</ele>
        <time>2010-08-29T11:57:50Z</time>
      </trkpt>
      <trkpt lat="42.10504" lon="9.1601">
        <ele>1778.0957031</ele>
        <time>2010-08-29T11:57:58Z</time>
      </trkpt>
      <trkpt lat="42.10502" lon="9.1601">
        <ele>1778.0957031</ele>
        <time>2010-08-29T11:58:10Z</time>
      </trkpt>
      <trkpt lat="42.10502" lon="9.1601">
        <ele>1778.0957031</ele>
        <time>2010-08-29T11:58:19Z</time>
      </trkpt>
      <trkpt lat="42.10501" lon="9.16014">
        <ele>1777.1345215</ele>
        <time>2010-08-29T11:58:25Z</time>
      </trkpt>
      <trkpt lat="42.10502" lon="9.16016">
        <ele>1776.1730957</ele>
        <time>2010-08-29T11:58:30Z</time>
      </trkpt>
      <trkpt lat="42.10503" lon="9.16022">
        <ele>1775.6923828</ele>
        <time>2010-08-29T11:58:37Z</time>
      </trkpt>
      <trkpt lat="42.10503" lon="9.16024">
        <ele>1775.6923828</ele>
        <time>2010-08-29T11:58:38Z</time>
      </trkpt>
      <trkpt lat="42.10503" lon="9.16026">
        <ele>1775.2116699</ele>
        <time>2010-08-29T11:58:43Z</time>
      </trkpt>
      <trkpt lat="42.10501" lon="9.16024">
        <ele>1772.8085938</ele>
        <time>2010-08-29T11:58:48Z</time>
      </trkpt>
      <trkpt lat="42.105" lon="9.16029">
        <ele>1772.3278809</ele>
        <time>2010-08-29T11:58:54Z</time>
      </trkpt>
      <trkpt lat="42.105" lon="9.16032">
        <ele>1772.3278809</ele>
        <time>2010-08-29T11:58:59Z</time>
      </trkpt>
      <trkpt lat="42.10501" lon="9.16035">
        <ele>1767.5209961</ele>
        <time>2010-08-29T11:59:04Z</time>
      </trkpt>
      <trkpt lat="42.105" lon="9.16039">
        <ele>1766.5598145</ele>
        <time>2010-08-29T11:59:12Z</time>
      </trkpt>
      <trkpt lat="42.105" lon="9.16043">
        <ele>1768.001709</ele>
        <time>2010-08-29T11:59:17Z</time>
      </trkpt>
      <trkpt lat="42.105" lon="9.16046">
        <ele>1768.001709</ele>
        <time>2010-08-29T11:59:19Z</time>
      </trkpt>
      <trkpt lat="42.105" lon="9.16059">
        <ele>1769.9243164</ele>
        <time>2010-08-29T11:59:29Z</time>
      </trkpt>
      <trkpt lat="42.10501" lon="9.16062">
        <ele>1768.4824219</ele>
        <time>2010-08-29T11:59:35Z</time>
      </trkpt>
      <trkpt lat="42.10502" lon="9.1607">
        <ele>1768.4824219</ele>
        <time>2010-08-29T11:59:41Z</time>
      </trkpt>
      <trkpt lat="42.10502" lon="9.16075">
        <ele>1768.001709</ele>
        <time>2010-08-29T11:59:46Z</time>
      </trkpt>
      <trkpt lat="42.10504" lon="9.16081">
        <ele>1769.4438477</ele>
        <time>2010-08-29T11:59:52Z</time>
      </trkpt>
      <trkpt lat="42.10506" lon="9.16082">
        <ele>1770.4050293</ele>
        <time>2010-08-29T11:59:58Z</time>
      </trkpt>
      <trkpt lat="42.1051" lon="9.16082">
        <ele>1770.8857422</ele>
        <time>2010-08-29T12:00:04Z</time>
      </trkpt>
      <trkpt lat="42.10514" lon="9.16084">
        <ele>1772.3278809</ele>
        <time>2010-08-29T12:00:10Z</time>
      </trkpt>
      <trkpt lat="42.10518" lon="9.16084">
        <ele>1773.7697754</ele>
        <time>2010-08-29T12:00:17Z</time>
      </trkpt>
      <trkpt lat="42.10521" lon="9.16087">
        <ele>1775.2116699</ele>
        <time>2010-08-29T12:00:23Z</time>
      </trkpt>
      <trkpt lat="42.10523" lon="9.16088">
        <ele>1775.6923828</ele>
        <time>2010-08-29T12:00:28Z</time>
      </trkpt>
      <trkpt lat="42.10525" lon="9.16091">
        <ele>1776.1730957</ele>
        <time>2010-08-29T12:00:33Z</time>
      </trkpt>
      <trkpt lat="42.10528" lon="9.16095">
        <ele>1777.6149902</ele>
        <time>2010-08-29T12:00:39Z</time>
      </trkpt>
      <trkpt lat="42.10532" lon="9.16102">
        <ele>1779.5375977</ele>
        <time>2010-08-29T12:00:46Z</time>
      </trkpt>
      <trkpt lat="42.10533" lon="9.16109">
        <ele>1781.4602051</ele>
        <time>2010-08-29T12:00:53Z</time>
      </trkpt>
      <trkpt lat="42.10535" lon="9.16113">
        <ele>1782.4216309</ele>
        <time>2010-08-29T12:00:59Z</time>
      </trkpt>
      <trkpt lat="42.10537" lon="9.16115">
        <ele>1782.4216309</ele>
        <time>2010-08-29T12:01:01Z</time>
      </trkpt>
      <trkpt lat="42.10542" lon="9.16118">
        <ele>1781.4602051</ele>
        <time>2010-08-29T12:01:09Z</time>
      </trkpt>
      <trkpt lat="42.10542" lon="9.16121">
        <ele>1781.4602051</ele>
        <time>2010-08-29T12:01:13Z</time>
      </trkpt>
      <trkpt lat="42.10541" lon="9.16125">
        <ele>1779.5375977</ele>
        <time>2010-08-29T12:01:19Z</time>
      </trkpt>
      <trkpt lat="42.10536" lon="9.16128">
        <ele>1777.1345215</ele>
        <time>2010-08-29T12:01:26Z</time>
      </trkpt>
      <trkpt lat="42.10533" lon="9.16132">
        <ele>1775.2116699</ele>
        <time>2010-08-29T12:01:33Z</time>
      </trkpt>
      <trkpt lat="42.10532" lon="9.16134">
        <ele>1774.2504883</ele>
        <time>2010-08-29T12:01:39Z</time>
      </trkpt>
      <trkpt lat="42.10535" lon="9.16135">
        <ele>1775.2116699</ele>
        <time>2010-08-29T12:01:46Z</time>
      </trkpt>
      <trkpt lat="42.10539" lon="9.16144">
        <ele>1776.6538086</ele>
        <time>2010-08-29T12:01:56Z</time>
      </trkpt>
      <trkpt lat="42.10538" lon="9.16145">
        <ele>1776.1730957</ele>
        <time>2010-08-29T12:02:01Z</time>
      </trkpt>
      <trkpt lat="42.1054" lon="9.16147">
        <ele>1776.6538086</ele>
        <time>2010-08-29T12:02:06Z</time>
      </trkpt>
      <trkpt lat="42.1054" lon="9.16152">
        <ele>1777.1345215</ele>
        <time>2010-08-29T12:02:11Z</time>
      </trkpt>
      <trkpt lat="42.10538" lon="9.16156">
        <ele>1775.6923828</ele>
        <time>2010-08-29T12:02:18Z</time>
      </trkpt>
      <trkpt lat="42.10538" lon="9.16161">
        <ele>1774.7312012</ele>
        <time>2010-08-29T12:02:23Z</time>
      </trkpt>
      <trkpt lat="42.10542" lon="9.1617">
        <ele>1773.7697754</ele>
        <time>2010-08-29T12:02:31Z</time>
      </trkpt>
      <trkpt lat="42.10544" lon="9.16172">
        <ele>1773.2893066</ele>
        <time>2010-08-29T12:02:36Z</time>
      </trkpt>
      <trkpt lat="42.10548" lon="9.16179">
        <ele>1772.8085938</ele>
        <time>2010-08-29T12:02:41Z</time>
      </trkpt>
      <trkpt lat="42.10549" lon="9.16182">
        <ele>1770.8857422</ele>
        <time>2010-08-29T12:02:52Z</time>
      </trkpt>
      <trkpt lat="42.10551" lon="9.16183">
        <ele>1771.8469238</ele>
        <time>2010-08-29T12:02:57Z</time>
      </trkpt>
      <trkpt lat="42.10553" lon="9.16186">
        <ele>1771.8469238</ele>
        <time>2010-08-29T12:03:00Z</time>
      </trkpt>
      <trkpt lat="42.10554" lon="9.16193">
        <ele>1771.8469238</ele>
        <time>2010-08-29T12:03:07Z</time>
      </trkpt>
      <trkpt lat="42.10554" lon="9.16196">
        <ele>1771.8469238</ele>
        <time>2010-08-29T12:03:12Z</time>
      </trkpt>
      <trkpt lat="42.10556" lon="9.16202">
        <ele>1771.8469238</ele>
        <time>2010-08-29T12:03:18Z</time>
      </trkpt>
      <trkpt lat="42.10556" lon="9.16203">
        <ele>1771.8469238</ele>
        <time>2010-08-29T12:03:19Z</time>
      </trkpt>
      <trkpt lat="42.10559" lon="9.16213">
        <ele>1771.3662109</ele>
        <time>2010-08-29T12:03:26Z</time>
      </trkpt>
      <trkpt lat="42.10559" lon="9.1622">
        <ele>1769.9243164</ele>
        <time>2010-08-29T12:03:33Z</time>
      </trkpt>
      <trkpt lat="42.10559" lon="9.16221">
        <ele>1768.4824219</ele>
        <time>2010-08-29T12:03:39Z</time>
      </trkpt>
      <trkpt lat="42.10563" lon="9.16225">
        <ele>1768.001709</ele>
        <time>2010-08-29T12:03:46Z</time>
      </trkpt>
      <trkpt lat="42.10565" lon="9.16227">
        <ele>1766.5598145</ele>
        <time>2010-08-29T12:03:52Z</time>
      </trkpt>
      <trkpt lat="42.10566" lon="9.16232">
        <ele>1764.637207</ele>
        <time>2010-08-29T12:03:58Z</time>
      </trkpt>
      <trkpt lat="42.10568" lon="9.16234">
        <ele>1763.6757812</ele>
        <time>2010-08-29T12:04:03Z</time>
      </trkpt>
      <trkpt lat="42.1057" lon="9.16236">
        <ele>1763.1953125</ele>
        <time>2010-08-29T12:04:09Z</time>
      </trkpt>
      <trkpt lat="42.10572" lon="9.16241">
        <ele>1761.2727051</ele>
        <time>2010-08-29T12:04:15Z</time>
      </trkpt>
      <trkpt lat="42.10572" lon="9.16246">
        <ele>1758.8693848</ele>
        <time>2010-08-29T12:04:22Z</time>
      </trkpt>
      <trkpt lat="42.10573" lon="9.16249">
        <ele>1757.4274902</ele>
        <time>2010-08-29T12:04:28Z</time>
      </trkpt>
      <trkpt lat="42.10574" lon="9.16251">
        <ele>1755.5046387</ele>
        <time>2010-08-29T12:04:33Z</time>
      </trkpt>
      <trkpt lat="42.10574" lon="9.16251">
        <ele>1754.0627441</ele>
        <time>2010-08-29T12:04:41Z</time>
      </trkpt>
      <trkpt lat="42.10572" lon="9.16255">
        <ele>1752.6206055</ele>
        <time>2010-08-29T12:04:47Z</time>
      </trkpt>
      <trkpt lat="42.10573" lon="9.16258">
        <ele>1751.1787109</ele>
        <time>2010-08-29T12:04:53Z</time>
      </trkpt>
      <trkpt lat="42.10576" lon="9.16257">
        <ele>1750.697998</ele>
        <time>2010-08-29T12:04:58Z</time>
      </trkpt>
      <trkpt lat="42.10576" lon="9.16259">
        <ele>1749.7368164</ele>
        <time>2010-08-29T12:05:04Z</time>
      </trkpt>
      <trkpt lat="42.10574" lon="9.16261">
        <ele>1748.2946777</ele>
        <time>2010-08-29T12:05:12Z</time>
      </trkpt>
      <trkpt lat="42.10573" lon="9.16265">
        <ele>1746.8527832</ele>
        <time>2010-08-29T12:05:18Z</time>
      </trkpt>
      <trkpt lat="42.10574" lon="9.16269">
        <ele>1745.8916016</ele>
        <time>2010-08-29T12:05:23Z</time>
      </trkpt>
      <trkpt lat="42.10573" lon="9.16274">
        <ele>1743.9689941</ele>
        <time>2010-08-29T12:05:29Z</time>
      </trkpt>
      <trkpt lat="42.10577" lon="9.16276">
        <ele>1742.0463867</ele>
        <time>2010-08-29T12:05:36Z</time>
      </trkpt>
      <trkpt lat="42.10579" lon="9.16278">
        <ele>1741.0849609</ele>
        <time>2010-08-29T12:05:40Z</time>
      </trkpt>
      <trkpt lat="42.10579" lon="9.1628">
        <ele>1740.1237793</ele>
        <time>2010-08-29T12:05:43Z</time>
      </trkpt>
      <trkpt lat="42.10583" lon="9.16283">
        <ele>1738.2009277</ele>
        <time>2010-08-29T12:05:51Z</time>
      </trkpt>
      <trkpt lat="42.10583" lon="9.16284">
        <ele>1737.7202148</ele>
        <time>2010-08-29T12:05:53Z</time>
      </trkpt>
      <trkpt lat="42.10584" lon="9.16287">
        <ele>1737.239502</ele>
        <time>2010-08-29T12:05:58Z</time>
      </trkpt>
      <trkpt lat="42.10584" lon="9.16291">
        <ele>1735.7976074</ele>
        <time>2010-08-29T12:06:03Z</time>
      </trkpt>
      <trkpt lat="42.10583" lon="9.16296">
        <ele>1734.3557129</ele>
        <time>2010-08-29T12:06:09Z</time>
      </trkpt>
      <trkpt lat="42.10584" lon="9.16297">
        <ele>1734.3557129</ele>
        <time>2010-08-29T12:06:17Z</time>
      </trkpt>
      <trkpt lat="42.10585" lon="9.163">
        <ele>1733.3942871</ele>
        <time>2010-08-29T12:06:28Z</time>
      </trkpt>
      <trkpt lat="42.10589" lon="9.16304">
        <ele>1731.4716797</ele>
        <time>2010-08-29T12:06:34Z</time>
      </trkpt>
      <trkpt lat="42.10597" lon="9.16314">
        <ele>1729.5490723</ele>
        <time>2010-08-29T12:06:43Z</time>
      </trkpt>
      <trkpt lat="42.10601" lon="9.16319">
        <ele>1729.0683594</ele>
        <time>2010-08-29T12:06:49Z</time>
      </trkpt>
      <trkpt lat="42.10602" lon="9.16323">
        <ele>1728.1071777</ele>
        <time>2010-08-29T12:06:52Z</time>
      </trkpt>
      <trkpt lat="42.10608" lon="9.16328">
        <ele>1724.2619629</ele>
        <time>2010-08-29T12:07:00Z</time>
      </trkpt>
      <trkpt lat="42.1061" lon="9.16335">
        <ele>1721.8583984</ele>
        <time>2010-08-29T12:07:08Z</time>
      </trkpt>
      <trkpt lat="42.10614" lon="9.16341">
        <ele>1719.935791</ele>
        <time>2010-08-29T12:07:15Z</time>
      </trkpt>
      <trkpt lat="42.10615" lon="9.16344">
        <ele>1718.9746094</ele>
        <time>2010-08-29T12:07:18Z</time>
      </trkpt>
      <trkpt lat="42.10618" lon="9.16349">
        <ele>1717.5324707</ele>
        <time>2010-08-29T12:07:24Z</time>
      </trkpt>
      <trkpt lat="42.1062" lon="9.16351">
        <ele>1716.0905762</ele>
        <time>2010-08-29T12:07:28Z</time>
      </trkpt>
      <trkpt lat="42.10623" lon="9.16351">
        <ele>1716.0905762</ele>
        <time>2010-08-29T12:07:31Z</time>
      </trkpt>
      <trkpt lat="42.10625" lon="9.16349">
        <ele>1716.0905762</ele>
        <time>2010-08-29T12:07:33Z</time>
      </trkpt>
      <trkpt lat="42.10631" lon="9.16347">
        <ele>1716.0905762</ele>
        <time>2010-08-29T12:07:39Z</time>
      </trkpt>
      <trkpt lat="42.10634" lon="9.16352">
        <ele>1716.0905762</ele>
        <time>2010-08-29T12:07:43Z</time>
      </trkpt>
      <trkpt lat="42.10635" lon="9.16365">
        <ele>1714.6486816</ele>
        <time>2010-08-29T12:07:51Z</time>
      </trkpt>
      <trkpt lat="42.10639" lon="9.16366">
        <ele>1714.1679688</ele>
        <time>2010-08-29T12:07:56Z</time>
      </trkpt>
      <trkpt lat="42.10647" lon="9.16361">
        <ele>1714.6486816</ele>
        <time>2010-08-29T12:08:04Z</time>
      </trkpt>
      <trkpt lat="42.10649" lon="9.1636">
        <ele>1714.1679688</ele>
        <time>2010-08-29T12:08:11Z</time>
      </trkpt>
      <trkpt lat="42.10654" lon="9.16359">
        <ele>1714.1679688</ele>
        <time>2010-08-29T12:08:17Z</time>
      </trkpt>
      <trkpt lat="42.10656" lon="9.1636">
        <ele>1714.1679688</ele>
        <time>2010-08-29T12:08:22Z</time>
      </trkpt>
      <trkpt lat="42.10655" lon="9.1636">
        <ele>1712.2453613</ele>
        <time>2010-08-29T12:08:29Z</time>
      </trkpt>
      <trkpt lat="42.10656" lon="9.16353">
        <ele>1710.3227539</ele>
        <time>2010-08-29T12:08:36Z</time>
      </trkpt>
      <trkpt lat="42.1066" lon="9.16347">
        <ele>1707.4387207</ele>
        <time>2010-08-29T12:08:43Z</time>
      </trkpt>
      <trkpt lat="42.10658" lon="9.16349">
        <ele>1706.9580078</ele>
        <time>2010-08-29T12:08:49Z</time>
      </trkpt>
      <trkpt lat="42.10655" lon="9.1635">
        <ele>1707.4387207</ele>
        <time>2010-08-29T12:08:52Z</time>
      </trkpt>
      <trkpt lat="42.1065" lon="9.16352">
        <ele>1707.9194336</ele>
        <time>2010-08-29T12:08:57Z</time>
      </trkpt>
      <trkpt lat="42.10645" lon="9.16356">
        <ele>1709.3615723</ele>
        <time>2010-08-29T12:09:04Z</time>
      </trkpt>
      <trkpt lat="42.10641" lon="9.16364">
        <ele>1709.842041</ele>
        <time>2010-08-29T12:09:11Z</time>
      </trkpt>
      <trkpt lat="42.10637" lon="9.16369">
        <ele>1709.842041</ele>
        <time>2010-08-29T12:09:16Z</time>
      </trkpt>
      <trkpt lat="42.10636" lon="9.16376">
        <ele>1708.8808594</ele>
        <time>2010-08-29T12:09:22Z</time>
      </trkpt>
      <trkpt lat="42.10636" lon="9.16378">
        <ele>1708.8808594</ele>
        <time>2010-08-29T12:09:28Z</time>
      </trkpt>
      <trkpt lat="42.10638" lon="9.16376">
        <ele>1710.3227539</ele>
        <time>2010-08-29T12:09:35Z</time>
      </trkpt>
      <trkpt lat="42.10643" lon="9.16374">
        <ele>1711.7648926</ele>
        <time>2010-08-29T12:09:42Z</time>
      </trkpt>
      <trkpt lat="42.10645" lon="9.16376">
        <ele>1712.2453613</ele>
        <time>2010-08-29T12:09:44Z</time>
      </trkpt>
      <trkpt lat="42.1065" lon="9.1638">
        <ele>1712.7260742</ele>
        <time>2010-08-29T12:09:51Z</time>
      </trkpt>
      <trkpt lat="42.10651" lon="9.16382">
        <ele>1712.7260742</ele>
        <time>2010-08-29T12:09:53Z</time>
      </trkpt>
      <trkpt lat="42.10653" lon="9.16387">
        <ele>1712.7260742</ele>
        <time>2010-08-29T12:09:59Z</time>
      </trkpt>
      <trkpt lat="42.10655" lon="9.16387">
        <ele>1713.2067871</ele>
        <time>2010-08-29T12:10:06Z</time>
      </trkpt>
      <trkpt lat="42.10657" lon="9.16387">
        <ele>1713.6872559</ele>
        <time>2010-08-29T12:10:11Z</time>
      </trkpt>
      <trkpt lat="42.10659" lon="9.16388">
        <ele>1713.6872559</ele>
        <time>2010-08-29T12:10:18Z</time>
      </trkpt>
      <trkpt lat="42.1066" lon="9.16392">
        <ele>1712.2453613</ele>
        <time>2010-08-29T12:10:24Z</time>
      </trkpt>
      <trkpt lat="42.10662" lon="9.16396">
        <ele>1711.2841797</ele>
        <time>2010-08-29T12:10:28Z</time>
      </trkpt>
      <trkpt lat="42.10662" lon="9.164">
        <ele>1710.8034668</ele>
        <time>2010-08-29T12:10:34Z</time>
      </trkpt>
      <trkpt lat="42.10658" lon="9.16401">
        <ele>1708.4001465</ele>
        <time>2010-08-29T12:10:40Z</time>
      </trkpt>
      <trkpt lat="42.10652" lon="9.16404">
        <ele>1705.5161133</ele>
        <time>2010-08-29T12:10:49Z</time>
      </trkpt>
      <trkpt lat="42.10652" lon="9.16407">
        <ele>1703.112793</ele>
        <time>2010-08-29T12:10:54Z</time>
      </trkpt>
      <trkpt lat="42.10653" lon="9.16409">
        <ele>1702.6320801</ele>
        <time>2010-08-29T12:10:56Z</time>
      </trkpt>
      <trkpt lat="42.10653" lon="9.16413">
        <ele>1701.1901855</ele>
        <time>2010-08-29T12:11:02Z</time>
      </trkpt>
      <trkpt lat="42.10648" lon="9.16417">
        <ele>1699.2675781</ele>
        <time>2010-08-29T12:11:10Z</time>
      </trkpt>
      <trkpt lat="42.10648" lon="9.16423">
        <ele>1697.8256836</ele>
        <time>2010-08-29T12:11:17Z</time>
      </trkpt>
      <trkpt lat="42.10647" lon="9.16424">
        <ele>1696.8642578</ele>
        <time>2010-08-29T12:11:20Z</time>
      </trkpt>
      <trkpt lat="42.10646" lon="9.16428">
        <ele>1696.8642578</ele>
        <time>2010-08-29T12:11:25Z</time>
      </trkpt>
      <trkpt lat="42.10647" lon="9.16427">
        <ele>1695.4223633</ele>
        <time>2010-08-29T12:11:34Z</time>
      </trkpt>
      <trkpt lat="42.10647" lon="9.16426">
        <ele>1695.4223633</ele>
        <time>2010-08-29T12:11:39Z</time>
      </trkpt>
      <trkpt lat="42.10647" lon="9.16425">
        <ele>1694.9416504</ele>
        <time>2010-08-29T12:11:49Z</time>
      </trkpt>
      <trkpt lat="42.10644" lon="9.16422">
        <ele>1691.0961914</ele>
        <time>2010-08-29T12:12:23Z</time>
      </trkpt>
      <trkpt lat="42.10646" lon="9.16422">
        <ele>1689.173584</ele>
        <time>2010-08-29T12:12:49Z</time>
      </trkpt>
      <trkpt lat="42.10647" lon="9.16425">
        <ele>1697.3449707</ele>
        <time>2010-08-29T12:14:35Z</time>
      </trkpt>
      <trkpt lat="42.10647" lon="9.16425">
        <ele>1692.0578613</ele>
        <time>2010-08-29T12:14:47Z</time>
      </trkpt>
      <trkpt lat="42.10646" lon="9.16425">
        <ele>1691.5769043</ele>
        <time>2010-08-29T12:14:55Z</time>
      </trkpt>
      <trkpt lat="42.10646" lon="9.16424">
        <ele>1691.0961914</ele>
        <time>2010-08-29T12:15:15Z</time>
      </trkpt>
      <trkpt lat="42.10646" lon="9.16424">
        <ele>1691.0961914</ele>
        <time>2010-08-29T12:15:20Z</time>
      </trkpt>
      <trkpt lat="42.10647" lon="9.16425">
        <ele>1692.0578613</ele>
        <time>2010-08-29T12:15:28Z</time>
      </trkpt>
      <trkpt lat="42.10647" lon="9.16424">
        <ele>1684.3671875</ele>
        <time>2010-08-29T12:16:04Z</time>
      </trkpt>
      <trkpt lat="42.10647" lon="9.16424">
        <ele>1686.2897949</ele>
        <time>2010-08-29T12:16:13Z</time>
      </trkpt>
      <trkpt lat="42.10647" lon="9.16425">
        <ele>1688.6931152</ele>
        <time>2010-08-29T12:16:18Z</time>
      </trkpt>
      <trkpt lat="42.10647" lon="9.16425">
        <ele>1690.1350098</ele>
        <time>2010-08-29T12:16:31Z</time>
      </trkpt>
      <trkpt lat="42.10647" lon="9.16424">
        <ele>1688.6931152</ele>
        <time>2010-08-29T12:16:43Z</time>
      </trkpt>
      <trkpt lat="42.10647" lon="9.16425">
        <ele>1690.6154785</ele>
        <time>2010-08-29T12:16:52Z</time>
      </trkpt>
      <trkpt lat="42.10644" lon="9.16424">
        <ele>1692.5385742</ele>
        <time>2010-08-29T12:17:04Z</time>
      </trkpt>
      <trkpt lat="42.10639" lon="9.16423">
        <ele>1691.0961914</ele>
        <time>2010-08-29T12:17:12Z</time>
      </trkpt>
      <trkpt lat="42.10636" lon="9.16424">
        <ele>1690.1350098</ele>
        <time>2010-08-29T12:17:18Z</time>
      </trkpt>
      <trkpt lat="42.10635" lon="9.16427">
        <ele>1689.173584</ele>
        <time>2010-08-29T12:17:24Z</time>
      </trkpt>
      <trkpt lat="42.10635" lon="9.16431">
        <ele>1688.6931152</ele>
        <time>2010-08-29T12:17:31Z</time>
      </trkpt>
      <trkpt lat="42.10633" lon="9.16433">
        <ele>1687.2509766</ele>
        <time>2010-08-29T12:17:36Z</time>
      </trkpt>
      <trkpt lat="42.10631" lon="9.16432">
        <ele>1686.7702637</ele>
        <time>2010-08-29T12:17:41Z</time>
      </trkpt>
      <trkpt lat="42.1063" lon="9.16432">
        <ele>1686.7702637</ele>
        <time>2010-08-29T12:17:46Z</time>
      </trkpt>
      <trkpt lat="42.10624" lon="9.1643">
        <ele>1685.809082</ele>
        <time>2010-08-29T12:17:52Z</time>
      </trkpt>
      <trkpt lat="42.10623" lon="9.1643">
        <ele>1685.3283691</ele>
        <time>2010-08-29T12:17:57Z</time>
      </trkpt>
      <trkpt lat="42.10623" lon="9.16432">
        <ele>1684.8479004</ele>
        <time>2010-08-29T12:17:59Z</time>
      </trkpt>
      <trkpt lat="42.10618" lon="9.16434">
        <ele>1682.9250488</ele>
        <time>2010-08-29T12:18:05Z</time>
      </trkpt>
      <trkpt lat="42.10616" lon="9.16436">
        <ele>1681.9638672</ele>
        <time>2010-08-29T12:18:09Z</time>
      </trkpt>
      <trkpt lat="42.10615" lon="9.16435">
        <ele>1681.0026855</ele>
        <time>2010-08-29T12:18:15Z</time>
      </trkpt>
      <trkpt lat="42.10609" lon="9.16435">
        <ele>1680.0412598</ele>
        <time>2010-08-29T12:18:21Z</time>
      </trkpt>
      <trkpt lat="42.10603" lon="9.1644">
        <ele>1678.1186523</ele>
        <time>2010-08-29T12:18:29Z</time>
      </trkpt>
      <trkpt lat="42.106" lon="9.16443">
        <ele>1677.1574707</ele>
        <time>2010-08-29T12:18:34Z</time>
      </trkpt>
      <trkpt lat="42.10599" lon="9.16444">
        <ele>1676.1960449</ele>
        <time>2010-08-29T12:18:37Z</time>
      </trkpt>
      <trkpt lat="42.10596" lon="9.16446">
        <ele>1675.234375</ele>
        <time>2010-08-29T12:18:43Z</time>
      </trkpt>
      <trkpt lat="42.10594" lon="9.16447">
        <ele>1676.6767578</ele>
        <time>2010-08-29T12:19:07Z</time>
      </trkpt>
      <trkpt lat="42.10594" lon="9.16446">
        <ele>1676.1960449</ele>
        <time>2010-08-29T12:19:14Z</time>
      </trkpt>
      <trkpt lat="42.10595" lon="9.16446">
        <ele>1674.7539062</ele>
        <time>2010-08-29T12:19:36Z</time>
      </trkpt>
      <trkpt lat="42.10593" lon="9.16447">
        <ele>1674.2731934</ele>
        <time>2010-08-29T12:19:42Z</time>
      </trkpt>
      <trkpt lat="42.1059" lon="9.1645">
        <ele>1672.3505859</ele>
        <time>2010-08-29T12:19:49Z</time>
      </trkpt>
      <trkpt lat="42.10587" lon="9.16453">
        <ele>1670.9086914</ele>
        <time>2010-08-29T12:19:54Z</time>
      </trkpt>
      <trkpt lat="42.10585" lon="9.16454">
        <ele>1670.4279785</ele>
        <time>2010-08-29T12:19:59Z</time>
      </trkpt>
      <trkpt lat="42.10579" lon="9.16455">
        <ele>1668.5053711</ele>
        <time>2010-08-29T12:20:06Z</time>
      </trkpt>
      <trkpt lat="42.1058" lon="9.16458">
        <ele>1667.5439453</ele>
        <time>2010-08-29T12:20:12Z</time>
      </trkpt>
      <trkpt lat="42.10581" lon="9.16458">
        <ele>1667.5439453</ele>
        <time>2010-08-29T12:20:13Z</time>
      </trkpt>
      <trkpt lat="42.10582" lon="9.16464">
        <ele>1665.621582</ele>
        <time>2010-08-29T12:20:19Z</time>
      </trkpt>
      <trkpt lat="42.10582" lon="9.16467">
        <ele>1665.1408691</ele>
        <time>2010-08-29T12:20:24Z</time>
      </trkpt>
      <trkpt lat="42.10578" lon="9.16467">
        <ele>1664.1794434</ele>
        <time>2010-08-29T12:20:30Z</time>
      </trkpt>
      <trkpt lat="42.10579" lon="9.16469">
        <ele>1664.1794434</ele>
        <time>2010-08-29T12:20:36Z</time>
      </trkpt>
      <trkpt lat="42.10579" lon="9.16473">
        <ele>1662.7375488</ele>
        <time>2010-08-29T12:20:42Z</time>
      </trkpt>
      <trkpt lat="42.10577" lon="9.16477">
        <ele>1660.3342285</ele>
        <time>2010-08-29T12:20:49Z</time>
      </trkpt>
      <trkpt lat="42.10576" lon="9.16476">
        <ele>1658.8920898</ele>
        <time>2010-08-29T12:20:59Z</time>
      </trkpt>
      <trkpt lat="42.10576" lon="9.16477">
        <ele>1658.8920898</ele>
        <time>2010-08-29T12:21:05Z</time>
      </trkpt>
      <trkpt lat="42.10576" lon="9.16484">
        <ele>1658.8920898</ele>
        <time>2010-08-29T12:21:11Z</time>
      </trkpt>
      <trkpt lat="42.10576" lon="9.16488">
        <ele>1657.9309082</ele>
        <time>2010-08-29T12:21:16Z</time>
      </trkpt>
      <trkpt lat="42.10576" lon="9.1649">
        <ele>1656.9694824</ele>
        <time>2010-08-29T12:21:21Z</time>
      </trkpt>
      <trkpt lat="42.10576" lon="9.16492">
        <ele>1656.0080566</ele>
        <time>2010-08-29T12:21:25Z</time>
      </trkpt>
      <trkpt lat="42.10577" lon="9.16498">
        <ele>1654.5661621</ele>
        <time>2010-08-29T12:21:31Z</time>
      </trkpt>
      <trkpt lat="42.10575" lon="9.16499">
        <ele>1654.5661621</ele>
        <time>2010-08-29T12:21:39Z</time>
      </trkpt>
      <trkpt lat="42.10573" lon="9.16503">
        <ele>1653.6049805</ele>
        <time>2010-08-29T12:21:44Z</time>
      </trkpt>
      <trkpt lat="42.10573" lon="9.16504">
        <ele>1653.1242676</ele>
        <time>2010-08-29T12:21:47Z</time>
      </trkpt>
      <trkpt lat="42.10571" lon="9.16508">
        <ele>1652.1628418</ele>
        <time>2010-08-29T12:21:54Z</time>
      </trkpt>
      <trkpt lat="42.10569" lon="9.16509">
        <ele>1649.7597656</ele>
        <time>2010-08-29T12:22:00Z</time>
      </trkpt>
      <trkpt lat="42.10565" lon="9.16513">
        <ele>1648.7983398</ele>
        <time>2010-08-29T12:22:07Z</time>
      </trkpt>
      <trkpt lat="42.10565" lon="9.16512">
        <ele>1648.317627</ele>
        <time>2010-08-29T12:22:14Z</time>
      </trkpt>
      <trkpt lat="42.10565" lon="9.16513">
        <ele>1648.317627</ele>
        <time>2010-08-29T12:22:20Z</time>
      </trkpt>
      <trkpt lat="42.10567" lon="9.16513">
        <ele>1647.3564453</ele>
        <time>2010-08-29T12:22:25Z</time>
      </trkpt>
      <trkpt lat="42.10568" lon="9.16516">
        <ele>1646.3952637</ele>
        <time>2010-08-29T12:22:40Z</time>
      </trkpt>
      <trkpt lat="42.10567" lon="9.16515">
        <ele>1644.953125</ele>
        <time>2010-08-29T12:22:57Z</time>
      </trkpt>
      <trkpt lat="42.10567" lon="9.16509">
        <ele>1639.6657715</ele>
        <time>2010-08-29T12:23:21Z</time>
      </trkpt>
      <trkpt lat="42.10567" lon="9.16508">
        <ele>1640.1464844</ele>
        <time>2010-08-29T12:23:25Z</time>
      </trkpt>
      <trkpt lat="42.10569" lon="9.16509">
        <ele>1643.5109863</ele>
        <time>2010-08-29T12:23:29Z</time>
      </trkpt>
      <trkpt lat="42.10572" lon="9.16507">
        <ele>1647.8371582</ele>
        <time>2010-08-29T12:23:36Z</time>
      </trkpt>
      <trkpt lat="42.10573" lon="9.16503">
        <ele>1649.2790527</ele>
        <time>2010-08-29T12:23:41Z</time>
      </trkpt>
      <trkpt lat="42.10573" lon="9.16498">
        <ele>1652.6435547</ele>
        <time>2010-08-29T12:23:48Z</time>
      </trkpt>
      <trkpt lat="42.10572" lon="9.16492">
        <ele>1655.5275879</ele>
        <time>2010-08-29T12:23:56Z</time>
      </trkpt>
      <trkpt lat="42.10574" lon="9.16488">
        <ele>1656.9694824</ele>
        <time>2010-08-29T12:24:03Z</time>
      </trkpt>
      <trkpt lat="42.10575" lon="9.16483">
        <ele>1658.411377</ele>
        <time>2010-08-29T12:24:09Z</time>
      </trkpt>
      <trkpt lat="42.10575" lon="9.16478">
        <ele>1660.3342285</ele>
        <time>2010-08-29T12:24:17Z</time>
      </trkpt>
      <trkpt lat="42.10576" lon="9.16476">
        <ele>1662.2568359</ele>
        <time>2010-08-29T12:24:22Z</time>
      </trkpt>
      <trkpt lat="42.10578" lon="9.16474">
        <ele>1664.1794434</ele>
        <time>2010-08-29T12:24:28Z</time>
      </trkpt>
      <trkpt lat="42.10581" lon="9.16471">
        <ele>1666.1020508</ele>
        <time>2010-08-29T12:24:35Z</time>
      </trkpt>
      <trkpt lat="42.10581" lon="9.16467">
        <ele>1668.0246582</ele>
        <time>2010-08-29T12:24:42Z</time>
      </trkpt>
      <trkpt lat="42.10582" lon="9.16465">
        <ele>1668.5053711</ele>
        <time>2010-08-29T12:24:47Z</time>
      </trkpt>
      <trkpt lat="42.10582" lon="9.16468">
        <ele>1667.5439453</ele>
        <time>2010-08-29T12:24:54Z</time>
      </trkpt>
      <trkpt lat="42.10579" lon="9.16473">
        <ele>1665.621582</ele>
        <time>2010-08-29T12:25:01Z</time>
      </trkpt>
      <trkpt lat="42.10577" lon="9.16475">
        <ele>1664.1794434</ele>
        <time>2010-08-29T12:25:04Z</time>
      </trkpt>
      <trkpt lat="42.10575" lon="9.16479">
        <ele>1663.2182617</ele>
        <time>2010-08-29T12:25:09Z</time>
      </trkpt>
      <trkpt lat="42.10578" lon="9.16485">
        <ele>1661.7763672</ele>
        <time>2010-08-29T12:25:16Z</time>
      </trkpt>
      <trkpt lat="42.10579" lon="9.16489">
        <ele>1660.3342285</ele>
        <time>2010-08-29T12:25:19Z</time>
      </trkpt>
      <trkpt lat="42.10583" lon="9.16492">
        <ele>1659.8532715</ele>
        <time>2010-08-29T12:25:23Z</time>
      </trkpt>
      <trkpt lat="42.10586" lon="9.16496">
        <ele>1657.9309082</ele>
        <time>2010-08-29T12:25:29Z</time>
      </trkpt>
      <trkpt lat="42.10587" lon="9.16503">
        <ele>1656.0080566</ele>
        <time>2010-08-29T12:25:36Z</time>
      </trkpt>
      <trkpt lat="42.10588" lon="9.16507">
        <ele>1654.5661621</ele>
        <time>2010-08-29T12:25:41Z</time>
      </trkpt>
      <trkpt lat="42.10588" lon="9.16511">
        <ele>1652.6435547</ele>
        <time>2010-08-29T12:25:46Z</time>
      </trkpt>
      <trkpt lat="42.10589" lon="9.16513">
        <ele>1651.2016602</ele>
        <time>2010-08-29T12:25:52Z</time>
      </trkpt>
      <trkpt lat="42.10589" lon="9.16517">
        <ele>1649.7597656</ele>
        <time>2010-08-29T12:25:57Z</time>
      </trkpt>
      <trkpt lat="42.10589" lon="9.1652">
        <ele>1647.8371582</ele>
        <time>2010-08-29T12:26:03Z</time>
      </trkpt>
      <trkpt lat="42.10588" lon="9.16524">
        <ele>1646.3952637</ele>
        <time>2010-08-29T12:26:09Z</time>
      </trkpt>
      <trkpt lat="42.10588" lon="9.16528">
        <ele>1644.953125</ele>
        <time>2010-08-29T12:26:16Z</time>
      </trkpt>
      <trkpt lat="42.10587" lon="9.16532">
        <ele>1643.9916992</ele>
        <time>2010-08-29T12:26:22Z</time>
      </trkpt>
      <trkpt lat="42.10588" lon="9.16535">
        <ele>1642.5498047</ele>
        <time>2010-08-29T12:26:30Z</time>
      </trkpt>
      <trkpt lat="42.1059" lon="9.16536">
        <ele>1642.0690918</ele>
        <time>2010-08-29T12:26:35Z</time>
      </trkpt>
      <trkpt lat="42.10589" lon="9.16538">
        <ele>1641.107666</ele>
        <time>2010-08-29T12:26:41Z</time>
      </trkpt>
      <trkpt lat="42.10592" lon="9.1654">
        <ele>1640.6269531</ele>
        <time>2010-08-29T12:26:47Z</time>
      </trkpt>
      <trkpt lat="42.10594" lon="9.16541">
        <ele>1639.1850586</ele>
        <time>2010-08-29T12:26:53Z</time>
      </trkpt>
      <trkpt lat="42.10589" lon="9.16547">
        <ele>1636.3012695</ele>
        <time>2010-08-29T12:27:01Z</time>
      </trkpt>
      <trkpt lat="42.10585" lon="9.16551">
        <ele>1634.3786621</ele>
        <time>2010-08-29T12:27:08Z</time>
      </trkpt>
      <trkpt lat="42.10584" lon="9.16553">
        <ele>1633.4172363</ele>
        <time>2010-08-29T12:27:14Z</time>
      </trkpt>
      <trkpt lat="42.10582" lon="9.16558">
        <ele>1631.9753418</ele>
        <time>2010-08-29T12:27:20Z</time>
      </trkpt>
      <trkpt lat="42.10582" lon="9.16559">
        <ele>1630.5334473</ele>
        <time>2010-08-29T12:27:26Z</time>
      </trkpt>
      <trkpt lat="42.10579" lon="9.1656">
        <ele>1629.5720215</ele>
        <time>2010-08-29T12:27:35Z</time>
      </trkpt>
      <trkpt lat="42.10577" lon="9.16562">
        <ele>1629.0913086</ele>
        <time>2010-08-29T12:27:38Z</time>
      </trkpt>
      <trkpt lat="42.10577" lon="9.16564">
        <ele>1628.6108398</ele>
        <time>2010-08-29T12:27:40Z</time>
      </trkpt>
      <trkpt lat="42.10575" lon="9.16572">
        <ele>1626.2072754</ele>
        <time>2010-08-29T12:27:47Z</time>
      </trkpt>
      <trkpt lat="42.10568" lon="9.16577">
        <ele>1624.7653809</ele>
        <time>2010-08-29T12:27:54Z</time>
      </trkpt>
      <trkpt lat="42.10565" lon="9.16578">
        <ele>1622.8427734</ele>
        <time>2010-08-29T12:28:00Z</time>
      </trkpt>
      <trkpt lat="42.10564" lon="9.1658">
        <ele>1621.8813477</ele>
        <time>2010-08-29T12:28:03Z</time>
      </trkpt>
      <trkpt lat="42.1056" lon="9.16592">
        <ele>1621.8813477</ele>
        <time>2010-08-29T12:28:11Z</time>
      </trkpt>
      <trkpt lat="42.10558" lon="9.16597">
        <ele>1621.8813477</ele>
        <time>2010-08-29T12:28:18Z</time>
      </trkpt>
      <trkpt lat="42.10556" lon="9.16604">
        <ele>1620.920166</ele>
        <time>2010-08-29T12:28:24Z</time>
      </trkpt>
      <trkpt lat="42.10555" lon="9.16608">
        <ele>1619.9587402</ele>
        <time>2010-08-29T12:28:29Z</time>
      </trkpt>
      <trkpt lat="42.10556" lon="9.16608">
        <ele>1619.9587402</ele>
        <time>2010-08-29T12:28:30Z</time>
      </trkpt>
      <trkpt lat="42.1056" lon="9.16609">
        <ele>1617.5554199</ele>
        <time>2010-08-29T12:28:37Z</time>
      </trkpt>
      <trkpt lat="42.10561" lon="9.16608">
        <ele>1616.5942383</ele>
        <time>2010-08-29T12:28:43Z</time>
      </trkpt>
      <trkpt lat="42.10561" lon="9.16612">
        <ele>1614.6716309</ele>
        <time>2010-08-29T12:28:48Z</time>
      </trkpt>
      <trkpt lat="42.10563" lon="9.16614">
        <ele>1612.7490234</ele>
        <time>2010-08-29T12:28:55Z</time>
      </trkpt>
      <trkpt lat="42.10563" lon="9.16618">
        <ele>1611.7875977</ele>
        <time>2010-08-29T12:29:01Z</time>
      </trkpt>
      <trkpt lat="42.10563" lon="9.16621">
        <ele>1610.345459</ele>
        <time>2010-08-29T12:29:05Z</time>
      </trkpt>
      <trkpt lat="42.10564" lon="9.16623">
        <ele>1609.8647461</ele>
        <time>2010-08-29T12:29:10Z</time>
      </trkpt>
      <trkpt lat="42.10565" lon="9.16622">
        <ele>1609.3842773</ele>
        <time>2010-08-29T12:29:17Z</time>
      </trkpt>
      <trkpt lat="42.10567" lon="9.1662">
        <ele>1609.8647461</ele>
        <time>2010-08-29T12:29:23Z</time>
      </trkpt>
      <trkpt lat="42.10568" lon="9.1662">
        <ele>1609.8647461</ele>
        <time>2010-08-29T12:29:24Z</time>
      </trkpt>
      <trkpt lat="42.10569" lon="9.1662">
        <ele>1609.8647461</ele>
        <time>2010-08-29T12:29:26Z</time>
      </trkpt>
      <trkpt lat="42.10572" lon="9.16617">
        <ele>1609.3842773</ele>
        <time>2010-08-29T12:29:34Z</time>
      </trkpt>
      <trkpt lat="42.1057" lon="9.1662">
        <ele>1608.4228516</ele>
        <time>2010-08-29T12:29:39Z</time>
      </trkpt>
      <trkpt lat="42.10565" lon="9.16624">
        <ele>1608.9035645</ele>
        <time>2010-08-29T12:29:46Z</time>
      </trkpt>
      <trkpt lat="42.1056" lon="9.1663">
        <ele>1609.8647461</ele>
        <time>2010-08-29T12:29:53Z</time>
      </trkpt>
      <trkpt lat="42.1056" lon="9.16633">
        <ele>1609.8647461</ele>
        <time>2010-08-29T12:29:59Z</time>
      </trkpt>
      <trkpt lat="42.10559" lon="9.16634">
        <ele>1610.345459</ele>
        <time>2010-08-29T12:30:00Z</time>
      </trkpt>
      <trkpt lat="42.10555" lon="9.16641">
        <ele>1609.3842773</ele>
        <time>2010-08-29T12:30:08Z</time>
      </trkpt>
      <trkpt lat="42.10552" lon="9.16649">
        <ele>1609.8647461</ele>
        <time>2010-08-29T12:30:15Z</time>
      </trkpt>
      <trkpt lat="42.10546" lon="9.16658">
        <ele>1610.345459</ele>
        <time>2010-08-29T12:30:24Z</time>
      </trkpt>
      <trkpt lat="42.10543" lon="9.16661">
        <ele>1608.4228516</ele>
        <time>2010-08-29T12:30:32Z</time>
      </trkpt>
      <trkpt lat="42.1054" lon="9.16663">
        <ele>1606.980957</ele>
        <time>2010-08-29T12:30:37Z</time>
      </trkpt>
      <trkpt lat="42.10537" lon="9.16671">
        <ele>1606.980957</ele>
        <time>2010-08-29T12:30:44Z</time>
      </trkpt>
      <trkpt lat="42.10533" lon="9.1668">
        <ele>1606.0195312</ele>
        <time>2010-08-29T12:30:53Z</time>
      </trkpt>
      <trkpt lat="42.10529" lon="9.16686">
        <ele>1606.980957</ele>
        <time>2010-08-29T12:31:01Z</time>
      </trkpt>
      <trkpt lat="42.10527" lon="9.16693">
        <ele>1605.5390625</ele>
        <time>2010-08-29T12:31:08Z</time>
      </trkpt>
      <trkpt lat="42.10527" lon="9.167">
        <ele>1607.4616699</ele>
        <time>2010-08-29T12:31:15Z</time>
      </trkpt>
      <trkpt lat="42.10524" lon="9.16711">
        <ele>1606.5002441</ele>
        <time>2010-08-29T12:31:24Z</time>
      </trkpt>
      <trkpt lat="42.10522" lon="9.16716">
        <ele>1602.6550293</ele>
        <time>2010-08-29T12:31:30Z</time>
      </trkpt>
      <trkpt lat="42.10519" lon="9.16723">
        <ele>1601.6938477</ele>
        <time>2010-08-29T12:31:36Z</time>
      </trkpt>
      <trkpt lat="42.10516" lon="9.1673">
        <ele>1599.7712402</ele>
        <time>2010-08-29T12:31:43Z</time>
      </trkpt>
      <trkpt lat="42.10513" lon="9.16734">
        <ele>1598.3291016</ele>
        <time>2010-08-29T12:31:49Z</time>
      </trkpt>
      <trkpt lat="42.10512" lon="9.16739">
        <ele>1596.887207</ele>
        <time>2010-08-29T12:31:56Z</time>
      </trkpt>
      <trkpt lat="42.1051" lon="9.16747">
        <ele>1595.4450684</ele>
        <time>2010-08-29T12:32:03Z</time>
      </trkpt>
      <trkpt lat="42.10508" lon="9.16751">
        <ele>1594.4836426</ele>
        <time>2010-08-29T12:32:08Z</time>
      </trkpt>
      <trkpt lat="42.10506" lon="9.16757">
        <ele>1593.041748</ele>
        <time>2010-08-29T12:32:14Z</time>
      </trkpt>
      <trkpt lat="42.10505" lon="9.16759">
        <ele>1593.041748</ele>
        <time>2010-08-29T12:32:19Z</time>
      </trkpt>
      <trkpt lat="42.10503" lon="9.16762">
        <ele>1592.5612793</ele>
        <time>2010-08-29T12:32:25Z</time>
      </trkpt>
      <trkpt lat="42.10502" lon="9.16768">
        <ele>1592.0805664</ele>
        <time>2010-08-29T12:32:31Z</time>
      </trkpt>
      <trkpt lat="42.10502" lon="9.16773">
        <ele>1592.0805664</ele>
        <time>2010-08-29T12:32:36Z</time>
      </trkpt>
      <trkpt lat="42.10498" lon="9.16777">
        <ele>1592.0805664</ele>
        <time>2010-08-29T12:32:41Z</time>
      </trkpt>
      <trkpt lat="42.10496" lon="9.16782">
        <ele>1592.0805664</ele>
        <time>2010-08-29T12:32:45Z</time>
      </trkpt>
      <trkpt lat="42.10496" lon="9.16787">
        <ele>1590.6384277</ele>
        <time>2010-08-29T12:32:51Z</time>
      </trkpt>
      <trkpt lat="42.10495" lon="9.16791">
        <ele>1589.6772461</ele>
        <time>2010-08-29T12:32:59Z</time>
      </trkpt>
      <trkpt lat="42.10493" lon="9.16795">
        <ele>1590.157959</ele>
        <time>2010-08-29T12:33:03Z</time>
      </trkpt>
      <trkpt lat="42.10491" lon="9.16805">
        <ele>1591.1191406</ele>
        <time>2010-08-29T12:33:11Z</time>
      </trkpt>
      <trkpt lat="42.10489" lon="9.16819">
        <ele>1589.6772461</ele>
        <time>2010-08-29T12:33:20Z</time>
      </trkpt>
      <trkpt lat="42.10485" lon="9.16827">
        <ele>1587.2739258</ele>
        <time>2010-08-29T12:33:28Z</time>
      </trkpt>
      <trkpt lat="42.10484" lon="9.1683">
        <ele>1585.8320312</ele>
        <time>2010-08-29T12:33:34Z</time>
      </trkpt>
      <trkpt lat="42.10477" lon="9.16841">
        <ele>1584.3901367</ele>
        <time>2010-08-29T12:33:43Z</time>
      </trkpt>
      <trkpt lat="42.10471" lon="9.16847">
        <ele>1584.8708496</ele>
        <time>2010-08-29T12:33:50Z</time>
      </trkpt>
      <trkpt lat="42.1047" lon="9.16851">
        <ele>1586.7932129</ele>
        <time>2010-08-29T12:33:55Z</time>
      </trkpt>
      <trkpt lat="42.10469" lon="9.16857">
        <ele>1588.7160645</ele>
        <time>2010-08-29T12:34:01Z</time>
      </trkpt>
      <trkpt lat="42.10465" lon="9.16861">
        <ele>1589.1965332</ele>
        <time>2010-08-29T12:34:07Z</time>
      </trkpt>
      <trkpt lat="42.10461" lon="9.16873">
        <ele>1590.6384277</ele>
        <time>2010-08-29T12:34:16Z</time>
      </trkpt>
      <trkpt lat="42.10458" lon="9.16883">
        <ele>1590.6384277</ele>
        <time>2010-08-29T12:34:23Z</time>
      </trkpt>
      <trkpt lat="42.10456" lon="9.16886">
        <ele>1590.6384277</ele>
        <time>2010-08-29T12:34:27Z</time>
      </trkpt>
      <trkpt lat="42.10453" lon="9.16892">
        <ele>1589.6772461</ele>
        <time>2010-08-29T12:34:34Z</time>
      </trkpt>
      <trkpt lat="42.10451" lon="9.16898">
        <ele>1589.6772461</ele>
        <time>2010-08-29T12:34:41Z</time>
      </trkpt>
      <trkpt lat="42.10451" lon="9.16899">
        <ele>1589.6772461</ele>
        <time>2010-08-29T12:34:42Z</time>
      </trkpt>
      <trkpt lat="42.10449" lon="9.16903">
        <ele>1589.6772461</ele>
        <time>2010-08-29T12:34:45Z</time>
      </trkpt>
      <trkpt lat="42.10447" lon="9.16912">
        <ele>1588.7160645</ele>
        <time>2010-08-29T12:34:53Z</time>
      </trkpt>
      <trkpt lat="42.10446" lon="9.16917">
        <ele>1587.7546387</ele>
        <time>2010-08-29T12:34:58Z</time>
      </trkpt>
      <trkpt lat="42.10445" lon="9.16919">
        <ele>1588.2353516</ele>
        <time>2010-08-29T12:35:02Z</time>
      </trkpt>
      <trkpt lat="42.10441" lon="9.1693">
        <ele>1589.6772461</ele>
        <time>2010-08-29T12:35:11Z</time>
      </trkpt>
      <trkpt lat="42.10437" lon="9.16934">
        <ele>1589.6772461</ele>
        <time>2010-08-29T12:35:17Z</time>
      </trkpt>
      <trkpt lat="42.10431" lon="9.16938">
        <ele>1588.7160645</ele>
        <time>2010-08-29T12:35:24Z</time>
      </trkpt>
      <trkpt lat="42.10426" lon="9.16941">
        <ele>1586.3127441</ele>
        <time>2010-08-29T12:35:30Z</time>
      </trkpt>
      <trkpt lat="42.10424" lon="9.16942">
        <ele>1586.7932129</ele>
        <time>2010-08-29T12:35:32Z</time>
      </trkpt>
      <trkpt lat="42.10421" lon="9.16949">
        <ele>1585.8320312</ele>
        <time>2010-08-29T12:35:39Z</time>
      </trkpt>
      <trkpt lat="42.10416" lon="9.16958">
        <ele>1582.4675293</ele>
        <time>2010-08-29T12:35:46Z</time>
      </trkpt>
      <trkpt lat="42.10412" lon="9.16967">
        <ele>1579.1025391</ele>
        <time>2010-08-29T12:35:53Z</time>
      </trkpt>
      <trkpt lat="42.1041" lon="9.1697">
        <ele>1577.6606445</ele>
        <time>2010-08-29T12:35:59Z</time>
      </trkpt>
      <trkpt lat="42.10406" lon="9.16979">
        <ele>1578.6220703</ele>
        <time>2010-08-29T12:36:07Z</time>
      </trkpt>
      <trkpt lat="42.10404" lon="9.16982">
        <ele>1578.1413574</ele>
        <time>2010-08-29T12:36:12Z</time>
      </trkpt>
      <trkpt lat="42.104" lon="9.16976">
        <ele>1578.1413574</ele>
        <time>2010-08-29T12:36:19Z</time>
      </trkpt>
      <trkpt lat="42.10403" lon="9.1698">
        <ele>1577.6606445</ele>
        <time>2010-08-29T12:36:25Z</time>
      </trkpt>
      <trkpt lat="42.10401" lon="9.16983">
        <ele>1577.1801758</ele>
        <time>2010-08-29T12:36:30Z</time>
      </trkpt>
      <trkpt lat="42.10398" lon="9.16992">
        <ele>1575.2573242</ele>
        <time>2010-08-29T12:36:37Z</time>
      </trkpt>
      <trkpt lat="42.10397" lon="9.16994">
        <ele>1575.2573242</ele>
        <time>2010-08-29T12:36:39Z</time>
      </trkpt>
      <trkpt lat="42.10393" lon="9.17004">
        <ele>1573.3349609</ele>
        <time>2010-08-29T12:36:47Z</time>
      </trkpt>
      <trkpt lat="42.10392" lon="9.17007">
        <ele>1571.8928223</ele>
        <time>2010-08-29T12:36:52Z</time>
      </trkpt>
      <trkpt lat="42.10389" lon="9.1701">
        <ele>1571.8928223</ele>
        <time>2010-08-29T12:36:55Z</time>
      </trkpt>
      <trkpt lat="42.10387" lon="9.17013">
        <ele>1572.3735352</ele>
        <time>2010-08-29T12:36:58Z</time>
      </trkpt>
      <trkpt lat="42.1038" lon="9.17016">
        <ele>1571.4121094</ele>
        <time>2010-08-29T12:37:05Z</time>
      </trkpt>
      <trkpt lat="42.10376" lon="9.17021">
        <ele>1572.854248</ele>
        <time>2010-08-29T12:37:12Z</time>
      </trkpt>
      <trkpt lat="42.10374" lon="9.17027">
        <ele>1571.8928223</ele>
        <time>2010-08-29T12:37:19Z</time>
      </trkpt>
      <trkpt lat="42.10368" lon="9.17031">
        <ele>1570.4509277</ele>
        <time>2010-08-29T12:37:26Z</time>
      </trkpt>
      <trkpt lat="42.10361" lon="9.1703">
        <ele>1568.0476074</ele>
        <time>2010-08-29T12:37:33Z</time>
      </trkpt>
      <trkpt lat="42.10359" lon="9.17034">
        <ele>1569.0090332</ele>
        <time>2010-08-29T12:37:39Z</time>
      </trkpt>
      <trkpt lat="42.10357" lon="9.17038">
        <ele>1568.5283203</ele>
        <time>2010-08-29T12:37:46Z</time>
      </trkpt>
      <trkpt lat="42.10355" lon="9.17042">
        <ele>1568.0476074</ele>
        <time>2010-08-29T12:37:53Z</time>
      </trkpt>
      <trkpt lat="42.10354" lon="9.17044">
        <ele>1563.7214355</ele>
        <time>2010-08-29T12:38:05Z</time>
      </trkpt>
      <trkpt lat="42.10352" lon="9.17046">
        <ele>1562.7602539</ele>
        <time>2010-08-29T12:38:16Z</time>
      </trkpt>
      <trkpt lat="42.10351" lon="9.17049">
        <ele>1564.2023926</ele>
        <time>2010-08-29T12:38:23Z</time>
      </trkpt>
      <trkpt lat="42.1035" lon="9.17055">
        <ele>1562.7602539</ele>
        <time>2010-08-29T12:38:29Z</time>
      </trkpt>
      <trkpt lat="42.1035" lon="9.17056">
        <ele>1561.7990723</ele>
        <time>2010-08-29T12:38:31Z</time>
      </trkpt>
      <trkpt lat="42.10353" lon="9.17064">
        <ele>1558.9150391</ele>
        <time>2010-08-29T12:38:39Z</time>
      </trkpt>
      <trkpt lat="42.10354" lon="9.17065">
        <ele>1557.4731445</ele>
        <time>2010-08-29T12:38:44Z</time>
      </trkpt>
      <trkpt lat="42.10354" lon="9.17066">
        <ele>1556.9924316</ele>
        <time>2010-08-29T12:38:45Z</time>
      </trkpt>
      <trkpt lat="42.10356" lon="9.17072">
        <ele>1555.5505371</ele>
        <time>2010-08-29T12:38:52Z</time>
      </trkpt>
      <trkpt lat="42.10356" lon="9.17074">
        <ele>1555.0698242</ele>
        <time>2010-08-29T12:38:59Z</time>
      </trkpt>
      <trkpt lat="42.10347" lon="9.17077">
        <ele>1552.6665039</ele>
        <time>2010-08-29T12:39:08Z</time>
      </trkpt>
      <trkpt lat="42.1034" lon="9.17082">
        <ele>1550.7438965</ele>
        <time>2010-08-29T12:39:15Z</time>
      </trkpt>
      <trkpt lat="42.10338" lon="9.17084">
        <ele>1549.7827148</ele>
        <time>2010-08-29T12:39:20Z</time>
      </trkpt>
      <trkpt lat="42.10336" lon="9.17086">
        <ele>1548.8212891</ele>
        <time>2010-08-29T12:39:26Z</time>
      </trkpt>
      <trkpt lat="42.10332" lon="9.17094">
        <ele>1547.3791504</ele>
        <time>2010-08-29T12:39:34Z</time>
      </trkpt>
      <trkpt lat="42.1033" lon="9.17095">
        <ele>1547.3791504</ele>
        <time>2010-08-29T12:39:37Z</time>
      </trkpt>
      <trkpt lat="42.10325" lon="9.17098">
        <ele>1546.4179688</ele>
        <time>2010-08-29T12:39:42Z</time>
      </trkpt>
      <trkpt lat="42.1032" lon="9.17105">
        <ele>1543.5339355</ele>
        <time>2010-08-29T12:39:50Z</time>
      </trkpt>
      <trkpt lat="42.10318" lon="9.17113">
        <ele>1541.6113281</ele>
        <time>2010-08-29T12:39:56Z</time>
      </trkpt>
      <trkpt lat="42.10314" lon="9.17123">
        <ele>1540.1694336</ele>
        <time>2010-08-29T12:40:03Z</time>
      </trkpt>
      <trkpt lat="42.10314" lon="9.17133">
        <ele>1540.1694336</ele>
        <time>2010-08-29T12:40:10Z</time>
      </trkpt>
      <trkpt lat="42.10313" lon="9.17138">
        <ele>1539.2080078</ele>
        <time>2010-08-29T12:40:15Z</time>
      </trkpt>
      <trkpt lat="42.10312" lon="9.17142">
        <ele>1539.2080078</ele>
        <time>2010-08-29T12:40:18Z</time>
      </trkpt>
      <trkpt lat="42.1031" lon="9.17154">
        <ele>1538.7275391</ele>
        <time>2010-08-29T12:40:26Z</time>
      </trkpt>
      <trkpt lat="42.10306" lon="9.17161">
        <ele>1538.7275391</ele>
        <time>2010-08-29T12:40:32Z</time>
      </trkpt>
      <trkpt lat="42.10303" lon="9.17169">
        <ele>1538.2468262</ele>
        <time>2010-08-29T12:40:37Z</time>
      </trkpt>
      <trkpt lat="42.103" lon="9.17172">
        <ele>1538.2468262</ele>
        <time>2010-08-29T12:40:40Z</time>
      </trkpt>
      <trkpt lat="42.10295" lon="9.17179">
        <ele>1536.8046875</ele>
        <time>2010-08-29T12:40:47Z</time>
      </trkpt>
      <trkpt lat="42.10292" lon="9.17187">
        <ele>1535.362793</ele>
        <time>2010-08-29T12:40:53Z</time>
      </trkpt>
      <trkpt lat="42.10288" lon="9.17199">
        <ele>1532.9594727</ele>
        <time>2010-08-29T12:41:01Z</time>
      </trkpt>
      <trkpt lat="42.10287" lon="9.17201">
        <ele>1532.9594727</ele>
        <time>2010-08-29T12:41:03Z</time>
      </trkpt>
      <trkpt lat="42.10283" lon="9.17213">
        <ele>1531.517334</ele>
        <time>2010-08-29T12:41:11Z</time>
      </trkpt>
      <trkpt lat="42.10281" lon="9.17224">
        <ele>1528.6335449</ele>
        <time>2010-08-29T12:41:19Z</time>
      </trkpt>
      <trkpt lat="42.10279" lon="9.17233">
        <ele>1525.2687988</ele>
        <time>2010-08-29T12:41:25Z</time>
      </trkpt>
      <trkpt lat="42.10271" lon="9.17238">
        <ele>1523.3464355</ele>
        <time>2010-08-29T12:41:32Z</time>
      </trkpt>
      <trkpt lat="42.10264" lon="9.17235">
        <ele>1521.423584</ele>
        <time>2010-08-29T12:41:38Z</time>
      </trkpt>
      <trkpt lat="42.10263" lon="9.17228">
        <ele>1520.9431152</ele>
        <time>2010-08-29T12:41:46Z</time>
      </trkpt>
      <trkpt lat="42.10264" lon="9.17237">
        <ele>1521.423584</ele>
        <time>2010-08-29T12:41:51Z</time>
      </trkpt>
      <trkpt lat="42.10272" lon="9.17247">
        <ele>1520.9431152</ele>
        <time>2010-08-29T12:41:59Z</time>
      </trkpt>
      <trkpt lat="42.10274" lon="9.17249">
        <ele>1520.4624023</ele>
        <time>2010-08-29T12:42:01Z</time>
      </trkpt>
      <trkpt lat="42.10282" lon="9.17246">
        <ele>1519.9816895</ele>
        <time>2010-08-29T12:42:08Z</time>
      </trkpt>
      <trkpt lat="42.10282" lon="9.17245">
        <ele>1518.5397949</ele>
        <time>2010-08-29T12:42:16Z</time>
      </trkpt>
      <trkpt lat="42.10287" lon="9.17243">
        <ele>1518.059082</ele>
        <time>2010-08-29T12:42:21Z</time>
      </trkpt>
      <trkpt lat="42.10288" lon="9.17242">
        <ele>1517.5783691</ele>
        <time>2010-08-29T12:42:34Z</time>
      </trkpt>
      <trkpt lat="42.10292" lon="9.17239">
        <ele>1518.059082</ele>
        <time>2010-08-29T12:42:38Z</time>
      </trkpt>
      <trkpt lat="42.10299" lon="9.1723">
        <ele>1518.059082</ele>
        <time>2010-08-29T12:42:47Z</time>
      </trkpt>
      <trkpt lat="42.10303" lon="9.17222">
        <ele>1519.0205078</ele>
        <time>2010-08-29T12:42:53Z</time>
      </trkpt>
      <trkpt lat="42.10308" lon="9.17215">
        <ele>1520.9431152</ele>
        <time>2010-08-29T12:43:00Z</time>
      </trkpt>
      <trkpt lat="42.10313" lon="9.17208">
        <ele>1522.3850098</ele>
        <time>2010-08-29T12:43:06Z</time>
      </trkpt>
      <trkpt lat="42.10319" lon="9.17203">
        <ele>1527.6721191</ele>
        <time>2010-08-29T12:43:14Z</time>
      </trkpt>
      <trkpt lat="42.10329" lon="9.17195">
        <ele>1529.5947266</ele>
        <time>2010-08-29T12:43:23Z</time>
      </trkpt>
      <trkpt lat="42.10339" lon="9.17185">
        <ele>1531.0368652</ele>
        <time>2010-08-29T12:43:32Z</time>
      </trkpt>
      <trkpt lat="42.1035" lon="9.17176">
        <ele>1532.9594727</ele>
        <time>2010-08-29T12:43:41Z</time>
      </trkpt>
      <trkpt lat="42.10359" lon="9.17166">
        <ele>1535.362793</ele>
        <time>2010-08-29T12:43:50Z</time>
      </trkpt>
      <trkpt lat="42.10367" lon="9.17161">
        <ele>1541.1306152</ele>
        <time>2010-08-29T12:43:58Z</time>
      </trkpt>
      <trkpt lat="42.10378" lon="9.17156">
        <ele>1548.3405762</ele>
        <time>2010-08-29T12:44:08Z</time>
      </trkpt>
      <trkpt lat="42.10383" lon="9.17151">
        <ele>1551.2246094</ele>
        <time>2010-08-29T12:44:15Z</time>
      </trkpt>
      <trkpt lat="42.1039" lon="9.17146">
        <ele>1554.5891113</ele>
        <time>2010-08-29T12:44:22Z</time>
      </trkpt>
      <trkpt lat="42.10399" lon="9.1714">
        <ele>1554.1086426</ele>
        <time>2010-08-29T12:44:29Z</time>
      </trkpt>
      <trkpt lat="42.10404" lon="9.17133">
        <ele>1555.0698242</ele>
        <time>2010-08-29T12:44:33Z</time>
      </trkpt>
      <trkpt lat="42.10417" lon="9.17121">
        <ele>1546.4179688</ele>
        <time>2010-08-29T12:44:41Z</time>
      </trkpt>
      <trkpt lat="42.10426" lon="9.17114">
        <ele>1547.3791504</ele>
        <time>2010-08-29T12:44:48Z</time>
      </trkpt>
      <trkpt lat="42.10436" lon="9.17104">
        <ele>1544.0146484</ele>
        <time>2010-08-29T12:44:55Z</time>
      </trkpt>
      <trkpt lat="42.10442" lon="9.17096">
        <ele>1545.456543</ele>
        <time>2010-08-29T12:45:01Z</time>
      </trkpt>
      <trkpt lat="42.10451" lon="9.17083">
        <ele>1543.0532227</ele>
        <time>2010-08-29T12:45:08Z</time>
      </trkpt>
      <trkpt lat="42.10462" lon="9.17074">
        <ele>1543.5339355</ele>
        <time>2010-08-29T12:45:17Z</time>
      </trkpt>
      <trkpt lat="42.10468" lon="9.17068">
        <ele>1545.9372559</ele>
        <time>2010-08-29T12:45:24Z</time>
      </trkpt>
      <trkpt lat="42.10475" lon="9.1706">
        <ele>1549.302002</ele>
        <time>2010-08-29T12:45:31Z</time>
      </trkpt>
      <trkpt lat="42.10482" lon="9.17052">
        <ele>1545.9372559</ele>
        <time>2010-08-29T12:45:37Z</time>
      </trkpt>
      <trkpt lat="42.1049" lon="9.17042">
        <ele>1543.5339355</ele>
        <time>2010-08-29T12:45:43Z</time>
      </trkpt>
      <trkpt lat="42.10498" lon="9.17029">
        <ele>1538.2468262</ele>
        <time>2010-08-29T12:45:50Z</time>
      </trkpt>
      <trkpt lat="42.10506" lon="9.17015">
        <ele>1536.8046875</ele>
        <time>2010-08-29T12:45:59Z</time>
      </trkpt>
      <trkpt lat="42.10512" lon="9.17006">
        <ele>1532.9594727</ele>
        <time>2010-08-29T12:46:05Z</time>
      </trkpt>
      <trkpt lat="42.10518" lon="9.16998">
        <ele>1530.0754395</ele>
        <time>2010-08-29T12:46:11Z</time>
      </trkpt>
      <trkpt lat="42.10522" lon="9.16985">
        <ele>1522.3850098</ele>
        <time>2010-08-29T12:46:18Z</time>
      </trkpt>
      <trkpt lat="42.10527" lon="9.16978">
        <ele>1522.3850098</ele>
        <time>2010-08-29T12:46:23Z</time>
      </trkpt>
      <trkpt lat="42.10532" lon="9.16968">
        <ele>1521.9042969</ele>
        <time>2010-08-29T12:46:29Z</time>
      </trkpt>
      <trkpt lat="42.10536" lon="9.16959">
        <ele>1525.2687988</ele>
        <time>2010-08-29T12:46:34Z</time>
      </trkpt>
      <trkpt lat="42.10539" lon="9.16955">
        <ele>1525.7495117</ele>
        <time>2010-08-29T12:46:36Z</time>
      </trkpt>
      <trkpt lat="42.10545" lon="9.1694">
        <ele>1523.3464355</ele>
        <time>2010-08-29T12:46:44Z</time>
      </trkpt>
      <trkpt lat="42.10552" lon="9.16929">
        <ele>1522.8657227</ele>
        <time>2010-08-29T12:46:51Z</time>
      </trkpt>
      <trkpt lat="42.10563" lon="9.16919">
        <ele>1523.8269043</ele>
        <time>2010-08-29T12:46:58Z</time>
      </trkpt>
      <trkpt lat="42.10568" lon="9.16912">
        <ele>1522.3850098</ele>
        <time>2010-08-29T12:47:03Z</time>
      </trkpt>
      <trkpt lat="42.10575" lon="9.16903">
        <ele>1518.059082</ele>
        <time>2010-08-29T12:47:08Z</time>
      </trkpt>
      <trkpt lat="42.10578" lon="9.1689">
        <ele>1519.5012207</ele>
        <time>2010-08-29T12:47:16Z</time>
      </trkpt>
      <trkpt lat="42.10579" lon="9.16881">
        <ele>1520.9431152</ele>
        <time>2010-08-29T12:47:21Z</time>
      </trkpt>
      <trkpt lat="42.10579" lon="9.16878">
        <ele>1521.423584</ele>
        <time>2010-08-29T12:47:23Z</time>
      </trkpt>
      <trkpt lat="42.10583" lon="9.16863">
        <ele>1523.8269043</ele>
        <time>2010-08-29T12:47:31Z</time>
      </trkpt>
      <trkpt lat="42.10589" lon="9.1685">
        <ele>1524.3076172</ele>
        <time>2010-08-29T12:47:38Z</time>
      </trkpt>
      <trkpt lat="42.10594" lon="9.16841">
        <ele>1525.7495117</ele>
        <time>2010-08-29T12:47:44Z</time>
      </trkpt>
      <trkpt lat="42.10598" lon="9.16832">
        <ele>1529.1140137</ele>
        <time>2010-08-29T12:47:51Z</time>
      </trkpt>
      <trkpt lat="42.106" lon="9.16829">
        <ele>1528.6335449</ele>
        <time>2010-08-29T12:47:58Z</time>
      </trkpt>
      <trkpt lat="42.10605" lon="9.16823">
        <ele>1526.7109375</ele>
        <time>2010-08-29T12:48:05Z</time>
      </trkpt>
      <trkpt lat="42.10607" lon="9.1682">
        <ele>1522.3850098</ele>
        <time>2010-08-29T12:48:11Z</time>
      </trkpt>
      <trkpt lat="42.10604" lon="9.16817">
        <ele>1518.059082</ele>
        <time>2010-08-29T12:48:21Z</time>
      </trkpt>
      <trkpt lat="42.10604" lon="9.16815">
        <ele>1517.0979004</ele>
        <time>2010-08-29T12:48:31Z</time>
      </trkpt>
      <trkpt lat="42.10604" lon="9.16814">
        <ele>1517.0979004</ele>
        <time>2010-08-29T12:48:40Z</time>
      </trkpt>
      <trkpt lat="42.10605" lon="9.16818">
        <ele>1520.4624023</ele>
        <time>2010-08-29T12:48:49Z</time>
      </trkpt>
      <trkpt lat="42.10608" lon="9.16819">
        <ele>1521.9042969</ele>
        <time>2010-08-29T12:49:05Z</time>
      </trkpt>
      <trkpt lat="42.10604" lon="9.16818">
        <ele>1519.0205078</ele>
        <time>2010-08-29T12:49:30Z</time>
      </trkpt>
      <trkpt lat="42.10607" lon="9.16822">
        <ele>1522.3850098</ele>
        <time>2010-08-29T12:49:41Z</time>
      </trkpt>
      <trkpt lat="42.10612" lon="9.16826">
        <ele>1525.7495117</ele>
        <time>2010-08-29T12:49:49Z</time>
      </trkpt>
      <trkpt lat="42.10614" lon="9.16827">
        <ele>1527.6721191</ele>
        <time>2010-08-29T12:50:02Z</time>
      </trkpt>
      <trkpt lat="42.10616" lon="9.16829">
        <ele>1531.0368652</ele>
        <time>2010-08-29T12:50:10Z</time>
      </trkpt>
      <trkpt lat="42.1061" lon="9.16822">
        <ele>1521.9042969</ele>
        <time>2010-08-29T12:50:27Z</time>
      </trkpt>
      <trkpt lat="42.10611" lon="9.16823">
        <ele>1521.9042969</ele>
        <time>2010-08-29T12:50:37Z</time>
      </trkpt>
      <trkpt lat="42.10607" lon="9.16824">
        <ele>1510.8491211</ele>
        <time>2010-08-29T12:50:48Z</time>
      </trkpt>
      <trkpt lat="42.10603" lon="9.16817">
        <ele>1511.8105469</ele>
        <time>2010-08-29T12:51:05Z</time>
      </trkpt>
      <trkpt lat="42.10605" lon="9.16813">
        <ele>1508.9265137</ele>
        <time>2010-08-29T12:51:11Z</time>
      </trkpt>
      <trkpt lat="42.10608" lon="9.16812">
        <ele>1513.2524414</ele>
        <time>2010-08-29T12:51:17Z</time>
      </trkpt>
      <trkpt lat="42.10636" lon="9.1679">
        <ele>1541.6113281</ele>
        <time>2010-08-29T12:51:46Z</time>
      </trkpt>
      <trkpt lat="42.10614" lon="9.16809">
        <ele>1544.9758301</ele>
        <time>2010-08-29T12:52:22Z</time>
      </trkpt>
      <trkpt lat="42.10609" lon="9.16817">
        <ele>1529.5947266</ele>
        <time>2010-08-29T12:52:29Z</time>
      </trkpt>
      <trkpt lat="42.10607" lon="9.16821">
        <ele>1522.8657227</ele>
        <time>2010-08-29T12:52:40Z</time>
      </trkpt>
      <trkpt lat="42.10602" lon="9.16823">
        <ele>1522.8657227</ele>
        <time>2010-08-29T12:52:47Z</time>
      </trkpt>
      <trkpt lat="42.106" lon="9.16824">
        <ele>1523.8269043</ele>
        <time>2010-08-29T12:52:53Z</time>
      </trkpt>
      <trkpt lat="42.10611" lon="9.16824">
        <ele>1524.7883301</ele>
        <time>2010-08-29T12:53:20Z</time>
      </trkpt>
      <trkpt lat="42.10616" lon="9.16824">
        <ele>1526.2302246</ele>
        <time>2010-08-29T12:53:41Z</time>
      </trkpt>
      <trkpt lat="42.10611" lon="9.16824">
        <ele>1525.7495117</ele>
        <time>2010-08-29T12:53:57Z</time>
      </trkpt>
      <trkpt lat="42.1061" lon="9.16823">
        <ele>1524.3076172</ele>
        <time>2010-08-29T12:54:10Z</time>
      </trkpt>
      <trkpt lat="42.10612" lon="9.16818">
        <ele>1526.2302246</ele>
        <time>2010-08-29T12:54:18Z</time>
      </trkpt>
      <trkpt lat="42.10613" lon="9.16816">
        <ele>1525.7495117</ele>
        <time>2010-08-29T12:54:19Z</time>
      </trkpt>
      <trkpt lat="42.10615" lon="9.16811">
        <ele>1526.7109375</ele>
        <time>2010-08-29T12:54:23Z</time>
      </trkpt>
      <trkpt lat="42.10616" lon="9.16799">
        <ele>1523.8269043</ele>
        <time>2010-08-29T12:54:30Z</time>
      </trkpt>
      <trkpt lat="42.10617" lon="9.16792">
        <ele>1526.7109375</ele>
        <time>2010-08-29T12:54:36Z</time>
      </trkpt>
      <trkpt lat="42.10623" lon="9.16785">
        <ele>1535.362793</ele>
        <time>2010-08-29T12:54:44Z</time>
      </trkpt>
      <trkpt lat="42.10624" lon="9.16781">
        <ele>1544.9758301</ele>
        <time>2010-08-29T12:54:51Z</time>
      </trkpt>
      <trkpt lat="42.10625" lon="9.16779">
        <ele>1546.4179688</ele>
        <time>2010-08-29T12:54:56Z</time>
      </trkpt>
      <trkpt lat="42.10626" lon="9.16771">
        <ele>1548.8212891</ele>
        <time>2010-08-29T12:55:05Z</time>
      </trkpt>
      <trkpt lat="42.1063" lon="9.16764">
        <ele>1541.1306152</ele>
        <time>2010-08-29T12:55:17Z</time>
      </trkpt>
      <trkpt lat="42.10639" lon="9.16762">
        <ele>1544.0146484</ele>
        <time>2010-08-29T12:55:24Z</time>
      </trkpt>
      <trkpt lat="42.1065" lon="9.16759">
        <ele>1535.362793</ele>
        <time>2010-08-29T12:55:32Z</time>
      </trkpt>
      <trkpt lat="42.10654" lon="9.1676">
        <ele>1528.6335449</ele>
        <time>2010-08-29T12:55:38Z</time>
      </trkpt>
      <trkpt lat="42.10664" lon="9.16755">
        <ele>1528.152832</ele>
        <time>2010-08-29T12:55:45Z</time>
      </trkpt>
      <trkpt lat="42.10665" lon="9.16755">
        <ele>1528.152832</ele>
        <time>2010-08-29T12:55:46Z</time>
      </trkpt>
      <trkpt lat="42.10672" lon="9.16751">
        <ele>1528.6335449</ele>
        <time>2010-08-29T12:55:53Z</time>
      </trkpt>
      <trkpt lat="42.10679" lon="9.16752">
        <ele>1531.517334</ele>
        <time>2010-08-29T12:56:00Z</time>
      </trkpt>
      <trkpt lat="42.1068" lon="9.16752">
        <ele>1531.9980469</ele>
        <time>2010-08-29T12:56:01Z</time>
      </trkpt>
      <trkpt lat="42.10684" lon="9.16754">
        <ele>1533.4401855</ele>
        <time>2010-08-29T12:56:04Z</time>
      </trkpt>
      <trkpt lat="42.10692" lon="9.16753">
        <ele>1535.8435059</ele>
        <time>2010-08-29T12:56:12Z</time>
      </trkpt>
      <trkpt lat="42.10697" lon="9.16754">
        <ele>1537.7661133</ele>
        <time>2010-08-29T12:56:17Z</time>
      </trkpt>
      <trkpt lat="42.10705" lon="9.16756">
        <ele>1538.2468262</ele>
        <time>2010-08-29T12:56:23Z</time>
      </trkpt>
      <trkpt lat="42.10709" lon="9.16753">
        <ele>1537.2854004</ele>
        <time>2010-08-29T12:56:29Z</time>
      </trkpt>
      <trkpt lat="42.10713" lon="9.16747">
        <ele>1537.2854004</ele>
        <time>2010-08-29T12:56:36Z</time>
      </trkpt>
      <trkpt lat="42.10714" lon="9.16743">
        <ele>1539.2080078</ele>
        <time>2010-08-29T12:56:42Z</time>
      </trkpt>
      <trkpt lat="42.10715" lon="9.16743">
        <ele>1540.6499023</ele>
        <time>2010-08-29T12:56:44Z</time>
      </trkpt>
      <trkpt lat="42.10723" lon="9.16739">
        <ele>1540.1694336</ele>
        <time>2010-08-29T12:56:52Z</time>
      </trkpt>
      <trkpt lat="42.10727" lon="9.16735">
        <ele>1541.6113281</ele>
        <time>2010-08-29T12:56:57Z</time>
      </trkpt>
      <trkpt lat="42.1073" lon="9.16731">
        <ele>1544.0146484</ele>
        <time>2010-08-29T12:57:03Z</time>
      </trkpt>
      <trkpt lat="42.10736" lon="9.16727">
        <ele>1546.8984375</ele>
        <time>2010-08-29T12:57:10Z</time>
      </trkpt>
      <trkpt lat="42.10742" lon="9.16723">
        <ele>1548.8212891</ele>
        <time>2010-08-29T12:57:16Z</time>
      </trkpt>
      <trkpt lat="42.10748" lon="9.16724">
        <ele>1554.1086426</ele>
        <time>2010-08-29T12:57:22Z</time>
      </trkpt>
      <trkpt lat="42.10751" lon="9.16726">
        <ele>1561.3183594</ele>
        <time>2010-08-29T12:57:27Z</time>
      </trkpt>
      <trkpt lat="42.10752" lon="9.16726">
        <ele>1567.5668945</ele>
        <time>2010-08-29T12:57:30Z</time>
      </trkpt>
      <trkpt lat="42.10762" lon="9.16728">
        <ele>1569.0090332</ele>
        <time>2010-08-29T12:57:38Z</time>
      </trkpt>
      <trkpt lat="42.10766" lon="9.16728">
        <ele>1569.0090332</ele>
        <time>2010-08-29T12:57:43Z</time>
      </trkpt>
      <trkpt lat="42.10774" lon="9.1673">
        <ele>1569.0090332</ele>
        <time>2010-08-29T12:57:50Z</time>
      </trkpt>
      <trkpt lat="42.10775" lon="9.1673">
        <ele>1569.0090332</ele>
        <time>2010-08-29T12:57:51Z</time>
      </trkpt>
      <trkpt lat="42.10787" lon="9.16735">
        <ele>1563.7214355</ele>
        <time>2010-08-29T12:57:59Z</time>
      </trkpt>
      <trkpt lat="42.10798" lon="9.16738">
        <ele>1561.7990723</ele>
        <time>2010-08-29T12:58:08Z</time>
      </trkpt>
      <trkpt lat="42.10802" lon="9.16738">
        <ele>1561.3183594</ele>
        <time>2010-08-29T12:58:14Z</time>
      </trkpt>
      <trkpt lat="42.10807" lon="9.16742">
        <ele>1563.7214355</ele>
        <time>2010-08-29T12:58:21Z</time>
      </trkpt>
      <trkpt lat="42.10813" lon="9.16746">
        <ele>1563.2409668</ele>
        <time>2010-08-29T12:58:27Z</time>
      </trkpt>
      <trkpt lat="42.10819" lon="9.1675">
        <ele>1558.9150391</ele>
        <time>2010-08-29T12:58:34Z</time>
      </trkpt>
      <trkpt lat="42.10825" lon="9.16754">
        <ele>1555.0698242</ele>
        <time>2010-08-29T12:58:38Z</time>
      </trkpt>
      <trkpt lat="42.10832" lon="9.16759">
        <ele>1551.7053223</ele>
        <time>2010-08-29T12:58:43Z</time>
      </trkpt>
      <trkpt lat="42.10844" lon="9.16762">
        <ele>1552.185791</ele>
        <time>2010-08-29T12:58:53Z</time>
      </trkpt>
      <trkpt lat="42.10848" lon="9.16763">
        <ele>1553.6279297</ele>
        <time>2010-08-29T12:58:57Z</time>
      </trkpt>
      <trkpt lat="42.10856" lon="9.1677">
        <ele>1555.0698242</ele>
        <time>2010-08-29T12:59:05Z</time>
      </trkpt>
      <trkpt lat="42.10858" lon="9.16771">
        <ele>1555.5505371</ele>
        <time>2010-08-29T12:59:07Z</time>
      </trkpt>
      <trkpt lat="42.1086" lon="9.16772">
        <ele>1555.5505371</ele>
        <time>2010-08-29T12:59:09Z</time>
      </trkpt>
      <trkpt lat="42.10866" lon="9.1678">
        <ele>1558.9150391</ele>
        <time>2010-08-29T12:59:16Z</time>
      </trkpt>
      <trkpt lat="42.10873" lon="9.16785">
        <ele>1562.279541</ele>
        <time>2010-08-29T12:59:22Z</time>
      </trkpt>
      <trkpt lat="42.1088" lon="9.16789">
        <ele>1564.6831055</ele>
        <time>2010-08-29T12:59:29Z</time>
      </trkpt>
      <trkpt lat="42.10888" lon="9.16794">
        <ele>1563.2409668</ele>
        <time>2010-08-29T12:59:37Z</time>
      </trkpt>
      <trkpt lat="42.10893" lon="9.16799">
        <ele>1562.279541</ele>
        <time>2010-08-29T12:59:43Z</time>
      </trkpt>
      <trkpt lat="42.109" lon="9.16806">
        <ele>1561.3183594</ele>
        <time>2010-08-29T12:59:50Z</time>
      </trkpt>
      <trkpt lat="42.10905" lon="9.16811">
        <ele>1560.3569336</ele>
        <time>2010-08-29T12:59:54Z</time>
      </trkpt>
      <trkpt lat="42.10914" lon="9.16818">
        <ele>1559.395752</ele>
        <time>2010-08-29T13:00:01Z</time>
      </trkpt>
      <trkpt lat="42.10919" lon="9.16811">
        <ele>1557.9538574</ele>
        <time>2010-08-29T13:00:07Z</time>
      </trkpt>
      <trkpt lat="42.10923" lon="9.168">
        <ele>1558.4343262</ele>
        <time>2010-08-29T13:00:15Z</time>
      </trkpt>
      <trkpt lat="42.10927" lon="9.16788">
        <ele>1558.4343262</ele>
        <time>2010-08-29T13:00:22Z</time>
      </trkpt>
      <trkpt lat="42.10929" lon="9.16773">
        <ele>1558.4343262</ele>
        <time>2010-08-29T13:00:30Z</time>
      </trkpt>
      <trkpt lat="42.1093" lon="9.16762">
        <ele>1558.4343262</ele>
        <time>2010-08-29T13:00:36Z</time>
      </trkpt>
      <trkpt lat="42.10933" lon="9.16745">
        <ele>1560.8376465</ele>
        <time>2010-08-29T13:00:46Z</time>
      </trkpt>
      <trkpt lat="42.10934" lon="9.16734">
        <ele>1561.7990723</ele>
        <time>2010-08-29T13:00:52Z</time>
      </trkpt>
      <trkpt lat="42.10933" lon="9.16722">
        <ele>1565.6445312</ele>
        <time>2010-08-29T13:00:59Z</time>
      </trkpt>
      <trkpt lat="42.10937" lon="9.16713">
        <ele>1565.1638184</ele>
        <time>2010-08-29T13:01:03Z</time>
      </trkpt>
      <trkpt lat="42.10936" lon="9.16708">
        <ele>1567.0864258</ele>
        <time>2010-08-29T13:01:06Z</time>
      </trkpt>
      <trkpt lat="42.10939" lon="9.16698">
        <ele>1566.6057129</ele>
        <time>2010-08-29T13:01:10Z</time>
      </trkpt>
      <trkpt lat="42.10934" lon="9.16683">
        <ele>1563.2409668</ele>
        <time>2010-08-29T13:01:18Z</time>
      </trkpt>
      <trkpt lat="42.10932" lon="9.16669">
        <ele>1561.7990723</ele>
        <time>2010-08-29T13:01:26Z</time>
      </trkpt>
      <trkpt lat="42.10933" lon="9.16661">
        <ele>1563.7214355</ele>
        <time>2010-08-29T13:01:32Z</time>
      </trkpt>
      <trkpt lat="42.10932" lon="9.16659">
        <ele>1563.7214355</ele>
        <time>2010-08-29T13:01:33Z</time>
      </trkpt>
      <trkpt lat="42.10932" lon="9.16646">
        <ele>1563.2409668</ele>
        <time>2010-08-29T13:01:39Z</time>
      </trkpt>
      <trkpt lat="42.10927" lon="9.16633">
        <ele>1564.2023926</ele>
        <time>2010-08-29T13:01:47Z</time>
      </trkpt>
      <trkpt lat="42.10927" lon="9.16628">
        <ele>1563.7214355</ele>
        <time>2010-08-29T13:01:49Z</time>
      </trkpt>
      <trkpt lat="42.10924" lon="9.16614">
        <ele>1563.2409668</ele>
        <time>2010-08-29T13:01:56Z</time>
      </trkpt>
      <trkpt lat="42.10924" lon="9.16604">
        <ele>1561.7990723</ele>
        <time>2010-08-29T13:02:00Z</time>
      </trkpt>
      <trkpt lat="42.1092" lon="9.16599">
        <ele>1561.3183594</ele>
        <time>2010-08-29T13:02:03Z</time>
      </trkpt>
      <trkpt lat="42.10915" lon="9.1659">
        <ele>1561.7990723</ele>
        <time>2010-08-29T13:02:09Z</time>
      </trkpt>
      <trkpt lat="42.10915" lon="9.16576">
        <ele>1558.9150391</ele>
        <time>2010-08-29T13:02:16Z</time>
      </trkpt>
      <trkpt lat="42.10912" lon="9.16565">
        <ele>1557.4731445</ele>
        <time>2010-08-29T13:02:23Z</time>
      </trkpt>
      <trkpt lat="42.1091" lon="9.16556">
        <ele>1555.0698242</ele>
        <time>2010-08-29T13:02:28Z</time>
      </trkpt>
      <trkpt lat="42.10907" lon="9.16548">
        <ele>1556.0310059</ele>
        <time>2010-08-29T13:02:34Z</time>
      </trkpt>
      <trkpt lat="42.10905" lon="9.16533">
        <ele>1555.5505371</ele>
        <time>2010-08-29T13:02:42Z</time>
      </trkpt>
      <trkpt lat="42.10906" lon="9.16526">
        <ele>1555.0698242</ele>
        <time>2010-08-29T13:02:45Z</time>
      </trkpt>
      <trkpt lat="42.10905" lon="9.16518">
        <ele>1555.0698242</ele>
        <time>2010-08-29T13:02:49Z</time>
      </trkpt>
      <trkpt lat="42.10901" lon="9.16503">
        <ele>1556.9924316</ele>
        <time>2010-08-29T13:02:58Z</time>
      </trkpt>
      <trkpt lat="42.10901" lon="9.16501">
        <ele>1557.4731445</ele>
        <time>2010-08-29T13:02:59Z</time>
      </trkpt>
      <trkpt lat="42.109" lon="9.16489">
        <ele>1557.9538574</ele>
        <time>2010-08-29T13:03:06Z</time>
      </trkpt>
      <trkpt lat="42.10899" lon="9.16487">
        <ele>1558.4343262</ele>
        <time>2010-08-29T13:03:07Z</time>
      </trkpt>
      <trkpt lat="42.10899" lon="9.16482">
        <ele>1558.9150391</ele>
        <time>2010-08-29T13:03:10Z</time>
      </trkpt>
      <trkpt lat="42.10896" lon="9.16469">
        <ele>1556.9924316</ele>
        <time>2010-08-29T13:03:17Z</time>
      </trkpt>
      <trkpt lat="42.10893" lon="9.16459">
        <ele>1556.9924316</ele>
        <time>2010-08-29T13:03:23Z</time>
      </trkpt>
      <trkpt lat="42.10893" lon="9.16456">
        <ele>1556.5117188</ele>
        <time>2010-08-29T13:03:25Z</time>
      </trkpt>
      <trkpt lat="42.10893" lon="9.16444">
        <ele>1557.4731445</ele>
        <time>2010-08-29T13:03:33Z</time>
      </trkpt>
      <trkpt lat="42.1089" lon="9.16435">
        <ele>1557.4731445</ele>
        <time>2010-08-29T13:03:40Z</time>
      </trkpt>
      <trkpt lat="42.10888" lon="9.16427">
        <ele>1556.5117188</ele>
        <time>2010-08-29T13:03:45Z</time>
      </trkpt>
      <trkpt lat="42.10885" lon="9.16417">
        <ele>1556.5117188</ele>
        <time>2010-08-29T13:03:51Z</time>
      </trkpt>
      <trkpt lat="42.10884" lon="9.16406">
        <ele>1556.5117188</ele>
        <time>2010-08-29T13:03:58Z</time>
      </trkpt>
      <trkpt lat="42.10882" lon="9.16399">
        <ele>1556.9924316</ele>
        <time>2010-08-29T13:04:04Z</time>
      </trkpt>
      <trkpt lat="42.10881" lon="9.1639">
        <ele>1557.4731445</ele>
        <time>2010-08-29T13:04:11Z</time>
      </trkpt>
      <trkpt lat="42.10878" lon="9.16378">
        <ele>1557.9538574</ele>
        <time>2010-08-29T13:04:19Z</time>
      </trkpt>
      <trkpt lat="42.10877" lon="9.16366">
        <ele>1559.395752</ele>
        <time>2010-08-29T13:04:27Z</time>
      </trkpt>
      <trkpt lat="42.10876" lon="9.16359">
        <ele>1560.8376465</ele>
        <time>2010-08-29T13:04:33Z</time>
      </trkpt>
      <trkpt lat="42.10876" lon="9.16349">
        <ele>1561.7990723</ele>
        <time>2010-08-29T13:04:40Z</time>
      </trkpt>
      <trkpt lat="42.10875" lon="9.16336">
        <ele>1561.3183594</ele>
        <time>2010-08-29T13:04:48Z</time>
      </trkpt>
      <trkpt lat="42.10875" lon="9.16332">
        <ele>1560.8376465</ele>
        <time>2010-08-29T13:04:50Z</time>
      </trkpt>
      <trkpt lat="42.10874" lon="9.16329">
        <ele>1560.8376465</ele>
        <time>2010-08-29T13:04:52Z</time>
      </trkpt>
      <trkpt lat="42.10872" lon="9.16314">
        <ele>1560.3569336</ele>
        <time>2010-08-29T13:05:02Z</time>
      </trkpt>
      <trkpt lat="42.10868" lon="9.16305">
        <ele>1561.3183594</ele>
        <time>2010-08-29T13:05:09Z</time>
      </trkpt>
      <trkpt lat="42.10864" lon="9.16297">
        <ele>1560.8376465</ele>
        <time>2010-08-29T13:05:15Z</time>
      </trkpt>
      <trkpt lat="42.1086" lon="9.16287">
        <ele>1561.7990723</ele>
        <time>2010-08-29T13:05:22Z</time>
      </trkpt>
      <trkpt lat="42.10854" lon="9.16278">
        <ele>1560.3569336</ele>
        <time>2010-08-29T13:05:29Z</time>
      </trkpt>
      <trkpt lat="42.10849" lon="9.16268">
        <ele>1562.279541</ele>
        <time>2010-08-29T13:05:36Z</time>
      </trkpt>
      <trkpt lat="42.10844" lon="9.16259">
        <ele>1562.279541</ele>
        <time>2010-08-29T13:05:43Z</time>
      </trkpt>
      <trkpt lat="42.10842" lon="9.16246">
        <ele>1560.8376465</ele>
        <time>2010-08-29T13:05:50Z</time>
      </trkpt>
      <trkpt lat="42.1084" lon="9.16237">
        <ele>1559.8762207</ele>
        <time>2010-08-29T13:05:55Z</time>
      </trkpt>
      <trkpt lat="42.10841" lon="9.16226">
        <ele>1561.3183594</ele>
        <time>2010-08-29T13:06:02Z</time>
      </trkpt>
      <trkpt lat="42.10844" lon="9.16212">
        <ele>1562.7602539</ele>
        <time>2010-08-29T13:06:10Z</time>
      </trkpt>
      <trkpt lat="42.10844" lon="9.162">
        <ele>1564.2023926</ele>
        <time>2010-08-29T13:06:18Z</time>
      </trkpt>
      <trkpt lat="42.10844" lon="9.16191">
        <ele>1564.6831055</ele>
        <time>2010-08-29T13:06:24Z</time>
      </trkpt>
      <trkpt lat="42.10844" lon="9.16184">
        <ele>1562.279541</ele>
        <time>2010-08-29T13:06:30Z</time>
      </trkpt>
      <trkpt lat="42.10843" lon="9.16175">
        <ele>1561.7990723</ele>
        <time>2010-08-29T13:06:35Z</time>
      </trkpt>
      <trkpt lat="42.10844" lon="9.16165">
        <ele>1560.3569336</ele>
        <time>2010-08-29T13:06:41Z</time>
      </trkpt>
      <trkpt lat="42.10845" lon="9.16164">
        <ele>1560.8376465</ele>
        <time>2010-08-29T13:06:42Z</time>
      </trkpt>
      <trkpt lat="42.10846" lon="9.16161">
        <ele>1560.8376465</ele>
        <time>2010-08-29T13:06:44Z</time>
      </trkpt>
      <trkpt lat="42.10844" lon="9.16148">
        <ele>1559.8762207</ele>
        <time>2010-08-29T13:06:52Z</time>
      </trkpt>
      <trkpt lat="42.10843" lon="9.16136">
        <ele>1559.8762207</ele>
        <time>2010-08-29T13:06:59Z</time>
      </trkpt>
      <trkpt lat="42.10843" lon="9.16124">
        <ele>1560.8376465</ele>
        <time>2010-08-29T13:07:06Z</time>
      </trkpt>
      <trkpt lat="42.10843" lon="9.16111">
        <ele>1561.3183594</ele>
        <time>2010-08-29T13:07:13Z</time>
      </trkpt>
      <trkpt lat="42.10841" lon="9.16099">
        <ele>1561.7990723</ele>
        <time>2010-08-29T13:07:20Z</time>
      </trkpt>
      <trkpt lat="42.1084" lon="9.16086">
        <ele>1562.7602539</ele>
        <time>2010-08-29T13:07:27Z</time>
      </trkpt>
      <trkpt lat="42.1084" lon="9.16073">
        <ele>1565.6445312</ele>
        <time>2010-08-29T13:07:35Z</time>
      </trkpt>
      <trkpt lat="42.10842" lon="9.16056">
        <ele>1565.6445312</ele>
        <time>2010-08-29T13:07:44Z</time>
      </trkpt>
      <trkpt lat="42.10841" lon="9.16049">
        <ele>1565.1638184</ele>
        <time>2010-08-29T13:07:49Z</time>
      </trkpt>
      <trkpt lat="42.10841" lon="9.16037">
        <ele>1565.1638184</ele>
        <time>2010-08-29T13:07:55Z</time>
      </trkpt>
      <trkpt lat="42.10843" lon="9.16026">
        <ele>1564.6831055</ele>
        <time>2010-08-29T13:08:02Z</time>
      </trkpt>
      <trkpt lat="42.10845" lon="9.1601">
        <ele>1564.2023926</ele>
        <time>2010-08-29T13:08:10Z</time>
      </trkpt>
      <trkpt lat="42.10845" lon="9.16">
        <ele>1564.6831055</ele>
        <time>2010-08-29T13:08:17Z</time>
      </trkpt>
      <trkpt lat="42.10844" lon="9.15988">
        <ele>1561.3183594</ele>
        <time>2010-08-29T13:08:25Z</time>
      </trkpt>
      <trkpt lat="42.10845" lon="9.1598">
        <ele>1563.2409668</ele>
        <time>2010-08-29T13:08:31Z</time>
      </trkpt>
      <trkpt lat="42.10846" lon="9.15976">
        <ele>1564.6831055</ele>
        <time>2010-08-29T13:08:33Z</time>
      </trkpt>
      <trkpt lat="42.10844" lon="9.15966">
        <ele>1561.7990723</ele>
        <time>2010-08-29T13:08:40Z</time>
      </trkpt>
      <trkpt lat="42.10846" lon="9.15956">
        <ele>1564.6831055</ele>
        <time>2010-08-29T13:08:46Z</time>
      </trkpt>
      <trkpt lat="42.10844" lon="9.15959">
        <ele>1567.5668945</ele>
        <time>2010-08-29T13:08:54Z</time>
      </trkpt>
      <trkpt lat="42.10846" lon="9.15956">
        <ele>1567.5668945</ele>
        <time>2010-08-29T13:08:56Z</time>
      </trkpt>
      <trkpt lat="42.10849" lon="9.1594">
        <ele>1569.0090332</ele>
        <time>2010-08-29T13:09:05Z</time>
      </trkpt>
      <trkpt lat="42.10849" lon="9.15924">
        <ele>1560.3569336</ele>
        <time>2010-08-29T13:09:12Z</time>
      </trkpt>
      <trkpt lat="42.10853" lon="9.15907">
        <ele>1559.395752</ele>
        <time>2010-08-29T13:09:19Z</time>
      </trkpt>
      <trkpt lat="42.10852" lon="9.15894">
        <ele>1560.3569336</ele>
        <time>2010-08-29T13:09:26Z</time>
      </trkpt>
      <trkpt lat="42.10853" lon="9.15891">
        <ele>1560.8376465</ele>
        <time>2010-08-29T13:09:29Z</time>
      </trkpt>
      <trkpt lat="42.1086" lon="9.15885">
        <ele>1562.279541</ele>
        <time>2010-08-29T13:09:36Z</time>
      </trkpt>
      <trkpt lat="42.10865" lon="9.15875">
        <ele>1561.7990723</ele>
        <time>2010-08-29T13:09:43Z</time>
      </trkpt>
      <trkpt lat="42.10868" lon="9.15862">
        <ele>1562.7602539</ele>
        <time>2010-08-29T13:09:50Z</time>
      </trkpt>
      <trkpt lat="42.10866" lon="9.15851">
        <ele>1562.279541</ele>
        <time>2010-08-29T13:09:56Z</time>
      </trkpt>
      <trkpt lat="42.10863" lon="9.15835">
        <ele>1560.8376465</ele>
        <time>2010-08-29T13:10:04Z</time>
      </trkpt>
      <trkpt lat="42.10863" lon="9.15825">
        <ele>1560.8376465</ele>
        <time>2010-08-29T13:10:10Z</time>
      </trkpt>
      <trkpt lat="42.10862" lon="9.15819">
        <ele>1561.3183594</ele>
        <time>2010-08-29T13:10:13Z</time>
      </trkpt>
      <trkpt lat="42.10864" lon="9.1581">
        <ele>1563.2409668</ele>
        <time>2010-08-29T13:10:21Z</time>
      </trkpt>
      <trkpt lat="42.10864" lon="9.15809">
        <ele>1563.7214355</ele>
        <time>2010-08-29T13:10:22Z</time>
      </trkpt>
      <trkpt lat="42.10868" lon="9.15808">
        <ele>1564.6831055</ele>
        <time>2010-08-29T13:10:26Z</time>
      </trkpt>
      <trkpt lat="42.10872" lon="9.15808">
        <ele>1563.2409668</ele>
        <time>2010-08-29T13:10:31Z</time>
      </trkpt>
      <trkpt lat="42.10874" lon="9.15806">
        <ele>1562.279541</ele>
        <time>2010-08-29T13:10:34Z</time>
      </trkpt>
      <trkpt lat="42.10884" lon="9.15803">
        <ele>1560.8376465</ele>
        <time>2010-08-29T13:10:42Z</time>
      </trkpt>
      <trkpt lat="42.10895" lon="9.15797">
        <ele>1559.395752</ele>
        <time>2010-08-29T13:10:51Z</time>
      </trkpt>
      <trkpt lat="42.109" lon="9.15784">
        <ele>1559.8762207</ele>
        <time>2010-08-29T13:11:00Z</time>
      </trkpt>
      <trkpt lat="42.10905" lon="9.15773">
        <ele>1561.7990723</ele>
        <time>2010-08-29T13:11:08Z</time>
      </trkpt>
      <trkpt lat="42.10909" lon="9.15762">
        <ele>1563.7214355</ele>
        <time>2010-08-29T13:11:16Z</time>
      </trkpt>
      <trkpt lat="42.10914" lon="9.15754">
        <ele>1565.1638184</ele>
        <time>2010-08-29T13:11:23Z</time>
      </trkpt>
      <trkpt lat="42.10915" lon="9.15752">
        <ele>1565.6445312</ele>
        <time>2010-08-29T13:11:24Z</time>
      </trkpt>
      <trkpt lat="42.10917" lon="9.15743">
        <ele>1567.0864258</ele>
        <time>2010-08-29T13:11:31Z</time>
      </trkpt>
      <trkpt lat="42.10917" lon="9.15742">
        <ele>1567.5668945</ele>
        <time>2010-08-29T13:11:32Z</time>
      </trkpt>
      <trkpt lat="42.10924" lon="9.15734">
        <ele>1568.5283203</ele>
        <time>2010-08-29T13:11:42Z</time>
      </trkpt>
      <trkpt lat="42.10925" lon="9.15728">
        <ele>1569.0090332</ele>
        <time>2010-08-29T13:11:57Z</time>
      </trkpt>
      <trkpt lat="42.10932" lon="9.15717">
        <ele>1570.4509277</ele>
        <time>2010-08-29T13:12:06Z</time>
      </trkpt>
      <trkpt lat="42.10939" lon="9.15709">
        <ele>1573.3349609</ele>
        <time>2010-08-29T13:12:14Z</time>
      </trkpt>
      <trkpt lat="42.10949" lon="9.15698">
        <ele>1577.6606445</ele>
        <time>2010-08-29T13:12:25Z</time>
      </trkpt>
      <trkpt lat="42.10951" lon="9.15695">
        <ele>1586.7932129</ele>
        <time>2010-08-29T13:12:32Z</time>
      </trkpt>
      <trkpt lat="42.10951" lon="9.15695">
        <ele>1591.1191406</ele>
        <time>2010-08-29T13:12:34Z</time>
      </trkpt>
      <trkpt lat="42.10954" lon="9.15685">
        <ele>1583.9094238</ele>
        <time>2010-08-29T13:12:42Z</time>
      </trkpt>
      <trkpt lat="42.10963" lon="9.15678">
        <ele>1574.7768555</ele>
        <time>2010-08-29T13:12:49Z</time>
      </trkpt>
      <trkpt lat="42.10965" lon="9.15681">
        <ele>1575.7380371</ele>
        <time>2010-08-29T13:12:54Z</time>
      </trkpt>
      <trkpt lat="42.10967" lon="9.15683">
        <ele>1576.6994629</ele>
        <time>2010-08-29T13:12:58Z</time>
      </trkpt>
      <trkpt lat="42.10968" lon="9.15684">
        <ele>1577.1801758</ele>
        <time>2010-08-29T13:13:00Z</time>
      </trkpt>
      <trkpt lat="42.10976" lon="9.15682">
        <ele>1576.21875</ele>
        <time>2010-08-29T13:13:06Z</time>
      </trkpt>
      <trkpt lat="42.10985" lon="9.1568">
        <ele>1574.7768555</ele>
        <time>2010-08-29T13:13:14Z</time>
      </trkpt>
      <trkpt lat="42.1099" lon="9.15683">
        <ele>1579.583252</ele>
        <time>2010-08-29T13:13:21Z</time>
      </trkpt>
      <trkpt lat="42.1099" lon="9.15685">
        <ele>1581.5061035</ele>
        <time>2010-08-29T13:13:23Z</time>
      </trkpt>
      <trkpt lat="42.10997" lon="9.15682">
        <ele>1576.21875</ele>
        <time>2010-08-29T13:13:30Z</time>
      </trkpt>
      <trkpt lat="42.11001" lon="9.15687">
        <ele>1577.1801758</ele>
        <time>2010-08-29T13:13:36Z</time>
      </trkpt>
      <trkpt lat="42.11006" lon="9.15689">
        <ele>1577.6606445</ele>
        <time>2010-08-29T13:13:41Z</time>
      </trkpt>
      <trkpt lat="42.1101" lon="9.15692">
        <ele>1582.4675293</ele>
        <time>2010-08-29T13:13:48Z</time>
      </trkpt>
      <trkpt lat="42.11016" lon="9.15692">
        <ele>1586.7932129</ele>
        <time>2010-08-29T13:13:56Z</time>
      </trkpt>
      <trkpt lat="42.11018" lon="9.15688">
        <ele>1581.0256348</ele>
        <time>2010-08-29T13:14:03Z</time>
      </trkpt>
      <trkpt lat="42.11021" lon="9.15687">
        <ele>1582.4675293</ele>
        <time>2010-08-29T13:14:12Z</time>
      </trkpt>
      <trkpt lat="42.11023" lon="9.15688">
        <ele>1582.947998</ele>
        <time>2010-08-29T13:14:21Z</time>
      </trkpt>
      <trkpt lat="42.11023" lon="9.15688">
        <ele>1582.947998</ele>
        <time>2010-08-29T13:14:30Z</time>
      </trkpt>
      <trkpt lat="42.11022" lon="9.15687">
        <ele>1576.21875</ele>
        <time>2010-08-29T13:15:04Z</time>
      </trkpt>
      <trkpt lat="42.11023" lon="9.15687">
        <ele>1576.21875</ele>
        <time>2010-08-29T13:15:14Z</time>
      </trkpt>
      <trkpt lat="42.11023" lon="9.15687">
        <ele>1576.21875</ele>
        <time>2010-08-29T13:15:27Z</time>
      </trkpt>
      <trkpt lat="42.11022" lon="9.15689">
        <ele>1575.2573242</ele>
        <time>2010-08-29T13:16:36Z</time>
      </trkpt>
      <trkpt lat="42.11021" lon="9.15689">
        <ele>1575.2573242</ele>
        <time>2010-08-29T13:16:45Z</time>
      </trkpt>
      <trkpt lat="42.11021" lon="9.1569">
        <ele>1575.7380371</ele>
        <time>2010-08-29T13:16:58Z</time>
      </trkpt>
      <trkpt lat="42.1102" lon="9.15692">
        <ele>1577.1801758</ele>
        <time>2010-08-29T13:18:02Z</time>
      </trkpt>
      <trkpt lat="42.11018" lon="9.15693">
        <ele>1578.6220703</ele>
        <time>2010-08-29T13:18:16Z</time>
      </trkpt>
      <trkpt lat="42.11017" lon="9.15693">
        <ele>1578.1413574</ele>
        <time>2010-08-29T13:18:33Z</time>
      </trkpt>
      <trkpt lat="42.11018" lon="9.15691">
        <ele>1580.064209</ele>
        <time>2010-08-29T13:19:14Z</time>
      </trkpt>
      <trkpt lat="42.11014" lon="9.15691">
        <ele>1576.6994629</ele>
        <time>2010-08-29T13:19:40Z</time>
      </trkpt>
      <trkpt lat="42.11013" lon="9.15693">
        <ele>1574.7768555</ele>
        <time>2010-08-29T13:19:48Z</time>
      </trkpt>
      <trkpt lat="42.11015" lon="9.1569">
        <ele>1576.21875</ele>
        <time>2010-08-29T13:20:07Z</time>
      </trkpt>
      <trkpt lat="42.11013" lon="9.15692">
        <ele>1574.2961426</ele>
        <time>2010-08-29T13:20:28Z</time>
      </trkpt>
      <trkpt lat="42.11008" lon="9.15694">
        <ele>1575.7380371</ele>
        <time>2010-08-29T13:20:37Z</time>
      </trkpt>
      <trkpt lat="42.11011" lon="9.15687">
        <ele>1584.3901367</ele>
        <time>2010-08-29T13:20:45Z</time>
      </trkpt>
      <trkpt lat="42.11003" lon="9.15689">
        <ele>1591.1191406</ele>
        <time>2010-08-29T13:20:51Z</time>
      </trkpt>
      <trkpt lat="42.10994" lon="9.15692">
        <ele>1601.6938477</ele>
        <time>2010-08-29T13:21:02Z</time>
      </trkpt>
      <trkpt lat="42.11001" lon="9.15689">
        <ele>1597.8486328</ele>
        <time>2010-08-29T13:21:16Z</time>
      </trkpt>
      <trkpt lat="42.11008" lon="9.1569">
        <ele>1596.887207</ele>
        <time>2010-08-29T13:21:22Z</time>
      </trkpt>
      <trkpt lat="42.11015" lon="9.15688">
        <ele>1594.9643555</ele>
        <time>2010-08-29T13:21:29Z</time>
      </trkpt>
      <trkpt lat="42.11016" lon="9.15688">
        <ele>1594.4836426</ele>
        <time>2010-08-29T13:21:30Z</time>
      </trkpt>
      <trkpt lat="42.11026" lon="9.15692">
        <ele>1593.5224609</ele>
        <time>2010-08-29T13:21:38Z</time>
      </trkpt>
      <trkpt lat="42.11026" lon="9.15692">
        <ele>1593.5224609</ele>
        <time>2010-08-29T13:21:39Z</time>
      </trkpt>
      <trkpt lat="42.11032" lon="9.15698">
        <ele>1597.3679199</ele>
        <time>2010-08-29T13:21:46Z</time>
      </trkpt>
      <trkpt lat="42.11039" lon="9.157">
        <ele>1593.5224609</ele>
        <time>2010-08-29T13:21:52Z</time>
      </trkpt>
      <trkpt lat="42.11043" lon="9.15704">
        <ele>1594.4836426</ele>
        <time>2010-08-29T13:21:57Z</time>
      </trkpt>
      <trkpt lat="42.11048" lon="9.15705">
        <ele>1593.5224609</ele>
        <time>2010-08-29T13:22:02Z</time>
      </trkpt>
      <trkpt lat="42.11052" lon="9.15708">
        <ele>1588.2353516</ele>
        <time>2010-08-29T13:22:08Z</time>
      </trkpt>
      <trkpt lat="42.11057" lon="9.15712">
        <ele>1587.7546387</ele>
        <time>2010-08-29T13:22:15Z</time>
      </trkpt>
      <trkpt lat="42.11067" lon="9.15717">
        <ele>1586.7932129</ele>
        <time>2010-08-29T13:22:23Z</time>
      </trkpt>
      <trkpt lat="42.11073" lon="9.1572">
        <ele>1584.8708496</ele>
        <time>2010-08-29T13:22:29Z</time>
      </trkpt>
      <trkpt lat="42.11076" lon="9.15724">
        <ele>1584.8708496</ele>
        <time>2010-08-29T13:22:33Z</time>
      </trkpt>
      <trkpt lat="42.11085" lon="9.15732">
        <ele>1586.3127441</ele>
        <time>2010-08-29T13:22:42Z</time>
      </trkpt>
      <trkpt lat="42.11095" lon="9.15741">
        <ele>1588.7160645</ele>
        <time>2010-08-29T13:22:50Z</time>
      </trkpt>
      <trkpt lat="42.111" lon="9.15748">
        <ele>1587.2739258</ele>
        <time>2010-08-29T13:22:56Z</time>
      </trkpt>
      <trkpt lat="42.11105" lon="9.15753">
        <ele>1585.3513184</ele>
        <time>2010-08-29T13:23:02Z</time>
      </trkpt>
      <trkpt lat="42.1111" lon="9.15756">
        <ele>1587.2739258</ele>
        <time>2010-08-29T13:23:08Z</time>
      </trkpt>
      <trkpt lat="42.11113" lon="9.15753">
        <ele>1588.7160645</ele>
        <time>2010-08-29T13:23:13Z</time>
      </trkpt>
      <trkpt lat="42.11118" lon="9.15756">
        <ele>1590.6384277</ele>
        <time>2010-08-29T13:23:19Z</time>
      </trkpt>
      <trkpt lat="42.11122" lon="9.15761">
        <ele>1591.1191406</ele>
        <time>2010-08-29T13:23:25Z</time>
      </trkpt>
      <trkpt lat="42.11126" lon="9.15763">
        <ele>1592.5612793</ele>
        <time>2010-08-29T13:23:30Z</time>
      </trkpt>
      <trkpt lat="42.11128" lon="9.15764">
        <ele>1593.041748</ele>
        <time>2010-08-29T13:23:32Z</time>
      </trkpt>
      <trkpt lat="42.11129" lon="9.15766">
        <ele>1593.5224609</ele>
        <time>2010-08-29T13:23:34Z</time>
      </trkpt>
      <trkpt lat="42.11136" lon="9.15772">
        <ele>1594.0031738</ele>
        <time>2010-08-29T13:23:42Z</time>
      </trkpt>
      <trkpt lat="42.1114" lon="9.15775">
        <ele>1594.0031738</ele>
        <time>2010-08-29T13:23:49Z</time>
      </trkpt>
      <trkpt lat="42.11144" lon="9.15774">
        <ele>1594.0031738</ele>
        <time>2010-08-29T13:23:55Z</time>
      </trkpt>
      <trkpt lat="42.1115" lon="9.15774">
        <ele>1595.9257812</ele>
        <time>2010-08-29T13:24:02Z</time>
      </trkpt>
      <trkpt lat="42.11154" lon="9.1578">
        <ele>1596.887207</ele>
        <time>2010-08-29T13:24:08Z</time>
      </trkpt>
      <trkpt lat="42.11157" lon="9.15785">
        <ele>1597.3679199</ele>
        <time>2010-08-29T13:24:13Z</time>
      </trkpt>
      <trkpt lat="42.11162" lon="9.15786">
        <ele>1598.3291016</ele>
        <time>2010-08-29T13:24:19Z</time>
      </trkpt>
      <trkpt lat="42.11168" lon="9.15786">
        <ele>1600.2519531</ele>
        <time>2010-08-29T13:24:26Z</time>
      </trkpt>
      <trkpt lat="42.1117" lon="9.15788">
        <ele>1600.7324219</ele>
        <time>2010-08-29T13:24:29Z</time>
      </trkpt>
      <trkpt lat="42.11178" lon="9.15794">
        <ele>1602.6550293</ele>
        <time>2010-08-29T13:24:38Z</time>
      </trkpt>
      <trkpt lat="42.11181" lon="9.15797">
        <ele>1602.6550293</ele>
        <time>2010-08-29T13:24:41Z</time>
      </trkpt>
      <trkpt lat="42.11188" lon="9.15803">
        <ele>1603.6164551</ele>
        <time>2010-08-29T13:24:48Z</time>
      </trkpt>
      <trkpt lat="42.11188" lon="9.15803">
        <ele>1606.0195312</ele>
        <time>2010-08-29T13:24:55Z</time>
      </trkpt>
      <trkpt lat="42.11187" lon="9.15803">
        <ele>1606.0195312</ele>
        <time>2010-08-29T13:25:04Z</time>
      </trkpt>
      <trkpt lat="42.11193" lon="9.15806">
        <ele>1607.4616699</ele>
        <time>2010-08-29T13:25:10Z</time>
      </trkpt>
      <trkpt lat="42.112" lon="9.1581">
        <ele>1608.4228516</ele>
        <time>2010-08-29T13:25:17Z</time>
      </trkpt>
      <trkpt lat="42.11201" lon="9.15811">
        <ele>1608.4228516</ele>
        <time>2010-08-29T13:25:18Z</time>
      </trkpt>
      <trkpt lat="42.11209" lon="9.15812">
        <ele>1609.8647461</ele>
        <time>2010-08-29T13:25:26Z</time>
      </trkpt>
      <trkpt lat="42.11218" lon="9.15812">
        <ele>1611.3068848</ele>
        <time>2010-08-29T13:25:34Z</time>
      </trkpt>
      <trkpt lat="42.11227" lon="9.1581">
        <ele>1612.2683105</ele>
        <time>2010-08-29T13:25:43Z</time>
      </trkpt>
      <trkpt lat="42.1123" lon="9.15809">
        <ele>1612.7490234</ele>
        <time>2010-08-29T13:25:46Z</time>
      </trkpt>
      <trkpt lat="42.11233" lon="9.15809">
        <ele>1613.2297363</ele>
        <time>2010-08-29T13:25:49Z</time>
      </trkpt>
      <trkpt lat="42.11242" lon="9.15807">
        <ele>1614.190918</ele>
        <time>2010-08-29T13:25:57Z</time>
      </trkpt>
      <trkpt lat="42.1125" lon="9.15806">
        <ele>1615.1523438</ele>
        <time>2010-08-29T13:26:03Z</time>
      </trkpt>
      <trkpt lat="42.11256" lon="9.15805">
        <ele>1616.1135254</ele>
        <time>2010-08-29T13:26:09Z</time>
      </trkpt>
      <trkpt lat="42.11259" lon="9.15805">
        <ele>1616.5942383</ele>
        <time>2010-08-29T13:26:15Z</time>
      </trkpt>
      <trkpt lat="42.1126" lon="9.15804">
        <ele>1617.5554199</ele>
        <time>2010-08-29T13:26:23Z</time>
      </trkpt>
      <trkpt lat="42.11266" lon="9.15803">
        <ele>1618.9975586</ele>
        <time>2010-08-29T13:26:29Z</time>
      </trkpt>
      <trkpt lat="42.11269" lon="9.15803">
        <ele>1619.4782715</ele>
        <time>2010-08-29T13:26:33Z</time>
      </trkpt>
      <trkpt lat="42.11272" lon="9.15802">
        <ele>1620.4394531</ele>
        <time>2010-08-29T13:26:36Z</time>
      </trkpt>
      <trkpt lat="42.11274" lon="9.15802">
        <ele>1620.4394531</ele>
        <time>2010-08-29T13:26:38Z</time>
      </trkpt>
      <trkpt lat="42.11283" lon="9.15799">
        <ele>1621.8813477</ele>
        <time>2010-08-29T13:26:47Z</time>
      </trkpt>
      <trkpt lat="42.11292" lon="9.15796">
        <ele>1623.8039551</ele>
        <time>2010-08-29T13:26:56Z</time>
      </trkpt>
      <trkpt lat="42.11293" lon="9.15794">
        <ele>1624.284668</ele>
        <time>2010-08-29T13:27:02Z</time>
      </trkpt>
      <trkpt lat="42.11293" lon="9.15794">
        <ele>1624.284668</ele>
        <time>2010-08-29T13:27:10Z</time>
      </trkpt>
      <trkpt lat="42.11296" lon="9.15793">
        <ele>1624.7653809</ele>
        <time>2010-08-29T13:27:15Z</time>
      </trkpt>
      <trkpt lat="42.11298" lon="9.15793">
        <ele>1624.7653809</ele>
        <time>2010-08-29T13:27:17Z</time>
      </trkpt>
      <trkpt lat="42.11304" lon="9.15791">
        <ele>1625.7265625</ele>
        <time>2010-08-29T13:27:23Z</time>
      </trkpt>
      <trkpt lat="42.11315" lon="9.1579">
        <ele>1627.1687012</ele>
        <time>2010-08-29T13:27:33Z</time>
      </trkpt>
      <trkpt lat="42.11321" lon="9.15788">
        <ele>1628.130127</ele>
        <time>2010-08-29T13:27:39Z</time>
      </trkpt>
      <trkpt lat="42.11325" lon="9.15789">
        <ele>1628.6108398</ele>
        <time>2010-08-29T13:27:43Z</time>
      </trkpt>
      <trkpt lat="42.11334" lon="9.15786">
        <ele>1629.5720215</ele>
        <time>2010-08-29T13:27:51Z</time>
      </trkpt>
      <trkpt lat="42.11339" lon="9.15782">
        <ele>1631.0141602</ele>
        <time>2010-08-29T13:27:58Z</time>
      </trkpt>
      <trkpt lat="42.11346" lon="9.15782">
        <ele>1631.9753418</ele>
        <time>2010-08-29T13:28:05Z</time>
      </trkpt>
      <trkpt lat="42.11352" lon="9.1578">
        <ele>1632.9365234</ele>
        <time>2010-08-29T13:28:12Z</time>
      </trkpt>
      <trkpt lat="42.11355" lon="9.15781">
        <ele>1633.4172363</ele>
        <time>2010-08-29T13:28:15Z</time>
      </trkpt>
      <trkpt lat="42.11364" lon="9.15779">
        <ele>1634.859375</ele>
        <time>2010-08-29T13:28:23Z</time>
      </trkpt>
      <trkpt lat="42.11371" lon="9.15779">
        <ele>1635.8205566</ele>
        <time>2010-08-29T13:28:29Z</time>
      </trkpt>
      <trkpt lat="42.11377" lon="9.15776">
        <ele>1637.2624512</ele>
        <time>2010-08-29T13:28:36Z</time>
      </trkpt>
      <trkpt lat="42.11378" lon="9.15775">
        <ele>1637.2624512</ele>
        <time>2010-08-29T13:28:37Z</time>
      </trkpt>
      <trkpt lat="42.1138" lon="9.15773">
        <ele>1638.223877</ele>
        <time>2010-08-29T13:28:40Z</time>
      </trkpt>
      <trkpt lat="42.11386" lon="9.15772">
        <ele>1638.7045898</ele>
        <time>2010-08-29T13:28:45Z</time>
      </trkpt>
      <trkpt lat="42.1139" lon="9.15772">
        <ele>1638.7045898</ele>
        <time>2010-08-29T13:28:49Z</time>
      </trkpt>
      <trkpt lat="42.11396" lon="9.15768">
        <ele>1639.6657715</ele>
        <time>2010-08-29T13:28:56Z</time>
      </trkpt>
      <trkpt lat="42.11399" lon="9.15766">
        <ele>1639.6657715</ele>
        <time>2010-08-29T13:29:02Z</time>
      </trkpt>
      <trkpt lat="42.11399" lon="9.15766">
        <ele>1639.6657715</ele>
        <time>2010-08-29T13:29:03Z</time>
      </trkpt>
      <trkpt lat="42.11403" lon="9.15759">
        <ele>1640.6269531</ele>
        <time>2010-08-29T13:29:08Z</time>
      </trkpt>
      <trkpt lat="42.11405" lon="9.15753">
        <ele>1641.5883789</ele>
        <time>2010-08-29T13:29:13Z</time>
      </trkpt>
      <trkpt lat="42.11407" lon="9.15749">
        <ele>1642.0690918</ele>
        <time>2010-08-29T13:29:16Z</time>
      </trkpt>
      <trkpt lat="42.11409" lon="9.15745">
        <ele>1642.5498047</ele>
        <time>2010-08-29T13:29:20Z</time>
      </trkpt>
      <trkpt lat="42.11411" lon="9.15732">
        <ele>1642.0690918</ele>
        <time>2010-08-29T13:29:28Z</time>
      </trkpt>
      <trkpt lat="42.11412" lon="9.15719">
        <ele>1642.0690918</ele>
        <time>2010-08-29T13:29:36Z</time>
      </trkpt>
      <trkpt lat="42.11417" lon="9.15704">
        <ele>1641.5883789</ele>
        <time>2010-08-29T13:29:45Z</time>
      </trkpt>
      <trkpt lat="42.11425" lon="9.15695">
        <ele>1639.6657715</ele>
        <time>2010-08-29T13:29:53Z</time>
      </trkpt>
      <trkpt lat="42.11434" lon="9.15686">
        <ele>1637.7431641</ele>
        <time>2010-08-29T13:30:01Z</time>
      </trkpt>
      <trkpt lat="42.11441" lon="9.15681">
        <ele>1636.3012695</ele>
        <time>2010-08-29T13:30:07Z</time>
      </trkpt>
      <trkpt lat="42.11447" lon="9.15676">
        <ele>1634.3786621</ele>
        <time>2010-08-29T13:30:14Z</time>
      </trkpt>
      <trkpt lat="42.11452" lon="9.15668">
        <ele>1632.9365234</ele>
        <time>2010-08-29T13:30:22Z</time>
      </trkpt>
      <trkpt lat="42.11453" lon="9.15664">
        <ele>1632.9365234</ele>
        <time>2010-08-29T13:30:29Z</time>
      </trkpt>
      <trkpt lat="42.11455" lon="9.15658">
        <ele>1631.4946289</ele>
        <time>2010-08-29T13:30:36Z</time>
      </trkpt>
      <trkpt lat="42.11459" lon="9.15649">
        <ele>1629.0913086</ele>
        <time>2010-08-29T13:30:43Z</time>
      </trkpt>
      <trkpt lat="42.11461" lon="9.15639">
        <ele>1627.1687012</ele>
        <time>2010-08-29T13:30:50Z</time>
      </trkpt>
      <trkpt lat="42.11461" lon="9.1563">
        <ele>1626.2072754</ele>
        <time>2010-08-29T13:30:56Z</time>
      </trkpt>
      <trkpt lat="42.11461" lon="9.15627">
        <ele>1626.2072754</ele>
        <time>2010-08-29T13:30:58Z</time>
      </trkpt>
      <trkpt lat="42.11465" lon="9.15614">
        <ele>1623.8039551</ele>
        <time>2010-08-29T13:31:07Z</time>
      </trkpt>
      <trkpt lat="42.11467" lon="9.156">
        <ele>1622.8427734</ele>
        <time>2010-08-29T13:31:15Z</time>
      </trkpt>
      <trkpt lat="42.11467" lon="9.15599">
        <ele>1622.8427734</ele>
        <time>2010-08-29T13:31:16Z</time>
      </trkpt>
      <trkpt lat="42.11467" lon="9.15588">
        <ele>1621.8813477</ele>
        <time>2010-08-29T13:31:23Z</time>
      </trkpt>
      <trkpt lat="42.11467" lon="9.15572">
        <ele>1620.4394531</ele>
        <time>2010-08-29T13:31:32Z</time>
      </trkpt>
      <trkpt lat="42.11467" lon="9.1557">
        <ele>1620.4394531</ele>
        <time>2010-08-29T13:31:34Z</time>
      </trkpt>
      <trkpt lat="42.11464" lon="9.15557">
        <ele>1618.5168457</ele>
        <time>2010-08-29T13:31:42Z</time>
      </trkpt>
      <trkpt lat="42.11461" lon="9.1555">
        <ele>1618.0361328</ele>
        <time>2010-08-29T13:31:48Z</time>
      </trkpt>
      <trkpt lat="42.11462" lon="9.15542">
        <ele>1617.0749512</ele>
        <time>2010-08-29T13:31:53Z</time>
      </trkpt>
      <trkpt lat="42.11457" lon="9.15529">
        <ele>1615.1523438</ele>
        <time>2010-08-29T13:32:02Z</time>
      </trkpt>
      <trkpt lat="42.11454" lon="9.15518">
        <ele>1613.7102051</ele>
        <time>2010-08-29T13:32:10Z</time>
      </trkpt>
      <trkpt lat="42.11454" lon="9.15515">
        <ele>1613.2297363</ele>
        <time>2010-08-29T13:32:13Z</time>
      </trkpt>
      <trkpt lat="42.11453" lon="9.15506">
        <ele>1612.2683105</ele>
        <time>2010-08-29T13:32:20Z</time>
      </trkpt>
      <trkpt lat="42.11451" lon="9.155">
        <ele>1610.8261719</ele>
        <time>2010-08-29T13:32:25Z</time>
      </trkpt>
      <trkpt lat="42.11451" lon="9.15494">
        <ele>1609.3842773</ele>
        <time>2010-08-29T13:32:29Z</time>
      </trkpt>
      <trkpt lat="42.1145" lon="9.15486">
        <ele>1607.4616699</ele>
        <time>2010-08-29T13:32:36Z</time>
      </trkpt>
      <trkpt lat="42.11447" lon="9.15477">
        <ele>1605.5390625</ele>
        <time>2010-08-29T13:32:44Z</time>
      </trkpt>
      <trkpt lat="42.11444" lon="9.1547">
        <ele>1603.6164551</ele>
        <time>2010-08-29T13:32:51Z</time>
      </trkpt>
      <trkpt lat="42.11444" lon="9.15468">
        <ele>1603.1357422</ele>
        <time>2010-08-29T13:32:53Z</time>
      </trkpt>
      <trkpt lat="42.11442" lon="9.15465">
        <ele>1602.1743164</ele>
        <time>2010-08-29T13:32:56Z</time>
      </trkpt>
      <trkpt lat="42.11441" lon="9.15458">
        <ele>1601.2131348</ele>
        <time>2010-08-29T13:33:03Z</time>
      </trkpt>
      <trkpt lat="42.11441" lon="9.15458">
        <ele>1601.2131348</ele>
        <time>2010-08-29T13:33:08Z</time>
      </trkpt>
      <trkpt lat="42.1144" lon="9.15458">
        <ele>1601.2131348</ele>
        <time>2010-08-29T13:33:14Z</time>
      </trkpt>
      <trkpt lat="42.1144" lon="9.1546">
        <ele>1596.4067383</ele>
        <time>2010-08-29T13:33:30Z</time>
      </trkpt>
      <trkpt lat="42.11443" lon="9.15456">
        <ele>1591.1191406</ele>
        <time>2010-08-29T13:33:40Z</time>
      </trkpt>
      <trkpt lat="42.1144" lon="9.15461">
        <ele>1599.7712402</ele>
        <time>2010-08-29T13:33:57Z</time>
      </trkpt>
      <trkpt lat="42.1144" lon="9.15458">
        <ele>1604.097168</ele>
        <time>2010-08-29T13:34:03Z</time>
      </trkpt>
      <trkpt lat="42.1144" lon="9.15457">
        <ele>1605.5390625</ele>
        <time>2010-08-29T13:34:11Z</time>
      </trkpt>
      <trkpt lat="42.11437" lon="9.15459">
        <ele>1610.345459</ele>
        <time>2010-08-29T13:34:36Z</time>
      </trkpt>
      <trkpt lat="42.11439" lon="9.15458">
        <ele>1607.4616699</ele>
        <time>2010-08-29T13:34:44Z</time>
      </trkpt>
      <trkpt lat="42.11439" lon="9.15459">
        <ele>1607.4616699</ele>
        <time>2010-08-29T13:34:51Z</time>
      </trkpt>
      <trkpt lat="42.1144" lon="9.15461">
        <ele>1606.5002441</ele>
        <time>2010-08-29T13:35:04Z</time>
      </trkpt>
      <trkpt lat="42.11439" lon="9.15462">
        <ele>1606.0195312</ele>
        <time>2010-08-29T13:35:16Z</time>
      </trkpt>
      <trkpt lat="42.11439" lon="9.15462">
        <ele>1606.0195312</ele>
        <time>2010-08-29T13:35:26Z</time>
      </trkpt>
      <trkpt lat="42.11438" lon="9.15462">
        <ele>1605.0583496</ele>
        <time>2010-08-29T13:35:45Z</time>
      </trkpt>
      <trkpt lat="42.11438" lon="9.15461">
        <ele>1604.5776367</ele>
        <time>2010-08-29T13:36:03Z</time>
      </trkpt>
      <trkpt lat="42.11438" lon="9.15461">
        <ele>1604.097168</ele>
        <time>2010-08-29T13:36:10Z</time>
      </trkpt>
      <trkpt lat="42.11439" lon="9.15461">
        <ele>1604.5776367</ele>
        <time>2010-08-29T13:36:18Z</time>
      </trkpt>
      <trkpt lat="42.11439" lon="9.15461">
        <ele>1604.5776367</ele>
        <time>2010-08-29T13:36:24Z</time>
      </trkpt>
      <trkpt lat="42.11438" lon="9.1546">
        <ele>1603.1357422</ele>
        <time>2010-08-29T13:37:01Z</time>
      </trkpt>
      <trkpt lat="42.11438" lon="9.1546">
        <ele>1602.6550293</ele>
        <time>2010-08-29T13:37:14Z</time>
      </trkpt>
      <trkpt lat="42.11439" lon="9.15459">
        <ele>1603.6164551</ele>
        <time>2010-08-29T13:37:35Z</time>
      </trkpt>
      <trkpt lat="42.11439" lon="9.15459">
        <ele>1603.6164551</ele>
        <time>2010-08-29T13:38:14Z</time>
      </trkpt>
      <trkpt lat="42.11439" lon="9.1546">
        <ele>1603.1357422</ele>
        <time>2010-08-29T13:38:56Z</time>
      </trkpt>
      <trkpt lat="42.11438" lon="9.15461">
        <ele>1603.6164551</ele>
        <time>2010-08-29T13:39:04Z</time>
      </trkpt>
      <trkpt lat="42.11441" lon="9.15461">
        <ele>1600.7324219</ele>
        <time>2010-08-29T13:41:23Z</time>
      </trkpt>
      <trkpt lat="42.1144" lon="9.15461">
        <ele>1602.6550293</ele>
        <time>2010-08-29T13:42:52Z</time>
      </trkpt>
      <trkpt lat="42.11441" lon="9.15461">
        <ele>1602.6550293</ele>
        <time>2010-08-29T13:43:28Z</time>
      </trkpt>
      <trkpt lat="42.1144" lon="9.15461">
        <ele>1603.1357422</ele>
        <time>2010-08-29T13:44:31Z</time>
      </trkpt>
      <trkpt lat="42.11442" lon="9.15461">
        <ele>1603.6164551</ele>
        <time>2010-08-29T13:44:46Z</time>
      </trkpt>
      <trkpt lat="42.11442" lon="9.15462">
        <ele>1604.097168</ele>
        <time>2010-08-29T13:44:53Z</time>
      </trkpt>
      <trkpt lat="42.11442" lon="9.15462">
        <ele>1603.6164551</ele>
        <time>2010-08-29T13:45:08Z</time>
      </trkpt>
      <trkpt lat="42.11441" lon="9.15462">
        <ele>1603.1357422</ele>
        <time>2010-08-29T13:45:24Z</time>
      </trkpt>
      <trkpt lat="42.11442" lon="9.15461">
        <ele>1603.6164551</ele>
        <time>2010-08-29T13:45:34Z</time>
      </trkpt>
      <trkpt lat="42.1144" lon="9.15461">
        <ele>1603.6164551</ele>
        <time>2010-08-29T13:45:40Z</time>
      </trkpt>
      <trkpt lat="42.11436" lon="9.15461">
        <ele>1603.6164551</ele>
        <time>2010-08-29T13:45:47Z</time>
      </trkpt>
      <trkpt lat="42.11431" lon="9.15454">
        <ele>1603.6164551</ele>
        <time>2010-08-29T13:45:55Z</time>
      </trkpt>
      <trkpt lat="42.11428" lon="9.15447">
        <ele>1603.6164551</ele>
        <time>2010-08-29T13:46:02Z</time>
      </trkpt>
      <trkpt lat="42.11426" lon="9.15445">
        <ele>1603.6164551</ele>
        <time>2010-08-29T13:46:07Z</time>
      </trkpt>
      <trkpt lat="42.11422" lon="9.15437">
        <ele>1602.6550293</ele>
        <time>2010-08-29T13:46:15Z</time>
      </trkpt>
      <trkpt lat="42.11421" lon="9.15431">
        <ele>1600.7324219</ele>
        <time>2010-08-29T13:46:21Z</time>
      </trkpt>
      <trkpt lat="42.1142" lon="9.15428">
        <ele>1600.2519531</ele>
        <time>2010-08-29T13:46:24Z</time>
      </trkpt>
      <trkpt lat="42.11418" lon="9.15425">
        <ele>1599.7712402</ele>
        <time>2010-08-29T13:46:26Z</time>
      </trkpt>
      <trkpt lat="42.11418" lon="9.15422">
        <ele>1599.2905273</ele>
        <time>2010-08-29T13:46:29Z</time>
      </trkpt>
      <trkpt lat="42.11414" lon="9.15416">
        <ele>1598.8098145</ele>
        <time>2010-08-29T13:46:37Z</time>
      </trkpt>
      <trkpt lat="42.11414" lon="9.15411">
        <ele>1597.3679199</ele>
        <time>2010-08-29T13:46:42Z</time>
      </trkpt>
      <trkpt lat="42.11411" lon="9.15408">
        <ele>1596.4067383</ele>
        <time>2010-08-29T13:46:47Z</time>
      </trkpt>
      <trkpt lat="42.11411" lon="9.15405">
        <ele>1595.4450684</ele>
        <time>2010-08-29T13:46:49Z</time>
      </trkpt>
      <trkpt lat="42.11406" lon="9.15398">
        <ele>1594.0031738</ele>
        <time>2010-08-29T13:46:57Z</time>
      </trkpt>
      <trkpt lat="42.11403" lon="9.1539">
        <ele>1592.5612793</ele>
        <time>2010-08-29T13:47:03Z</time>
      </trkpt>
      <trkpt lat="42.11402" lon="9.15387">
        <ele>1591.5998535</ele>
        <time>2010-08-29T13:47:09Z</time>
      </trkpt>
      <trkpt lat="42.11404" lon="9.15385">
        <ele>1590.6384277</ele>
        <time>2010-08-29T13:47:13Z</time>
      </trkpt>
      <trkpt lat="42.11407" lon="9.15384">
        <ele>1588.7160645</ele>
        <time>2010-08-29T13:47:17Z</time>
      </trkpt>
      <trkpt lat="42.11416" lon="9.15388">
        <ele>1586.3127441</ele>
        <time>2010-08-29T13:47:25Z</time>
      </trkpt>
      <trkpt lat="42.11422" lon="9.15387">
        <ele>1584.8708496</ele>
        <time>2010-08-29T13:47:31Z</time>
      </trkpt>
      <trkpt lat="42.1143" lon="9.15389">
        <ele>1584.3901367</ele>
        <time>2010-08-29T13:47:40Z</time>
      </trkpt>
      <trkpt lat="42.11432" lon="9.15386">
        <ele>1582.947998</ele>
        <time>2010-08-29T13:47:46Z</time>
      </trkpt>
      <trkpt lat="42.11433" lon="9.15381">
        <ele>1581.9868164</ele>
        <time>2010-08-29T13:47:52Z</time>
      </trkpt>
      <trkpt lat="42.11436" lon="9.1538">
        <ele>1580.064209</ele>
        <time>2010-08-29T13:47:58Z</time>
      </trkpt>
      <trkpt lat="42.11436" lon="9.15376">
        <ele>1580.064209</ele>
        <time>2010-08-29T13:48:03Z</time>
      </trkpt>
      <trkpt lat="42.11431" lon="9.15368">
        <ele>1578.6220703</ele>
        <time>2010-08-29T13:48:11Z</time>
      </trkpt>
      <trkpt lat="42.11426" lon="9.15358">
        <ele>1577.6606445</ele>
        <time>2010-08-29T13:48:19Z</time>
      </trkpt>
      <trkpt lat="42.11419" lon="9.15346">
        <ele>1576.21875</ele>
        <time>2010-08-29T13:48:29Z</time>
      </trkpt>
      <trkpt lat="42.11414" lon="9.15337">
        <ele>1575.2573242</ele>
        <time>2010-08-29T13:48:36Z</time>
      </trkpt>
      <trkpt lat="42.1141" lon="9.15328">
        <ele>1574.2961426</ele>
        <time>2010-08-29T13:48:43Z</time>
      </trkpt>
      <trkpt lat="42.11408" lon="9.15322">
        <ele>1573.8154297</ele>
        <time>2010-08-29T13:48:49Z</time>
      </trkpt>
      <trkpt lat="42.1141" lon="9.15323">
        <ele>1573.8154297</ele>
        <time>2010-08-29T13:48:52Z</time>
      </trkpt>
      <trkpt lat="42.11412" lon="9.15324">
        <ele>1572.854248</ele>
        <time>2010-08-29T13:48:54Z</time>
      </trkpt>
      <trkpt lat="42.1142" lon="9.15329">
        <ele>1572.3735352</ele>
        <time>2010-08-29T13:49:03Z</time>
      </trkpt>
      <trkpt lat="42.11426" lon="9.15333">
        <ele>1571.4121094</ele>
        <time>2010-08-29T13:49:09Z</time>
      </trkpt>
      <trkpt lat="42.11433" lon="9.15337">
        <ele>1569.9702148</ele>
        <time>2010-08-29T13:49:17Z</time>
      </trkpt>
      <trkpt lat="42.11439" lon="9.1534">
        <ele>1569.4897461</ele>
        <time>2010-08-29T13:49:25Z</time>
      </trkpt>
      <trkpt lat="42.11443" lon="9.15341">
        <ele>1569.0090332</ele>
        <time>2010-08-29T13:49:30Z</time>
      </trkpt>
      <trkpt lat="42.11452" lon="9.15343">
        <ele>1567.5668945</ele>
        <time>2010-08-29T13:49:38Z</time>
      </trkpt>
      <trkpt lat="42.11458" lon="9.15343">
        <ele>1565.1638184</ele>
        <time>2010-08-29T13:49:45Z</time>
      </trkpt>
      <trkpt lat="42.11464" lon="9.15343">
        <ele>1565.1638184</ele>
        <time>2010-08-29T13:49:52Z</time>
      </trkpt>
      <trkpt lat="42.11471" lon="9.15342">
        <ele>1564.6831055</ele>
        <time>2010-08-29T13:50:00Z</time>
      </trkpt>
      <trkpt lat="42.11473" lon="9.15342">
        <ele>1562.279541</ele>
        <time>2010-08-29T13:50:08Z</time>
      </trkpt>
      <trkpt lat="42.11476" lon="9.15343">
        <ele>1563.2409668</ele>
        <time>2010-08-29T13:50:14Z</time>
      </trkpt>
      <trkpt lat="42.11481" lon="9.1534">
        <ele>1561.7990723</ele>
        <time>2010-08-29T13:50:19Z</time>
      </trkpt>
      <trkpt lat="42.11487" lon="9.15341">
        <ele>1559.8762207</ele>
        <time>2010-08-29T13:50:25Z</time>
      </trkpt>
      <trkpt lat="42.11487" lon="9.15336">
        <ele>1557.9538574</ele>
        <time>2010-08-29T13:50:29Z</time>
      </trkpt>
      <trkpt lat="42.11483" lon="9.15326">
        <ele>1555.0698242</ele>
        <time>2010-08-29T13:50:37Z</time>
      </trkpt>
      <trkpt lat="42.11481" lon="9.15322">
        <ele>1553.6279297</ele>
        <time>2010-08-29T13:50:40Z</time>
      </trkpt>
      <trkpt lat="42.11478" lon="9.15317">
        <ele>1553.1472168</ele>
        <time>2010-08-29T13:50:45Z</time>
      </trkpt>
      <trkpt lat="42.11474" lon="9.15307">
        <ele>1553.1472168</ele>
        <time>2010-08-29T13:50:53Z</time>
      </trkpt>
      <trkpt lat="42.11469" lon="9.15293">
        <ele>1551.2246094</ele>
        <time>2010-08-29T13:51:02Z</time>
      </trkpt>
      <trkpt lat="42.11465" lon="9.15281">
        <ele>1549.7827148</ele>
        <time>2010-08-29T13:51:10Z</time>
      </trkpt>
      <trkpt lat="42.11462" lon="9.15271">
        <ele>1549.302002</ele>
        <time>2010-08-29T13:51:17Z</time>
      </trkpt>
      <trkpt lat="42.11462" lon="9.15266">
        <ele>1548.8212891</ele>
        <time>2010-08-29T13:51:20Z</time>
      </trkpt>
      <trkpt lat="42.1146" lon="9.1526">
        <ele>1548.3405762</ele>
        <time>2010-08-29T13:51:25Z</time>
      </trkpt>
      <trkpt lat="42.11461" lon="9.15248">
        <ele>1546.8984375</ele>
        <time>2010-08-29T13:51:33Z</time>
      </trkpt>
      <trkpt lat="42.11463" lon="9.15241">
        <ele>1547.3791504</ele>
        <time>2010-08-29T13:51:39Z</time>
      </trkpt>
      <trkpt lat="42.11464" lon="9.15238">
        <ele>1546.8984375</ele>
        <time>2010-08-29T13:51:41Z</time>
      </trkpt>
      <trkpt lat="42.11466" lon="9.15235">
        <ele>1545.9372559</ele>
        <time>2010-08-29T13:51:43Z</time>
      </trkpt>
      <trkpt lat="42.1147" lon="9.15224">
        <ele>1544.0146484</ele>
        <time>2010-08-29T13:51:52Z</time>
      </trkpt>
      <trkpt lat="42.11471" lon="9.15217">
        <ele>1543.0532227</ele>
        <time>2010-08-29T13:51:57Z</time>
      </trkpt>
      <trkpt lat="42.11475" lon="9.15208">
        <ele>1541.6113281</ele>
        <time>2010-08-29T13:52:05Z</time>
      </trkpt>
      <trkpt lat="42.11477" lon="9.152">
        <ele>1540.1694336</ele>
        <time>2010-08-29T13:52:10Z</time>
      </trkpt>
      <trkpt lat="42.11483" lon="9.15189">
        <ele>1540.1694336</ele>
        <time>2010-08-29T13:52:19Z</time>
      </trkpt>
      <trkpt lat="42.11486" lon="9.15178">
        <ele>1537.2854004</ele>
        <time>2010-08-29T13:52:27Z</time>
      </trkpt>
      <trkpt lat="42.1149" lon="9.15169">
        <ele>1533.9208984</ele>
        <time>2010-08-29T13:52:34Z</time>
      </trkpt>
      <trkpt lat="42.11492" lon="9.1516">
        <ele>1530.0754395</ele>
        <time>2010-08-29T13:52:40Z</time>
      </trkpt>
      <trkpt lat="42.11493" lon="9.15159">
        <ele>1530.5561523</ele>
        <time>2010-08-29T13:52:41Z</time>
      </trkpt>
      <trkpt lat="42.11495" lon="9.15155">
        <ele>1529.5947266</ele>
        <time>2010-08-29T13:52:45Z</time>
      </trkpt>
      <trkpt lat="42.11501" lon="9.15148">
        <ele>1527.6721191</ele>
        <time>2010-08-29T13:52:51Z</time>
      </trkpt>
      <trkpt lat="42.11507" lon="9.15145">
        <ele>1530.0754395</ele>
        <time>2010-08-29T13:52:59Z</time>
      </trkpt>
      <trkpt lat="42.11513" lon="9.15136">
        <ele>1529.1140137</ele>
        <time>2010-08-29T13:53:06Z</time>
      </trkpt>
      <trkpt lat="42.11519" lon="9.15129">
        <ele>1529.5947266</ele>
        <time>2010-08-29T13:53:13Z</time>
      </trkpt>
      <trkpt lat="42.11522" lon="9.15124">
        <ele>1528.6335449</ele>
        <time>2010-08-29T13:53:17Z</time>
      </trkpt>
      <trkpt lat="42.11531" lon="9.15115">
        <ele>1528.152832</ele>
        <time>2010-08-29T13:53:25Z</time>
      </trkpt>
      <trkpt lat="42.11536" lon="9.15108">
        <ele>1528.152832</ele>
        <time>2010-08-29T13:53:31Z</time>
      </trkpt>
      <trkpt lat="42.11539" lon="9.15106">
        <ele>1528.152832</ele>
        <time>2010-08-29T13:53:34Z</time>
      </trkpt>
      <trkpt lat="42.11547" lon="9.151">
        <ele>1529.5947266</ele>
        <time>2010-08-29T13:53:43Z</time>
      </trkpt>
      <trkpt lat="42.11551" lon="9.15092">
        <ele>1528.6335449</ele>
        <time>2010-08-29T13:53:49Z</time>
      </trkpt>
      <trkpt lat="42.11556" lon="9.1508">
        <ele>1523.8269043</ele>
        <time>2010-08-29T13:53:58Z</time>
      </trkpt>
      <trkpt lat="42.11563" lon="9.15067">
        <ele>1521.423584</ele>
        <time>2010-08-29T13:54:05Z</time>
      </trkpt>
      <trkpt lat="42.11564" lon="9.15064">
        <ele>1521.423584</ele>
        <time>2010-08-29T13:54:10Z</time>
      </trkpt>
      <trkpt lat="42.11565" lon="9.15064">
        <ele>1522.3850098</ele>
        <time>2010-08-29T13:54:11Z</time>
      </trkpt>
      <trkpt lat="42.11574" lon="9.15057">
        <ele>1520.4624023</ele>
        <time>2010-08-29T13:54:19Z</time>
      </trkpt>
      <trkpt lat="42.1158" lon="9.1505">
        <ele>1519.9816895</ele>
        <time>2010-08-29T13:54:25Z</time>
      </trkpt>
      <trkpt lat="42.11582" lon="9.15048">
        <ele>1519.9816895</ele>
        <time>2010-08-29T13:54:26Z</time>
      </trkpt>
      <trkpt lat="42.11585" lon="9.15037">
        <ele>1517.5783691</ele>
        <time>2010-08-29T13:54:33Z</time>
      </trkpt>
      <trkpt lat="42.11595" lon="9.15034">
        <ele>1516.1364746</ele>
        <time>2010-08-29T13:54:41Z</time>
      </trkpt>
      <trkpt lat="42.11601" lon="9.15031">
        <ele>1518.5397949</ele>
        <time>2010-08-29T13:54:48Z</time>
      </trkpt>
      <trkpt lat="42.11602" lon="9.15031">
        <ele>1519.5012207</ele>
        <time>2010-08-29T13:54:49Z</time>
      </trkpt>
      <trkpt lat="42.11614" lon="9.15013">
        <ele>1514.6943359</ele>
        <time>2010-08-29T13:54:58Z</time>
      </trkpt>
      <trkpt lat="42.11622" lon="9.15014">
        <ele>1520.9431152</ele>
        <time>2010-08-29T13:55:05Z</time>
      </trkpt>
      <trkpt lat="42.11626" lon="9.15007">
        <ele>1519.5012207</ele>
        <time>2010-08-29T13:55:09Z</time>
      </trkpt>
      <trkpt lat="42.11629" lon="9.14997">
        <ele>1515.1750488</ele>
        <time>2010-08-29T13:55:14Z</time>
      </trkpt>
      <trkpt lat="42.11633" lon="9.14989">
        <ele>1510.8491211</ele>
        <time>2010-08-29T13:55:18Z</time>
      </trkpt>
      <trkpt lat="42.11636" lon="9.1498">
        <ele>1508.4458008</ele>
        <time>2010-08-29T13:55:24Z</time>
      </trkpt>
      <trkpt lat="42.1164" lon="9.14975">
        <ele>1507.965332</ele>
        <time>2010-08-29T13:55:30Z</time>
      </trkpt>
      <trkpt lat="42.11645" lon="9.14965">
        <ele>1505.0812988</ele>
        <time>2010-08-29T13:55:36Z</time>
      </trkpt>
      <trkpt lat="42.1165" lon="9.14958">
        <ele>1505.0812988</ele>
        <time>2010-08-29T13:55:43Z</time>
      </trkpt>
      <trkpt lat="42.11652" lon="9.14958">
        <ele>1506.5231934</ele>
        <time>2010-08-29T13:55:45Z</time>
      </trkpt>
      <trkpt lat="42.11661" lon="9.14948">
        <ele>1503.1586914</ele>
        <time>2010-08-29T13:55:52Z</time>
      </trkpt>
      <trkpt lat="42.11669" lon="9.14941">
        <ele>1501.236084</ele>
        <time>2010-08-29T13:55:58Z</time>
      </trkpt>
      <trkpt lat="42.1167" lon="9.14935">
        <ele>1500.7553711</ele>
        <time>2010-08-29T13:56:03Z</time>
      </trkpt>
      <trkpt lat="42.11672" lon="9.1493">
        <ele>1502.1972656</ele>
        <time>2010-08-29T13:56:07Z</time>
      </trkpt>
      <trkpt lat="42.1168" lon="9.14922">
        <ele>1502.6779785</ele>
        <time>2010-08-29T13:56:16Z</time>
      </trkpt>
      <trkpt lat="42.11689" lon="9.14916">
        <ele>1500.2749023</ele>
        <time>2010-08-29T13:56:23Z</time>
      </trkpt>
      <trkpt lat="42.1169" lon="9.14915">
        <ele>1500.2749023</ele>
        <time>2010-08-29T13:56:24Z</time>
      </trkpt>
      <trkpt lat="42.11697" lon="9.14904">
        <ele>1498.8325195</ele>
        <time>2010-08-29T13:56:32Z</time>
      </trkpt>
      <trkpt lat="42.11706" lon="9.14888">
        <ele>1494.9873047</ele>
        <time>2010-08-29T13:56:40Z</time>
      </trkpt>
      <trkpt lat="42.11713" lon="9.14887">
        <ele>1497.8713379</ele>
        <time>2010-08-29T13:56:47Z</time>
      </trkpt>
      <trkpt lat="42.11717" lon="9.14876">
        <ele>1494.9873047</ele>
        <time>2010-08-29T13:56:55Z</time>
      </trkpt>
      <trkpt lat="42.11716" lon="9.14865">
        <ele>1488.2583008</ele>
        <time>2010-08-29T13:57:03Z</time>
      </trkpt>
      <trkpt lat="42.11712" lon="9.14858">
        <ele>1483.9321289</ele>
        <time>2010-08-29T13:57:14Z</time>
      </trkpt>
      <trkpt lat="42.1171" lon="9.14856">
        <ele>1485.8549805</ele>
        <time>2010-08-29T13:57:21Z</time>
      </trkpt>
      <trkpt lat="42.11713" lon="9.14856">
        <ele>1490.661377</ele>
        <time>2010-08-29T13:57:27Z</time>
      </trkpt>
      <trkpt lat="42.11715" lon="9.14856">
        <ele>1490.1809082</ele>
        <time>2010-08-29T13:57:47Z</time>
      </trkpt>
      <trkpt lat="42.1172" lon="9.14856">
        <ele>1494.026123</ele>
        <time>2010-08-29T13:57:55Z</time>
      </trkpt>
      <trkpt lat="42.11723" lon="9.14852">
        <ele>1494.5065918</ele>
        <time>2010-08-29T13:58:02Z</time>
      </trkpt>
      <trkpt lat="42.11719" lon="9.14846">
        <ele>1492.1035156</ele>
        <time>2010-08-29T13:58:08Z</time>
      </trkpt>
      <trkpt lat="42.11716" lon="9.14841">
        <ele>1495.9487305</ele>
        <time>2010-08-29T13:58:18Z</time>
      </trkpt>
      <trkpt lat="42.11711" lon="9.14837">
        <ele>1488.7390137</ele>
        <time>2010-08-29T13:58:42Z</time>
      </trkpt>
      <trkpt lat="42.11711" lon="9.14836">
        <ele>1484.4130859</ele>
        <time>2010-08-29T13:58:46Z</time>
      </trkpt>
      <trkpt lat="42.11713" lon="9.14835">
        <ele>1481.0483398</ele>
        <time>2010-08-29T13:58:57Z</time>
      </trkpt>
      <trkpt lat="42.11716" lon="9.14837">
        <ele>1483.9321289</ele>
        <time>2010-08-29T13:59:10Z</time>
      </trkpt>
      <trkpt lat="42.11717" lon="9.14838">
        <ele>1491.1420898</ele>
        <time>2010-08-29T13:59:19Z</time>
      </trkpt>
      <trkpt lat="42.11714" lon="9.14837">
        <ele>1499.7939453</ele>
        <time>2010-08-29T14:00:11Z</time>
      </trkpt>
      <trkpt lat="42.11714" lon="9.14837">
        <ele>1491.1420898</ele>
        <time>2010-08-29T14:00:21Z</time>
      </trkpt>
      <trkpt lat="42.11717" lon="9.14836">
        <ele>1491.6228027</ele>
        <time>2010-08-29T14:00:27Z</time>
      </trkpt>
      <trkpt lat="42.11724" lon="9.14831">
        <ele>1494.9873047</ele>
        <time>2010-08-29T14:00:35Z</time>
      </trkpt>
      <trkpt lat="42.11726" lon="9.14824">
        <ele>1493.5454102</ele>
        <time>2010-08-29T14:00:43Z</time>
      </trkpt>
      <trkpt lat="42.11728" lon="9.1482">
        <ele>1492.5842285</ele>
        <time>2010-08-29T14:00:47Z</time>
      </trkpt>
      <trkpt lat="42.11733" lon="9.14814">
        <ele>1490.661377</ele>
        <time>2010-08-29T14:00:54Z</time>
      </trkpt>
      <trkpt lat="42.11736" lon="9.14807">
        <ele>1486.8161621</ele>
        <time>2010-08-29T14:01:01Z</time>
      </trkpt>
      <trkpt lat="42.11741" lon="9.14798">
        <ele>1484.8937988</ele>
        <time>2010-08-29T14:01:08Z</time>
      </trkpt>
      <trkpt lat="42.11742" lon="9.14796">
        <ele>1484.4130859</ele>
        <time>2010-08-29T14:01:10Z</time>
      </trkpt>
      <trkpt lat="42.11745" lon="9.14778">
        <ele>1481.0483398</ele>
        <time>2010-08-29T14:01:20Z</time>
      </trkpt>
      <trkpt lat="42.1175" lon="9.14773">
        <ele>1481.5288086</ele>
        <time>2010-08-29T14:01:27Z</time>
      </trkpt>
      <trkpt lat="42.11752" lon="9.14769">
        <ele>1481.5288086</ele>
        <time>2010-08-29T14:01:35Z</time>
      </trkpt>
      <trkpt lat="42.11754" lon="9.1476">
        <ele>1481.5288086</ele>
        <time>2010-08-29T14:01:41Z</time>
      </trkpt>
      <trkpt lat="42.11754" lon="9.14757">
        <ele>1482.0095215</ele>
        <time>2010-08-29T14:01:44Z</time>
      </trkpt>
      <trkpt lat="42.11754" lon="9.14743">
        <ele>1479.1254883</ele>
        <time>2010-08-29T14:01:52Z</time>
      </trkpt>
      <trkpt lat="42.11749" lon="9.14734">
        <ele>1477.203125</ele>
        <time>2010-08-29T14:01:58Z</time>
      </trkpt>
      <trkpt lat="42.11742" lon="9.14723">
        <ele>1475.7609863</ele>
        <time>2010-08-29T14:02:06Z</time>
      </trkpt>
      <trkpt lat="42.11737" lon="9.14715">
        <ele>1473.8383789</ele>
        <time>2010-08-29T14:02:13Z</time>
      </trkpt>
      <trkpt lat="42.11733" lon="9.14711">
        <ele>1474.7998047</ele>
        <time>2010-08-29T14:02:18Z</time>
      </trkpt>
      <trkpt lat="42.11732" lon="9.14708">
        <ele>1477.203125</ele>
        <time>2010-08-29T14:02:22Z</time>
      </trkpt>
      <trkpt lat="42.11731" lon="9.14706">
        <ele>1479.1254883</ele>
        <time>2010-08-29T14:02:25Z</time>
      </trkpt>
      <trkpt lat="42.1173" lon="9.14697">
        <ele>1482.4902344</ele>
        <time>2010-08-29T14:02:34Z</time>
      </trkpt>
      <trkpt lat="42.1173" lon="9.14691">
        <ele>1483.9321289</ele>
        <time>2010-08-29T14:02:39Z</time>
      </trkpt>
      <trkpt lat="42.11727" lon="9.14682">
        <ele>1484.4130859</ele>
        <time>2010-08-29T14:02:45Z</time>
      </trkpt>
      <trkpt lat="42.11727" lon="9.14673">
        <ele>1482.9707031</ele>
        <time>2010-08-29T14:02:51Z</time>
      </trkpt>
      <trkpt lat="42.11727" lon="9.14668">
        <ele>1484.8937988</ele>
        <time>2010-08-29T14:02:58Z</time>
      </trkpt>
      <trkpt lat="42.11727" lon="9.14658">
        <ele>1487.296875</ele>
        <time>2010-08-29T14:03:05Z</time>
      </trkpt>
      <trkpt lat="42.11725" lon="9.14652">
        <ele>1487.296875</ele>
        <time>2010-08-29T14:03:09Z</time>
      </trkpt>
      <trkpt lat="42.11723" lon="9.14644">
        <ele>1486.8161621</ele>
        <time>2010-08-29T14:03:15Z</time>
      </trkpt>
      <trkpt lat="42.1172" lon="9.14639">
        <ele>1484.4130859</ele>
        <time>2010-08-29T14:03:19Z</time>
      </trkpt>
      <trkpt lat="42.11717" lon="9.14635">
        <ele>1482.0095215</ele>
        <time>2010-08-29T14:03:22Z</time>
      </trkpt>
      <trkpt lat="42.11714" lon="9.14627">
        <ele>1482.9707031</ele>
        <time>2010-08-29T14:03:27Z</time>
      </trkpt>
      <trkpt lat="42.11707" lon="9.14615">
        <ele>1478.6450195</ele>
        <time>2010-08-29T14:03:34Z</time>
      </trkpt>
      <trkpt lat="42.11704" lon="9.14605">
        <ele>1477.6835938</ele>
        <time>2010-08-29T14:03:41Z</time>
      </trkpt>
      <trkpt lat="42.11696" lon="9.14599">
        <ele>1474.7998047</ele>
        <time>2010-08-29T14:03:47Z</time>
      </trkpt>
      <trkpt lat="42.11693" lon="9.14588">
        <ele>1472.8771973</ele>
        <time>2010-08-29T14:03:53Z</time>
      </trkpt>
      <trkpt lat="42.11689" lon="9.14583">
        <ele>1472.3964844</ele>
        <time>2010-08-29T14:03:59Z</time>
      </trkpt>
      <trkpt lat="42.11684" lon="9.14573">
        <ele>1468.5512695</ele>
        <time>2010-08-29T14:04:06Z</time>
      </trkpt>
      <trkpt lat="42.1168" lon="9.14565">
        <ele>1466.1477051</ele>
        <time>2010-08-29T14:04:12Z</time>
      </trkpt>
      <trkpt lat="42.11677" lon="9.14551">
        <ele>1463.7443848</ele>
        <time>2010-08-29T14:04:19Z</time>
      </trkpt>
      <trkpt lat="42.11675" lon="9.14539">
        <ele>1459.8991699</ele>
        <time>2010-08-29T14:04:25Z</time>
      </trkpt>
      <trkpt lat="42.11672" lon="9.14523">
        <ele>1455.5734863</ele>
        <time>2010-08-29T14:04:32Z</time>
      </trkpt>
      <trkpt lat="42.11672" lon="9.14517">
        <ele>1454.1315918</ele>
        <time>2010-08-29T14:04:37Z</time>
      </trkpt>
      <trkpt lat="42.11672" lon="9.1451">
        <ele>1451.2473145</ele>
        <time>2010-08-29T14:04:43Z</time>
      </trkpt>
      <trkpt lat="42.11672" lon="9.14504">
        <ele>1449.324707</ele>
        <time>2010-08-29T14:04:49Z</time>
      </trkpt>
      <trkpt lat="42.11672" lon="9.14496">
        <ele>1451.2473145</ele>
        <time>2010-08-29T14:04:55Z</time>
      </trkpt>
      <trkpt lat="42.11673" lon="9.14491">
        <ele>1452.6894531</ele>
        <time>2010-08-29T14:05:01Z</time>
      </trkpt>
      <trkpt lat="42.11669" lon="9.14491">
        <ele>1445.4794922</ele>
        <time>2010-08-29T14:05:09Z</time>
      </trkpt>
      <trkpt lat="42.11653" lon="9.1449">
        <ele>1442.1149902</ele>
        <time>2010-08-29T14:05:26Z</time>
      </trkpt>
      <trkpt lat="42.11618" lon="9.14484">
        <ele>1433.4628906</ele>
        <time>2010-08-29T14:06:02Z</time>
      </trkpt>
      <trkpt lat="42.11612" lon="9.14484">
        <ele>1433.4628906</ele>
        <time>2010-08-29T14:06:05Z</time>
      </trkpt>
      <trkpt lat="42.11595" lon="9.14481">
        <ele>1446.9213867</ele>
        <time>2010-08-29T14:06:11Z</time>
      </trkpt>
      <trkpt lat="42.1158" lon="9.14478">
        <ele>1449.8054199</ele>
        <time>2010-08-29T14:06:29Z</time>
      </trkpt>
      <trkpt lat="42.11578" lon="9.14469">
        <ele>1453.6508789</ele>
        <time>2010-08-29T14:06:40Z</time>
      </trkpt>
      <trkpt lat="42.1158" lon="9.14463">
        <ele>1453.170166</ele>
        <time>2010-08-29T14:06:45Z</time>
      </trkpt>
      <trkpt lat="42.11583" lon="9.14459">
        <ele>1450.2861328</ele>
        <time>2010-08-29T14:06:49Z</time>
      </trkpt>
      <trkpt lat="42.11586" lon="9.14456">
        <ele>1443.0761719</ele>
        <time>2010-08-29T14:06:54Z</time>
      </trkpt>
      <trkpt lat="42.1159" lon="9.14446">
        <ele>1444.0375977</ele>
        <time>2010-08-29T14:07:01Z</time>
      </trkpt>
      <trkpt lat="42.11594" lon="9.14444">
        <ele>1439.7116699</ele>
        <time>2010-08-29T14:07:07Z</time>
      </trkpt>
      <trkpt lat="42.11598" lon="9.14439">
        <ele>1439.230957</ele>
        <time>2010-08-29T14:07:13Z</time>
      </trkpt>
      <trkpt lat="42.11607" lon="9.14437">
        <ele>1429.6176758</ele>
        <time>2010-08-29T14:07:19Z</time>
      </trkpt>
      <trkpt lat="42.1161" lon="9.14437">
        <ele>1426.2531738</ele>
        <time>2010-08-29T14:07:21Z</time>
      </trkpt>
      <trkpt lat="42.11614" lon="9.14437">
        <ele>1429.1369629</ele>
        <time>2010-08-29T14:07:27Z</time>
      </trkpt>
      <trkpt lat="42.11612" lon="9.14434">
        <ele>1433.4628906</ele>
        <time>2010-08-29T14:07:31Z</time>
      </trkpt>
      <trkpt lat="42.11616" lon="9.14434">
        <ele>1431.0598145</ele>
        <time>2010-08-29T14:07:37Z</time>
      </trkpt>
      <trkpt lat="42.11607" lon="9.14419">
        <ele>1447.8828125</ele>
        <time>2010-08-29T14:07:53Z</time>
      </trkpt>
      <trkpt lat="42.11602" lon="9.14417">
        <ele>1450.7666016</ele>
        <time>2010-08-29T14:08:01Z</time>
      </trkpt>
      <trkpt lat="42.11599" lon="9.14416">
        <ele>1451.2473145</ele>
        <time>2010-08-29T14:08:03Z</time>
      </trkpt>
      <trkpt lat="42.11591" lon="9.14412">
        <ele>1445.9602051</ele>
        <time>2010-08-29T14:08:10Z</time>
      </trkpt>
      <trkpt lat="42.11584" lon="9.14402">
        <ele>1439.7116699</ele>
        <time>2010-08-29T14:08:16Z</time>
      </trkpt>
      <trkpt lat="42.11582" lon="9.14404">
        <ele>1438.2697754</ele>
        <time>2010-08-29T14:08:24Z</time>
      </trkpt>
      <trkpt lat="42.11576" lon="9.14398">
        <ele>1436.8276367</ele>
        <time>2010-08-29T14:08:31Z</time>
      </trkpt>
      <trkpt lat="42.11578" lon="9.14398">
        <ele>1429.1369629</ele>
        <time>2010-08-29T14:08:37Z</time>
      </trkpt>
      <trkpt lat="42.11578" lon="9.14396">
        <ele>1429.6176758</ele>
        <time>2010-08-29T14:08:38Z</time>
      </trkpt>
      <trkpt lat="42.11584" lon="9.1439">
        <ele>1426.2531738</ele>
        <time>2010-08-29T14:08:44Z</time>
      </trkpt>
      <trkpt lat="42.11595" lon="9.14393">
        <ele>1419.5239258</ele>
        <time>2010-08-29T14:08:50Z</time>
      </trkpt>
      <trkpt lat="42.11604" lon="9.14399">
        <ele>1407.0268555</ele>
        <time>2010-08-29T14:08:56Z</time>
      </trkpt>
      <trkpt lat="42.11598" lon="9.14398">
        <ele>1402.7006836</ele>
        <time>2010-08-29T14:09:01Z</time>
      </trkpt>
      <trkpt lat="42.1159" lon="9.14394">
        <ele>1393.0876465</ele>
        <time>2010-08-29T14:09:07Z</time>
      </trkpt>
      <trkpt lat="42.11588" lon="9.14392">
        <ele>1390.2038574</ele>
        <time>2010-08-29T14:09:10Z</time>
      </trkpt>
      <trkpt lat="42.11576" lon="9.1439">
        <ele>1391.1650391</ele>
        <time>2010-08-29T14:09:14Z</time>
      </trkpt>
      <trkpt lat="42.11556" lon="9.14382">
        <ele>1397.8942871</ele>
        <time>2010-08-29T14:09:20Z</time>
      </trkpt>
      <trkpt lat="42.11554" lon="9.14382">
        <ele>1403.6621094</ele>
        <time>2010-08-29T14:09:25Z</time>
      </trkpt>
      <trkpt lat="42.11556" lon="9.14372">
        <ele>1403.6621094</ele>
        <time>2010-08-29T14:09:31Z</time>
      </trkpt>
      <trkpt lat="42.11559" lon="9.1437">
        <ele>1404.6235352</ele>
        <time>2010-08-29T14:09:36Z</time>
      </trkpt>
      <trkpt lat="42.11558" lon="9.14363">
        <ele>1413.2753906</ele>
        <time>2010-08-29T14:09:43Z</time>
      </trkpt>
      <trkpt lat="42.1156" lon="9.1436">
        <ele>1415.6787109</ele>
        <time>2010-08-29T14:09:48Z</time>
      </trkpt>
      <trkpt lat="42.11563" lon="9.14357">
        <ele>1414.7172852</ele>
        <time>2010-08-29T14:09:54Z</time>
      </trkpt>
      <trkpt lat="42.11567" lon="9.14354">
        <ele>1412.7946777</ele>
        <time>2010-08-29T14:09:59Z</time>
      </trkpt>
      <trkpt lat="42.11573" lon="9.1435">
        <ele>1414.2365723</ele>
        <time>2010-08-29T14:10:05Z</time>
      </trkpt>
      <trkpt lat="42.11581" lon="9.14344">
        <ele>1412.3139648</ele>
        <time>2010-08-29T14:10:10Z</time>
      </trkpt>
      <trkpt lat="42.11586" lon="9.14341">
        <ele>1409.9106445</ele>
        <time>2010-08-29T14:10:17Z</time>
      </trkpt>
      <trkpt lat="42.11592" lon="9.14339">
        <ele>1403.6621094</ele>
        <time>2010-08-29T14:10:24Z</time>
      </trkpt>
      <trkpt lat="42.11591" lon="9.14338">
        <ele>1394.529541</ele>
        <time>2010-08-29T14:10:34Z</time>
      </trkpt>
      <trkpt lat="42.11588" lon="9.14332">
        <ele>1386.3583984</ele>
        <time>2010-08-29T14:10:40Z</time>
      </trkpt>
      <trkpt lat="42.1159" lon="9.14331">
        <ele>1370.496582</ele>
        <time>2010-08-29T14:10:50Z</time>
      </trkpt>
      <trkpt lat="42.11581" lon="9.14326">
        <ele>1368.5739746</ele>
        <time>2010-08-29T14:10:55Z</time>
      </trkpt>
      <trkpt lat="42.11574" lon="9.14323">
        <ele>1368.5739746</ele>
        <time>2010-08-29T14:11:01Z</time>
      </trkpt>
      <trkpt lat="42.11567" lon="9.1432">
        <ele>1368.5739746</ele>
        <time>2010-08-29T14:11:05Z</time>
      </trkpt>
      <trkpt lat="42.11564" lon="9.14326">
        <ele>1368.5739746</ele>
        <time>2010-08-29T14:11:11Z</time>
      </trkpt>
      <trkpt lat="42.1155" lon="9.14322">
        <ele>1371.4577637</ele>
        <time>2010-08-29T14:11:24Z</time>
      </trkpt>
      <trkpt lat="42.11544" lon="9.14318">
        <ele>1368.0932617</ele>
        <time>2010-08-29T14:11:29Z</time>
      </trkpt>
      <trkpt lat="42.11541" lon="9.14304">
        <ele>1375.7839355</ele>
        <time>2010-08-29T14:11:37Z</time>
      </trkpt>
      <trkpt lat="42.11545" lon="9.14293">
        <ele>1380.5905762</ele>
        <time>2010-08-29T14:11:45Z</time>
      </trkpt>
      <trkpt lat="42.11547" lon="9.14289">
        <ele>1384.9165039</ele>
        <time>2010-08-29T14:11:51Z</time>
      </trkpt>
      <trkpt lat="42.11551" lon="9.14284">
        <ele>1383.9550781</ele>
        <time>2010-08-29T14:11:57Z</time>
      </trkpt>
      <trkpt lat="42.11555" lon="9.14278">
        <ele>1382.0324707</ele>
        <time>2010-08-29T14:12:02Z</time>
      </trkpt>
      <trkpt lat="42.11561" lon="9.14272">
        <ele>1382.9936523</ele>
        <time>2010-08-29T14:12:10Z</time>
      </trkpt>
      <trkpt lat="42.11562" lon="9.14271">
        <ele>1380.1098633</ele>
        <time>2010-08-29T14:12:17Z</time>
      </trkpt>
      <trkpt lat="42.11568" lon="9.14275">
        <ele>1362.3254395</ele>
        <time>2010-08-29T14:12:35Z</time>
      </trkpt>
      <trkpt lat="42.1156" lon="9.14273">
        <ele>1355.5961914</ele>
        <time>2010-08-29T14:12:42Z</time>
      </trkpt>
      <trkpt lat="42.11549" lon="9.14275">
        <ele>1334.4472656</ele>
        <time>2010-08-29T14:12:56Z</time>
      </trkpt>
      <trkpt lat="42.11542" lon="9.14276">
        <ele>1333.9665527</ele>
        <time>2010-08-29T14:12:59Z</time>
      </trkpt>
      <trkpt lat="42.11538" lon="9.14279">
        <ele>1335.4084473</ele>
        <time>2010-08-29T14:13:01Z</time>
      </trkpt>
      <trkpt lat="42.11526" lon="9.1428">
        <ele>1340.6958008</ele>
        <time>2010-08-29T14:13:07Z</time>
      </trkpt>
      <trkpt lat="42.11521" lon="9.14282">
        <ele>1340.215332</ele>
        <time>2010-08-29T14:13:12Z</time>
      </trkpt>
      <trkpt lat="42.11518" lon="9.14286">
        <ele>1341.1765137</ele>
        <time>2010-08-29T14:13:17Z</time>
      </trkpt>
      <trkpt lat="42.11514" lon="9.14286">
        <ele>1342.6186523</ele>
        <time>2010-08-29T14:13:20Z</time>
      </trkpt>
      <trkpt lat="42.11496" lon="9.14282">
        <ele>1340.6958008</ele>
        <time>2010-08-29T14:13:27Z</time>
      </trkpt>
      <trkpt lat="42.11489" lon="9.14285">
        <ele>1359.9221191</ele>
        <time>2010-08-29T14:13:40Z</time>
      </trkpt>
      <trkpt lat="42.11484" lon="9.14287">
        <ele>1362.8061523</ele>
        <time>2010-08-29T14:13:45Z</time>
      </trkpt>
      <trkpt lat="42.1148" lon="9.14289">
        <ele>1370.9772949</ele>
        <time>2010-08-29T14:13:50Z</time>
      </trkpt>
      <trkpt lat="42.1148" lon="9.14289">
        <ele>1373.3808594</ele>
        <time>2010-08-29T14:13:56Z</time>
      </trkpt>
      <trkpt lat="42.11474" lon="9.1428">
        <ele>1384.9165039</ele>
        <time>2010-08-29T14:14:07Z</time>
      </trkpt>
      <trkpt lat="42.11474" lon="9.14271">
        <ele>1383.4743652</ele>
        <time>2010-08-29T14:14:12Z</time>
      </trkpt>
      <trkpt lat="42.11473" lon="9.14267">
        <ele>1382.5131836</ele>
        <time>2010-08-29T14:14:18Z</time>
      </trkpt>
      <trkpt lat="42.11477" lon="9.1426">
        <ele>1378.6679688</ele>
        <time>2010-08-29T14:14:23Z</time>
      </trkpt>
      <trkpt lat="42.11481" lon="9.14248">
        <ele>1380.5905762</ele>
        <time>2010-08-29T14:14:29Z</time>
      </trkpt>
      <trkpt lat="42.11486" lon="9.1424">
        <ele>1376.7453613</ele>
        <time>2010-08-29T14:14:37Z</time>
      </trkpt>
      <trkpt lat="42.11488" lon="9.14235">
        <ele>1378.6679688</ele>
        <time>2010-08-29T14:14:42Z</time>
      </trkpt>
      <trkpt lat="42.11488" lon="9.14231">
        <ele>1376.7453613</ele>
        <time>2010-08-29T14:14:45Z</time>
      </trkpt>
      <trkpt lat="42.11491" lon="9.14223">
        <ele>1373.3808594</ele>
        <time>2010-08-29T14:14:52Z</time>
      </trkpt>
      <trkpt lat="42.11491" lon="9.14211">
        <ele>1372.4194336</ele>
        <time>2010-08-29T14:15:00Z</time>
      </trkpt>
      <trkpt lat="42.11493" lon="9.14195">
        <ele>1365.2094727</ele>
        <time>2010-08-29T14:15:11Z</time>
      </trkpt>
      <trkpt lat="42.11499" lon="9.14187">
        <ele>1357.0383301</ele>
        <time>2010-08-29T14:15:22Z</time>
      </trkpt>
      <trkpt lat="42.11499" lon="9.14187">
        <ele>1357.9997559</ele>
        <time>2010-08-29T14:15:23Z</time>
      </trkpt>
      <trkpt lat="42.11511" lon="9.14183">
        <ele>1353.673584</ele>
        <time>2010-08-29T14:15:31Z</time>
      </trkpt>
      <trkpt lat="42.11512" lon="9.14182">
        <ele>1353.673584</ele>
        <time>2010-08-29T14:15:33Z</time>
      </trkpt>
      <trkpt lat="42.1152" lon="9.14178">
        <ele>1352.2314453</ele>
        <time>2010-08-29T14:15:40Z</time>
      </trkpt>
      <trkpt lat="42.11524" lon="9.14173">
        <ele>1349.8283691</ele>
        <time>2010-08-29T14:15:47Z</time>
      </trkpt>
      <trkpt lat="42.11531" lon="9.14171">
        <ele>1352.2314453</ele>
        <time>2010-08-29T14:15:54Z</time>
      </trkpt>
      <trkpt lat="42.11538" lon="9.14171">
        <ele>1347.9057617</ele>
        <time>2010-08-29T14:15:59Z</time>
      </trkpt>
      <trkpt lat="42.1154" lon="9.14171">
        <ele>1348.3862305</ele>
        <time>2010-08-29T14:16:00Z</time>
      </trkpt>
      <trkpt lat="42.11543" lon="9.14167">
        <ele>1344.5410156</ele>
        <time>2010-08-29T14:16:05Z</time>
      </trkpt>
      <trkpt lat="42.1155" lon="9.14162">
        <ele>1345.0217285</ele>
        <time>2010-08-29T14:16:13Z</time>
      </trkpt>
      <trkpt lat="42.11552" lon="9.14159">
        <ele>1337.3310547</ele>
        <time>2010-08-29T14:16:17Z</time>
      </trkpt>
      <trkpt lat="42.11549" lon="9.14157">
        <ele>1321.4692383</ele>
        <time>2010-08-29T14:16:30Z</time>
      </trkpt>
      <trkpt lat="42.11549" lon="9.14156">
        <ele>1317.6240234</ele>
        <time>2010-08-29T14:16:33Z</time>
      </trkpt>
      <trkpt lat="42.11536" lon="9.1415">
        <ele>1315.2209473</ele>
        <time>2010-08-29T14:16:39Z</time>
      </trkpt>
      <trkpt lat="42.1153" lon="9.14153">
        <ele>1313.2983398</ele>
        <time>2010-08-29T14:16:43Z</time>
      </trkpt>
      <trkpt lat="42.11523" lon="9.14146">
        <ele>1312.817627</ele>
        <time>2010-08-29T14:16:49Z</time>
      </trkpt>
      <trkpt lat="42.11514" lon="9.14138">
        <ele>1310.4143066</ele>
        <time>2010-08-29T14:16:54Z</time>
      </trkpt>
      <trkpt lat="42.1151" lon="9.14142">
        <ele>1308.9724121</ele>
        <time>2010-08-29T14:16:59Z</time>
      </trkpt>
      <trkpt lat="42.11503" lon="9.14143">
        <ele>1305.1269531</ele>
        <time>2010-08-29T14:17:11Z</time>
      </trkpt>
      <trkpt lat="42.115" lon="9.14141">
        <ele>1306.5688477</ele>
        <time>2010-08-29T14:17:14Z</time>
      </trkpt>
      <trkpt lat="42.11501" lon="9.14139">
        <ele>1307.0495605</ele>
        <time>2010-08-29T14:17:16Z</time>
      </trkpt>
      <trkpt lat="42.115" lon="9.14132">
        <ele>1309.453125</ele>
        <time>2010-08-29T14:17:22Z</time>
      </trkpt>
      <trkpt lat="42.115" lon="9.14128">
        <ele>1310.8950195</ele>
        <time>2010-08-29T14:17:27Z</time>
      </trkpt>
      <trkpt lat="42.11501" lon="9.14124">
        <ele>1311.3757324</ele>
        <time>2010-08-29T14:17:32Z</time>
      </trkpt>
      <trkpt lat="42.11501" lon="9.1412">
        <ele>1314.2595215</ele>
        <time>2010-08-29T14:17:34Z</time>
      </trkpt>
      <trkpt lat="42.11505" lon="9.14114">
        <ele>1314.2595215</ele>
        <time>2010-08-29T14:17:40Z</time>
      </trkpt>
      <trkpt lat="42.11507" lon="9.14114">
        <ele>1314.2595215</ele>
        <time>2010-08-29T14:17:41Z</time>
      </trkpt>
      <trkpt lat="42.11509" lon="9.14102">
        <ele>1311.8564453</ele>
        <time>2010-08-29T14:17:48Z</time>
      </trkpt>
      <trkpt lat="42.11512" lon="9.14109">
        <ele>1304.1657715</ele>
        <time>2010-08-29T14:18:00Z</time>
      </trkpt>
      <trkpt lat="42.11505" lon="9.14106">
        <ele>1304.1657715</ele>
        <time>2010-08-29T14:18:05Z</time>
      </trkpt>
      <trkpt lat="42.11498" lon="9.1411">
        <ele>1305.1269531</ele>
        <time>2010-08-29T14:18:10Z</time>
      </trkpt>
      <trkpt lat="42.11486" lon="9.14115">
        <ele>1309.453125</ele>
        <time>2010-08-29T14:18:22Z</time>
      </trkpt>
      <trkpt lat="42.11482" lon="9.14116">
        <ele>1310.4143066</ele>
        <time>2010-08-29T14:18:28Z</time>
      </trkpt>
      <trkpt lat="42.11481" lon="9.14116">
        <ele>1306.5688477</ele>
        <time>2010-08-29T14:18:31Z</time>
      </trkpt>
      <trkpt lat="42.11481" lon="9.14105">
        <ele>1304.1657715</ele>
        <time>2010-08-29T14:18:39Z</time>
      </trkpt>
      <trkpt lat="42.1148" lon="9.141">
        <ele>1304.6462402</ele>
        <time>2010-08-29T14:18:43Z</time>
      </trkpt>
      <trkpt lat="42.11483" lon="9.14093">
        <ele>1301.7624512</ele>
        <time>2010-08-29T14:18:50Z</time>
      </trkpt>
      <trkpt lat="42.11483" lon="9.14085">
        <ele>1301.2817383</ele>
        <time>2010-08-29T14:18:56Z</time>
      </trkpt>
      <trkpt lat="42.11481" lon="9.14078">
        <ele>1303.6850586</ele>
        <time>2010-08-29T14:19:04Z</time>
      </trkpt>
      <trkpt lat="42.11475" lon="9.14072">
        <ele>1308.9724121</ele>
        <time>2010-08-29T14:19:09Z</time>
      </trkpt>
      <trkpt lat="42.11469" lon="9.14073">
        <ele>1308.9724121</ele>
        <time>2010-08-29T14:19:15Z</time>
      </trkpt>
      <trkpt lat="42.11464" lon="9.14074">
        <ele>1309.453125</ele>
        <time>2010-08-29T14:19:19Z</time>
      </trkpt>
      <trkpt lat="42.11462" lon="9.1408">
        <ele>1306.0881348</ele>
        <time>2010-08-29T14:19:23Z</time>
      </trkpt>
      <trkpt lat="42.11456" lon="9.14092">
        <ele>1289.2651367</ele>
        <time>2010-08-29T14:19:38Z</time>
      </trkpt>
      <trkpt lat="42.11454" lon="9.14091">
        <ele>1292.1494141</ele>
        <time>2010-08-29T14:19:43Z</time>
      </trkpt>
      <trkpt lat="42.11455" lon="9.14089">
        <ele>1292.630127</ele>
        <time>2010-08-29T14:19:48Z</time>
      </trkpt>
      <trkpt lat="42.11458" lon="9.14088">
        <ele>1292.630127</ele>
        <time>2010-08-29T14:20:24Z</time>
      </trkpt>
      <trkpt lat="42.11457" lon="9.14087">
        <ele>1293.5913086</ele>
        <time>2010-08-29T14:20:29Z</time>
      </trkpt>
      <trkpt lat="42.11454" lon="9.14084">
        <ele>1295.0332031</ele>
        <time>2010-08-29T14:20:33Z</time>
      </trkpt>
      <trkpt lat="42.11458" lon="9.14081">
        <ele>1290.2265625</ele>
        <time>2010-08-29T14:20:39Z</time>
      </trkpt>
      <trkpt lat="42.11466" lon="9.14077">
        <ele>1279.1713867</ele>
        <time>2010-08-29T14:21:03Z</time>
      </trkpt>
      <trkpt lat="42.11455" lon="9.14065">
        <ele>1278.2102051</ele>
        <time>2010-08-29T14:21:17Z</time>
      </trkpt>
      <trkpt lat="42.11464" lon="9.14099">
        <ele>1283.0166016</ele>
        <time>2010-08-29T14:22:26Z</time>
      </trkpt>
      <trkpt lat="42.11453" lon="9.14104">
        <ele>1288.784668</ele>
        <time>2010-08-29T14:22:49Z</time>
      </trkpt>
      <trkpt lat="42.11451" lon="9.14098">
        <ele>1292.1494141</ele>
        <time>2010-08-29T14:22:52Z</time>
      </trkpt>
      <trkpt lat="42.11438" lon="9.14085">
        <ele>1303.6850586</ele>
        <time>2010-08-29T14:22:58Z</time>
      </trkpt>
      <trkpt lat="42.11435" lon="9.14081">
        <ele>1309.453125</ele>
        <time>2010-08-29T14:23:02Z</time>
      </trkpt>
      <trkpt lat="42.11434" lon="9.1408">
        <ele>1316.1821289</ele>
        <time>2010-08-29T14:23:07Z</time>
      </trkpt>
      <trkpt lat="42.11428" lon="9.14074">
        <ele>1323.3920898</ele>
        <time>2010-08-29T14:23:12Z</time>
      </trkpt>
      <trkpt lat="42.11435" lon="9.14081">
        <ele>1313.2983398</ele>
        <time>2010-08-29T14:23:19Z</time>
      </trkpt>
      <trkpt lat="42.11443" lon="9.14084">
        <ele>1276.7683105</ele>
        <time>2010-08-29T14:24:48Z</time>
      </trkpt>
      <trkpt lat="42.11442" lon="9.14083">
        <ele>1279.1713867</ele>
        <time>2010-08-29T14:24:49Z</time>
      </trkpt>
      <trkpt lat="42.11439" lon="9.14087">
        <ele>1283.4973145</ele>
        <time>2010-08-29T14:24:54Z</time>
      </trkpt>
      <trkpt lat="42.1144" lon="9.1408">
        <ele>1292.1494141</ele>
        <time>2010-08-29T14:26:10Z</time>
      </trkpt>
      <trkpt lat="42.11433" lon="9.14078">
        <ele>1295.513916</ele>
        <time>2010-08-29T14:26:16Z</time>
      </trkpt>
      <trkpt lat="42.11427" lon="9.14083">
        <ele>1313.2983398</ele>
        <time>2010-08-29T14:26:36Z</time>
      </trkpt>
      <trkpt lat="42.11412" lon="9.14063">
        <ele>1316.6628418</ele>
        <time>2010-08-29T14:26:41Z</time>
      </trkpt>
      <trkpt lat="42.11407" lon="9.14069">
        <ele>1326.7568359</ele>
        <time>2010-08-29T14:26:46Z</time>
      </trkpt>
      <trkpt lat="42.11451" lon="9.14082">
        <ele>1272.4421387</ele>
        <time>2010-08-29T14:28:38Z</time>
      </trkpt>
      <trkpt lat="42.11442" lon="9.14083">
        <ele>1287.3425293</ele>
        <time>2010-08-29T14:29:26Z</time>
      </trkpt>
      <trkpt lat="42.11441" lon="9.14089">
        <ele>1287.8232422</ele>
        <time>2010-08-29T14:29:33Z</time>
      </trkpt>
      <trkpt lat="42.11434" lon="9.14093">
        <ele>1293.1105957</ele>
        <time>2010-08-29T14:29:40Z</time>
      </trkpt>
      <trkpt lat="42.11423" lon="9.14098">
        <ele>1295.9946289</ele>
        <time>2010-08-29T14:29:47Z</time>
      </trkpt>
      <trkpt lat="42.11421" lon="9.14101">
        <ele>1290.7070312</ele>
        <time>2010-08-29T14:29:53Z</time>
      </trkpt>
      <trkpt lat="42.11415" lon="9.14107">
        <ele>1284.9394531</ele>
        <time>2010-08-29T14:30:00Z</time>
      </trkpt>
      <trkpt lat="42.11411" lon="9.14113">
        <ele>1281.574707</ele>
        <time>2010-08-29T14:30:06Z</time>
      </trkpt>
      <trkpt lat="42.11407" lon="9.14113">
        <ele>1273.4035645</ele>
        <time>2010-08-29T14:30:14Z</time>
      </trkpt>
      <trkpt lat="42.11397" lon="9.14111">
        <ele>1278.690918</ele>
        <time>2010-08-29T14:30:20Z</time>
      </trkpt>
      <trkpt lat="42.11396" lon="9.14114">
        <ele>1269.5583496</ele>
        <time>2010-08-29T14:30:26Z</time>
      </trkpt>
      <trkpt lat="42.11396" lon="9.14115">
        <ele>1258.9836426</ele>
        <time>2010-08-29T14:30:32Z</time>
      </trkpt>
      <trkpt lat="42.11389" lon="9.14113">
        <ele>1258.5029297</ele>
        <time>2010-08-29T14:30:35Z</time>
      </trkpt>
      <trkpt lat="42.11376" lon="9.14106">
        <ele>1256.5803223</ele>
        <time>2010-08-29T14:30:42Z</time>
      </trkpt>
      <trkpt lat="42.1137" lon="9.14106">
        <ele>1260.9064941</ele>
        <time>2010-08-29T14:30:47Z</time>
      </trkpt>
      <trkpt lat="42.11366" lon="9.14105">
        <ele>1260.4257812</ele>
        <time>2010-08-29T14:30:51Z</time>
      </trkpt>
      <trkpt lat="42.11354" lon="9.141">
        <ele>1261.8679199</ele>
        <time>2010-08-29T14:30:58Z</time>
      </trkpt>
      <trkpt lat="42.11342" lon="9.14096">
        <ele>1261.8679199</ele>
        <time>2010-08-29T14:31:05Z</time>
      </trkpt>
      <trkpt lat="42.11337" lon="9.14091">
        <ele>1261.8679199</ele>
        <time>2010-08-29T14:31:09Z</time>
      </trkpt>
      <trkpt lat="42.11329" lon="9.14088">
        <ele>1261.8679199</ele>
        <time>2010-08-29T14:31:17Z</time>
      </trkpt>
      <trkpt lat="42.11328" lon="9.14089">
        <ele>1261.8679199</ele>
        <time>2010-08-29T14:31:18Z</time>
      </trkpt>
      <trkpt lat="42.11321" lon="9.14088">
        <ele>1263.7902832</ele>
        <time>2010-08-29T14:31:21Z</time>
      </trkpt>
      <trkpt lat="42.11307" lon="9.14083">
        <ele>1269.5583496</ele>
        <time>2010-08-29T14:31:27Z</time>
      </trkpt>
      <trkpt lat="42.11304" lon="9.14087">
        <ele>1257.0610352</ele>
        <time>2010-08-29T14:31:38Z</time>
      </trkpt>
      <trkpt lat="42.11298" lon="9.14085">
        <ele>1250.8125</ele>
        <time>2010-08-29T14:31:47Z</time>
      </trkpt>
      <trkpt lat="42.11292" lon="9.14083">
        <ele>1245.5253906</ele>
        <time>2010-08-29T14:31:52Z</time>
      </trkpt>
      <trkpt lat="42.11279" lon="9.14083">
        <ele>1239.7573242</ele>
        <time>2010-08-29T14:31:57Z</time>
      </trkpt>
      <trkpt lat="42.11283" lon="9.14086">
        <ele>1233.989502</ele>
        <time>2010-08-29T14:32:02Z</time>
      </trkpt>
      <trkpt lat="42.11276" lon="9.14083">
        <ele>1234.9509277</ele>
        <time>2010-08-29T14:32:07Z</time>
      </trkpt>
      <trkpt lat="42.11266" lon="9.14082">
        <ele>1239.7573242</ele>
        <time>2010-08-29T14:32:12Z</time>
      </trkpt>
      <trkpt lat="42.11265" lon="9.1408">
        <ele>1240.2380371</ele>
        <time>2010-08-29T14:32:19Z</time>
      </trkpt>
      <trkpt lat="42.11252" lon="9.14073">
        <ele>1253.2158203</ele>
        <time>2010-08-29T14:32:26Z</time>
      </trkpt>
      <trkpt lat="42.11243" lon="9.1407">
        <ele>1263.7902832</ele>
        <time>2010-08-29T14:32:31Z</time>
      </trkpt>
      <trkpt lat="42.11231" lon="9.1405">
        <ele>1271.9614258</ele>
        <time>2010-08-29T14:32:38Z</time>
      </trkpt>
      <trkpt lat="42.11222" lon="9.14041">
        <ele>1277.7294922</ele>
        <time>2010-08-29T14:32:43Z</time>
      </trkpt>
      <trkpt lat="42.11219" lon="9.14038">
        <ele>1279.6520996</ele>
        <time>2010-08-29T14:32:45Z</time>
      </trkpt>
      <trkpt lat="42.11216" lon="9.1402">
        <ele>1287.8232422</ele>
        <time>2010-08-29T14:32:52Z</time>
      </trkpt>
      <trkpt lat="42.11215" lon="9.14017">
        <ele>1293.5913086</ele>
        <time>2010-08-29T14:32:55Z</time>
      </trkpt>
      <trkpt lat="42.11211" lon="9.14004">
        <ele>1298.3977051</ele>
        <time>2010-08-29T14:33:03Z</time>
      </trkpt>
      <trkpt lat="42.11208" lon="9.13992">
        <ele>1300.3205566</ele>
        <time>2010-08-29T14:33:09Z</time>
      </trkpt>
      <trkpt lat="42.11206" lon="9.13981">
        <ele>1301.7624512</ele>
        <time>2010-08-29T14:33:15Z</time>
      </trkpt>
      <trkpt lat="42.11203" lon="9.13977">
        <ele>1302.2429199</ele>
        <time>2010-08-29T14:33:18Z</time>
      </trkpt>
      <trkpt lat="42.11199" lon="9.13968">
        <ele>1299.8398438</ele>
        <time>2010-08-29T14:33:23Z</time>
      </trkpt>
      <trkpt lat="42.11197" lon="9.13966">
        <ele>1299.8398438</ele>
        <time>2010-08-29T14:33:25Z</time>
      </trkpt>
      <trkpt lat="42.11189" lon="9.13954">
        <ele>1299.8398438</ele>
        <time>2010-08-29T14:33:31Z</time>
      </trkpt>
      <trkpt lat="42.11185" lon="9.13951">
        <ele>1298.3977051</ele>
        <time>2010-08-29T14:33:33Z</time>
      </trkpt>
      <trkpt lat="42.11184" lon="9.13944">
        <ele>1296.4753418</ele>
        <time>2010-08-29T14:33:37Z</time>
      </trkpt>
      <trkpt lat="42.11174" lon="9.13938">
        <ele>1299.3591309</ele>
        <time>2010-08-29T14:33:43Z</time>
      </trkpt>
      <trkpt lat="42.11162" lon="9.13929">
        <ele>1300.3205566</ele>
        <time>2010-08-29T14:33:50Z</time>
      </trkpt>
      <trkpt lat="42.11152" lon="9.13923">
        <ele>1299.8398438</ele>
        <time>2010-08-29T14:33:57Z</time>
      </trkpt>
      <trkpt lat="42.1115" lon="9.13922">
        <ele>1299.8398438</ele>
        <time>2010-08-29T14:33:59Z</time>
      </trkpt>
      <trkpt lat="42.11136" lon="9.13923">
        <ele>1297.9172363</ele>
        <time>2010-08-29T14:34:06Z</time>
      </trkpt>
      <trkpt lat="42.1113" lon="9.13924">
        <ele>1295.513916</ele>
        <time>2010-08-29T14:34:11Z</time>
      </trkpt>
      <trkpt lat="42.11124" lon="9.13925">
        <ele>1294.0720215</ele>
        <time>2010-08-29T14:34:16Z</time>
      </trkpt>
      <trkpt lat="42.11122" lon="9.13925">
        <ele>1287.8232422</ele>
        <time>2010-08-29T14:34:21Z</time>
      </trkpt>
      <trkpt lat="42.11114" lon="9.13923">
        <ele>1285.4199219</ele>
        <time>2010-08-29T14:34:27Z</time>
      </trkpt>
      <trkpt lat="42.11109" lon="9.13922">
        <ele>1286.3813477</ele>
        <time>2010-08-29T14:34:30Z</time>
      </trkpt>
      <trkpt lat="42.11106" lon="9.13922">
        <ele>1283.9780273</ele>
        <time>2010-08-29T14:34:35Z</time>
      </trkpt>
      <trkpt lat="42.11098" lon="9.1392">
        <ele>1278.2102051</ele>
        <time>2010-08-29T14:34:41Z</time>
      </trkpt>
      <trkpt lat="42.11089" lon="9.13922">
        <ele>1275.8066406</ele>
        <time>2010-08-29T14:34:46Z</time>
      </trkpt>
      <trkpt lat="42.11081" lon="9.1392">
        <ele>1276.7683105</ele>
        <time>2010-08-29T14:34:51Z</time>
      </trkpt>
      <trkpt lat="42.1107" lon="9.13918">
        <ele>1279.6520996</ele>
        <time>2010-08-29T14:34:57Z</time>
      </trkpt>
      <trkpt lat="42.11064" lon="9.13918">
        <ele>1282.0554199</ele>
        <time>2010-08-29T14:35:01Z</time>
      </trkpt>
      <trkpt lat="42.11058" lon="9.13915">
        <ele>1283.9780273</ele>
        <time>2010-08-29T14:35:06Z</time>
      </trkpt>
      <trkpt lat="42.11055" lon="9.1391">
        <ele>1284.9394531</ele>
        <time>2010-08-29T14:35:09Z</time>
      </trkpt>
      <trkpt lat="42.11041" lon="9.13908">
        <ele>1288.3039551</ele>
        <time>2010-08-29T14:35:16Z</time>
      </trkpt>
      <trkpt lat="42.11041" lon="9.13909">
        <ele>1286.3813477</ele>
        <time>2010-08-29T14:35:17Z</time>
      </trkpt>
      <trkpt lat="42.11035" lon="9.1391">
        <ele>1283.4973145</ele>
        <time>2010-08-29T14:35:21Z</time>
      </trkpt>
      <trkpt lat="42.11033" lon="9.13909">
        <ele>1275.8066406</ele>
        <time>2010-08-29T14:35:27Z</time>
      </trkpt>
      <trkpt lat="42.1103" lon="9.13908">
        <ele>1275.8066406</ele>
        <time>2010-08-29T14:35:29Z</time>
      </trkpt>
      <trkpt lat="42.11017" lon="9.13902">
        <ele>1275.3259277</ele>
        <time>2010-08-29T14:35:35Z</time>
      </trkpt>
      <trkpt lat="42.11011" lon="9.13896">
        <ele>1270.0388184</ele>
        <time>2010-08-29T14:35:41Z</time>
      </trkpt>
      <trkpt lat="42.11006" lon="9.13893">
        <ele>1269.5583496</ele>
        <time>2010-08-29T14:35:45Z</time>
      </trkpt>
      <trkpt lat="42.11001" lon="9.13888">
        <ele>1271.9614258</ele>
        <time>2010-08-29T14:35:49Z</time>
      </trkpt>
      <trkpt lat="42.10999" lon="9.13885">
        <ele>1268.5969238</ele>
        <time>2010-08-29T14:35:56Z</time>
      </trkpt>
      <trkpt lat="42.10985" lon="9.13888">
        <ele>1269.0776367</ele>
        <time>2010-08-29T14:36:08Z</time>
      </trkpt>
      <trkpt lat="42.10982" lon="9.13887">
        <ele>1271.9614258</ele>
        <time>2010-08-29T14:36:11Z</time>
      </trkpt>
      <trkpt lat="42.10977" lon="9.13879">
        <ele>1274.845459</ele>
        <time>2010-08-29T14:36:16Z</time>
      </trkpt>
      <trkpt lat="42.10974" lon="9.13864">
        <ele>1278.2102051</ele>
        <time>2010-08-29T14:36:23Z</time>
      </trkpt>
      <trkpt lat="42.10971" lon="9.13858">
        <ele>1280.1328125</ele>
        <time>2010-08-29T14:36:28Z</time>
      </trkpt>
      <trkpt lat="42.10964" lon="9.13855">
        <ele>1282.0554199</ele>
        <time>2010-08-29T14:36:33Z</time>
      </trkpt>
      <trkpt lat="42.10963" lon="9.13854">
        <ele>1283.0166016</ele>
        <time>2010-08-29T14:36:34Z</time>
      </trkpt>
      <trkpt lat="42.10952" lon="9.13852">
        <ele>1285.4199219</ele>
        <time>2010-08-29T14:36:40Z</time>
      </trkpt>
      <trkpt lat="42.10944" lon="9.13852">
        <ele>1289.7458496</ele>
        <time>2010-08-29T14:36:46Z</time>
      </trkpt>
      <trkpt lat="42.10938" lon="9.13852">
        <ele>1291.668457</ele>
        <time>2010-08-29T14:36:53Z</time>
      </trkpt>
      <trkpt lat="42.10931" lon="9.13854">
        <ele>1289.2651367</ele>
        <time>2010-08-29T14:37:00Z</time>
      </trkpt>
      <trkpt lat="42.1092" lon="9.13861">
        <ele>1297.4365234</ele>
        <time>2010-08-29T14:37:17Z</time>
      </trkpt>
      <trkpt lat="42.1092" lon="9.13867">
        <ele>1295.513916</ele>
        <time>2010-08-29T14:37:22Z</time>
      </trkpt>
      <trkpt lat="42.10923" lon="9.13871">
        <ele>1298.3977051</ele>
        <time>2010-08-29T14:37:29Z</time>
      </trkpt>
      <trkpt lat="42.10924" lon="9.13874">
        <ele>1299.3591309</ele>
        <time>2010-08-29T14:37:33Z</time>
      </trkpt>
      <trkpt lat="42.1092" lon="9.13891">
        <ele>1297.9172363</ele>
        <time>2010-08-29T14:37:50Z</time>
      </trkpt>
      <trkpt lat="42.10913" lon="9.13895">
        <ele>1295.513916</ele>
        <time>2010-08-29T14:37:56Z</time>
      </trkpt>
      <trkpt lat="42.1091" lon="9.13895">
        <ele>1294.0720215</ele>
        <time>2010-08-29T14:37:58Z</time>
      </trkpt>
      <trkpt lat="42.10906" lon="9.13897">
        <ele>1294.5524902</ele>
        <time>2010-08-29T14:38:04Z</time>
      </trkpt>
      <trkpt lat="42.109" lon="9.13892">
        <ele>1298.878418</ele>
        <time>2010-08-29T14:38:10Z</time>
      </trkpt>
      <trkpt lat="42.10895" lon="9.13887">
        <ele>1300.3205566</ele>
        <time>2010-08-29T14:38:16Z</time>
      </trkpt>
      <trkpt lat="42.10887" lon="9.13883">
        <ele>1303.2043457</ele>
        <time>2010-08-29T14:38:22Z</time>
      </trkpt>
      <trkpt lat="42.10882" lon="9.13876">
        <ele>1309.9335938</ele>
        <time>2010-08-29T14:38:27Z</time>
      </trkpt>
      <trkpt lat="42.10877" lon="9.13872">
        <ele>1315.7016602</ele>
        <time>2010-08-29T14:38:35Z</time>
      </trkpt>
      <trkpt lat="42.10877" lon="9.13872">
        <ele>1314.2595215</ele>
        <time>2010-08-29T14:38:36Z</time>
      </trkpt>
      <trkpt lat="42.10868" lon="9.13873">
        <ele>1315.2209473</ele>
        <time>2010-08-29T14:38:42Z</time>
      </trkpt>
      <trkpt lat="42.10856" lon="9.13873">
        <ele>1310.8950195</ele>
        <time>2010-08-29T14:38:54Z</time>
      </trkpt>
      <trkpt lat="42.10852" lon="9.13871">
        <ele>1310.4143066</ele>
        <time>2010-08-29T14:38:59Z</time>
      </trkpt>
      <trkpt lat="42.1084" lon="9.13869">
        <ele>1315.2209473</ele>
        <time>2010-08-29T14:39:06Z</time>
      </trkpt>
      <trkpt lat="42.1084" lon="9.1387">
        <ele>1303.2043457</ele>
        <time>2010-08-29T14:39:13Z</time>
      </trkpt>
      <trkpt lat="42.10837" lon="9.13866">
        <ele>1298.878418</ele>
        <time>2010-08-29T14:39:17Z</time>
      </trkpt>
      <trkpt lat="42.10832" lon="9.13866">
        <ele>1303.2043457</ele>
        <time>2010-08-29T14:39:22Z</time>
      </trkpt>
      <trkpt lat="42.10826" lon="9.13863">
        <ele>1305.607666</ele>
        <time>2010-08-29T14:39:28Z</time>
      </trkpt>
      <trkpt lat="42.10825" lon="9.13856">
        <ele>1302.2429199</ele>
        <time>2010-08-29T14:39:33Z</time>
      </trkpt>
      <trkpt lat="42.10819" lon="9.1385">
        <ele>1301.7624512</ele>
        <time>2010-08-29T14:39:38Z</time>
      </trkpt>
      <trkpt lat="42.10817" lon="9.13846">
        <ele>1297.9172363</ele>
        <time>2010-08-29T14:39:42Z</time>
      </trkpt>
      <trkpt lat="42.10813" lon="9.13835">
        <ele>1291.1877441</ele>
        <time>2010-08-29T14:39:52Z</time>
      </trkpt>
      <trkpt lat="42.1081" lon="9.1383">
        <ele>1288.3039551</ele>
        <time>2010-08-29T14:39:57Z</time>
      </trkpt>
      <trkpt lat="42.10801" lon="9.13824">
        <ele>1293.1105957</ele>
        <time>2010-08-29T14:40:04Z</time>
      </trkpt>
      <trkpt lat="42.10798" lon="9.13819">
        <ele>1296.4753418</ele>
        <time>2010-08-29T14:40:06Z</time>
      </trkpt>
      <trkpt lat="42.10792" lon="9.13812">
        <ele>1306.0881348</ele>
        <time>2010-08-29T14:40:11Z</time>
      </trkpt>
      <trkpt lat="42.1079" lon="9.13805">
        <ele>1309.453125</ele>
        <time>2010-08-29T14:40:16Z</time>
      </trkpt>
      <trkpt lat="42.10791" lon="9.13801">
        <ele>1311.8564453</ele>
        <time>2010-08-29T14:40:23Z</time>
      </trkpt>
      <trkpt lat="42.10784" lon="9.13793">
        <ele>1312.3369141</ele>
        <time>2010-08-29T14:40:32Z</time>
      </trkpt>
      <trkpt lat="42.10783" lon="9.13788">
        <ele>1310.4143066</ele>
        <time>2010-08-29T14:40:36Z</time>
      </trkpt>
      <trkpt lat="42.1078" lon="9.13782">
        <ele>1309.9335938</ele>
        <time>2010-08-29T14:40:41Z</time>
      </trkpt>
      <trkpt lat="42.10775" lon="9.13777">
        <ele>1316.6628418</ele>
        <time>2010-08-29T14:40:46Z</time>
      </trkpt>
      <trkpt lat="42.10774" lon="9.13773">
        <ele>1318.1047363</ele>
        <time>2010-08-29T14:40:48Z</time>
      </trkpt>
      <trkpt lat="42.10778" lon="9.1376">
        <ele>1327.7180176</ele>
        <time>2010-08-29T14:40:55Z</time>
      </trkpt>
      <trkpt lat="42.10779" lon="9.13759">
        <ele>1328.1987305</ele>
        <time>2010-08-29T14:40:56Z</time>
      </trkpt>
      <trkpt lat="42.10784" lon="9.13748">
        <ele>1325.7954102</ele>
        <time>2010-08-29T14:41:02Z</time>
      </trkpt>
      <trkpt lat="42.10785" lon="9.13745">
        <ele>1327.7180176</ele>
        <time>2010-08-29T14:41:05Z</time>
      </trkpt>
      <trkpt lat="42.10788" lon="9.13733">
        <ele>1330.1213379</ele>
        <time>2010-08-29T14:41:13Z</time>
      </trkpt>
      <trkpt lat="42.10789" lon="9.1373">
        <ele>1329.1599121</ele>
        <time>2010-08-29T14:41:16Z</time>
      </trkpt>
      <trkpt lat="42.10788" lon="9.1372">
        <ele>1326.276123</ele>
        <time>2010-08-29T14:41:22Z</time>
      </trkpt>
      <trkpt lat="42.10788" lon="9.13709">
        <ele>1324.8342285</ele>
        <time>2010-08-29T14:41:28Z</time>
      </trkpt>
      <trkpt lat="42.10784" lon="9.13707">
        <ele>1326.276123</ele>
        <time>2010-08-29T14:41:32Z</time>
      </trkpt>
      <trkpt lat="42.10784" lon="9.13707">
        <ele>1327.2375488</ele>
        <time>2010-08-29T14:41:33Z</time>
      </trkpt>
      <trkpt lat="42.10774" lon="9.13697">
        <ele>1333.9665527</ele>
        <time>2010-08-29T14:41:40Z</time>
      </trkpt>
      <trkpt lat="42.10773" lon="9.13693">
        <ele>1334.4472656</ele>
        <time>2010-08-29T14:41:43Z</time>
      </trkpt>
      <trkpt lat="42.10768" lon="9.13691">
        <ele>1333.9665527</ele>
        <time>2010-08-29T14:41:48Z</time>
      </trkpt>
      <trkpt lat="42.10765" lon="9.13678">
        <ele>1330.1213379</ele>
        <time>2010-08-29T14:41:55Z</time>
      </trkpt>
      <trkpt lat="42.10765" lon="9.13671">
        <ele>1325.3146973</ele>
        <time>2010-08-29T14:42:00Z</time>
      </trkpt>
      <trkpt lat="42.10764" lon="9.13662">
        <ele>1323.8725586</ele>
        <time>2010-08-29T14:42:06Z</time>
      </trkpt>
      <trkpt lat="42.10761" lon="9.13657">
        <ele>1326.7568359</ele>
        <time>2010-08-29T14:42:10Z</time>
      </trkpt>
      <trkpt lat="42.10763" lon="9.13641">
        <ele>1325.3146973</ele>
        <time>2010-08-29T14:42:18Z</time>
      </trkpt>
      <trkpt lat="42.10757" lon="9.13627">
        <ele>1334.4472656</ele>
        <time>2010-08-29T14:42:24Z</time>
      </trkpt>
      <trkpt lat="42.10756" lon="9.13623">
        <ele>1334.4472656</ele>
        <time>2010-08-29T14:42:27Z</time>
      </trkpt>
      <trkpt lat="42.10752" lon="9.13618">
        <ele>1338.2924805</ele>
        <time>2010-08-29T14:42:32Z</time>
      </trkpt>
      <trkpt lat="42.10751" lon="9.13614">
        <ele>1338.2924805</ele>
        <time>2010-08-29T14:42:35Z</time>
      </trkpt>
      <trkpt lat="42.10746" lon="9.13601">
        <ele>1345.9831543</ele>
        <time>2010-08-29T14:42:43Z</time>
      </trkpt>
      <trkpt lat="42.10744" lon="9.13597">
        <ele>1345.9831543</ele>
        <time>2010-08-29T14:42:47Z</time>
      </trkpt>
      <trkpt lat="42.10746" lon="9.13591">
        <ele>1339.2536621</ele>
        <time>2010-08-29T14:42:51Z</time>
      </trkpt>
      <trkpt lat="42.10744" lon="9.13587">
        <ele>1338.7731934</ele>
        <time>2010-08-29T14:42:55Z</time>
      </trkpt>
      <trkpt lat="42.10739" lon="9.13577">
        <ele>1344.0605469</ele>
        <time>2010-08-29T14:43:01Z</time>
      </trkpt>
      <trkpt lat="42.10737" lon="9.13572">
        <ele>1345.5024414</ele>
        <time>2010-08-29T14:43:05Z</time>
      </trkpt>
      <trkpt lat="42.10734" lon="9.13561">
        <ele>1345.9831543</ele>
        <time>2010-08-29T14:43:11Z</time>
      </trkpt>
      <trkpt lat="42.10731" lon="9.13549">
        <ele>1344.5410156</ele>
        <time>2010-08-29T14:43:17Z</time>
      </trkpt>
      <trkpt lat="42.10728" lon="9.13543">
        <ele>1345.5024414</ele>
        <time>2010-08-29T14:43:22Z</time>
      </trkpt>
      <trkpt lat="42.10725" lon="9.13538">
        <ele>1347.9057617</ele>
        <time>2010-08-29T14:43:27Z</time>
      </trkpt>
      <trkpt lat="42.10719" lon="9.13529">
        <ele>1350.309082</ele>
        <time>2010-08-29T14:43:33Z</time>
      </trkpt>
      <trkpt lat="42.10714" lon="9.13519">
        <ele>1350.7895508</ele>
        <time>2010-08-29T14:43:40Z</time>
      </trkpt>
      <trkpt lat="42.10713" lon="9.13512">
        <ele>1348.8669434</ele>
        <time>2010-08-29T14:43:44Z</time>
      </trkpt>
      <trkpt lat="42.1071" lon="9.13504">
        <ele>1347.4250488</ele>
        <time>2010-08-29T14:43:50Z</time>
      </trkpt>
      <trkpt lat="42.10708" lon="9.13496">
        <ele>1351.7509766</ele>
        <time>2010-08-29T14:43:58Z</time>
      </trkpt>
      <trkpt lat="42.10707" lon="9.1349">
        <ele>1354.6347656</ele>
        <time>2010-08-29T14:44:03Z</time>
      </trkpt>
      <trkpt lat="42.10705" lon="9.13479">
        <ele>1353.1928711</ele>
        <time>2010-08-29T14:44:09Z</time>
      </trkpt>
      <trkpt lat="42.10705" lon="9.13475">
        <ele>1353.673584</ele>
        <time>2010-08-29T14:44:12Z</time>
      </trkpt>
      <trkpt lat="42.107" lon="9.13464">
        <ele>1353.673584</ele>
        <time>2010-08-29T14:44:19Z</time>
      </trkpt>
      <trkpt lat="42.10697" lon="9.13457">
        <ele>1353.673584</ele>
        <time>2010-08-29T14:44:24Z</time>
      </trkpt>
      <trkpt lat="42.10696" lon="9.13456">
        <ele>1353.673584</ele>
        <time>2010-08-29T14:44:25Z</time>
      </trkpt>
      <trkpt lat="42.10691" lon="9.13447">
        <ele>1356.0769043</ele>
        <time>2010-08-29T14:44:31Z</time>
      </trkpt>
      <trkpt lat="42.10689" lon="9.13439">
        <ele>1357.0383301</ele>
        <time>2010-08-29T14:44:35Z</time>
      </trkpt>
      <trkpt lat="42.10682" lon="9.13428">
        <ele>1356.0769043</ele>
        <time>2010-08-29T14:44:42Z</time>
      </trkpt>
      <trkpt lat="42.10677" lon="9.13422">
        <ele>1360.8835449</ele>
        <time>2010-08-29T14:44:49Z</time>
      </trkpt>
      <trkpt lat="42.10674" lon="9.13419">
        <ele>1361.8449707</ele>
        <time>2010-08-29T14:44:52Z</time>
      </trkpt>
      <trkpt lat="42.10671" lon="9.13413">
        <ele>1366.1706543</ele>
        <time>2010-08-29T14:44:58Z</time>
      </trkpt>
      <trkpt lat="42.10665" lon="9.13406">
        <ele>1366.6513672</ele>
        <time>2010-08-29T14:45:03Z</time>
      </trkpt>
      <trkpt lat="42.10659" lon="9.13399">
        <ele>1368.0932617</ele>
        <time>2010-08-29T14:45:07Z</time>
      </trkpt>
      <trkpt lat="42.10654" lon="9.13396">
        <ele>1367.6125488</ele>
        <time>2010-08-29T14:45:11Z</time>
      </trkpt>
      <trkpt lat="42.10645" lon="9.13389">
        <ele>1366.1706543</ele>
        <time>2010-08-29T14:45:18Z</time>
      </trkpt>
      <trkpt lat="42.10642" lon="9.13385">
        <ele>1361.3642578</ele>
        <time>2010-08-29T14:45:23Z</time>
      </trkpt>
      <trkpt lat="42.10635" lon="9.13376">
        <ele>1352.7121582</ele>
        <time>2010-08-29T14:45:30Z</time>
      </trkpt>
      <trkpt lat="42.1063" lon="9.13368">
        <ele>1351.7509766</ele>
        <time>2010-08-29T14:45:35Z</time>
      </trkpt>
      <trkpt lat="42.10625" lon="9.13364">
        <ele>1353.1928711</ele>
        <time>2010-08-29T14:45:40Z</time>
      </trkpt>
      <trkpt lat="42.10624" lon="9.13361">
        <ele>1357.9997559</ele>
        <time>2010-08-29T14:45:44Z</time>
      </trkpt>
      <trkpt lat="42.10617" lon="9.13355">
        <ele>1367.6125488</ele>
        <time>2010-08-29T14:45:50Z</time>
      </trkpt>
      <trkpt lat="42.10607" lon="9.13351">
        <ele>1375.7839355</ele>
        <time>2010-08-29T14:45:57Z</time>
      </trkpt>
      <trkpt lat="42.10599" lon="9.13347">
        <ele>1391.1650391</ele>
        <time>2010-08-29T14:46:03Z</time>
      </trkpt>
      <trkpt lat="42.10599" lon="9.13342">
        <ele>1399.3361816</ele>
        <time>2010-08-29T14:46:11Z</time>
      </trkpt>
      <trkpt lat="42.10602" lon="9.1334">
        <ele>1402.7006836</ele>
        <time>2010-08-29T14:46:16Z</time>
      </trkpt>
      <trkpt lat="42.1061" lon="9.13333">
        <ele>1394.0490723</ele>
        <time>2010-08-29T14:46:24Z</time>
      </trkpt>
      <trkpt lat="42.10618" lon="9.13322">
        <ele>1384.9165039</ele>
        <time>2010-08-29T14:46:32Z</time>
      </trkpt>
      <trkpt lat="42.1062" lon="9.13319">
        <ele>1382.0324707</ele>
        <time>2010-08-29T14:46:38Z</time>
      </trkpt>
      <trkpt lat="42.10618" lon="9.13317">
        <ele>1378.6679688</ele>
        <time>2010-08-29T14:46:44Z</time>
      </trkpt>
      <trkpt lat="42.10613" lon="9.13314">
        <ele>1377.2260742</ele>
        <time>2010-08-29T14:46:52Z</time>
      </trkpt>
      <trkpt lat="42.10615" lon="9.13311">
        <ele>1377.706543</ele>
        <time>2010-08-29T14:46:57Z</time>
      </trkpt>
      <trkpt lat="42.10612" lon="9.1331">
        <ele>1378.1872559</ele>
        <time>2010-08-29T14:47:02Z</time>
      </trkpt>
      <trkpt lat="42.1061" lon="9.13307">
        <ele>1376.2646484</ele>
        <time>2010-08-29T14:47:07Z</time>
      </trkpt>
      <trkpt lat="42.1061" lon="9.13307">
        <ele>1377.2260742</ele>
        <time>2010-08-29T14:47:12Z</time>
      </trkpt>
      <trkpt lat="42.10605" lon="9.13305">
        <ele>1379.6291504</ele>
        <time>2010-08-29T14:47:19Z</time>
      </trkpt>
      <trkpt lat="42.106" lon="9.13301">
        <ele>1382.0324707</ele>
        <time>2010-08-29T14:47:26Z</time>
      </trkpt>
      <trkpt lat="42.10593" lon="9.13296">
        <ele>1380.5905762</ele>
        <time>2010-08-29T14:47:32Z</time>
      </trkpt>
      <trkpt lat="42.10589" lon="9.13296">
        <ele>1382.5131836</ele>
        <time>2010-08-29T14:47:38Z</time>
      </trkpt>
      <trkpt lat="42.10591" lon="9.13301">
        <ele>1386.3583984</ele>
        <time>2010-08-29T14:47:45Z</time>
      </trkpt>
      <trkpt lat="42.10591" lon="9.13302">
        <ele>1386.3583984</ele>
        <time>2010-08-29T14:47:46Z</time>
      </trkpt>
      <trkpt lat="42.10589" lon="9.13305">
        <ele>1386.8388672</ele>
        <time>2010-08-29T14:47:52Z</time>
      </trkpt>
      <trkpt lat="42.10585" lon="9.13301">
        <ele>1387.800293</ele>
        <time>2010-08-29T14:47:57Z</time>
      </trkpt>
      <trkpt lat="42.1058" lon="9.13297">
        <ele>1388.28125</ele>
        <time>2010-08-29T14:48:02Z</time>
      </trkpt>
      <trkpt lat="42.10574" lon="9.13294">
        <ele>1388.7619629</ele>
        <time>2010-08-29T14:48:10Z</time>
      </trkpt>
      <trkpt lat="42.10569" lon="9.1329">
        <ele>1390.2038574</ele>
        <time>2010-08-29T14:48:16Z</time>
      </trkpt>
      <trkpt lat="42.10563" lon="9.13286">
        <ele>1391.1650391</ele>
        <time>2010-08-29T14:48:23Z</time>
      </trkpt>
      <trkpt lat="42.10554" lon="9.13273">
        <ele>1392.6071777</ele>
        <time>2010-08-29T14:48:33Z</time>
      </trkpt>
      <trkpt lat="42.10547" lon="9.13264">
        <ele>1394.529541</ele>
        <time>2010-08-29T14:48:41Z</time>
      </trkpt>
      <trkpt lat="42.10542" lon="9.13256">
        <ele>1390.6843262</ele>
        <time>2010-08-29T14:48:47Z</time>
      </trkpt>
      <trkpt lat="42.10539" lon="9.13256">
        <ele>1390.2038574</ele>
        <time>2010-08-29T14:48:49Z</time>
      </trkpt>
      <trkpt lat="42.1053" lon="9.13255">
        <ele>1392.1264648</ele>
        <time>2010-08-29T14:48:57Z</time>
      </trkpt>
      <trkpt lat="42.10523" lon="9.13256">
        <ele>1396.4523926</ele>
        <time>2010-08-29T14:49:05Z</time>
      </trkpt>
      <trkpt lat="42.10519" lon="9.13255">
        <ele>1398.3747559</ele>
        <time>2010-08-29T14:49:09Z</time>
      </trkpt>
      <trkpt lat="42.10512" lon="9.1325">
        <ele>1396.9328613</ele>
        <time>2010-08-29T14:49:16Z</time>
      </trkpt>
      <trkpt lat="42.10506" lon="9.13245">
        <ele>1396.4523926</ele>
        <time>2010-08-29T14:49:21Z</time>
      </trkpt>
      <trkpt lat="42.10497" lon="9.13241">
        <ele>1396.9328613</ele>
        <time>2010-08-29T14:49:28Z</time>
      </trkpt>
      <trkpt lat="42.10492" lon="9.13241">
        <ele>1395.0102539</ele>
        <time>2010-08-29T14:49:33Z</time>
      </trkpt>
      <trkpt lat="42.10485" lon="9.1324">
        <ele>1394.0490723</ele>
        <time>2010-08-29T14:49:39Z</time>
      </trkpt>
      <trkpt lat="42.10482" lon="9.13238">
        <ele>1397.4135742</ele>
        <time>2010-08-29T14:49:44Z</time>
      </trkpt>
      <trkpt lat="42.1048" lon="9.13234">
        <ele>1398.8554688</ele>
        <time>2010-08-29T14:49:47Z</time>
      </trkpt>
      <trkpt lat="42.1047" lon="9.13223">
        <ele>1398.8554688</ele>
        <time>2010-08-29T14:49:55Z</time>
      </trkpt>
      <trkpt lat="42.10464" lon="9.13217">
        <ele>1398.8554688</ele>
        <time>2010-08-29T14:50:01Z</time>
      </trkpt>
      <trkpt lat="42.1046" lon="9.1321">
        <ele>1401.2587891</ele>
        <time>2010-08-29T14:50:06Z</time>
      </trkpt>
      <trkpt lat="42.1046" lon="9.13206">
        <ele>1401.2587891</ele>
        <time>2010-08-29T14:50:11Z</time>
      </trkpt>
      <trkpt lat="42.10464" lon="9.13196">
        <ele>1402.2199707</ele>
        <time>2010-08-29T14:50:17Z</time>
      </trkpt>
      <trkpt lat="42.10467" lon="9.13189">
        <ele>1402.2199707</ele>
        <time>2010-08-29T14:50:23Z</time>
      </trkpt>
      <trkpt lat="42.10475" lon="9.13183">
        <ele>1410.3913574</ele>
        <time>2010-08-29T14:50:31Z</time>
      </trkpt>
      <trkpt lat="42.10481" lon="9.13176">
        <ele>1410.8720703</ele>
        <time>2010-08-29T14:50:38Z</time>
      </trkpt>
      <trkpt lat="42.10485" lon="9.13173">
        <ele>1414.7172852</ele>
        <time>2010-08-29T14:50:42Z</time>
      </trkpt>
      <trkpt lat="42.10493" lon="9.13164">
        <ele>1421.9272461</ele>
        <time>2010-08-29T14:50:50Z</time>
      </trkpt>
      <trkpt lat="42.10499" lon="9.13157">
        <ele>1426.2531738</ele>
        <time>2010-08-29T14:50:56Z</time>
      </trkpt>
      <trkpt lat="42.10501" lon="9.13156">
        <ele>1426.2531738</ele>
        <time>2010-08-29T14:50:57Z</time>
      </trkpt>
      <trkpt lat="42.10507" lon="9.1315">
        <ele>1421.4465332</ele>
        <time>2010-08-29T14:51:03Z</time>
      </trkpt>
      <trkpt lat="42.10517" lon="9.13143">
        <ele>1417.6010742</ele>
        <time>2010-08-29T14:51:10Z</time>
      </trkpt>
      <trkpt lat="42.10525" lon="9.13138">
        <ele>1413.7558594</ele>
        <time>2010-08-29T14:51:17Z</time>
      </trkpt>
      <trkpt lat="42.10532" lon="9.13134">
        <ele>1412.7946777</ele>
        <time>2010-08-29T14:51:23Z</time>
      </trkpt>
      <trkpt lat="42.10541" lon="9.13133">
        <ele>1423.8498535</ele>
        <time>2010-08-29T14:51:30Z</time>
      </trkpt>
      <trkpt lat="42.10546" lon="9.13136">
        <ele>1416.1591797</ele>
        <time>2010-08-29T14:51:34Z</time>
      </trkpt>
      <trkpt lat="42.10556" lon="9.13139">
        <ele>1413.2753906</ele>
        <time>2010-08-29T14:51:41Z</time>
      </trkpt>
      <trkpt lat="42.10559" lon="9.1314">
        <ele>1413.2753906</ele>
        <time>2010-08-29T14:51:44Z</time>
      </trkpt>
      <trkpt lat="42.1057" lon="9.13148">
        <ele>1420.9660645</ele>
        <time>2010-08-29T14:51:51Z</time>
      </trkpt>
      <trkpt lat="42.10575" lon="9.13153">
        <ele>1420.0046387</ele>
        <time>2010-08-29T14:51:55Z</time>
      </trkpt>
      <trkpt lat="42.10578" lon="9.13155">
        <ele>1406.5461426</ele>
        <time>2010-08-29T14:52:01Z</time>
      </trkpt>
      <trkpt lat="42.10583" lon="9.13156">
        <ele>1410.8720703</ele>
        <time>2010-08-29T14:52:03Z</time>
      </trkpt>
      <trkpt lat="42.1059" lon="9.13161">
        <ele>1412.7946777</ele>
        <time>2010-08-29T14:52:06Z</time>
      </trkpt>
      <trkpt lat="42.10601" lon="9.13164">
        <ele>1412.3139648</ele>
        <time>2010-08-29T14:52:13Z</time>
      </trkpt>
      <trkpt lat="42.10616" lon="9.13163">
        <ele>1410.8720703</ele>
        <time>2010-08-29T14:52:22Z</time>
      </trkpt>
      <trkpt lat="42.10623" lon="9.13161">
        <ele>1403.6621094</ele>
        <time>2010-08-29T14:52:29Z</time>
      </trkpt>
      <trkpt lat="42.10628" lon="9.1316">
        <ele>1399.3361816</ele>
        <time>2010-08-29T14:52:31Z</time>
      </trkpt>
      <trkpt lat="42.10639" lon="9.13156">
        <ele>1402.7006836</ele>
        <time>2010-08-29T14:52:39Z</time>
      </trkpt>
      <trkpt lat="42.10638" lon="9.13152">
        <ele>1404.1430664</ele>
        <time>2010-08-29T14:52:44Z</time>
      </trkpt>
      <trkpt lat="42.10635" lon="9.13143">
        <ele>1403.6621094</ele>
        <time>2010-08-29T14:52:51Z</time>
      </trkpt>
      <trkpt lat="42.10634" lon="9.1314">
        <ele>1403.1813965</ele>
        <time>2010-08-29T14:52:53Z</time>
      </trkpt>
      <trkpt lat="42.10633" lon="9.13131">
        <ele>1405.104248</ele>
        <time>2010-08-29T14:53:00Z</time>
      </trkpt>
      <trkpt lat="42.10632" lon="9.13127">
        <ele>1405.104248</ele>
        <time>2010-08-29T14:53:03Z</time>
      </trkpt>
      <trkpt lat="42.10636" lon="9.1311">
        <ele>1404.1430664</ele>
        <time>2010-08-29T14:53:11Z</time>
      </trkpt>
      <trkpt lat="42.10638" lon="9.13106">
        <ele>1406.5461426</ele>
        <time>2010-08-29T14:53:15Z</time>
      </trkpt>
      <trkpt lat="42.1064" lon="9.13095">
        <ele>1409.4301758</ele>
        <time>2010-08-29T14:53:22Z</time>
      </trkpt>
      <trkpt lat="42.10638" lon="9.13092">
        <ele>1409.4301758</ele>
        <time>2010-08-29T14:53:26Z</time>
      </trkpt>
      <trkpt lat="42.10636" lon="9.13092">
        <ele>1413.7558594</ele>
        <time>2010-08-29T14:53:32Z</time>
      </trkpt>
      <trkpt lat="42.10643" lon="9.1309">
        <ele>1419.0432129</ele>
        <time>2010-08-29T14:53:39Z</time>
      </trkpt>
      <trkpt lat="42.10649" lon="9.13094">
        <ele>1412.7946777</ele>
        <time>2010-08-29T14:53:47Z</time>
      </trkpt>
      <trkpt lat="42.10679" lon="9.1309">
        <ele>1420.9660645</ele>
        <time>2010-08-29T14:54:11Z</time>
      </trkpt>
      <trkpt lat="42.10681" lon="9.13088">
        <ele>1418.5625</ele>
        <time>2010-08-29T14:54:24Z</time>
      </trkpt>
      <trkpt lat="42.10681" lon="9.13093">
        <ele>1407.0268555</ele>
        <time>2010-08-29T14:54:29Z</time>
      </trkpt>
      <trkpt lat="42.10682" lon="9.13096">
        <ele>1403.1813965</ele>
        <time>2010-08-29T14:54:31Z</time>
      </trkpt>
      <trkpt lat="42.10683" lon="9.13099">
        <ele>1394.529541</ele>
        <time>2010-08-29T14:54:37Z</time>
      </trkpt>
      <trkpt lat="42.10688" lon="9.13103">
        <ele>1391.645752</ele>
        <time>2010-08-29T14:54:42Z</time>
      </trkpt>
      <trkpt lat="42.107" lon="9.13103">
        <ele>1405.5849609</ele>
        <time>2010-08-29T14:54:51Z</time>
      </trkpt>
      <trkpt lat="42.10704" lon="9.13106">
        <ele>1410.8720703</ele>
        <time>2010-08-29T14:54:58Z</time>
      </trkpt>
      <trkpt lat="42.10704" lon="9.13111">
        <ele>1406.5461426</ele>
        <time>2010-08-29T14:55:04Z</time>
      </trkpt>
      <trkpt lat="42.10706" lon="9.13104">
        <ele>1389.7231445</ele>
        <time>2010-08-29T14:55:12Z</time>
      </trkpt>
      <trkpt lat="42.10697" lon="9.13114">
        <ele>1351.7509766</ele>
        <time>2010-08-29T14:55:53Z</time>
      </trkpt>
      <trkpt lat="42.10702" lon="9.13107">
        <ele>1372.9001465</ele>
        <time>2010-08-29T14:56:01Z</time>
      </trkpt>
      <trkpt lat="42.10701" lon="9.13107">
        <ele>1374.8227539</ele>
        <time>2010-08-29T14:56:02Z</time>
      </trkpt>
      <trkpt lat="42.10699" lon="9.13105">
        <ele>1393.5683594</ele>
        <time>2010-08-29T14:56:08Z</time>
      </trkpt>
      <trkpt lat="42.10706" lon="9.13107">
        <ele>1403.6621094</ele>
        <time>2010-08-29T14:56:10Z</time>
      </trkpt>
      <trkpt lat="42.10707" lon="9.1311">
        <ele>1402.2199707</ele>
        <time>2010-08-29T14:56:13Z</time>
      </trkpt>
      <trkpt lat="42.10715" lon="9.13116">
        <ele>1405.104248</ele>
        <time>2010-08-29T14:56:21Z</time>
      </trkpt>
      <trkpt lat="42.10719" lon="9.13113">
        <ele>1404.6235352</ele>
        <time>2010-08-29T14:56:26Z</time>
      </trkpt>
      <trkpt lat="42.10723" lon="9.13112">
        <ele>1407.9882812</ele>
        <time>2010-08-29T14:56:32Z</time>
      </trkpt>
      <trkpt lat="42.10726" lon="9.13111">
        <ele>1411.3527832</ele>
        <time>2010-08-29T14:56:34Z</time>
      </trkpt>
      <trkpt lat="42.10731" lon="9.13113">
        <ele>1420.4853516</ele>
        <time>2010-08-29T14:56:38Z</time>
      </trkpt>
      <trkpt lat="42.10735" lon="9.13105">
        <ele>1419.0432129</ele>
        <time>2010-08-29T14:56:45Z</time>
      </trkpt>
      <trkpt lat="42.10742" lon="9.13102">
        <ele>1417.1206055</ele>
        <time>2010-08-29T14:56:51Z</time>
      </trkpt>
      <trkpt lat="42.10752" lon="9.13102">
        <ele>1414.2365723</ele>
        <time>2010-08-29T14:56:58Z</time>
      </trkpt>
      <trkpt lat="42.10761" lon="9.131">
        <ele>1408.46875</ele>
        <time>2010-08-29T14:57:05Z</time>
      </trkpt>
      <trkpt lat="42.10776" lon="9.13104">
        <ele>1413.2753906</ele>
        <time>2010-08-29T14:57:12Z</time>
      </trkpt>
      <trkpt lat="42.10789" lon="9.13105">
        <ele>1413.2753906</ele>
        <time>2010-08-29T14:57:18Z</time>
      </trkpt>
      <trkpt lat="42.10794" lon="9.13105">
        <ele>1410.8720703</ele>
        <time>2010-08-29T14:57:23Z</time>
      </trkpt>
      <trkpt lat="42.10798" lon="9.13111">
        <ele>1402.7006836</ele>
        <time>2010-08-29T14:57:30Z</time>
      </trkpt>
      <trkpt lat="42.10799" lon="9.13112">
        <ele>1402.7006836</ele>
        <time>2010-08-29T14:57:31Z</time>
      </trkpt>
      <trkpt lat="42.1081" lon="9.13115">
        <ele>1395.0102539</ele>
        <time>2010-08-29T14:57:37Z</time>
      </trkpt>
      <trkpt lat="42.10821" lon="9.13117">
        <ele>1386.8388672</ele>
        <time>2010-08-29T14:57:42Z</time>
      </trkpt>
      <trkpt lat="42.10829" lon="9.13121">
        <ele>1392.6071777</ele>
        <time>2010-08-29T14:57:47Z</time>
      </trkpt>
      <trkpt lat="42.10837" lon="9.13128">
        <ele>1400.7780762</ele>
        <time>2010-08-29T14:57:53Z</time>
      </trkpt>
      <trkpt lat="42.10843" lon="9.13137">
        <ele>1400.7780762</ele>
        <time>2010-08-29T14:57:58Z</time>
      </trkpt>
      <trkpt lat="42.10849" lon="9.13145">
        <ele>1397.8942871</ele>
        <time>2010-08-29T14:58:03Z</time>
      </trkpt>
      <trkpt lat="42.10851" lon="9.13147">
        <ele>1395.0102539</ele>
        <time>2010-08-29T14:58:05Z</time>
      </trkpt>
      <trkpt lat="42.10845" lon="9.13154">
        <ele>1389.7231445</ele>
        <time>2010-08-29T14:58:11Z</time>
      </trkpt>
      <trkpt lat="42.10841" lon="9.13157">
        <ele>1382.9936523</ele>
        <time>2010-08-29T14:58:16Z</time>
      </trkpt>
      <trkpt lat="42.10835" lon="9.13156">
        <ele>1383.4743652</ele>
        <time>2010-08-29T14:58:23Z</time>
      </trkpt>
      <trkpt lat="42.10831" lon="9.13158">
        <ele>1385.3969727</ele>
        <time>2010-08-29T14:58:28Z</time>
      </trkpt>
      <trkpt lat="42.1083" lon="9.13157">
        <ele>1384.9165039</ele>
        <time>2010-08-29T14:58:29Z</time>
      </trkpt>
      <trkpt lat="42.10822" lon="9.13154">
        <ele>1386.8388672</ele>
        <time>2010-08-29T14:58:34Z</time>
      </trkpt>
      <trkpt lat="42.10812" lon="9.13148">
        <ele>1384.435791</ele>
        <time>2010-08-29T14:58:41Z</time>
      </trkpt>
      <trkpt lat="42.10803" lon="9.13143">
        <ele>1382.9936523</ele>
        <time>2010-08-29T14:58:49Z</time>
      </trkpt>
      <trkpt lat="42.10798" lon="9.1314">
        <ele>1384.9165039</ele>
        <time>2010-08-29T14:58:52Z</time>
      </trkpt>
      <trkpt lat="42.10789" lon="9.13134">
        <ele>1389.7231445</ele>
        <time>2010-08-29T14:58:58Z</time>
      </trkpt>
      <trkpt lat="42.10786" lon="9.13134">
        <ele>1391.1650391</ele>
        <time>2010-08-29T14:59:01Z</time>
      </trkpt>
      <trkpt lat="42.10783" lon="9.13136">
        <ele>1385.3969727</ele>
        <time>2010-08-29T14:59:07Z</time>
      </trkpt>
      <trkpt lat="42.10784" lon="9.13134">
        <ele>1382.0324707</ele>
        <time>2010-08-29T14:59:09Z</time>
      </trkpt>
      <trkpt lat="42.10784" lon="9.13135">
        <ele>1374.342041</ele>
        <time>2010-08-29T14:59:15Z</time>
      </trkpt>
      <trkpt lat="42.10786" lon="9.13134">
        <ele>1370.9772949</ele>
        <time>2010-08-29T14:59:21Z</time>
      </trkpt>
      <trkpt lat="42.10787" lon="9.13139">
        <ele>1375.7839355</ele>
        <time>2010-08-29T14:59:26Z</time>
      </trkpt>
      <trkpt lat="42.10787" lon="9.13147">
        <ele>1377.706543</ele>
        <time>2010-08-29T14:59:32Z</time>
      </trkpt>
      <trkpt lat="42.1079" lon="9.13161">
        <ele>1391.645752</ele>
        <time>2010-08-29T14:59:38Z</time>
      </trkpt>
      <trkpt lat="42.10791" lon="9.13162">
        <ele>1393.0876465</ele>
        <time>2010-08-29T14:59:39Z</time>
      </trkpt>
      <trkpt lat="42.10797" lon="9.13163">
        <ele>1402.7006836</ele>
        <time>2010-08-29T14:59:42Z</time>
      </trkpt>
      <trkpt lat="42.10802" lon="9.13167">
        <ele>1407.9882812</ele>
        <time>2010-08-29T14:59:45Z</time>
      </trkpt>
      <trkpt lat="42.10803" lon="9.13169">
        <ele>1391.645752</ele>
        <time>2010-08-29T14:59:51Z</time>
      </trkpt>
      <trkpt lat="42.10806" lon="9.13171">
        <ele>1388.28125</ele>
        <time>2010-08-29T14:59:53Z</time>
      </trkpt>
      <trkpt lat="42.10812" lon="9.13176">
        <ele>1386.8388672</ele>
        <time>2010-08-29T14:59:59Z</time>
      </trkpt>
      <trkpt lat="42.10819" lon="9.13182">
        <ele>1390.6843262</ele>
        <time>2010-08-29T15:00:03Z</time>
      </trkpt>
      <trkpt lat="42.10828" lon="9.13189">
        <ele>1392.6071777</ele>
        <time>2010-08-29T15:00:08Z</time>
      </trkpt>
      <trkpt lat="42.10837" lon="9.13201">
        <ele>1392.6071777</ele>
        <time>2010-08-29T15:00:15Z</time>
      </trkpt>
      <trkpt lat="42.10845" lon="9.13211">
        <ele>1380.5905762</ele>
        <time>2010-08-29T15:00:22Z</time>
      </trkpt>
      <trkpt lat="42.10847" lon="9.13217">
        <ele>1370.0158691</ele>
        <time>2010-08-29T15:00:27Z</time>
      </trkpt>
      <trkpt lat="42.10852" lon="9.13218">
        <ele>1369.0546875</ele>
        <time>2010-08-29T15:00:31Z</time>
      </trkpt>
      <trkpt lat="42.10867" lon="9.13224">
        <ele>1376.2646484</ele>
        <time>2010-08-29T15:00:38Z</time>
      </trkpt>
      <trkpt lat="42.10867" lon="9.13226">
        <ele>1370.496582</ele>
        <time>2010-08-29T15:00:42Z</time>
      </trkpt>
      <trkpt lat="42.10882" lon="9.13235">
        <ele>1372.9001465</ele>
        <time>2010-08-29T15:00:51Z</time>
      </trkpt>
      <trkpt lat="42.10891" lon="9.13232">
        <ele>1370.0158691</ele>
        <time>2010-08-29T15:00:57Z</time>
      </trkpt>
      <trkpt lat="42.10895" lon="9.13233">
        <ele>1367.1320801</ele>
        <time>2010-08-29T15:01:02Z</time>
      </trkpt>
      <trkpt lat="42.10894" lon="9.13232">
        <ele>1361.8449707</ele>
        <time>2010-08-29T15:01:08Z</time>
      </trkpt>
      <trkpt lat="42.10887" lon="9.13239">
        <ele>1344.0605469</ele>
        <time>2010-08-29T15:01:24Z</time>
      </trkpt>
      <trkpt lat="42.10876" lon="9.13251">
        <ele>1349.3476562</ele>
        <time>2010-08-29T15:01:28Z</time>
      </trkpt>
      <trkpt lat="42.1085" lon="9.13271">
        <ele>1362.3254395</ele>
        <time>2010-08-29T15:01:37Z</time>
      </trkpt>
      <trkpt lat="42.10844" lon="9.13275">
        <ele>1367.1320801</ele>
        <time>2010-08-29T15:01:40Z</time>
      </trkpt>
      <trkpt lat="42.10829" lon="9.1329">
        <ele>1370.496582</ele>
        <time>2010-08-29T15:01:46Z</time>
      </trkpt>
      <trkpt lat="42.10824" lon="9.13295">
        <ele>1370.0158691</ele>
        <time>2010-08-29T15:01:49Z</time>
      </trkpt>
      <trkpt lat="42.10818" lon="9.13292">
        <ele>1368.0932617</ele>
        <time>2010-08-29T15:01:54Z</time>
      </trkpt>
      <trkpt lat="42.10808" lon="9.13289">
        <ele>1361.8449707</ele>
        <time>2010-08-29T15:02:00Z</time>
      </trkpt>
      <trkpt lat="42.10803" lon="9.13289">
        <ele>1366.1706543</ele>
        <time>2010-08-29T15:02:04Z</time>
      </trkpt>
      <trkpt lat="42.10802" lon="9.13289">
        <ele>1370.0158691</ele>
        <time>2010-08-29T15:02:05Z</time>
      </trkpt>
      <trkpt lat="42.10802" lon="9.13288">
        <ele>1369.0546875</ele>
        <time>2010-08-29T15:02:07Z</time>
      </trkpt>
      <trkpt lat="42.10799" lon="9.13286">
        <ele>1367.6125488</ele>
        <time>2010-08-29T15:02:13Z</time>
      </trkpt>
      <trkpt lat="42.10795" lon="9.13283">
        <ele>1361.8449707</ele>
        <time>2010-08-29T15:02:20Z</time>
      </trkpt>
      <trkpt lat="42.10798" lon="9.13287">
        <ele>1355.5961914</ele>
        <time>2010-08-29T15:02:24Z</time>
      </trkpt>
      <trkpt lat="42.108" lon="9.13289">
        <ele>1348.3862305</ele>
        <time>2010-08-29T15:02:29Z</time>
      </trkpt>
      <trkpt lat="42.10816" lon="9.13293">
        <ele>1343.0991211</ele>
        <time>2010-08-29T15:02:36Z</time>
      </trkpt>
      <trkpt lat="42.10824" lon="9.13297">
        <ele>1343.0991211</ele>
        <time>2010-08-29T15:02:41Z</time>
      </trkpt>
      <trkpt lat="42.10835" lon="9.13299">
        <ele>1341.6572266</ele>
        <time>2010-08-29T15:02:49Z</time>
      </trkpt>
      <trkpt lat="42.10843" lon="9.13302">
        <ele>1341.1765137</ele>
        <time>2010-08-29T15:02:55Z</time>
      </trkpt>
      <trkpt lat="42.10852" lon="9.13306">
        <ele>1342.1379395</ele>
        <time>2010-08-29T15:03:01Z</time>
      </trkpt>
      <trkpt lat="42.1086" lon="9.1331">
        <ele>1345.0217285</ele>
        <time>2010-08-29T15:03:08Z</time>
      </trkpt>
      <trkpt lat="42.10862" lon="9.13312">
        <ele>1343.0991211</ele>
        <time>2010-08-29T15:03:10Z</time>
      </trkpt>
      <trkpt lat="42.1087" lon="9.13319">
        <ele>1354.1542969</ele>
        <time>2010-08-29T15:03:17Z</time>
      </trkpt>
      <trkpt lat="42.10871" lon="9.13318">
        <ele>1354.6347656</ele>
        <time>2010-08-29T15:03:19Z</time>
      </trkpt>
      <trkpt lat="42.10878" lon="9.13324">
        <ele>1347.9057617</ele>
        <time>2010-08-29T15:03:26Z</time>
      </trkpt>
      <trkpt lat="42.1088" lon="9.13319">
        <ele>1343.0991211</ele>
        <time>2010-08-29T15:03:28Z</time>
      </trkpt>
      <trkpt lat="42.1088" lon="9.13315">
        <ele>1331.0827637</ele>
        <time>2010-08-29T15:03:33Z</time>
      </trkpt>
      <trkpt lat="42.10875" lon="9.13316">
        <ele>1325.3146973</ele>
        <time>2010-08-29T15:03:44Z</time>
      </trkpt>
      <trkpt lat="42.10873" lon="9.13319">
        <ele>1325.7954102</ele>
        <time>2010-08-29T15:03:47Z</time>
      </trkpt>
      <trkpt lat="42.1086" lon="9.13333">
        <ele>1330.6020508</ele>
        <time>2010-08-29T15:03:53Z</time>
      </trkpt>
      <trkpt lat="42.1086" lon="9.13335">
        <ele>1331.0827637</ele>
        <time>2010-08-29T15:03:54Z</time>
      </trkpt>
      <trkpt lat="42.10867" lon="9.13346">
        <ele>1337.3310547</ele>
        <time>2010-08-29T15:04:01Z</time>
      </trkpt>
      <trkpt lat="42.10868" lon="9.13347">
        <ele>1337.8117676</ele>
        <time>2010-08-29T15:04:02Z</time>
      </trkpt>
      <trkpt lat="42.10875" lon="9.13354">
        <ele>1340.6958008</ele>
        <time>2010-08-29T15:04:09Z</time>
      </trkpt>
      <trkpt lat="42.10876" lon="9.13354">
        <ele>1339.734375</ele>
        <time>2010-08-29T15:04:10Z</time>
      </trkpt>
      <trkpt lat="42.10887" lon="9.1335">
        <ele>1329.640625</ele>
        <time>2010-08-29T15:04:18Z</time>
      </trkpt>
      <trkpt lat="42.10893" lon="9.13347">
        <ele>1320.5080566</ele>
        <time>2010-08-29T15:04:23Z</time>
      </trkpt>
      <trkpt lat="42.10899" lon="9.13346">
        <ele>1308.9724121</ele>
        <time>2010-08-29T15:04:28Z</time>
      </trkpt>
      <trkpt lat="42.10909" lon="9.13346">
        <ele>1301.7624512</ele>
        <time>2010-08-29T15:04:34Z</time>
      </trkpt>
      <trkpt lat="42.10914" lon="9.1335">
        <ele>1303.6850586</ele>
        <time>2010-08-29T15:04:39Z</time>
      </trkpt>
      <trkpt lat="42.10916" lon="9.13351">
        <ele>1299.8398438</ele>
        <time>2010-08-29T15:04:45Z</time>
      </trkpt>
      <trkpt lat="42.10917" lon="9.13351">
        <ele>1300.3205566</ele>
        <time>2010-08-29T15:04:46Z</time>
      </trkpt>
      <trkpt lat="42.10918" lon="9.13351">
        <ele>1300.8010254</ele>
        <time>2010-08-29T15:04:51Z</time>
      </trkpt>
      <trkpt lat="42.10912" lon="9.13355">
        <ele>1307.0495605</ele>
        <time>2010-08-29T15:04:58Z</time>
      </trkpt>
      <trkpt lat="42.10906" lon="9.13358">
        <ele>1306.0881348</ele>
        <time>2010-08-29T15:05:04Z</time>
      </trkpt>
      <trkpt lat="42.10904" lon="9.13358">
        <ele>1307.5302734</ele>
        <time>2010-08-29T15:05:08Z</time>
      </trkpt>
      <trkpt lat="42.109" lon="9.13362">
        <ele>1308.9724121</ele>
        <time>2010-08-29T15:05:12Z</time>
      </trkpt>
      <trkpt lat="42.10895" lon="9.1337">
        <ele>1308.0112305</ele>
        <time>2010-08-29T15:05:17Z</time>
      </trkpt>
      <trkpt lat="42.10891" lon="9.13378">
        <ele>1310.4143066</ele>
        <time>2010-08-29T15:05:22Z</time>
      </trkpt>
      <trkpt lat="42.10888" lon="9.13383">
        <ele>1308.4916992</ele>
        <time>2010-08-29T15:05:24Z</time>
      </trkpt>
      <trkpt lat="42.10885" lon="9.1339">
        <ele>1297.9172363</ele>
        <time>2010-08-29T15:05:30Z</time>
      </trkpt>
      <trkpt lat="42.10888" lon="9.13394">
        <ele>1297.4365234</ele>
        <time>2010-08-29T15:05:35Z</time>
      </trkpt>
      <trkpt lat="42.10892" lon="9.13396">
        <ele>1296.9558105</ele>
        <time>2010-08-29T15:05:39Z</time>
      </trkpt>
      <trkpt lat="42.10897" lon="9.13399">
        <ele>1298.878418</ele>
        <time>2010-08-29T15:05:43Z</time>
      </trkpt>
      <trkpt lat="42.10903" lon="9.13404">
        <ele>1299.3591309</ele>
        <time>2010-08-29T15:05:49Z</time>
      </trkpt>
      <trkpt lat="42.10908" lon="9.13407">
        <ele>1301.2817383</ele>
        <time>2010-08-29T15:05:55Z</time>
      </trkpt>
      <trkpt lat="42.10912" lon="9.13403">
        <ele>1307.0495605</ele>
        <time>2010-08-29T15:06:05Z</time>
      </trkpt>
      <trkpt lat="42.10912" lon="9.1341">
        <ele>1311.3757324</ele>
        <time>2010-08-29T15:06:10Z</time>
      </trkpt>
      <trkpt lat="42.1091" lon="9.13418">
        <ele>1312.817627</ele>
        <time>2010-08-29T15:06:16Z</time>
      </trkpt>
      <trkpt lat="42.10907" lon="9.13425">
        <ele>1312.3369141</ele>
        <time>2010-08-29T15:06:21Z</time>
      </trkpt>
      <trkpt lat="42.10906" lon="9.13426">
        <ele>1310.4143066</ele>
        <time>2010-08-29T15:06:23Z</time>
      </trkpt>
      <trkpt lat="42.10902" lon="9.13434">
        <ele>1299.3591309</ele>
        <time>2010-08-29T15:06:29Z</time>
      </trkpt>
      <trkpt lat="42.10902" lon="9.13436">
        <ele>1289.2651367</ele>
        <time>2010-08-29T15:06:32Z</time>
      </trkpt>
      <trkpt lat="42.1091" lon="9.13439">
        <ele>1281.574707</ele>
        <time>2010-08-29T15:06:39Z</time>
      </trkpt>
      <trkpt lat="42.10911" lon="9.13442">
        <ele>1274.3647461</ele>
        <time>2010-08-29T15:06:44Z</time>
      </trkpt>
      <trkpt lat="42.10909" lon="9.13444">
        <ele>1270.0388184</ele>
        <time>2010-08-29T15:06:50Z</time>
      </trkpt>
      <trkpt lat="42.10919" lon="9.13441">
        <ele>1267.1550293</ele>
        <time>2010-08-29T15:06:57Z</time>
      </trkpt>
      <trkpt lat="42.10924" lon="9.13445">
        <ele>1271.4807129</ele>
        <time>2010-08-29T15:07:04Z</time>
      </trkpt>
      <trkpt lat="42.10931" lon="9.13448">
        <ele>1282.0554199</ele>
        <time>2010-08-29T15:07:09Z</time>
      </trkpt>
      <trkpt lat="42.10937" lon="9.13455">
        <ele>1292.630127</ele>
        <time>2010-08-29T15:07:16Z</time>
      </trkpt>
      <trkpt lat="42.1094" lon="9.13458">
        <ele>1293.1105957</ele>
        <time>2010-08-29T15:07:18Z</time>
      </trkpt>
      <trkpt lat="42.10954" lon="9.13463">
        <ele>1297.9172363</ele>
        <time>2010-08-29T15:07:26Z</time>
      </trkpt>
      <trkpt lat="42.10961" lon="9.13465">
        <ele>1302.7236328</ele>
        <time>2010-08-29T15:07:30Z</time>
      </trkpt>
      <trkpt lat="42.10965" lon="9.13471">
        <ele>1295.0332031</ele>
        <time>2010-08-29T15:07:37Z</time>
      </trkpt>
      <trkpt lat="42.10969" lon="9.13473">
        <ele>1297.4365234</ele>
        <time>2010-08-29T15:07:41Z</time>
      </trkpt>
      <trkpt lat="42.10982" lon="9.13474">
        <ele>1302.2429199</ele>
        <time>2010-08-29T15:07:49Z</time>
      </trkpt>
      <trkpt lat="42.1099" lon="9.13474">
        <ele>1294.0720215</ele>
        <time>2010-08-29T15:07:55Z</time>
      </trkpt>
      <trkpt lat="42.10995" lon="9.13476">
        <ele>1286.3813477</ele>
        <time>2010-08-29T15:08:00Z</time>
      </trkpt>
      <trkpt lat="42.11003" lon="9.13477">
        <ele>1278.690918</ele>
        <time>2010-08-29T15:08:07Z</time>
      </trkpt>
      <trkpt lat="42.11007" lon="9.13476">
        <ele>1276.7683105</ele>
        <time>2010-08-29T15:08:13Z</time>
      </trkpt>
      <trkpt lat="42.11012" lon="9.13478">
        <ele>1276.7683105</ele>
        <time>2010-08-29T15:08:18Z</time>
      </trkpt>
      <trkpt lat="42.11014" lon="9.13475">
        <ele>1279.1713867</ele>
        <time>2010-08-29T15:08:26Z</time>
      </trkpt>
      <trkpt lat="42.1101" lon="9.13475">
        <ele>1283.4973145</ele>
        <time>2010-08-29T15:08:34Z</time>
      </trkpt>
      <trkpt lat="42.10998" lon="9.13487">
        <ele>1281.0942383</ele>
        <time>2010-08-29T15:08:40Z</time>
      </trkpt>
      <trkpt lat="42.10991" lon="9.13492">
        <ele>1265.2324219</ele>
        <time>2010-08-29T15:08:45Z</time>
      </trkpt>
      <trkpt lat="42.10992" lon="9.13492">
        <ele>1262.8291016</ele>
        <time>2010-08-29T15:08:46Z</time>
      </trkpt>
      <trkpt lat="42.10995" lon="9.13498">
        <ele>1245.5253906</ele>
        <time>2010-08-29T15:08:53Z</time>
      </trkpt>
      <trkpt lat="42.10999" lon="9.13497">
        <ele>1234.9509277</ele>
        <time>2010-08-29T15:08:59Z</time>
      </trkpt>
      <trkpt lat="42.11008" lon="9.13497">
        <ele>1229.1828613</ele>
        <time>2010-08-29T15:09:04Z</time>
      </trkpt>
      <trkpt lat="42.11013" lon="9.13504">
        <ele>1234.4702148</ele>
        <time>2010-08-29T15:09:09Z</time>
      </trkpt>
      <trkpt lat="42.11018" lon="9.13507">
        <ele>1235.4313965</ele>
        <time>2010-08-29T15:09:15Z</time>
      </trkpt>
      <trkpt lat="42.11025" lon="9.13508">
        <ele>1235.4313965</ele>
        <time>2010-08-29T15:09:19Z</time>
      </trkpt>
      <trkpt lat="42.1103" lon="9.13512">
        <ele>1234.9509277</ele>
        <time>2010-08-29T15:09:26Z</time>
      </trkpt>
      <trkpt lat="42.11041" lon="9.13516">
        <ele>1237.3540039</ele>
        <time>2010-08-29T15:09:32Z</time>
      </trkpt>
      <trkpt lat="42.11052" lon="9.13523">
        <ele>1249.3706055</ele>
        <time>2010-08-29T15:09:39Z</time>
      </trkpt>
      <trkpt lat="42.1106" lon="9.13525">
        <ele>1251.7739258</ele>
        <time>2010-08-29T15:09:46Z</time>
      </trkpt>
      <trkpt lat="42.11076" lon="9.13526">
        <ele>1256.0996094</ele>
        <time>2010-08-29T15:09:54Z</time>
      </trkpt>
      <trkpt lat="42.11085" lon="9.13522">
        <ele>1253.6965332</ele>
        <time>2010-08-29T15:10:00Z</time>
      </trkpt>
      <trkpt lat="42.11097" lon="9.13523">
        <ele>1250.3320312</ele>
        <time>2010-08-29T15:10:07Z</time>
      </trkpt>
      <trkpt lat="42.11104" lon="9.13521">
        <ele>1249.8513184</ele>
        <time>2010-08-29T15:10:14Z</time>
      </trkpt>
      <trkpt lat="42.11114" lon="9.13518">
        <ele>1243.1218262</ele>
        <time>2010-08-29T15:10:21Z</time>
      </trkpt>
      <trkpt lat="42.11124" lon="9.13519">
        <ele>1247.447998</ele>
        <time>2010-08-29T15:10:27Z</time>
      </trkpt>
      <trkpt lat="42.11131" lon="9.13518">
        <ele>1246.4868164</ele>
        <time>2010-08-29T15:10:32Z</time>
      </trkpt>
      <trkpt lat="42.11144" lon="9.13518">
        <ele>1249.3706055</ele>
        <time>2010-08-29T15:10:39Z</time>
      </trkpt>
      <trkpt lat="42.11149" lon="9.13517">
        <ele>1250.3320312</ele>
        <time>2010-08-29T15:10:42Z</time>
      </trkpt>
      <trkpt lat="42.1116" lon="9.13514">
        <ele>1250.8125</ele>
        <time>2010-08-29T15:10:49Z</time>
      </trkpt>
      <trkpt lat="42.11172" lon="9.1351">
        <ele>1243.1218262</ele>
        <time>2010-08-29T15:10:56Z</time>
      </trkpt>
      <trkpt lat="42.11174" lon="9.1351">
        <ele>1242.1606445</ele>
        <time>2010-08-29T15:10:57Z</time>
      </trkpt>
      <trkpt lat="42.11185" lon="9.13505">
        <ele>1238.7961426</ele>
        <time>2010-08-29T15:11:04Z</time>
      </trkpt>
      <trkpt lat="42.11188" lon="9.13502">
        <ele>1235.9121094</ele>
        <time>2010-08-29T15:11:07Z</time>
      </trkpt>
      <trkpt lat="42.11204" lon="9.1349">
        <ele>1232.0668945</ele>
        <time>2010-08-29T15:11:16Z</time>
      </trkpt>
      <trkpt lat="42.11216" lon="9.1348">
        <ele>1224.3762207</ele>
        <time>2010-08-29T15:11:22Z</time>
      </trkpt>
      <trkpt lat="42.11229" lon="9.13468">
        <ele>1218.1276855</ele>
        <time>2010-08-29T15:11:30Z</time>
      </trkpt>
      <trkpt lat="42.11242" lon="9.13457">
        <ele>1215.2438965</ele>
        <time>2010-08-29T15:11:39Z</time>
      </trkpt>
      <trkpt lat="42.11249" lon="9.13449">
        <ele>1215.7246094</ele>
        <time>2010-08-29T15:11:46Z</time>
      </trkpt>
      <trkpt lat="42.11249" lon="9.13448">
        <ele>1216.685791</ele>
        <time>2010-08-29T15:11:47Z</time>
      </trkpt>
      <trkpt lat="42.1125" lon="9.13433">
        <ele>1217.1665039</ele>
        <time>2010-08-29T15:11:55Z</time>
      </trkpt>
      <trkpt lat="42.11251" lon="9.1342">
        <ele>1211.3984375</ele>
        <time>2010-08-29T15:12:02Z</time>
      </trkpt>
      <trkpt lat="42.11257" lon="9.13408">
        <ele>1210.9177246</ele>
        <time>2010-08-29T15:12:08Z</time>
      </trkpt>
      <trkpt lat="42.11263" lon="9.13396">
        <ele>1212.8405762</ele>
        <time>2010-08-29T15:12:14Z</time>
      </trkpt>
      <trkpt lat="42.11267" lon="9.13384">
        <ele>1212.8405762</ele>
        <time>2010-08-29T15:12:20Z</time>
      </trkpt>
      <trkpt lat="42.11277" lon="9.13372">
        <ele>1215.2438965</ele>
        <time>2010-08-29T15:12:29Z</time>
      </trkpt>
      <trkpt lat="42.11285" lon="9.13368">
        <ele>1222.4536133</ele>
        <time>2010-08-29T15:12:36Z</time>
      </trkpt>
      <trkpt lat="42.1129" lon="9.13363">
        <ele>1224.8569336</ele>
        <time>2010-08-29T15:12:42Z</time>
      </trkpt>
      <trkpt lat="42.11294" lon="9.13362">
        <ele>1224.8569336</ele>
        <time>2010-08-29T15:12:46Z</time>
      </trkpt>
      <trkpt lat="42.11299" lon="9.1336">
        <ele>1222.9343262</ele>
        <time>2010-08-29T15:12:50Z</time>
      </trkpt>
      <trkpt lat="42.11308" lon="9.13363">
        <ele>1215.7246094</ele>
        <time>2010-08-29T15:12:57Z</time>
      </trkpt>
      <trkpt lat="42.11319" lon="9.13363">
        <ele>1223.4150391</ele>
        <time>2010-08-29T15:13:03Z</time>
      </trkpt>
      <trkpt lat="42.11328" lon="9.13356">
        <ele>1231.1057129</ele>
        <time>2010-08-29T15:13:11Z</time>
      </trkpt>
      <trkpt lat="42.11334" lon="9.13343">
        <ele>1228.7023926</ele>
        <time>2010-08-29T15:13:18Z</time>
      </trkpt>
      <trkpt lat="42.11337" lon="9.13337">
        <ele>1228.7023926</ele>
        <time>2010-08-29T15:13:24Z</time>
      </trkpt>
      <trkpt lat="42.11342" lon="9.13328">
        <ele>1229.6635742</ele>
        <time>2010-08-29T15:13:30Z</time>
      </trkpt>
      <trkpt lat="42.11346" lon="9.13315">
        <ele>1228.2216797</ele>
        <time>2010-08-29T15:13:36Z</time>
      </trkpt>
      <trkpt lat="42.11353" lon="9.13306">
        <ele>1222.9343262</ele>
        <time>2010-08-29T15:13:42Z</time>
      </trkpt>
      <trkpt lat="42.11363" lon="9.13294">
        <ele>1219.5698242</ele>
        <time>2010-08-29T15:13:48Z</time>
      </trkpt>
      <trkpt lat="42.11364" lon="9.13292">
        <ele>1219.5698242</ele>
        <time>2010-08-29T15:13:49Z</time>
      </trkpt>
      <trkpt lat="42.11372" lon="9.13284">
        <ele>1222.4536133</ele>
        <time>2010-08-29T15:13:56Z</time>
      </trkpt>
      <trkpt lat="42.11376" lon="9.13273">
        <ele>1218.1276855</ele>
        <time>2010-08-29T15:14:00Z</time>
      </trkpt>
      <trkpt lat="42.11379" lon="9.13267">
        <ele>1219.0891113</ele>
        <time>2010-08-29T15:14:06Z</time>
      </trkpt>
      <trkpt lat="42.1138" lon="9.13265">
        <ele>1219.0891113</ele>
        <time>2010-08-29T15:14:07Z</time>
      </trkpt>
      <trkpt lat="42.11381" lon="9.13264">
        <ele>1219.5698242</ele>
        <time>2010-08-29T15:14:09Z</time>
      </trkpt>
      <trkpt lat="42.1139" lon="9.13261">
        <ele>1222.4536133</ele>
        <time>2010-08-29T15:14:15Z</time>
      </trkpt>
      <trkpt lat="42.11402" lon="9.13261">
        <ele>1227.2602539</ele>
        <time>2010-08-29T15:14:24Z</time>
      </trkpt>
      <trkpt lat="42.11412" lon="9.13261">
        <ele>1231.1057129</ele>
        <time>2010-08-29T15:14:31Z</time>
      </trkpt>
      <trkpt lat="42.11416" lon="9.1326">
        <ele>1233.0280762</ele>
        <time>2010-08-29T15:14:34Z</time>
      </trkpt>
      <trkpt lat="42.11425" lon="9.13245">
        <ele>1226.2988281</ele>
        <time>2010-08-29T15:14:43Z</time>
      </trkpt>
      <trkpt lat="42.11432" lon="9.13237">
        <ele>1223.8955078</ele>
        <time>2010-08-29T15:14:49Z</time>
      </trkpt>
      <trkpt lat="42.11439" lon="9.13234">
        <ele>1222.4536133</ele>
        <time>2010-08-29T15:14:55Z</time>
      </trkpt>
      <trkpt lat="42.11445" lon="9.13227">
        <ele>1217.1665039</ele>
        <time>2010-08-29T15:15:01Z</time>
      </trkpt>
      <trkpt lat="42.11457" lon="9.13218">
        <ele>1210.9177246</ele>
        <time>2010-08-29T15:15:08Z</time>
      </trkpt>
      <trkpt lat="42.11467" lon="9.13212">
        <ele>1208.0339355</ele>
        <time>2010-08-29T15:15:15Z</time>
      </trkpt>
      <trkpt lat="42.11478" lon="9.13208">
        <ele>1208.9951172</ele>
        <time>2010-08-29T15:15:24Z</time>
      </trkpt>
      <trkpt lat="42.11486" lon="9.13204">
        <ele>1208.0339355</ele>
        <time>2010-08-29T15:15:29Z</time>
      </trkpt>
      <trkpt lat="42.11487" lon="9.13203">
        <ele>1207.5532227</ele>
        <time>2010-08-29T15:15:30Z</time>
      </trkpt>
      <trkpt lat="42.11501" lon="9.13193">
        <ele>1207.0725098</ele>
        <time>2010-08-29T15:15:40Z</time>
      </trkpt>
      <trkpt lat="42.11514" lon="9.13187">
        <ele>1206.111084</ele>
        <time>2010-08-29T15:15:47Z</time>
      </trkpt>
      <trkpt lat="42.11524" lon="9.13177">
        <ele>1204.1887207</ele>
        <time>2010-08-29T15:15:55Z</time>
      </trkpt>
      <trkpt lat="42.11525" lon="9.13175">
        <ele>1203.7080078</ele>
        <time>2010-08-29T15:15:56Z</time>
      </trkpt>
      <trkpt lat="42.11527" lon="9.13174">
        <ele>1201.7854004</ele>
        <time>2010-08-29T15:15:59Z</time>
      </trkpt>
      <trkpt lat="42.11528" lon="9.13177">
        <ele>1201.3046875</ele>
        <time>2010-08-29T15:16:04Z</time>
      </trkpt>
      <trkpt lat="42.11526" lon="9.13185">
        <ele>1206.5917969</ele>
        <time>2010-08-29T15:16:11Z</time>
      </trkpt>
      <trkpt lat="42.11527" lon="9.1319">
        <ele>1208.0339355</ele>
        <time>2010-08-29T15:16:14Z</time>
      </trkpt>
      <trkpt lat="42.11531" lon="9.13195">
        <ele>1209.9562988</ele>
        <time>2010-08-29T15:16:19Z</time>
      </trkpt>
      <trkpt lat="42.11534" lon="9.13191">
        <ele>1202.2658691</ele>
        <time>2010-08-29T15:16:27Z</time>
      </trkpt>
      <trkpt lat="42.11527" lon="9.13176">
        <ele>1177.7521973</ele>
        <time>2010-08-29T15:16:47Z</time>
      </trkpt>
      <trkpt lat="42.11532" lon="9.13176">
        <ele>1174.3876953</ele>
        <time>2010-08-29T15:16:55Z</time>
      </trkpt>
      <trkpt lat="42.1154" lon="9.13176">
        <ele>1180.6364746</ele>
        <time>2010-08-29T15:17:01Z</time>
      </trkpt>
      <trkpt lat="42.11544" lon="9.13166">
        <ele>1182.559082</ele>
        <time>2010-08-29T15:17:08Z</time>
      </trkpt>
      <trkpt lat="42.11543" lon="9.13154">
        <ele>1182.559082</ele>
        <time>2010-08-29T15:17:14Z</time>
      </trkpt>
      <trkpt lat="42.11543" lon="9.13142">
        <ele>1188.3269043</ele>
        <time>2010-08-29T15:17:21Z</time>
      </trkpt>
      <trkpt lat="42.11545" lon="9.13136">
        <ele>1193.6140137</ele>
        <time>2010-08-29T15:17:25Z</time>
      </trkpt>
      <trkpt lat="42.11546" lon="9.13135">
        <ele>1197.9401855</ele>
        <time>2010-08-29T15:17:27Z</time>
      </trkpt>
      <trkpt lat="42.11554" lon="9.13125">
        <ele>1201.7854004</ele>
        <time>2010-08-29T15:17:35Z</time>
      </trkpt>
      <trkpt lat="42.11562" lon="9.13117">
        <ele>1199.3820801</ele>
        <time>2010-08-29T15:17:42Z</time>
      </trkpt>
      <trkpt lat="42.11563" lon="9.13114">
        <ele>1197.9401855</ele>
        <time>2010-08-29T15:17:44Z</time>
      </trkpt>
      <trkpt lat="42.11564" lon="9.1311">
        <ele>1194.0947266</ele>
        <time>2010-08-29T15:17:46Z</time>
      </trkpt>
      <trkpt lat="42.11571" lon="9.13106">
        <ele>1190.2495117</ele>
        <time>2010-08-29T15:17:52Z</time>
      </trkpt>
      <trkpt lat="42.11587" lon="9.13105">
        <ele>1195.5366211</ele>
        <time>2010-08-29T15:18:01Z</time>
      </trkpt>
      <trkpt lat="42.11592" lon="9.13105">
        <ele>1197.9401855</ele>
        <time>2010-08-29T15:18:07Z</time>
      </trkpt>
      <trkpt lat="42.11604" lon="9.13103">
        <ele>1196.498291</ele>
        <time>2010-08-29T15:18:14Z</time>
      </trkpt>
      <trkpt lat="42.11618" lon="9.13099">
        <ele>1195.5366211</ele>
        <time>2010-08-29T15:18:21Z</time>
      </trkpt>
      <trkpt lat="42.11627" lon="9.13095">
        <ele>1195.0559082</ele>
        <time>2010-08-29T15:18:28Z</time>
      </trkpt>
      <trkpt lat="42.11636" lon="9.1309">
        <ele>1194.5751953</ele>
        <time>2010-08-29T15:18:34Z</time>
      </trkpt>
      <trkpt lat="42.11643" lon="9.13082">
        <ele>1191.2106934</ele>
        <time>2010-08-29T15:18:40Z</time>
      </trkpt>
      <trkpt lat="42.11651" lon="9.13068">
        <ele>1186.4042969</ele>
        <time>2010-08-29T15:18:47Z</time>
      </trkpt>
      <trkpt lat="42.11657" lon="9.13057">
        <ele>1184.0009766</ele>
        <time>2010-08-29T15:18:53Z</time>
      </trkpt>
      <trkpt lat="42.11667" lon="9.13043">
        <ele>1179.6748047</ele>
        <time>2010-08-29T15:19:02Z</time>
      </trkpt>
      <trkpt lat="42.11675" lon="9.13041">
        <ele>1187.3654785</ele>
        <time>2010-08-29T15:19:10Z</time>
      </trkpt>
      <trkpt lat="42.11685" lon="9.13036">
        <ele>1193.6140137</ele>
        <time>2010-08-29T15:19:17Z</time>
      </trkpt>
      <trkpt lat="42.11697" lon="9.13025">
        <ele>1193.6140137</ele>
        <time>2010-08-29T15:19:26Z</time>
      </trkpt>
      <trkpt lat="42.11706" lon="9.13021">
        <ele>1191.6914062</ele>
        <time>2010-08-29T15:19:32Z</time>
      </trkpt>
      <trkpt lat="42.11717" lon="9.13014">
        <ele>1191.6914062</ele>
        <time>2010-08-29T15:19:40Z</time>
      </trkpt>
      <trkpt lat="42.11725" lon="9.13006">
        <ele>1192.1721191</ele>
        <time>2010-08-29T15:19:47Z</time>
      </trkpt>
      <trkpt lat="42.11734" lon="9.12997">
        <ele>1186.8847656</ele>
        <time>2010-08-29T15:19:54Z</time>
      </trkpt>
      <trkpt lat="42.11743" lon="9.12988">
        <ele>1181.5976562</ele>
        <time>2010-08-29T15:20:02Z</time>
      </trkpt>
      <trkpt lat="42.11754" lon="9.12982">
        <ele>1181.1171875</ele>
        <time>2010-08-29T15:20:09Z</time>
      </trkpt>
      <trkpt lat="42.11764" lon="9.12976">
        <ele>1180.1557617</ele>
        <time>2010-08-29T15:20:16Z</time>
      </trkpt>
      <trkpt lat="42.11768" lon="9.12973">
        <ele>1177.7521973</ele>
        <time>2010-08-29T15:20:20Z</time>
      </trkpt>
      <trkpt lat="42.11774" lon="9.12967">
        <ele>1175.8295898</ele>
        <time>2010-08-29T15:20:26Z</time>
      </trkpt>
      <trkpt lat="42.11787" lon="9.12962">
        <ele>1174.8684082</ele>
        <time>2010-08-29T15:20:34Z</time>
      </trkpt>
      <trkpt lat="42.11791" lon="9.12963">
        <ele>1171.984375</ele>
        <time>2010-08-29T15:20:39Z</time>
      </trkpt>
      <trkpt lat="42.11794" lon="9.12963">
        <ele>1169.5812988</ele>
        <time>2010-08-29T15:20:42Z</time>
      </trkpt>
      <trkpt lat="42.11802" lon="9.12958">
        <ele>1167.1779785</ele>
        <time>2010-08-29T15:20:49Z</time>
      </trkpt>
      <trkpt lat="42.11804" lon="9.1296">
        <ele>1170.5424805</ele>
        <time>2010-08-29T15:20:55Z</time>
      </trkpt>
      <trkpt lat="42.11805" lon="9.12967">
        <ele>1171.984375</ele>
        <time>2010-08-29T15:21:02Z</time>
      </trkpt>
      <trkpt lat="42.11807" lon="9.12967">
        <ele>1169.5812988</ele>
        <time>2010-08-29T15:21:06Z</time>
      </trkpt>
      <trkpt lat="42.11811" lon="9.12964">
        <ele>1169.5812988</ele>
        <time>2010-08-29T15:21:12Z</time>
      </trkpt>
      <trkpt lat="42.11813" lon="9.12962">
        <ele>1166.6972656</ele>
        <time>2010-08-29T15:21:14Z</time>
      </trkpt>
      <trkpt lat="42.11817" lon="9.12954">
        <ele>1160.9291992</ele>
        <time>2010-08-29T15:21:22Z</time>
      </trkpt>
      <trkpt lat="42.11817" lon="9.12941">
        <ele>1157.0839844</ele>
        <time>2010-08-29T15:21:29Z</time>
      </trkpt>
      <trkpt lat="42.11816" lon="9.12934">
        <ele>1157.5646973</ele>
        <time>2010-08-29T15:21:35Z</time>
      </trkpt>
      <trkpt lat="42.11817" lon="9.12919">
        <ele>1156.1225586</ele>
        <time>2010-08-29T15:21:44Z</time>
      </trkpt>
      <trkpt lat="42.11818" lon="9.12907">
        <ele>1153.7194824</ele>
        <time>2010-08-29T15:21:51Z</time>
      </trkpt>
      <trkpt lat="42.11814" lon="9.12894">
        <ele>1150.3549805</ele>
        <time>2010-08-29T15:21:58Z</time>
      </trkpt>
      <trkpt lat="42.11812" lon="9.12883">
        <ele>1146.5095215</ele>
        <time>2010-08-29T15:22:03Z</time>
      </trkpt>
      <trkpt lat="42.11808" lon="9.12873">
        <ele>1146.0288086</ele>
        <time>2010-08-29T15:22:08Z</time>
      </trkpt>
      <trkpt lat="42.11808" lon="9.12866">
        <ele>1146.9899902</ele>
        <time>2010-08-29T15:22:12Z</time>
      </trkpt>
      <trkpt lat="42.11806" lon="9.1286">
        <ele>1150.3549805</ele>
        <time>2010-08-29T15:22:17Z</time>
      </trkpt>
      <trkpt lat="42.11803" lon="9.12852">
        <ele>1147.951416</ele>
        <time>2010-08-29T15:22:22Z</time>
      </trkpt>
      <trkpt lat="42.118" lon="9.12842">
        <ele>1143.1447754</ele>
        <time>2010-08-29T15:22:28Z</time>
      </trkpt>
      <trkpt lat="42.11803" lon="9.12827">
        <ele>1147.951416</ele>
        <time>2010-08-29T15:22:35Z</time>
      </trkpt>
      <trkpt lat="42.11804" lon="9.12825">
        <ele>1149.8742676</ele>
        <time>2010-08-29T15:22:36Z</time>
      </trkpt>
      <trkpt lat="42.11797" lon="9.12808">
        <ele>1141.7028809</ele>
        <time>2010-08-29T15:22:43Z</time>
      </trkpt>
      <trkpt lat="42.11794" lon="9.12798">
        <ele>1144.5866699</ele>
        <time>2010-08-29T15:22:48Z</time>
      </trkpt>
      <trkpt lat="42.11793" lon="9.12791">
        <ele>1150.3549805</ele>
        <time>2010-08-29T15:22:53Z</time>
      </trkpt>
      <trkpt lat="42.11787" lon="9.1278">
        <ele>1148.9128418</ele>
        <time>2010-08-29T15:22:59Z</time>
      </trkpt>
      <trkpt lat="42.11778" lon="9.12771">
        <ele>1138.3383789</ele>
        <time>2010-08-29T15:23:05Z</time>
      </trkpt>
      <trkpt lat="42.11777" lon="9.12769">
        <ele>1137.857666</ele>
        <time>2010-08-29T15:23:06Z</time>
      </trkpt>
      <trkpt lat="42.11772" lon="9.1276">
        <ele>1140.2609863</ele>
        <time>2010-08-29T15:23:11Z</time>
      </trkpt>
      <trkpt lat="42.11767" lon="9.12747">
        <ele>1134.0124512</ele>
        <time>2010-08-29T15:23:18Z</time>
      </trkpt>
      <trkpt lat="42.11767" lon="9.12745">
        <ele>1133.5317383</ele>
        <time>2010-08-29T15:23:19Z</time>
      </trkpt>
      <trkpt lat="42.11766" lon="9.12738">
        <ele>1131.128418</ele>
        <time>2010-08-29T15:23:22Z</time>
      </trkpt>
      <trkpt lat="42.11772" lon="9.12725">
        <ele>1136.8962402</ele>
        <time>2010-08-29T15:23:26Z</time>
      </trkpt>
      <trkpt lat="42.11775" lon="9.12706">
        <ele>1140.7414551</ele>
        <time>2010-08-29T15:23:33Z</time>
      </trkpt>
      <trkpt lat="42.11775" lon="9.12694">
        <ele>1146.0288086</ele>
        <time>2010-08-29T15:23:38Z</time>
      </trkpt>
      <trkpt lat="42.11775" lon="9.1269">
        <ele>1146.5095215</ele>
        <time>2010-08-29T15:23:40Z</time>
      </trkpt>
      <trkpt lat="42.11766" lon="9.12681">
        <ele>1142.1835938</ele>
        <time>2010-08-29T15:23:46Z</time>
      </trkpt>
      <trkpt lat="42.11762" lon="9.12674">
        <ele>1140.7414551</ele>
        <time>2010-08-29T15:23:50Z</time>
      </trkpt>
      <trkpt lat="42.11754" lon="9.12667">
        <ele>1135.9350586</ele>
        <time>2010-08-29T15:23:56Z</time>
      </trkpt>
      <trkpt lat="42.11752" lon="9.12663">
        <ele>1138.3383789</ele>
        <time>2010-08-29T15:23:59Z</time>
      </trkpt>
      <trkpt lat="42.11746" lon="9.12656">
        <ele>1146.0288086</ele>
        <time>2010-08-29T15:24:06Z</time>
      </trkpt>
      <trkpt lat="42.11744" lon="9.12655">
        <ele>1146.0288086</ele>
        <time>2010-08-29T15:24:07Z</time>
      </trkpt>
      <trkpt lat="42.11738" lon="9.12653">
        <ele>1143.1447754</ele>
        <time>2010-08-29T15:24:10Z</time>
      </trkpt>
      <trkpt lat="42.11725" lon="9.12644">
        <ele>1137.3769531</ele>
        <time>2010-08-29T15:24:18Z</time>
      </trkpt>
      <trkpt lat="42.11716" lon="9.12633">
        <ele>1134.4931641</ele>
        <time>2010-08-29T15:24:26Z</time>
      </trkpt>
      <trkpt lat="42.1171" lon="9.12623">
        <ele>1134.0124512</ele>
        <time>2010-08-29T15:24:33Z</time>
      </trkpt>
      <trkpt lat="42.11708" lon="9.12619">
        <ele>1134.0124512</ele>
        <time>2010-08-29T15:24:36Z</time>
      </trkpt>
      <trkpt lat="42.11704" lon="9.12613">
        <ele>1142.6643066</ele>
        <time>2010-08-29T15:24:43Z</time>
      </trkpt>
      <trkpt lat="42.11699" lon="9.12609">
        <ele>1143.6254883</ele>
        <time>2010-08-29T15:24:48Z</time>
      </trkpt>
      <trkpt lat="42.11689" lon="9.12605">
        <ele>1144.1062012</ele>
        <time>2010-08-29T15:24:54Z</time>
      </trkpt>
      <trkpt lat="42.11687" lon="9.12604">
        <ele>1143.6254883</ele>
        <time>2010-08-29T15:24:55Z</time>
      </trkpt>
      <trkpt lat="42.11683" lon="9.12604">
        <ele>1139.2995605</ele>
        <time>2010-08-29T15:24:57Z</time>
      </trkpt>
      <trkpt lat="42.11676" lon="9.12601">
        <ele>1139.7802734</ele>
        <time>2010-08-29T15:25:03Z</time>
      </trkpt>
      <trkpt lat="42.11662" lon="9.12599">
        <ele>1135.4543457</ele>
        <time>2010-08-29T15:25:09Z</time>
      </trkpt>
      <trkpt lat="42.11657" lon="9.12597">
        <ele>1130.6477051</ele>
        <time>2010-08-29T15:25:15Z</time>
      </trkpt>
      <trkpt lat="42.11655" lon="9.12595">
        <ele>1132.0898438</ele>
        <time>2010-08-29T15:25:19Z</time>
      </trkpt>
      <trkpt lat="42.11647" lon="9.12593">
        <ele>1131.6088867</ele>
        <time>2010-08-29T15:25:25Z</time>
      </trkpt>
      <trkpt lat="42.11644" lon="9.12585">
        <ele>1125.3603516</ele>
        <time>2010-08-29T15:25:31Z</time>
      </trkpt>
      <trkpt lat="42.11637" lon="9.12575">
        <ele>1139.2995605</ele>
        <time>2010-08-29T15:25:38Z</time>
      </trkpt>
      <trkpt lat="42.11633" lon="9.12569">
        <ele>1140.7414551</ele>
        <time>2010-08-29T15:25:41Z</time>
      </trkpt>
      <trkpt lat="42.11633" lon="9.12557">
        <ele>1146.0288086</ele>
        <time>2010-08-29T15:25:47Z</time>
      </trkpt>
      <trkpt lat="42.11632" lon="9.12552">
        <ele>1153.7194824</ele>
        <time>2010-08-29T15:25:51Z</time>
      </trkpt>
      <trkpt lat="42.11625" lon="9.12544">
        <ele>1159.0065918</ele>
        <time>2010-08-29T15:25:58Z</time>
      </trkpt>
      <trkpt lat="42.11621" lon="9.12538">
        <ele>1166.6972656</ele>
        <time>2010-08-29T15:26:03Z</time>
      </trkpt>
      <trkpt lat="42.11615" lon="9.12535">
        <ele>1161.4099121</ele>
        <time>2010-08-29T15:26:06Z</time>
      </trkpt>
      <trkpt lat="42.11607" lon="9.12523">
        <ele>1154.2001953</ele>
        <time>2010-08-29T15:26:12Z</time>
      </trkpt>
      <trkpt lat="42.11603" lon="9.12514">
        <ele>1156.6032715</ele>
        <time>2010-08-29T15:26:17Z</time>
      </trkpt>
      <trkpt lat="42.116" lon="9.12508">
        <ele>1157.5646973</ele>
        <time>2010-08-29T15:26:20Z</time>
      </trkpt>
      <trkpt lat="42.116" lon="9.125">
        <ele>1161.4099121</ele>
        <time>2010-08-29T15:26:24Z</time>
      </trkpt>
      <trkpt lat="42.11599" lon="9.12494">
        <ele>1165.2553711</ele>
        <time>2010-08-29T15:26:27Z</time>
      </trkpt>
      <trkpt lat="42.11594" lon="9.12481">
        <ele>1161.890625</ele>
        <time>2010-08-29T15:26:33Z</time>
      </trkpt>
      <trkpt lat="42.11588" lon="9.12469">
        <ele>1164.2939453</ele>
        <time>2010-08-29T15:26:39Z</time>
      </trkpt>
      <trkpt lat="42.11586" lon="9.12468">
        <ele>1164.7746582</ele>
        <time>2010-08-29T15:26:40Z</time>
      </trkpt>
      <trkpt lat="42.1157" lon="9.12459">
        <ele>1161.4099121</ele>
        <time>2010-08-29T15:26:48Z</time>
      </trkpt>
      <trkpt lat="42.11569" lon="9.12457">
        <ele>1160.9291992</ele>
        <time>2010-08-29T15:26:49Z</time>
      </trkpt>
      <trkpt lat="42.11561" lon="9.12443">
        <ele>1159.0065918</ele>
        <time>2010-08-29T15:26:58Z</time>
      </trkpt>
      <trkpt lat="42.11554" lon="9.12437">
        <ele>1153.7194824</ele>
        <time>2010-08-29T15:27:03Z</time>
      </trkpt>
      <trkpt lat="42.11547" lon="9.12428">
        <ele>1152.2773438</ele>
        <time>2010-08-29T15:27:09Z</time>
      </trkpt>
      <trkpt lat="42.11543" lon="9.12418">
        <ele>1164.2939453</ele>
        <time>2010-08-29T15:27:16Z</time>
      </trkpt>
      <trkpt lat="42.11537" lon="9.12408">
        <ele>1172.4650879</ele>
        <time>2010-08-29T15:27:23Z</time>
      </trkpt>
      <trkpt lat="42.11536" lon="9.12405">
        <ele>1173.9069824</ele>
        <time>2010-08-29T15:27:25Z</time>
      </trkpt>
      <trkpt lat="42.11535" lon="9.12393">
        <ele>1181.1171875</ele>
        <time>2010-08-29T15:27:32Z</time>
      </trkpt>
      <trkpt lat="42.11522" lon="9.12385">
        <ele>1177.7521973</ele>
        <time>2010-08-29T15:27:39Z</time>
      </trkpt>
      <trkpt lat="42.11513" lon="9.1237">
        <ele>1168.619873</ele>
        <time>2010-08-29T15:27:46Z</time>
      </trkpt>
      <trkpt lat="42.11498" lon="9.12357">
        <ele>1155.161377</ele>
        <time>2010-08-29T15:27:53Z</time>
      </trkpt>
      <trkpt lat="42.11489" lon="9.12347">
        <ele>1147.951416</ele>
        <time>2010-08-29T15:27:59Z</time>
      </trkpt>
      <trkpt lat="42.11481" lon="9.12342">
        <ele>1147.951416</ele>
        <time>2010-08-29T15:28:05Z</time>
      </trkpt>
      <trkpt lat="42.11474" lon="9.12336">
        <ele>1147.4707031</ele>
        <time>2010-08-29T15:28:10Z</time>
      </trkpt>
      <trkpt lat="42.11472" lon="9.12324">
        <ele>1162.3710938</ele>
        <time>2010-08-29T15:28:17Z</time>
      </trkpt>
      <trkpt lat="42.11471" lon="9.12322">
        <ele>1164.7746582</ele>
        <time>2010-08-29T15:28:18Z</time>
      </trkpt>
      <trkpt lat="42.1147" lon="9.12316">
        <ele>1169.1005859</ele>
        <time>2010-08-29T15:28:21Z</time>
      </trkpt>
      <trkpt lat="42.11466" lon="9.12308">
        <ele>1174.3876953</ele>
        <time>2010-08-29T15:28:27Z</time>
      </trkpt>
      <trkpt lat="42.1146" lon="9.12307">
        <ele>1175.348877</ele>
        <time>2010-08-29T15:28:31Z</time>
      </trkpt>
      <trkpt lat="42.11455" lon="9.12298">
        <ele>1167.1779785</ele>
        <time>2010-08-29T15:28:38Z</time>
      </trkpt>
      <trkpt lat="42.11454" lon="9.12289">
        <ele>1159.0065918</ele>
        <time>2010-08-29T15:28:45Z</time>
      </trkpt>
      <trkpt lat="42.11452" lon="9.12282">
        <ele>1150.3549805</ele>
        <time>2010-08-29T15:28:51Z</time>
      </trkpt>
      <trkpt lat="42.11452" lon="9.12272">
        <ele>1147.4707031</ele>
        <time>2010-08-29T15:28:56Z</time>
      </trkpt>
      <trkpt lat="42.11458" lon="9.12264">
        <ele>1154.6806641</ele>
        <time>2010-08-29T15:29:01Z</time>
      </trkpt>
      <trkpt lat="42.11456" lon="9.12262">
        <ele>1153.7194824</ele>
        <time>2010-08-29T15:29:06Z</time>
      </trkpt>
      <trkpt lat="42.11451" lon="9.12254">
        <ele>1158.0454102</ele>
        <time>2010-08-29T15:29:13Z</time>
      </trkpt>
      <trkpt lat="42.11454" lon="9.12244">
        <ele>1165.736084</ele>
        <time>2010-08-29T15:29:18Z</time>
      </trkpt>
      <trkpt lat="42.11449" lon="9.1223">
        <ele>1163.8129883</ele>
        <time>2010-08-29T15:29:25Z</time>
      </trkpt>
      <trkpt lat="42.11447" lon="9.12223">
        <ele>1164.7746582</ele>
        <time>2010-08-29T15:29:29Z</time>
      </trkpt>
      <trkpt lat="42.11449" lon="9.12217">
        <ele>1174.8684082</ele>
        <time>2010-08-29T15:29:34Z</time>
      </trkpt>
      <trkpt lat="42.11446" lon="9.12208">
        <ele>1179.1940918</ele>
        <time>2010-08-29T15:29:41Z</time>
      </trkpt>
      <trkpt lat="42.11446" lon="9.12204">
        <ele>1180.1557617</ele>
        <time>2010-08-29T15:29:43Z</time>
      </trkpt>
      <trkpt lat="42.11434" lon="9.12194">
        <ele>1179.1940918</ele>
        <time>2010-08-29T15:29:51Z</time>
      </trkpt>
      <trkpt lat="42.11433" lon="9.12191">
        <ele>1187.8461914</ele>
        <time>2010-08-29T15:29:55Z</time>
      </trkpt>
      <trkpt lat="42.11426" lon="9.12186">
        <ele>1187.3654785</ele>
        <time>2010-08-29T15:30:02Z</time>
      </trkpt>
      <trkpt lat="42.11411" lon="9.12179">
        <ele>1185.4428711</ele>
        <time>2010-08-29T15:30:10Z</time>
      </trkpt>
      <trkpt lat="42.11399" lon="9.12175">
        <ele>1181.1171875</ele>
        <time>2010-08-29T15:30:15Z</time>
      </trkpt>
      <trkpt lat="42.11392" lon="9.12173">
        <ele>1180.6364746</ele>
        <time>2010-08-29T15:30:20Z</time>
      </trkpt>
      <trkpt lat="42.11394" lon="9.12166">
        <ele>1185.923584</ele>
        <time>2010-08-29T15:30:24Z</time>
      </trkpt>
      <trkpt lat="42.11393" lon="9.12155">
        <ele>1192.652832</ele>
        <time>2010-08-29T15:30:29Z</time>
      </trkpt>
      <trkpt lat="42.11393" lon="9.12141">
        <ele>1194.5751953</ele>
        <time>2010-08-29T15:30:36Z</time>
      </trkpt>
      <trkpt lat="42.11395" lon="9.12122">
        <ele>1195.5366211</ele>
        <time>2010-08-29T15:30:43Z</time>
      </trkpt>
      <trkpt lat="42.11392" lon="9.12116">
        <ele>1196.0175781</ele>
        <time>2010-08-29T15:30:46Z</time>
      </trkpt>
      <trkpt lat="42.11391" lon="9.1211">
        <ele>1195.0559082</ele>
        <time>2010-08-29T15:30:49Z</time>
      </trkpt>
      <trkpt lat="42.11387" lon="9.12096">
        <ele>1198.4206543</ele>
        <time>2010-08-29T15:30:56Z</time>
      </trkpt>
      <trkpt lat="42.11382" lon="9.12096">
        <ele>1190.2495117</ele>
        <time>2010-08-29T15:30:57Z</time>
      </trkpt>
      <trkpt lat="42.11372" lon="9.12093">
        <ele>1157.0839844</ele>
        <time>2010-08-29T15:31:04Z</time>
      </trkpt>
      <trkpt lat="42.1137" lon="9.12093">
        <ele>1143.1447754</ele>
        <time>2010-08-29T15:31:08Z</time>
      </trkpt>
      <trkpt lat="42.11368" lon="9.12094">
        <ele>1126.3217773</ele>
        <time>2010-08-29T15:31:13Z</time>
      </trkpt>
      <trkpt lat="42.11369" lon="9.12092">
        <ele>1117.6699219</ele>
        <time>2010-08-29T15:31:17Z</time>
      </trkpt>
      <trkpt lat="42.11372" lon="9.12086">
        <ele>1113.8244629</ele>
        <time>2010-08-29T15:31:21Z</time>
      </trkpt>
      <trkpt lat="42.11381" lon="9.12075">
        <ele>1117.6699219</ele>
        <time>2010-08-29T15:31:26Z</time>
      </trkpt>
      <trkpt lat="42.1139" lon="9.12065">
        <ele>1116.7087402</ele>
        <time>2010-08-29T15:31:33Z</time>
      </trkpt>
      <trkpt lat="42.11392" lon="9.12062">
        <ele>1119.1120605</ele>
        <time>2010-08-29T15:31:34Z</time>
      </trkpt>
      <trkpt lat="42.114" lon="9.12041">
        <ele>1138.8190918</ele>
        <time>2010-08-29T15:31:42Z</time>
      </trkpt>
      <trkpt lat="42.11407" lon="9.12024">
        <ele>1158.0454102</ele>
        <time>2010-08-29T15:31:50Z</time>
      </trkpt>
      <trkpt lat="42.11408" lon="9.12022">
        <ele>1160.4484863</ele>
        <time>2010-08-29T15:31:51Z</time>
      </trkpt>
      <trkpt lat="42.11411" lon="9.12006">
        <ele>1170.5424805</ele>
        <time>2010-08-29T15:31:59Z</time>
      </trkpt>
      <trkpt lat="42.11406" lon="9.1199">
        <ele>1165.2553711</ele>
        <time>2010-08-29T15:32:06Z</time>
      </trkpt>
      <trkpt lat="42.114" lon="9.11973">
        <ele>1165.736084</ele>
        <time>2010-08-29T15:32:16Z</time>
      </trkpt>
      <trkpt lat="42.11399" lon="9.11972">
        <ele>1166.6972656</ele>
        <time>2010-08-29T15:32:17Z</time>
      </trkpt>
      <trkpt lat="42.11395" lon="9.11971">
        <ele>1169.1005859</ele>
        <time>2010-08-29T15:32:21Z</time>
      </trkpt>
      <trkpt lat="42.11393" lon="9.11963">
        <ele>1169.5812988</ele>
        <time>2010-08-29T15:32:25Z</time>
      </trkpt>
      <trkpt lat="42.11396" lon="9.11947">
        <ele>1186.4042969</ele>
        <time>2010-08-29T15:32:34Z</time>
      </trkpt>
      <trkpt lat="42.11393" lon="9.11944">
        <ele>1187.8461914</ele>
        <time>2010-08-29T15:32:36Z</time>
      </trkpt>
      <trkpt lat="42.11385" lon="9.11937">
        <ele>1191.6914062</ele>
        <time>2010-08-29T15:32:42Z</time>
      </trkpt>
      <trkpt lat="42.11383" lon="9.11936">
        <ele>1193.6140137</ele>
        <time>2010-08-29T15:32:44Z</time>
      </trkpt>
      <trkpt lat="42.11373" lon="9.11928">
        <ele>1190.2495117</ele>
        <time>2010-08-29T15:32:50Z</time>
      </trkpt>
      <trkpt lat="42.11371" lon="9.11926">
        <ele>1187.3654785</ele>
        <time>2010-08-29T15:32:51Z</time>
      </trkpt>
      <trkpt lat="42.1137" lon="9.11922">
        <ele>1183.0395508</ele>
        <time>2010-08-29T15:32:53Z</time>
      </trkpt>
      <trkpt lat="42.11364" lon="9.11903">
        <ele>1165.2553711</ele>
        <time>2010-08-29T15:32:59Z</time>
      </trkpt>
      <trkpt lat="42.11351" lon="9.11897">
        <ele>1153.2387695</ele>
        <time>2010-08-29T15:33:04Z</time>
      </trkpt>
      <trkpt lat="42.11345" lon="9.11895">
        <ele>1147.4707031</ele>
        <time>2010-08-29T15:33:07Z</time>
      </trkpt>
      <trkpt lat="42.11323" lon="9.11894">
        <ele>1128.2443848</ele>
        <time>2010-08-29T15:33:15Z</time>
      </trkpt>
      <trkpt lat="42.11318" lon="9.11892">
        <ele>1129.6862793</ele>
        <time>2010-08-29T15:33:19Z</time>
      </trkpt>
      <trkpt lat="42.11321" lon="9.11878">
        <ele>1155.6420898</ele>
        <time>2010-08-29T15:33:27Z</time>
      </trkpt>
      <trkpt lat="42.11322" lon="9.11863">
        <ele>1169.5812988</ele>
        <time>2010-08-29T15:33:35Z</time>
      </trkpt>
      <trkpt lat="42.11324" lon="9.11859">
        <ele>1174.3876953</ele>
        <time>2010-08-29T15:33:37Z</time>
      </trkpt>
      <trkpt lat="42.11323" lon="9.11846">
        <ele>1176.3103027</ele>
        <time>2010-08-29T15:33:44Z</time>
      </trkpt>
      <trkpt lat="42.11322" lon="9.11836">
        <ele>1175.348877</ele>
        <time>2010-08-29T15:33:48Z</time>
      </trkpt>
      <trkpt lat="42.11321" lon="9.11824">
        <ele>1166.2165527</ele>
        <time>2010-08-29T15:33:55Z</time>
      </trkpt>
      <trkpt lat="42.11321" lon="9.11819">
        <ele>1168.619873</ele>
        <time>2010-08-29T15:33:58Z</time>
      </trkpt>
      <trkpt lat="42.11316" lon="9.11808">
        <ele>1172.9458008</ele>
        <time>2010-08-29T15:34:04Z</time>
      </trkpt>
      <trkpt lat="42.11311" lon="9.11799">
        <ele>1180.6364746</ele>
        <time>2010-08-29T15:34:09Z</time>
      </trkpt>
      <trkpt lat="42.11304" lon="9.11787">
        <ele>1177.7521973</ele>
        <time>2010-08-29T15:34:16Z</time>
      </trkpt>
      <trkpt lat="42.11302" lon="9.11775">
        <ele>1177.2717285</ele>
        <time>2010-08-29T15:34:21Z</time>
      </trkpt>
      <trkpt lat="42.11301" lon="9.11769">
        <ele>1179.1940918</ele>
        <time>2010-08-29T15:34:24Z</time>
      </trkpt>
      <trkpt lat="42.11301" lon="9.11751">
        <ele>1179.6748047</ele>
        <time>2010-08-29T15:34:30Z</time>
      </trkpt>
      <trkpt lat="42.11301" lon="9.1173">
        <ele>1172.4650879</ele>
        <time>2010-08-29T15:34:37Z</time>
      </trkpt>
      <trkpt lat="42.11298" lon="9.11714">
        <ele>1169.5812988</ele>
        <time>2010-08-29T15:34:43Z</time>
      </trkpt>
      <trkpt lat="42.11298" lon="9.11706">
        <ele>1179.6748047</ele>
        <time>2010-08-29T15:34:49Z</time>
      </trkpt>
      <trkpt lat="42.1129" lon="9.1169">
        <ele>1179.6748047</ele>
        <time>2010-08-29T15:34:55Z</time>
      </trkpt>
      <trkpt lat="42.11289" lon="9.11679">
        <ele>1181.1171875</ele>
        <time>2010-08-29T15:35:01Z</time>
      </trkpt>
      <trkpt lat="42.11288" lon="9.11676">
        <ele>1179.6748047</ele>
        <time>2010-08-29T15:35:02Z</time>
      </trkpt>
      <trkpt lat="42.11287" lon="9.1166">
        <ele>1182.0783691</ele>
        <time>2010-08-29T15:35:09Z</time>
      </trkpt>
      <trkpt lat="42.11285" lon="9.1165">
        <ele>1189.7687988</ele>
        <time>2010-08-29T15:35:15Z</time>
      </trkpt>
      <trkpt lat="42.11285" lon="9.11649">
        <ele>1192.1721191</ele>
        <time>2010-08-29T15:35:16Z</time>
      </trkpt>
      <trkpt lat="42.11287" lon="9.11637">
        <ele>1201.7854004</ele>
        <time>2010-08-29T15:35:23Z</time>
      </trkpt>
      <trkpt lat="42.11284" lon="9.11628">
        <ele>1197.4594727</ele>
        <time>2010-08-29T15:35:28Z</time>
      </trkpt>
      <trkpt lat="42.11278" lon="9.11617">
        <ele>1194.0947266</ele>
        <time>2010-08-29T15:35:35Z</time>
      </trkpt>
      <trkpt lat="42.11266" lon="9.11612">
        <ele>1188.8076172</ele>
        <time>2010-08-29T15:35:40Z</time>
      </trkpt>
      <trkpt lat="42.11263" lon="9.11605">
        <ele>1185.4428711</ele>
        <time>2010-08-29T15:35:44Z</time>
      </trkpt>
      <trkpt lat="42.11253" lon="9.11599">
        <ele>1179.1940918</ele>
        <time>2010-08-29T15:35:49Z</time>
      </trkpt>
      <trkpt lat="42.11246" lon="9.11582">
        <ele>1168.619873</ele>
        <time>2010-08-29T15:35:58Z</time>
      </trkpt>
      <trkpt lat="42.1125" lon="9.11568">
        <ele>1170.5424805</ele>
        <time>2010-08-29T15:36:04Z</time>
      </trkpt>
      <trkpt lat="42.11249" lon="9.11553">
        <ele>1168.1391602</ele>
        <time>2010-08-29T15:36:10Z</time>
      </trkpt>
      <trkpt lat="42.11249" lon="9.11547">
        <ele>1167.6584473</ele>
        <time>2010-08-29T15:36:13Z</time>
      </trkpt>
      <trkpt lat="42.11245" lon="9.11542">
        <ele>1166.2165527</ele>
        <time>2010-08-29T15:36:15Z</time>
      </trkpt>
      <trkpt lat="42.11246" lon="9.11533">
        <ele>1170.0617676</ele>
        <time>2010-08-29T15:36:19Z</time>
      </trkpt>
      <trkpt lat="42.11238" lon="9.11518">
        <ele>1168.1391602</ele>
        <time>2010-08-29T15:36:27Z</time>
      </trkpt>
      <trkpt lat="42.11238" lon="9.11508">
        <ele>1170.0617676</ele>
        <time>2010-08-29T15:36:31Z</time>
      </trkpt>
      <trkpt lat="42.11236" lon="9.11497">
        <ele>1176.7910156</ele>
        <time>2010-08-29T15:36:37Z</time>
      </trkpt>
      <trkpt lat="42.11237" lon="9.11488">
        <ele>1182.0783691</ele>
        <time>2010-08-29T15:36:41Z</time>
      </trkpt>
      <trkpt lat="42.11239" lon="9.11475">
        <ele>1184.0009766</ele>
        <time>2010-08-29T15:36:47Z</time>
      </trkpt>
      <trkpt lat="42.11236" lon="9.11468">
        <ele>1177.2717285</ele>
        <time>2010-08-29T15:36:50Z</time>
      </trkpt>
      <trkpt lat="42.11235" lon="9.11456">
        <ele>1171.984375</ele>
        <time>2010-08-29T15:36:55Z</time>
      </trkpt>
      <trkpt lat="42.11231" lon="9.11441">
        <ele>1167.1779785</ele>
        <time>2010-08-29T15:37:01Z</time>
      </trkpt>
      <trkpt lat="42.1123" lon="9.11435">
        <ele>1165.736084</ele>
        <time>2010-08-29T15:37:04Z</time>
      </trkpt>
      <trkpt lat="42.11228" lon="9.11423">
        <ele>1162.8518066</ele>
        <time>2010-08-29T15:37:10Z</time>
      </trkpt>
      <trkpt lat="42.11232" lon="9.11404">
        <ele>1162.3710938</ele>
        <time>2010-08-29T15:37:18Z</time>
      </trkpt>
      <trkpt lat="42.11234" lon="9.11387">
        <ele>1163.3325195</ele>
        <time>2010-08-29T15:37:26Z</time>
      </trkpt>
      <trkpt lat="42.11236" lon="9.11361">
        <ele>1162.8518066</ele>
        <time>2010-08-29T15:37:35Z</time>
      </trkpt>
      <trkpt lat="42.11235" lon="9.11337">
        <ele>1166.6972656</ele>
        <time>2010-08-29T15:37:46Z</time>
      </trkpt>
      <trkpt lat="42.11229" lon="9.11319">
        <ele>1173.9069824</ele>
        <time>2010-08-29T15:37:56Z</time>
      </trkpt>
      <trkpt lat="42.11229" lon="9.11316">
        <ele>1174.8684082</ele>
        <time>2010-08-29T15:37:57Z</time>
      </trkpt>
      <trkpt lat="42.11225" lon="9.11306">
        <ele>1183.5202637</ele>
        <time>2010-08-29T15:38:04Z</time>
      </trkpt>
      <trkpt lat="42.11226" lon="9.11292">
        <ele>1174.3876953</ele>
        <time>2010-08-29T15:38:11Z</time>
      </trkpt>
      <trkpt lat="42.11228" lon="9.1129">
        <ele>1171.984375</ele>
        <time>2010-08-29T15:38:17Z</time>
      </trkpt>
      <trkpt lat="42.11237" lon="9.11284">
        <ele>1157.0839844</ele>
        <time>2010-08-29T15:38:32Z</time>
      </trkpt>
      <trkpt lat="42.11234" lon="9.11297">
        <ele>1172.9458008</ele>
        <time>2010-08-29T15:38:42Z</time>
      </trkpt>
      <trkpt lat="42.11234" lon="9.1129">
        <ele>1167.6584473</ele>
        <time>2010-08-29T15:38:56Z</time>
      </trkpt>
    </trkseg>
  </trk>
</gpx>